# Wetter Temperatur Luftdruck Luftfeuchtigkeit Sichtweite Windgeschwindigkeit Windrichtung Zeit
1 Clear 16 999 85 10000 1.54 80 10:55 14.08.2022
2 Clear 18 998 83 10000 0 0 08:52 14.08.2022
3 Clear 21 998 67 10000 1.54 20 06:22 14.08.2022
4 Clear 23 999 60 10000 1.54 110 03:36 14.08.2022
5 Clear 22 1000 59 10000 2.06 140 00:33 14.08.2022
6 Clear 22 1001 64 10000 0.89 100 22:56 13.08.2022
7 Clear 22 1001 64 10000 0.89 100 22:56 13.08.2022
8 Clear 20 1002 68 10000 2.06 80 21:47 13.08.2022
9 Clear 18 1002 74 10000 2.57 100 20:47 13.08.2022
10 Clear 16 1003 79 10000 2.06 70 19:46 13.08.2022
11 Clouds 14 1003 84 10000 2.57 70 18:19 13.08.2022
12 Clear 13 1004 88 10000 2.06 90 15:40 13.08.2022
13 Clear 13 1003 89 10000 1.54 90 14:32 13.08.2022
14 Clear 15 1003 83 10000 0 0 13:46 13.08.2022
15 Clear 16 1003 81 10000 2.06 40 11:53 13.08.2022
16 Clouds 17 1003 77 10000 2.06 130 10:33 13.08.2022
17 Clouds 19 1003 72 10000 0 0 09:22 13.08.2022
18 Clouds 24 1004 50 10000 2.06 350 05:57 13.08.2022
19 Clear 23 1008 49 10000 2.06 220 00:36 13.08.2022
20 Clouds 20 1009 55 10000 0 0 22:26 12.08.2022
21 Clouds 18 1009 60 10000 1.54 50 21:20 12.08.2022
22 Clouds 15 1009 74 10000 1.54 100 19:44 12.08.2022
23 Clouds 13 1009 79 10000 0.71 113 18:58 12.08.2022
24 Clouds 11 1010 81 10000 2.57 60 17:57 12.08.2022
25 Clouds 10 1010 82 10000 2.06 70 16:25 12.08.2022
26 Clouds 10 1010 82 10000 2.06 90 14:50 12.08.2022
27 Clouds 10 1011 82 10000 0.45 76 12:59 12.08.2022
28 Clear 11 1011 78 10000 0 0 11:39 12.08.2022
29 Clear 16 1011 66 10000 0 0 08:47 12.08.2022
30 Clear 19 1011 53 10000 2.06 40 07:44 12.08.2022
31 Clear 21 1012 38 10000 2.06 100 03:41 12.08.2022
32 Clouds 20 1014 44 10000 2.57 80 00:31 12.08.2022
33 Clouds 19 1014 49 10000 1.54 80 23:42 11.08.2022
34 Clear 18 1015 53 10000 2.06 110 22:37 11.08.2022
35 Clear 16 1015 59 10000 0 0 21:47 11.08.2022
36 Clear 15 1015 61 10000 0 0 21:22 11.08.2022
37 Clear 13 1015 66 10000 0 0 20:29 11.08.2022
38 Clear 10 1015 72 10000 0 0 19:33 11.08.2022
39 Clear 9 1015 77 10000 2.06 70 18:39 11.08.2022
40 Clear 6 1014 82 10000 2.06 70 16:42 11.08.2022
41 Clear 5 1015 88 10000 2.06 50 15:37 11.08.2022
42 Clear 6 1014 85 10000 2.06 100 13:51 11.08.2022
43 Clear 8 1014 82 10000 3.09 60 11:51 11.08.2022
44 Clear 13 1014 67 10000 1.54 280 08:34 11.08.2022
45 Clear 18 1015 44 10000 1.54 190 04:53 11.08.2022
46 Clear 17 1016 47 10000 1.54 170 01:56 11.08.2022
47 Clear 14 1017 58 10000 1.54 80 22:54 10.08.2022
48 Clouds 13 1017 64 10000 1.54 70 21:44 10.08.2022
49 Clear 11 1017 72 10000 0.45 224 20:56 10.08.2022
50 Clouds 9 1017 82 10000 1.21 157 19:58 10.08.2022
51 Clear 7 1017 86 10000 1.54 40 18:45 10.08.2022
52 Clear 5 1017 91 10000 1.54 40 17:20 10.08.2022
53 Clouds 7 1016 88 10000 2.57 70 13:49 10.08.2022
54 Clouds 7 1016 87 10000 2.06 80 12:50 10.08.2022
55 Clouds 7 1015 86 10000 1.54 340 10:21 10.08.2022
56 Clouds 9 1015 80 10000 0.45 53 08:37 10.08.2022
57 Clouds 11 1015 69 10000 2.57 310 07:22 10.08.2022
58 Clouds 12 1015 66 10000 2.57 250 04:50 10.08.2022
59 Clouds 10 1015 66 10000 5.14 250 00:50 10.08.2022
60 Clouds 10 1015 71 10000 4.12 210 23:27 09.08.2022
61 Clouds 7 1015 88 10000 2.06 180 21:38 09.08.2022
62 Clouds 6 1016 89 10000 2.57 140 20:56 09.08.2022
63 Clouds 5 1016 91 10000 2.06 190 18:56 09.08.2022
64 Clouds 4 1016 89 10000 2.06 210 17:31 09.08.2022
65 Clouds 4 1016 89 10000 2.06 210 17:31 09.08.2022
66 Clouds 5 1015 92 10000 2.06 170 16:43 09.08.2022
67 Rain 4 1015 94 10000 3.09 180 15:59 09.08.2022
68 Rain 5 1015 92 10000 3.09 200 14:43 09.08.2022
69 Rain 6 1014 89 10000 3.6 210 10:53 09.08.2022
70 Rain 7 1012 87 10000 9.77 290 08:52 09.08.2022
71 Rain 10 1010 87 10000 4.47 222 07:54 09.08.2022
72 Clouds 16 1008 57 10000 3.6 110 04:43 09.08.2022
73 Clouds 12 1011 86 10000 2.06 140 23:58 08.08.2022
74 Rain 12 1010 92 10000 3.6 160 23:24 08.08.2022
75 Mist 11 1011 93 8047 2.57 160 22:38 08.08.2022
76 Rain 11 1010 92 8047 2.57 180 21:40 08.08.2022
77 Rain 10 1009 94 10000 1.44 145 19:58 08.08.2022
78 Rain 10 1009 93 8047 1.54 280 19:31 08.08.2022
79 Rain 9 1008 92 9656 0 0 17:56 08.08.2022
80 Rain 10 1005 89 10000 3.6 50 15:47 08.08.2022
81 Rain 9 1008 91 10000 2.06 50 14:46 08.08.2022
82 Rain 10 1008 89 10000 3.6 80 12:30 08.08.2022
83 Rain 11 1007 83 10000 0.45 44 10:26 08.08.2022
84 Clouds 13 1006 78 10000 1.54 150 07:49 08.08.2022
85 Clear 15 1007 61 10000 4.63 130 03:42 08.08.2022
86 Clear 12 1011 69 10000 2.57 140 23:28 07.08.2022
87 Clouds 10 1012 81 10000 4.12 230 21:41 07.08.2022
88 Rain 9 1012 83 10000 0.89 101 20:55 07.08.2022
89 Rain 10 1013 83 10000 2.06 220 20:18 07.08.2022
90 Clouds 9 1013 87 10000 3.6 190 19:51 07.08.2022
91 Clouds 8 1013 91 10000 2.57 200 18:49 07.08.2022
92 Clouds 7 1013 92 10000 2.57 180 17:22 07.08.2022
93 Clouds 7 1012 92 10000 1.54 200 16:51 07.08.2022
94 Clouds 7 1012 90 10000 0.45 262 15:29 07.08.2022
95 Clouds 7 1011 90 10000 3.6 220 13:55 07.08.2022
96 Clouds 7 1011 89 10000 2.57 210 12:38 07.08.2022
97 Rain 9 1009 87 10000 5.66 260 10:48 07.08.2022
98 Mist 10 1008 90 6437 4.63 220 09:56 07.08.2022
99 Rain 13 1004 87 10000 3.09 260 04:33 07.08.2022
100 Clouds 14 1004 74 10000 4.63 230 01:59 07.08.2022
101 Rain 12 1005 85 10000 4.12 210 22:33 06.08.2022
102 Rain 11 1000 89 10000 5.14 230 21:48 06.08.2022
103 Rain 10 1003 92 9656 3.6 230 19:43 06.08.2022
104 Rain 10 1003 90 10000 3.6 230 18:38 06.08.2022
105 Clouds 10 1003 89 10000 3.09 180 17:45 06.08.2022
106 Rain 10 1003 89 10000 3.09 230 16:19 06.08.2022
107 Clouds 10 996 89 10000 2.57 200 13:51 06.08.2022
108 Rain 10 1003 89 10000 3.09 190 12:27 06.08.2022
109 Rain 11 1003 88 10000 4.63 240 10:53 06.08.2022
110 Clouds 11 1002 84 10000 3.09 190 09:31 06.08.2022
111 Clouds 12 1001 81 10000 4.63 260 04:43 06.08.2022
112 Rain 11 1001 93 4828 5.14 250 00:49 06.08.2022
113 Rain 12 996 95 4023 2.06 270 22:35 05.08.2022
114 Rain 12 1001 93 6437 3.09 250 20:50 05.08.2022
115 Clouds 12 1002 93 10000 2.57 210 19:18 05.08.2022
116 Mist 12 1002 93 10000 3.6 200 18:41 05.08.2022
117 Clouds 12 1003 94 10000 2.06 190 16:53 05.08.2022
118 Rain 13 1003 93 10000 3.09 240 15:25 05.08.2022
119 Rain 13 1003 92 9656 3.6 220 14:38 05.08.2022
120 Rain 14 1004 91 10000 5.14 250 13:38 05.08.2022
121 Rain 14 1004 90 10000 4.12 230 13:18 05.08.2022
122 Rain 15 1004 89 10000 3.09 220 11:55 05.08.2022
123 Clouds 16 1004 85 10000 0.45 240 09:18 05.08.2022
124 Clouds 16 1004 86 10000 2.06 130 07:57 05.08.2022
125 Rain 19 1005 65 9656 6.17 230 04:48 05.08.2022
126 Clouds 23 1008 51 10000 3.6 110 23:49 04.08.2022
127 Clouds 20 1009 56 10000 2.06 100 21:37 04.08.2022
128 Clouds 20 1009 57 10000 2.06 100 21:18 04.08.2022
129 Clouds 18 1011 63 10000 1.54 90 20:38 04.08.2022
130 Clear 12 1011 75 10000 0 0 19:00 04.08.2022
131 Clear 14 1011 73 10000 1.54 80 18:34 04.08.2022
132 Clear 12 1011 78 10000 1.54 90 16:54 04.08.2022
133 Clear 10 997 85 10000 2.06 40 13:34 04.08.2022
134 Clear 12 1012 83 10000 1.54 140 11:42 04.08.2022
135 Clear 14 1012 75 10000 2.06 50 10:24 04.08.2022
136 Clear 19 1012 53 10000 3.09 230 07:50 04.08.2022
137 Clouds 23 1013 40 10000 2.57 300 03:33 04.08.2022
138 Clouds 22 1014 44 10000 2.57 250 01:42 04.08.2022
139 Clouds 20 1015 64 10000 2.06 170 23:41 03.08.2022
140 Clouds 18 1015 78 10000 0.89 9 21:39 03.08.2022
141 Clouds 15 1016 88 10000 2.57 30 20:22 03.08.2022
142 Clouds 15 1016 90 10000 2.57 30 19:28 03.08.2022
143 Clouds 14 1016 94 10000 0.45 248 17:41 03.08.2022
144 Mist 13 1015 92 9656 0 0 16:24 03.08.2022
145 Clouds 13 1015 91 10000 0 0 14:25 03.08.2022
146 Clouds 15 1014 88 10000 2.57 260 11:47 03.08.2022
147 Clouds 16 1012 86 10000 1.82 261 07:55 03.08.2022
148 Clouds 18 1011 80 10000 1.54 350 04:46 03.08.2022
149 Rain 19 1011 72 10000 4.63 270 03:26 03.08.2022
150 Rain 19 1010 77 6437 5.66 240 01:18 03.08.2022
151 Clouds 18 1011 76 10000 2.57 240 22:53 02.08.2022
152 Clouds 17 1011 87 10000 2.57 270 21:53 02.08.2022
153 Clouds 16 1010 92 10000 1.54 270 20:58 02.08.2022
154 Rain 15 1009 93 10000 1.54 270 18:48 02.08.2022
155 Clouds 13 1009 94 10000 1.54 270 16:22 02.08.2022
156 Rain 14 1007 93 10000 0 0 12:34 02.08.2022
157 Clouds 15 1006 90 10000 2.06 330 09:34 02.08.2022
158 Rain 15 1005 90 10000 4.63 320 07:54 02.08.2022
159 Thunderstorm 15 1005 85 10000 8.75 60 06:43 02.08.2022
160 Rain 21 1004 57 9656 6.69 70 04:55 02.08.2022
161 Clouds 21 1006 55 10000 3.09 90 23:52 01.08.2022
162 Clouds 20 1006 64 10000 3.09 70 22:36 01.08.2022
163 Clouds 18 1007 75 10000 4.63 80 20:53 01.08.2022
164 Clouds 16 1007 81 10000 1.54 60 19:32 01.08.2022
165 Clouds 14 1008 87 10000 2.57 40 18:42 01.08.2022
166 Clouds 14 1008 87 10000 2.57 40 18:42 01.08.2022
167 Clear 12 1009 93 10000 2.06 80 16:54 01.08.2022
168 Clear 12 1010 93 10000 2.06 80 16:28 01.08.2022
169 Clouds 12 1010 94 10000 0.45 79 15:30 01.08.2022
170 Clear 12 1011 93 10000 2.06 80 14:43 01.08.2022
171 Clouds 14 1012 89 10000 2.57 80 12:51 01.08.2022
172 Rain 15 1013 87 10000 0.45 107 10:22 01.08.2022
173 Clouds 17 1013 75 10000 2.06 160 08:39 01.08.2022
174 Clouds 18 1012 70 10000 3.6 220 06:21 01.08.2022
175 Clouds 19 1013 74 10000 2.06 0 04:20 01.08.2022
176 Clouds 17 1013 85 10000 2.06 70 00:49 01.08.2022
177 Clouds 14 1013 92 10000 0 0 22:41 31.07.2022
178 Rain 14 1013 93 10000 0 0 21:33 31.07.2022
179 Rain 13 1012 95 10000 0 0 19:58 31.07.2022
180 Rain 13 1012 93 9656 1.54 70 18:36 31.07.2022
181 Rain 13 1012 91 10000 0 0 15:54 31.07.2022
182 Rain 15 1011 84 10000 2.57 250 13:51 31.07.2022
183 Rain 15 1011 80 10000 2.06 220 12:28 31.07.2022
184 Clouds 17 1010 72 10000 3.6 310 10:22 31.07.2022
185 Rain 19 1009 63 10000 5.66 250 08:18 31.07.2022
186 Clouds 24 1007 39 10000 3.09 280 03:49 31.07.2022
187 Clouds 22 1008 39 10000 1.54 170 23:53 30.07.2022
188 Clear 20 1009 49 10000 1.54 280 22:19 30.07.2022
189 Clear 20 1009 49 10000 1.54 280 22:19 30.07.2022
190 Clear 19 1009 52 10000 0.45 131 21:50 30.07.2022
191 Clouds 18 1009 57 10000 0.45 97 20:58 30.07.2022
192 Clouds 16 1009 60 10000 0.65 83 19:59 30.07.2022
193 Clouds 16 1009 61 10000 2.57 80 19:20 30.07.2022
194 Clouds 14 1009 63 10000 0 0 17:45 30.07.2022
195 Clouds 11 1011 74 10000 1.54 30 15:55 30.07.2022
196 Clouds 11 1011 72 10000 1.54 30 15:25 30.07.2022
197 Clouds 11 1011 72 10000 3.6 80 13:21 30.07.2022
198 Clear 12 1011 69 10000 2.06 30 12:20 30.07.2022
199 Clouds 14 1011 66 10000 1.54 30 10:36 30.07.2022
200 Clouds 15 1011 62 10000 0 0 09:57 30.07.2022
201 Clouds 19 1011 46 10000 1.54 10 07:55 30.07.2022
202 Clouds 19 1011 46 10000 1.54 10 07:55 30.07.2022
203 Clouds 22 1012 36 10000 1.54 100 05:29 30.07.2022
204 Clear 22 1014 35 10000 3.09 100 02:31 30.07.2022
205 Clouds 19 1015 49 10000 2.06 120 22:54 29.07.2022
206 Clouds 17 1016 58 10000 3.09 0 21:28 29.07.2022
207 Clouds 15 1017 61 10000 2.06 90 20:50 29.07.2022
208 Clear 9 997 83 10000 2.06 90 18:27 29.07.2022
209 Clear 5 1018 90 10000 2.57 80 16:32 29.07.2022
210 Clear 6 1018 86 10000 1.54 30 13:46 29.07.2022
211 Clear 8 1018 84 10000 1.54 80 11:33 29.07.2022
212 Clouds 15 1017 58 10000 2.57 310 08:51 29.07.2022
213 Clouds 15 1017 61 10000 2.57 310 08:20 29.07.2022
214 Rain 18 1019 50 10000 3.6 250 02:52 29.07.2022
215 Clouds 15 1019 60 10000 3.09 240 23:20 28.07.2022
216 Clouds 14 1020 65 10000 0.45 186 21:30 28.07.2022
217 Clouds 12 1021 70 10000 0.45 207 20:50 28.07.2022
218 Clouds 11 1021 77 10000 3.03 240 19:58 28.07.2022
219 Clouds 9 1021 81 10000 1.54 80 19:26 28.07.2022
220 Clouds 7 1021 86 10000 1.54 40 17:45 28.07.2022
221 Clouds 6 1021 87 10000 1.54 40 17:19 28.07.2022
222 Clouds 6 1021 87 10000 2.57 80 16:39 28.07.2022
223 Clear 6 1021 84 10000 1.54 170 13:47 28.07.2022
224 Clear 9 1021 76 10000 0.45 281 11:43 28.07.2022
225 Clouds 14 1020 56 10000 5.66 270 07:33 28.07.2022
226 Clouds 15 1020 60 10000 6.17 230 05:37 28.07.2022
227 Clouds 15 1020 59 10000 5.66 270 05:18 28.07.2022
228 Rain 14 1021 72 10000 4.12 230 23:19 27.07.2022
229 Rain 11 1022 84 10000 3.6 260 21:30 27.07.2022
230 Rain 9 1022 85 9656 2.06 180 19:46 27.07.2022
231 Rain 9 1022 81 10000 2.06 70 18:49 27.07.2022
232 Clouds 8 1022 84 10000 0 0 16:31 27.07.2022
233 Clouds 7 1023 85 10000 2.57 70 15:41 27.07.2022
234 Clouds 7 1022 84 10000 2.06 70 14:41 27.07.2022
235 Clouds 6 1022 85 10000 0 0 13:34 27.07.2022
236 Clouds 12 1021 60 10000 4.12 240 09:28 27.07.2022
237 Clouds 14 1021 54 10000 7.2 250 07:40 27.07.2022
238 Clouds 14 1021 63 10000 5.66 250 03:57 27.07.2022
239 Clouds 14 1018 54 10000 7.2 230 22:49 26.07.2022
240 Clouds 13 1018 56 10000 8.23 240 21:36 26.07.2022
241 Clouds 12 1018 61 10000 7.72 250 20:49 26.07.2022
242 Clouds 11 1017 65 10000 6.17 240 19:20 26.07.2022
243 Clouds 11 1017 67 10000 8.75 230 18:39 26.07.2022
244 Clouds 10 1016 70 10000 7.2 240 17:46 26.07.2022
245 Clouds 10 1015 77 10000 5.66 230 15:43 26.07.2022
246 Clouds 10 1014 80 10000 4.63 230 14:38 26.07.2022
247 Rain 11 1011 80 10000 6.69 230 12:25 26.07.2022
248 Clouds 13 1007 74 10000 7.72 260 09:59 26.07.2022
249 Clouds 16 1005 68 10000 8.23 280 08:23 26.07.2022
250 Clouds 23 999 50 10000 6.17 130 01:52 26.07.2022
251 Clouds 22 999 54 10000 5.14 120 00:19 26.07.2022
252 Clouds 21 999 56 10000 3.6 90 22:40 25.07.2022
253 Clouds 20 1000 57 10000 4.63 80 21:43 25.07.2022
254 Clouds 20 1000 58 10000 4.12 80 20:43 25.07.2022
255 Clouds 20 1000 58 10000 4.12 80 20:23 25.07.2022
256 Clouds 19 1001 60 10000 3.6 70 19:24 25.07.2022
257 Clouds 15 1002 67 10000 2.06 50 17:37 25.07.2022
258 Clouds 14 1002 67 10000 0.89 245 16:44 25.07.2022
259 Clouds 13 1003 65 10000 2.57 80 13:22 25.07.2022
260 Clouds 15 1003 59 10000 3.09 70 10:48 25.07.2022
261 Clear 20 1003 44 10000 2.06 80 07:32 25.07.2022
262 Clear 21 1008 37 10000 1.34 246 00:57 25.07.2022
263 Clear 21 1008 42 10000 2.06 180 23:45 24.07.2022
264 Clear 20 1009 45 10000 1.34 262 22:44 24.07.2022
265 Clouds 18 1008 50 10000 1.34 283 21:41 24.07.2022
266 Clouds 18 1010 53 10000 1.32 130 20:58 24.07.2022
267 Clear 16 1009 60 10000 1.54 0 20:37 24.07.2022
268 Clouds 14 1009 65 10000 2.57 80 19:20 24.07.2022
269 Clouds 10 1009 78 10000 2.06 50 17:57 24.07.2022
270 Haze 8 1010 81 9656 1.54 80 15:55 24.07.2022
271 Haze 8 1010 80 1207 2.57 80 14:47 24.07.2022
272 Haze 9 1009 77 1006 2.57 50 13:47 24.07.2022
273 Haze 10 1009 74 1207 2.06 70 12:28 24.07.2022
274 Haze 11 1010 75 2615 2.57 100 11:30 24.07.2022
275 Haze 14 1009 66 2615 2.06 100 09:48 24.07.2022
276 Haze 16 1009 48 1609 2.06 120 07:57 24.07.2022
277 Haze 17 1009 51 1408 1.54 120 07:31 24.07.2022
278 Rain 19 1011 42 10000 3.6 130 03:18 24.07.2022
279 Clouds 17 1013 52 10000 2.57 0 23:25 23.07.2022
280 Clear 13 1013 73 10000 2.06 50 20:47 23.07.2022
281 Mist 11 1013 88 9656 2.57 80 19:29 23.07.2022
282 Mist 9 1013 90 4828 2.06 70 18:36 23.07.2022
283 Mist 8 1013 92 2012 2.57 140 17:27 23.07.2022
284 Clear 7 1012 92 10000 1.54 360 16:24 23.07.2022
285 Clear 7 1012 91 10000 1.54 210 15:22 23.07.2022
286 Clear 8 1012 91 10000 0.45 294 14:55 23.07.2022
287 Clear 8 1012 90 10000 2.06 190 14:23 23.07.2022
288 Clouds 10 1011 88 10000 1.95 246 11:56 23.07.2022
289 Rain 11 1011 85 10000 5.14 230 10:44 23.07.2022
290 Clouds 11 1010 92 10000 2.93 243 09:53 23.07.2022
291 Clouds 13 1009 83 10000 5.14 220 08:24 23.07.2022
292 Clouds 16 1007 62 10000 4.12 220 03:38 23.07.2022
293 Clouds 15 1007 66 10000 4.12 200 00:39 23.07.2022
294 Clouds 13 1007 78 10000 2.57 200 21:38 22.07.2022
295 Clouds 12 1007 81 10000 3.09 190 20:33 22.07.2022
296 Clouds 11 1007 88 10000 3.09 200 18:57 22.07.2022
297 Clouds 10 1007 90 10000 2.57 190 17:52 22.07.2022
298 Clouds 10 1006 91 10000 3.09 190 16:31 22.07.2022
299 Clouds 12 1005 85 10000 2.57 200 13:50 22.07.2022
300 Rain 14 1004 82 10000 1.54 260 10:40 22.07.2022
301 Clouds 14 1003 80 10000 0.45 304 09:25 22.07.2022
302 Rain 15 1003 73 10000 2.06 10 08:26 22.07.2022
303 Rain 18 1004 60 10000 4.12 90 04:26 22.07.2022
304 Clouds 17 1005 60 10000 1.54 150 23:45 21.07.2022
305 Clouds 16 1004 67 10000 0 0 22:20 21.07.2022
306 Clouds 15 1004 66 10000 3.09 130 20:36 21.07.2022
307 Clouds 13 1003 73 10000 1.52 108 18:54 21.07.2022
308 Clouds 12 1003 75 10000 0.45 67 17:29 21.07.2022
309 Clouds 11 1003 79 10000 0.45 299 16:53 21.07.2022
310 Clouds 11 1003 78 10000 0 0 14:52 21.07.2022
311 Clouds 11 1003 77 10000 0 0 14:22 21.07.2022
312 Clouds 12 1001 73 10000 2.06 260 12:27 21.07.2022
313 Clouds 14 1002 72 10000 1.54 60 10:39 21.07.2022
314 Clouds 15 1002 68 10000 0.89 226 08:54 21.07.2022
315 Clouds 16 1002 65 10000 1.54 110 08:35 21.07.2022
316 Clouds 17 1002 59 10000 1.54 160 07:23 21.07.2022
317 Clouds 19 1004 49 10000 1.34 203 03:55 21.07.2022
318 Clouds 18 1008 59 10000 3.6 110 23:26 20.07.2022
319 Clouds 17 1009 64 10000 4.12 80 22:21 20.07.2022
320 Clouds 14 1009 78 10000 2.06 90 20:50 20.07.2022
321 Clouds 13 1009 82 10000 1.54 0 19:49 20.07.2022
322 Clouds 12 1009 84 10000 1.54 0 19:20 20.07.2022
323 Clouds 11 1010 88 10000 2.06 60 18:33 20.07.2022
324 Clouds 10 1010 92 10000 0.26 178 17:54 20.07.2022
325 Clouds 9 1010 92 10000 0.45 214 16:19 20.07.2022
326 Clouds 9 1009 92 10000 0.45 214 14:57 20.07.2022
327 Clouds 9 1009 92 10000 0.45 214 13:57 20.07.2022
328 Clouds 10 1009 91 10000 0.45 214 11:32 20.07.2022
329 Clouds 13 1008 84 10000 2.06 110 07:50 20.07.2022
330 Rain 12 1009 87 10000 2.57 180 02:45 20.07.2022
331 Rain 12 1008 86 10000 4.63 170 00:46 20.07.2022
332 Clouds 12 1008 80 10000 3.09 180 23:37 19.07.2022
333 Clouds 12 1009 81 10000 3.09 200 22:22 19.07.2022
334 Clouds 12 1007 84 10000 2.06 210 21:18 19.07.2022
335 Clouds 11 1007 86 10000 2.57 220 20:23 19.07.2022
336 Rain 10 1006 92 9656 5.66 250 18:43 19.07.2022
337 Rain 10 1006 92 6437 4.63 260 17:57 19.07.2022
338 Rain 10 1003 92 6437 2.06 0 16:26 19.07.2022
339 Rain 11 1002 85 10000 2.57 80 14:31 19.07.2022
340 Clouds 12 1003 83 10000 2.57 40 11:35 19.07.2022
341 Rain 13 1004 84 10000 2.57 60 10:31 19.07.2022
342 Clouds 14 1004 79 10000 3.09 150 08:48 19.07.2022
343 Clouds 14 1005 78 10000 3.09 150 08:22 19.07.2022
344 Clouds 15 1005 74 10000 4.63 160 07:18 19.07.2022
345 Clouds 17 1005 62 10000 4.63 200 05:26 19.07.2022
346 Clouds 17 1005 64 10000 3.6 220 04:46 19.07.2022
347 Clouds 15 1004 73 10000 6.17 240 00:35 19.07.2022
348 Rain 15 1003 77 10000 6.17 230 23:31 18.07.2022
349 Clouds 15 1003 78 10000 5.14 230 22:58 18.07.2022
350 Clouds 15 1002 77 10000 5.66 230 21:58 18.07.2022
351 Rain 13 1002 91 10000 4.12 220 20:50 18.07.2022
352 Rain 13 1001 90 10000 6.17 220 19:25 18.07.2022
353 Rain 12 999 89 10000 2.06 200 17:22 18.07.2022
354 Rain 12 999 86 9656 3.09 200 15:51 18.07.2022
355 Clouds 12 998 84 10000 0 0 14:30 18.07.2022
356 Clouds 13 997 80 10000 2.06 230 12:45 18.07.2022
357 Rain 13 996 82 10000 2.06 220 11:29 18.07.2022
358 Clouds 15 995 71 10000 0 0 08:54 18.07.2022
359 Clouds 16 994 69 10000 2.06 20 07:28 18.07.2022
360 Clouds 20 995 48 10000 4.12 270 01:24 18.07.2022
361 Rain 17 994 63 10000 0.45 28 22:42 17.07.2022
362 Clouds 16 994 66 10000 0 0 21:57 17.07.2022
363 Clouds 16 994 65 10000 0 0 21:21 17.07.2022
364 Clouds 16 995 68 10000 2.57 30 20:44 17.07.2022
365 Rain 14 994 78 10000 2.06 360 19:32 17.07.2022
366 Rain 13 995 80 10000 2.06 30 18:30 17.07.2022
367 Rain 13 995 78 10000 2.06 50 17:38 17.07.2022
368 Clouds 13 995 77 10000 1.54 80 16:51 17.07.2022
369 Clouds 13 995 77 10000 1.54 80 16:51 17.07.2022
370 Rain 13 995 77 10000 2.57 70 16:26 17.07.2022
371 Clouds 13 995 78 10000 2.06 70 14:44 17.07.2022
372 Clouds 13 996 80 10000 2.06 80 13:31 17.07.2022
373 Clouds 14 996 82 10000 0.45 55 11:41 17.07.2022
374 Clouds 16 997 77 10000 2.06 30 09:24 17.07.2022
375 Clouds 19 999 72 10000 2.06 50 05:25 17.07.2022
376 Clouds 18 999 70 10000 1.54 80 02:33 17.07.2022
377 Clouds 16 1001 77 10000 1.54 230 23:21 16.07.2022
378 Clouds 14 1001 84 10000 3.6 200 21:32 16.07.2022
379 Rain 13 1001 91 9656 3.6 210 19:53 16.07.2022
380 Rain 12 1002 94 10000 2.57 170 18:35 16.07.2022
381 Rain 11 1002 93 10000 2.06 160 17:19 16.07.2022
382 Clouds 11 1002 92 10000 2.06 170 14:31 16.07.2022
383 Clouds 11 999 92 10000 3.6 210 11:38 16.07.2022
384 Rain 12 1002 93 6437 5.66 230 09:35 16.07.2022
385 Rain 13 1001 92 8047 4.63 200 08:47 16.07.2022
386 Rain 13 1001 92 8047 4.63 200 08:29 16.07.2022
387 Rain 16 1001 74 8047 2.57 90 04:24 16.07.2022
388 Rain 20 1001 53 9656 1.54 150 03:29 16.07.2022
389 Clouds 20 1003 42 10000 4.12 90 23:38 15.07.2022
390 Clear 20 1004 42 10000 3.6 90 22:41 15.07.2022
391 Clear 18 1005 50 10000 3.6 80 21:29 15.07.2022
392 Clear 17 1005 52 10000 3.6 70 20:31 15.07.2022
393 Clouds 13 1006 66 10000 2.06 60 18:44 15.07.2022
394 Clouds 12 1007 66 10000 2.06 70 17:48 15.07.2022
395 Clouds 9 1008 74 10000 2.57 90 14:57 15.07.2022
396 Smoke 11 1008 68 10000 3.09 90 13:20 15.07.2022
397 Smoke 11 1008 72 10000 1.54 70 11:45 15.07.2022
398 Smoke 13 1008 66 10000 0.89 309 10:27 15.07.2022
399 Clouds 20 1008 36 10000 2.06 0 06:30 15.07.2022
400 Smoke 19 1008 35 10000 5.14 330 01:32 15.07.2022
401 Smoke 19 1008 33 10000 5.66 310 00:37 15.07.2022
402 Clear 18 1007 39 10000 4.12 300 22:53 14.07.2022
403 Clear 17 1008 44 10000 2.57 280 21:54 14.07.2022
404 Smoke 17 1008 42 10000 2.57 280 21:30 14.07.2022
405 Smoke 16 1009 47 10000 3.09 310 20:45 14.07.2022
406 Smoke 15 1009 44 10000 3.09 310 20:26 14.07.2022
407 Clouds 15 1008 51 10000 3.26 256 19:58 14.07.2022
408 Smoke 9 1007 77 10000 1.54 320 16:23 14.07.2022
409 Clear 9 1006 77 10000 0.45 286 15:54 14.07.2022
410 Clouds 9 1006 80 10000 0.45 290 14:44 14.07.2022
411 Clouds 9 1006 81 10000 0.89 255 13:32 14.07.2022
412 Clouds 10 1006 81 10000 2.57 60 12:18 14.07.2022
413 Smoke 12 1005 78 10000 2.57 10 11:25 14.07.2022
414 Smoke 13 1005 76 10000 0.45 298 10:39 14.07.2022
415 Rain 16 1005 64 10000 3.09 240 08:21 14.07.2022
416 Smoke 18 1003 54 10000 4.63 270 03:36 14.07.2022
417 Clouds 18 1003 62 10000 1.34 236 00:54 14.07.2022
418 Smoke 17 1004 63 10000 3.6 220 23:38 13.07.2022
419 Smoke 15 1003 76 10000 2.57 250 22:26 13.07.2022
420 Smoke 14 1003 80 10000 3.6 240 21:30 13.07.2022
421 Smoke 14 1003 86 10000 3.09 200 20:26 13.07.2022
422 Clouds 13 1002 92 10000 2.27 241 17:56 13.07.2022
423 Rain 14 1002 92 6437 4.12 220 16:59 13.07.2022
424 Rain 15 1002 84 8047 3.6 290 15:51 13.07.2022
425 Smoke 16 1000 83 8047 1.54 130 13:44 13.07.2022
426 Smoke 18 1000 74 4828 1.54 150 10:47 13.07.2022
427 Smoke 19 1000 68 4828 1.54 150 10:28 13.07.2022
428 Smoke 20 1000 62 4828 2.06 220 09:28 13.07.2022
429 Smoke 23 999 47 8047 3.6 180 07:53 13.07.2022
430 Smoke 25 1001 48 6437 2.57 210 03:34 13.07.2022
431 Smoke 23 1003 59 4828 3.09 200 00:25 13.07.2022
432 Mist 21 1003 70 4828 1.54 0 22:28 12.07.2022
433 Smoke 20 1004 80 4828 1.54 0 21:45 12.07.2022
434 Smoke 18 1004 88 4828 0 0 20:44 12.07.2022
435 Smoke 18 1004 88 8047 0 0 19:45 12.07.2022
436 Mist 17 1004 91 8047 0 0 18:35 12.07.2022
437 Mist 15 1003 93 4828 2.06 50 16:24 12.07.2022
438 Mist 15 1004 94 4023 2.06 90 14:31 12.07.2022
439 Mist 16 1004 94 4023 1.54 90 13:34 12.07.2022
440 Mist 17 1004 92 4023 1.54 70 11:54 12.07.2022
441 Mist 17 1004 90 4023 0.45 207 10:26 12.07.2022
442 Mist 18 1004 89 6437 3.09 90 08:46 12.07.2022
443 Mist 19 1004 88 6437 3.09 50 07:48 12.07.2022
444 Smoke 23 1004 61 4023 4.63 70 05:45 12.07.2022
445 Clear 24 1003 61 4023 3.6 240 04:46 12.07.2022
446 Mist 19 1006 78 3219 0 0 00:54 12.07.2022
447 Mist 16 1007 91 2816 2.06 190 22:43 11.07.2022
448 Mist 16 1007 94 3219 1.54 140 20:56 11.07.2022
449 Mist 16 1007 91 3219 1.54 140 20:32 11.07.2022
450 Mist 17 1007 91 3219 1.54 140 20:32 11.07.2022
451 Mist 15 1006 95 4023 0 0 18:50 11.07.2022
452 Mist 15 1006 96 4023 0 0 18:28 11.07.2022
453 Fog 14 1006 95 604 1.54 50 16:26 11.07.2022
454 Mist 14 1006 95 1006 2.06 90 15:28 11.07.2022
455 Smoke 14 1006 95 10000 1.54 40 13:19 11.07.2022
456 Smoke 15 1006 93 10000 0 0 11:23 11.07.2022
457 Clear 16 1006 90 10000 2.06 120 09:55 11.07.2022
458 Smoke 17 1006 88 10000 2.57 110 09:27 11.07.2022
459 Smoke 18 1006 87 10000 4.12 270 08:31 11.07.2022
460 Smoke 22 1007 66 10000 3.09 0 00:59 11.07.2022
461 Clouds 21 1007 79 10000 0.45 150 23:54 10.07.2022
462 Smoke 18 1008 86 10000 0.45 146 22:45 10.07.2022
463 Smoke 17 1008 92 10000 2.57 180 20:56 10.07.2022
464 Smoke 17 1008 92 10000 0 0 20:36 10.07.2022
465 Smoke 16 1008 93 10000 1.54 30 19:30 10.07.2022
466 Smoke 16 1008 93 10000 1.54 30 19:30 10.07.2022
467 Smoke 16 1008 94 10000 0 0 18:25 10.07.2022
468 Smoke 15 1008 93 2414 3.09 80 17:33 10.07.2022
469 Smoke 15 1008 94 10000 0 0 16:21 10.07.2022
470 Mist 16 1008 94 2615 2.06 60 14:47 10.07.2022
471 Mist 16 1008 93 8047 2.57 80 13:30 10.07.2022
472 Rain 17 1009 90 10000 1.54 340 11:57 10.07.2022
473 Haze 18 1008 77 6437 2.06 80 09:46 10.07.2022
474 Haze 19 1008 75 6437 1.54 140 08:44 10.07.2022
475 Haze 20 1008 71 3621 2.57 210 07:20 10.07.2022
476 Clouds 26 1006 42 10000 2.75 204 23:58 09.07.2022
477 Smoke 21 1009 61 10000 4.12 140 22:27 09.07.2022
478 Smoke 21 1008 60 10000 3.09 150 21:49 09.07.2022
479 Smoke 17 1009 63 10000 2.06 90 19:57 09.07.2022
480 Haze 18 1007 70 9656 2.06 70 18:32 09.07.2022
481 Smoke 17 1007 71 10000 0 0 17:32 09.07.2022
482 Haze 17 1007 70 9656 2.57 80 16:40 09.07.2022
483 Haze 16 1007 70 8047 0.45 216 15:39 09.07.2022
484 Haze 17 1007 67 8047 2.06 130 14:24 09.07.2022
485 Smoke 17 1007 67 10000 3.09 70 13:49 09.07.2022
486 Smoke 17 1006 68 10000 3.09 30 12:43 09.07.2022
487 Smoke 19 1006 62 10000 3.09 80 11:19 09.07.2022
488 Smoke 21 1006 53 10000 0.45 216 10:22 09.07.2022
489 Smoke 24 1005 43 10000 0.45 202 07:45 09.07.2022
490 Smoke 28 1004 35 6437 1.54 50 04:53 09.07.2022
491 Clouds 26 1005 43 10000 0.89 99 00:59 09.07.2022
492 Haze 23 1007 52 9656 2.57 110 22:53 08.07.2022
493 Haze 22 1007 58 9656 2.06 100 21:34 08.07.2022
494 Haze 20 1007 63 9656 2.06 50 20:40 08.07.2022
495 Haze 19 1007 65 9656 2.57 60 19:48 08.07.2022
496 Smoke 17 1007 70 10000 2.57 90 18:20 08.07.2022
497 Smoke 15 1006 73 10000 2.57 70 16:39 08.07.2022
498 Smoke 14 1005 76 10000 0 0 14:51 08.07.2022
499 Smoke 16 1005 67 10000 3.6 250 13:26 08.07.2022
500 Smoke 18 1005 54 10000 2.06 300 11:28 08.07.2022
501 Smoke 20 1004 49 10000 3.6 280 10:27 08.07.2022
502 Smoke 24 1002 51 9656 2.06 230 08:26 08.07.2022
503 Smoke 26 1002 43 9656 1.54 130 06:47 08.07.2022
504 Smoke 24 1003 46 3219 0 0 01:19 08.07.2022
505 Smoke 20 1006 60 3219 2.57 90 22:57 07.07.2022
506 Smoke 21 1005 63 3219 2.57 90 22:27 07.07.2022
507 Smoke 18 1005 81 3219 2.06 90 19:53 07.07.2022
508 Smoke 16 1005 83 3219 2.57 60 18:18 07.07.2022
509 Smoke 15 1005 84 6437 1.54 70 16:46 07.07.2022
510 Smoke 16 1004 80 4828 2.06 210 14:32 07.07.2022
511 Smoke 18 1005 66 2414 4.12 270 12:53 07.07.2022
512 Smoke 18 1005 65 2816 4.12 270 12:23 07.07.2022
513 Smoke 20 1004 62 3219 5.66 240 11:35 07.07.2022
514 Smoke 21 1004 56 4023 5.14 260 10:47 07.07.2022
515 Smoke 21 1004 56 4023 5.14 260 10:29 07.07.2022
516 Smoke 22 1002 53 4023 5.14 240 09:52 07.07.2022
517 Smoke 28 1002 44 4828 2.06 260 06:32 07.07.2022
518 Clear 28 1005 44 10000 1.69 175 00:32 07.07.2022
519 Clear 27 1006 41 10000 1.68 150 23:36 06.07.2022
520 Clear 26 1006 49 10000 1.24 132 23:18 06.07.2022
521 Smoke 24 1007 54 4828 1.54 110 22:52 06.07.2022
522 Smoke 24 1007 54 4828 1.54 110 22:33 06.07.2022
523 Smoke 21 1008 72 8047 2.57 90 20:30 06.07.2022
524 Smoke 21 1009 71 8047 2.57 90 20:30 06.07.2022
525 Smoke 18 1008 77 8047 0 0 19:32 06.07.2022
526 Smoke 15 1009 87 4426 1.54 80 17:22 06.07.2022
527 Smoke 14 1010 88 4828 1.54 90 15:58 06.07.2022
528 Smoke 16 1010 84 4828 0 0 12:57 06.07.2022
529 Smoke 16 1009 84 4828 1.54 50 12:28 06.07.2022
530 Smoke 17 1010 82 4828 1.54 50 11:44 06.07.2022
531 Smoke 19 1010 72 10000 1.54 40 09:50 06.07.2022
532 Smoke 22 1009 65 10000 2.06 0 07:44 06.07.2022
533 Smoke 24 1009 62 10000 2.57 180 06:49 06.07.2022
534 Smoke 25 1013 55 2816 2.57 210 00:38 06.07.2022
535 Smoke 23 1013 64 10000 2.06 0 22:43 05.07.2022
536 Smoke 19 1014 78 2816 0 0 20:57 05.07.2022
537 Smoke 19 1014 79 2816 1.54 260 20:33 05.07.2022
538 Smoke 18 1014 82 2816 2.06 180 19:39 05.07.2022
539 Clear 16 1014 87 10000 2.57 80 17:55 05.07.2022
540 Smoke 16 1013 88 10000 2.57 80 17:25 05.07.2022
541 Mist 15 1013 89 6437 2.06 70 16:33 05.07.2022
542 Haze 16 1013 86 4023 2.06 230 14:55 05.07.2022
543 Haze 16 1013 80 6437 3.09 180 13:36 05.07.2022
544 Haze 18 1013 76 6437 1.54 350 12:26 05.07.2022
545 Haze 22 1012 55 4426 5.14 300 10:46 05.07.2022
546 Haze 23 1012 58 4426 9.77 280 09:58 05.07.2022
547 Smoke 24 1010 55 10000 4.63 280 08:23 05.07.2022
548 Clear 27 1009 48 10000 3.6 240 06:59 05.07.2022
549 Smoke 28 1010 37 10000 2.57 210 04:37 05.07.2022
550 Haze 26 1011 46 9656 0 0 01:33 05.07.2022
551 Haze 25 1012 51 9656 0.45 149 23:38 04.07.2022
552 Haze 24 1012 54 9656 0 0 22:57 04.07.2022
553 Smoke 23 1012 60 6437 0 0 22:19 04.07.2022
554 Clouds 21 1013 66 10000 1 220 20:57 04.07.2022
555 Haze 20 1013 69 9656 2.06 70 20:36 04.07.2022
556 Clouds 19 1013 72 10000 0.45 142 19:57 04.07.2022
557 Smoke 19 1013 74 6437 1.54 0 19:37 04.07.2022
558 Smoke 17 1013 79 10000 2.57 60 18:52 04.07.2022
559 Clouds 15 1012 85 10000 0.95 190 16:58 04.07.2022
560 Smoke 15 1012 82 10000 2.06 160 15:40 04.07.2022
561 Smoke 15 1012 80 10000 0 0 14:19 04.07.2022
562 Clear 17 1012 73 10000 3.6 300 12:55 04.07.2022
563 Clouds 19 1012 69 10000 1.54 330 10:57 04.07.2022
564 Smoke 19 1011 68 10000 1.54 40 10:27 04.07.2022
565 Smoke 20 994 63 10000 1.54 290 09:23 04.07.2022
566 Smoke 23 998 52 10000 5.66 360 06:28 04.07.2022
567 Clear 29 1010 41 10000 0 0 02:59 04.07.2022
568 Smoke 23 1013 56 1609 2.57 90 23:52 03.07.2022
569 Smoke 22 1013 60 1609 2.06 120 22:36 03.07.2022
570 Smoke 22 1013 58 3219 2.06 140 20:46 03.07.2022
571 Smoke 21 1012 63 10000 2.57 100 19:52 03.07.2022
572 Smoke 20 1012 66 10000 2.57 100 19:24 03.07.2022
573 Smoke 19 1012 71 10000 3.6 60 18:27 03.07.2022
574 Smoke 18 1012 75 6437 2.06 40 17:38 03.07.2022
575 Smoke 15 1012 81 10000 0 0 15:27 03.07.2022
576 Clear 15 1011 82 10000 0 0 14:53 03.07.2022
577 Smoke 16 1011 79 10000 2.57 20 13:50 03.07.2022
578 Smoke 17 1011 75 10000 2.06 50 12:47 03.07.2022
579 Smoke 18 1011 71 4828 2.06 50 12:18 03.07.2022
580 Haze 20 1011 71 9656 0 0 10:54 03.07.2022
581 Haze 20 1011 70 9656 0 0 10:35 03.07.2022
582 Clouds 25 1009 55 10000 2.16 360 07:38 03.07.2022
583 Smoke 27 1010 43 10000 2.06 90 06:34 03.07.2022
584 Smoke 25 1012 56 4828 2.06 0 00:38 03.07.2022
585 Smoke 24 1013 57 6437 2.57 150 23:36 02.07.2022
586 Smoke 22 1013 63 4828 2.57 110 22:31 02.07.2022
587 Smoke 20 1014 73 4828 1.54 50 20:28 02.07.2022
588 Smoke 19 1014 79 4828 0 0 19:49 02.07.2022
589 Smoke 18 1013 78 4023 2.06 340 18:24 02.07.2022
590 Mist 18 1013 82 9656 0 0 17:38 02.07.2022
591 Smoke 17 1013 73 10000 2.06 120 15:56 02.07.2022
592 Smoke 18 1012 67 10000 0 0 13:35 02.07.2022
593 Smoke 20 1012 60 10000 2.57 20 11:48 02.07.2022
594 Rain 21 1012 58 10000 2.06 100 10:50 02.07.2022
595 Rain 23 1011 53 10000 3.6 100 09:49 02.07.2022
596 Smoke 24 1011 50 3219 1.54 280 08:37 02.07.2022
597 Smoke 25 1010 49 1609 1.54 310 08:19 02.07.2022
598 Smoke 29 1012 35 9656 0 0 02:53 02.07.2022
599 Smoke 27 1013 41 9656 0.45 225 00:28 02.07.2022
600 Smoke 26 1014 41 8047 1.54 230 23:21 01.07.2022
601 Smoke 25 1014 44 8047 0 0 22:29 01.07.2022
602 Smoke 23 1014 52 8047 1.54 210 21:37 01.07.2022
603 Clear 24 1013 33 10000 0.61 178 20:58 01.07.2022
604 Smoke 22 1016 55 6437 0 0 20:20 01.07.2022
605 Smoke 20 1015 62 6437 0 0 19:36 01.07.2022
606 Smoke 16 1015 65 6437 2.06 60 16:42 01.07.2022
607 Smoke 14 1015 74 6437 0 0 14:32 01.07.2022
608 Smoke 14 1014 75 6437 1.54 90 13:39 01.07.2022
609 Smoke 17 1015 66 6437 2.06 80 11:22 01.07.2022
610 Smoke 19 1015 59 6437 1.54 20 10:19 01.07.2022
611 Smoke 24 1015 47 6437 1.54 120 07:32 01.07.2022
612 Smoke 26 1018 35 6437 0 0 02:43 01.07.2022
613 Smoke 23 1019 44 3219 0 0 23:52 30.06.2022
614 Smoke 22 1020 50 3219 2.06 120 22:51 30.06.2022
615 Smoke 22 1020 50 3219 2.06 120 22:32 30.06.2022
616 Smoke 20 1020 57 4828 1.54 120 21:54 30.06.2022
617 Smoke 17 1021 59 4828 1.54 90 20:49 30.06.2022
618 Smoke 18 1021 62 4828 1.54 90 20:21 30.06.2022
619 Smoke 15 1021 67 4828 2.06 80 19:48 30.06.2022
620 Smoke 15 1021 71 4828 1.54 110 18:54 30.06.2022
621 Smoke 11 1021 76 4828 2.57 70 17:56 30.06.2022
622 Smoke 13 1021 75 4828 2.57 70 17:34 30.06.2022
623 Smoke 13 1019 75 4828 2.06 40 16:20 30.06.2022
624 Smoke 11 1016 82 4828 2.57 70 14:20 30.06.2022
625 Smoke 12 1016 79 4828 2.57 70 13:21 30.06.2022
626 Smoke 13 1016 77 6437 1.54 80 12:34 30.06.2022
627 Smoke 13 1016 77 6437 1.54 80 12:34 30.06.2022
628 Smoke 16 1016 67 6437 0 0 10:57 30.06.2022
629 Smoke 18 1015 63 8047 0.45 306 09:51 30.06.2022
630 Smoke 19 1015 58 8047 0.45 306 09:26 30.06.2022
631 Smoke 22 1014 44 6437 2.57 260 07:41 30.06.2022
632 Smoke 24 1016 40 10000 3.6 250 05:46 30.06.2022
633 Smoke 23 1016 45 4828 3.6 180 00:26 30.06.2022
634 Smoke 22 1018 50 6437 2.06 200 22:53 29.06.2022
635 Smoke 21 1018 50 6437 2.06 200 22:33 29.06.2022
636 Smoke 18 1019 65 6437 0 0 20:56 29.06.2022
637 Smoke 17 1019 68 6437 0 0 20:32 29.06.2022
638 Smoke 16 1019 70 8047 0 0 19:33 29.06.2022
639 Smoke 14 1017 73 8047 2.06 80 17:40 29.06.2022
640 Smoke 14 1016 74 8047 2.06 60 16:31 29.06.2022
641 Smoke 13 1016 75 8047 2.06 70 14:19 29.06.2022
642 Smoke 15 1016 66 10000 2.57 360 12:38 29.06.2022
643 Smoke 18 1015 61 9656 1.54 290 10:20 29.06.2022
644 Smoke 19 1015 56 9656 2.06 280 09:31 29.06.2022
645 Smoke 21 1015 49 9656 2.57 250 07:23 29.06.2022
646 Smoke 22 1015 47 2012 5.14 290 04:48 29.06.2022
647 Smoke 23 1016 44 1207 4.12 290 00:55 29.06.2022
648 Smoke 23 1016 43 1207 4.12 290 00:35 29.06.2022
649 Smoke 22 1018 47 2414 2.57 250 22:53 28.06.2022
650 Smoke 22 1018 50 2414 2.57 250 22:21 28.06.2022
651 Smoke 20 1018 60 2414 2.06 230 21:50 28.06.2022
652 Smoke 20 1018 62 2414 2.06 230 21:30 28.06.2022
653 Smoke 18 1018 68 2414 0 0 20:20 28.06.2022
654 Smoke 17 1019 70 3219 1.54 140 19:32 28.06.2022
655 Smoke 16 1019 73 3219 0 0 18:42 28.06.2022
656 Smoke 15 1018 71 3219 0 0 17:37 28.06.2022
657 Smoke 14 961 72 3219 0.45 198 15:56 28.06.2022
658 Clear 15 966 70 10000 0.72 294 14:59 28.06.2022
659 Smoke 15 945 70 3219 3.09 170 14:19 28.06.2022
660 Smoke 14 1018 72 3219 2.06 130 13:47 28.06.2022
661 Smoke 16 945 64 4023 3.09 0 12:48 28.06.2022
662 Smoke 18 1018 60 4828 3.09 280 10:46 28.06.2022
663 Smoke 20 1017 55 4828 3.09 290 09:25 28.06.2022
664 Smoke 20 1017 54 4023 0 0 08:43 28.06.2022
665 Smoke 23 1017 48 3621 3.09 260 07:20 28.06.2022
666 Smoke 26 1017 32 8047 4.63 250 04:56 28.06.2022
667 Smoke 24 1019 43 4828 2.06 180 23:56 27.06.2022
668 Smoke 24 1019 45 4828 2.06 180 23:36 27.06.2022
669 Smoke 22 1020 49 4828 2.06 230 22:50 27.06.2022
670 Smoke 20 1020 57 10000 1.54 160 21:30 27.06.2022
671 Smoke 18 1021 61 4828 0 0 20:38 27.06.2022
672 Smoke 16 1021 72 4828 0 0 18:55 27.06.2022
673 Smoke 15 1021 69 4828 0 0 17:45 27.06.2022
674 Smoke 14 1020 75 4828 1.54 70 15:51 27.06.2022
675 Smoke 13 1020 77 4023 2.57 70 14:26 27.06.2022
676 Clouds 14 1020 77 10000 0.3 284 12:59 27.06.2022
677 Smoke 14 1020 77 4828 1.54 60 12:36 27.06.2022
678 Smoke 19 1019 63 10000 0 0 10:22 27.06.2022
679 Smoke 23 1018 49 10000 1.54 310 08:43 27.06.2022
680 Clear 24 1018 46 10000 2.06 340 07:53 27.06.2022
681 Smoke 25 1018 42 10000 3.09 340 06:37 27.06.2022
682 Clouds 26 1020 34 10000 3.09 230 01:26 27.06.2022
683 Smoke 25 1020 34 10000 4.63 230 23:39 26.06.2022
684 Smoke 23 1020 43 10000 1.54 240 21:51 26.06.2022
685 Clear 21 1020 51 10000 1.54 120 20:34 26.06.2022
686 Smoke 19 1021 59 10000 2.06 90 19:19 26.06.2022
687 Smoke 18 1020 62 10000 3.6 60 18:23 26.06.2022
688 Clear 16 1019 64 10000 0.45 323 15:53 26.06.2022
689 Smoke 13 1009 79 10000 1.54 170 14:34 26.06.2022
690 Smoke 13 1020 76 10000 1.54 70 13:29 26.06.2022
691 Smoke 14 1020 74 10000 1.54 60 12:44 26.06.2022
692 Smoke 17 1019 69 10000 0 0 10:53 26.06.2022
693 Smoke 18 1019 63 10000 0.89 323 10:23 26.06.2022
694 Smoke 22 1019 51 10000 1.54 320 08:45 26.06.2022
695 Smoke 23 1019 44 10000 0.45 323 07:18 26.06.2022
696 Smoke 25 1022 37 10000 0 0 00:45 26.06.2022
697 Smoke 24 1022 36 10000 0.89 192 00:20 26.06.2022
698 Smoke 24 1023 40 10000 0 0 23:33 25.06.2022
699 Smoke 23 1024 44 10000 2.06 120 22:51 25.06.2022
700 Smoke 22 1024 47 10000 2.06 120 22:25 25.06.2022
701 Smoke 20 1025 49 10000 2.06 70 21:22 25.06.2022
702 Clear 17 1025 59 10000 1.54 90 20:54 25.06.2022
703 Smoke 18 1025 59 10000 1.54 90 20:25 25.06.2022
704 Smoke 16 1025 65 10000 2.06 60 18:42 25.06.2022
705 Smoke 15 1023 68 10000 2.57 70 17:28 25.06.2022
706 Haze 13 1023 70 6437 2.06 60 16:31 25.06.2022
707 Haze 13 1023 72 4828 1.54 60 14:47 25.06.2022
708 Haze 14 1024 73 6437 1.54 30 12:51 25.06.2022
709 Haze 14 1024 72 6437 1.54 30 12:32 25.06.2022
710 Haze 18 1023 58 9656 0 0 09:40 25.06.2022
711 Smoke 19 1022 54 1609 3.6 10 08:56 25.06.2022
712 Smoke 20 1023 51 10000 3.6 10 08:28 25.06.2022
713 Clear 22 1023 43 10000 1.54 170 06:46 25.06.2022
714 Smoke 22 1024 43 10000 2.06 200 01:53 25.06.2022
715 Smoke 21 1025 45 10000 3.09 210 00:20 25.06.2022
716 Smoke 20 1026 52 10000 1.54 180 22:31 24.06.2022
717 Smoke 18 1026 60 10000 1.54 140 21:29 24.06.2022
718 Smoke 16 1027 67 10000 1.54 140 20:25 24.06.2022
719 Smoke 15 1027 70 10000 1.54 70 19:43 24.06.2022
720 Smoke 14 1027 70 10000 1.54 70 19:18 24.06.2022
721 Smoke 13 1027 75 10000 2.06 80 18:46 24.06.2022
722 Smoke 13 1028 75 10000 2.06 80 18:28 24.06.2022
723 Smoke 10 1026 83 10000 2.06 60 16:52 24.06.2022
724 Smoke 10 1026 81 10000 2.06 40 15:27 24.06.2022
725 Smoke 10 1026 81 10000 2.57 70 14:25 24.06.2022
726 Smoke 10 1026 82 10000 1.54 90 13:46 24.06.2022
727 Smoke 12 1025 77 10000 0.45 288 11:42 24.06.2022
728 Smoke 13 1025 73 10000 0.45 288 10:42 24.06.2022
729 Smoke 15 1025 65 10000 0.45 288 09:42 24.06.2022
730 Clouds 16 1024 63 10000 0.45 288 08:58 24.06.2022
731 Smoke 17 1025 59 10000 2.57 260 08:40 24.06.2022
732 Smoke 19 1024 49 10000 5.66 240 06:47 24.06.2022
733 Smoke 19 1024 49 10000 5.66 240 06:27 24.06.2022
734 Smoke 19 1024 48 10000 4.63 270 05:21 24.06.2022
735 Smoke 18 1025 54 10000 5.66 250 00:47 24.06.2022
736 Smoke 18 1026 56 10000 3.6 200 22:43 23.06.2022
737 Smoke 17 1026 67 10000 3.09 0 21:43 23.06.2022
738 Smoke 16 1026 75 10000 0 0 20:43 23.06.2022
739 Clouds 14 1025 88 10000 2.06 70 19:57 23.06.2022
740 Smoke 14 1025 83 10000 3.09 70 18:43 23.06.2022
741 Smoke 14 1025 84 10000 2.06 90 17:37 23.06.2022
742 Smoke 14 1024 81 9656 3.6 160 16:32 23.06.2022
743 Rain 15 1024 71 6437 4.12 290 15:26 23.06.2022
744 Rain 15 1023 66 6437 5.14 300 14:45 23.06.2022
745 Smoke 16 1023 58 6437 4.12 250 11:49 23.06.2022
746 Smoke 17 1022 57 6437 0.45 21 10:56 23.06.2022
747 Smoke 18 1021 50 8047 0.45 257 09:20 23.06.2022
748 Clouds 23 1021 38 10000 3.6 220 05:48 23.06.2022
749 Smoke 24 1023 37 10000 2.57 250 01:21 23.06.2022
750 Smoke 23 1023 41 10000 3.6 320 00:18 23.06.2022
751 Smoke 22 1023 46 10000 4.63 310 23:22 22.06.2022
752 Smoke 20 1024 59 10000 1.54 100 21:44 22.06.2022
753 Smoke 18 1024 69 10000 0 0 20:52 22.06.2022
754 Smoke 18 1024 72 10000 0 0 20:20 22.06.2022
755 Smoke 17 1024 73 10000 2.06 160 19:44 22.06.2022
756 Smoke 14 1023 81 10000 2.06 70 17:40 22.06.2022
757 Smoke 13 1023 85 10000 2.57 60 16:43 22.06.2022
758 Smoke 12 1023 85 10000 2.06 70 15:29 22.06.2022
759 Smoke 12 1022 85 10000 2.57 80 14:57 22.06.2022
760 Smoke 12 1022 85 10000 2.57 70 13:49 22.06.2022
761 Smoke 12 1022 84 10000 2.57 70 13:24 22.06.2022
762 Smoke 13 1022 79 10000 3.09 190 12:31 22.06.2022
763 Smoke 15 1021 73 10000 3.09 190 11:45 22.06.2022
764 Smoke 15 1021 73 10000 3.09 190 11:45 22.06.2022
765 Clouds 17 1020 67 10000 5.66 260 10:47 22.06.2022
766 Clouds 18 1020 61 10000 5.14 270 09:42 22.06.2022
767 Clouds 21 1019 54 10000 1.54 200 07:22 22.06.2022
768 Clouds 25 1017 35 10000 4.63 290 02:39 22.06.2022
769 Clouds 24 1017 46 10000 3.09 250 00:57 22.06.2022
770 Clouds 24 1017 46 10000 3.09 250 00:57 22.06.2022
771 Clear 23 1018 60 10000 0.45 170 22:57 21.06.2022
772 Clouds 19 1019 67 10000 0.89 159 21:21 21.06.2022
773 Clear 14 1019 86 10000 1.54 150 19:30 21.06.2022
774 Clear 14 1019 86 10000 1.54 150 19:30 21.06.2022
775 Fog 12 1019 92 10000 0 0 17:56 21.06.2022
776 Fog 11 1017 93 10000 2.06 90 16:47 21.06.2022
777 Clear 11 1017 89 10000 0.45 258 12:23 21.06.2022
778 Clear 13 1016 84 10000 1.54 70 10:47 21.06.2022
779 Clear 14 1016 80 10000 2.57 200 09:35 21.06.2022
780 Clouds 16 1015 69 10000 0.45 269 07:56 21.06.2022
781 Rain 17 1015 65 10000 5.14 170 04:59 21.06.2022
782 Rain 20 1015 66 10000 3.09 0 00:31 21.06.2022
783 Rain 17 1016 79 10000 3.09 190 22:21 20.06.2022
784 Rain 16 1017 84 10000 2.57 220 21:40 20.06.2022
785 Mist 14 1017 88 10000 2.06 190 20:30 20.06.2022
786 Mist 13 1016 92 10000 1.54 220 19:37 20.06.2022
787 Mist 13 1016 94 10000 0.45 271 18:34 20.06.2022
788 Rain 12 1016 94 9656 4.12 250 17:49 20.06.2022
789 Rain 12 1015 93 10000 2.06 30 16:53 20.06.2022
790 Clouds 12 1015 92 10000 1.54 70 15:52 20.06.2022
791 Clouds 13 1013 91 10000 1.54 20 12:37 20.06.2022
792 Clouds 13 1013 88 10000 2.06 120 10:32 20.06.2022
793 Rain 13 1012 87 10000 2.06 110 08:56 20.06.2022
794 Rain 14 1011 83 10000 2.06 80 07:53 20.06.2022
795 Rain 19 1010 60 10000 6.17 300 05:26 20.06.2022
796 Clouds 20 1009 56 10000 4.63 300 01:33 20.06.2022
797 Smoke 19 1009 57 10000 3.6 310 00:25 20.06.2022
798 Smoke 18 1009 63 10000 2.57 270 22:46 19.06.2022
799 Smoke 17 1009 66 10000 0.45 188 21:51 19.06.2022
800 Smoke 17 1009 67 10000 1.34 275 21:31 19.06.2022
801 Smoke 16 1009 73 10000 2.06 190 20:38 19.06.2022
802 Smoke 15 1009 79 10000 1.54 100 19:47 19.06.2022
803 Smoke 13 1009 85 10000 2.06 70 18:43 19.06.2022
804 Smoke 12 1008 88 10000 2.57 70 17:48 19.06.2022
805 Smoke 12 1007 89 10000 2.06 80 17:22 19.06.2022
806 Smoke 11 1008 89 10000 3.09 80 16:34 19.06.2022
807 Smoke 10 1008 90 10000 1.54 80 15:41 19.06.2022
808 Clear 10 1007 90 10000 2.06 70 14:57 19.06.2022
809 Clear 11 1008 88 10000 2.06 70 14:19 19.06.2022
810 Clouds 12 1007 85 10000 3.09 80 13:21 19.06.2022
811 Clouds 14 1006 76 10000 2.57 60 10:55 19.06.2022
812 Clouds 15 1005 72 10000 1.54 90 09:46 19.06.2022
813 Clouds 16 1005 67 10000 3.6 360 08:47 19.06.2022
814 Rain 16 1004 68 10000 0.89 282 07:59 19.06.2022
815 Rain 19 1004 55 10000 2.57 220 05:36 19.06.2022
816 Smoke 22 1004 44 10000 6.69 230 01:29 19.06.2022
817 Smoke 21 1003 50 10000 5.14 260 00:24 19.06.2022
818 Smoke 21 1003 50 10000 4.63 230 23:36 18.06.2022
819 Smoke 20 1004 53 10000 3.6 230 22:39 18.06.2022
820 Clear 19 1005 57 10000 2.57 200 20:57 18.06.2022
821 Smoke 19 1005 57 10000 3.6 200 20:38 18.06.2022
822 Smoke 17 1005 62 10000 2.57 230 19:38 18.06.2022
823 Clear 16 1005 66 10000 3.6 240 18:45 18.06.2022
824 Clear 13 1005 73 10000 1.54 170 17:35 18.06.2022
825 Clear 12 1005 77 10000 1.54 50 16:56 18.06.2022
826 Clouds 11 1005 81 10000 2.57 110 15:33 18.06.2022
827 Clouds 11 1005 79 10000 1.54 190 14:45 18.06.2022
828 Clouds 12 1005 75 10000 1.54 60 13:23 18.06.2022
829 Clear 14 1004 69 10000 2.06 130 11:45 18.06.2022
830 Clouds 15 1004 63 10000 1.54 140 10:55 18.06.2022
831 Clouds 17 1003 54 10000 2.06 180 09:27 18.06.2022
832 Clouds 19 1003 46 10000 3.09 230 08:30 18.06.2022
833 Clouds 19 1003 46 10000 3.09 230 08:30 18.06.2022
834 Clear 21 1004 39 10000 5.66 220 06:49 18.06.2022
835 Clouds 24 1004 37 10000 3.09 100 03:46 18.06.2022
836 Clear 24 1005 37 10000 2.06 250 01:26 18.06.2022
837 Clear 24 1005 38 10000 2.57 270 00:48 18.06.2022
838 Clouds 25 1005 36 10000 0.45 253 23:58 17.06.2022
839 Clear 23 1006 41 10000 0.45 343 23:24 17.06.2022
840 Clear 21 1007 51 10000 1.54 160 21:27 17.06.2022
841 Clear 19 1008 59 10000 2.06 90 20:24 17.06.2022
842 Clear 16 1009 69 10000 2.57 90 18:52 17.06.2022
843 Clear 14 1009 75 10000 1.54 70 17:46 17.06.2022
844 Clear 13 1009 78 10000 1.54 80 16:43 17.06.2022
845 Clear 12 1009 79 10000 1.54 80 16:18 17.06.2022
846 Clear 12 1009 80 10000 2.57 30 15:34 17.06.2022
847 Clear 11 1010 82 10000 2.57 80 14:21 17.06.2022
848 Clear 11 1010 80 10000 3.09 60 13:48 17.06.2022
849 Clear 11 1010 79 10000 3.09 60 13:26 17.06.2022
850 Clouds 12 1010 76 10000 0.45 294 11:58 17.06.2022
851 Clear 13 1010 74 10000 1.54 100 11:39 17.06.2022
852 Clear 14 1010 73 10000 1.54 100 11:21 17.06.2022
853 Clear 18 1011 60 10000 3.09 360 08:33 17.06.2022
854 Clouds 18 1011 57 10000 5.66 350 07:51 17.06.2022
855 Clear 21 1011 50 10000 3.6 230 06:32 17.06.2022
856 Clouds 21 1012 48 10000 3.09 170 03:20 17.06.2022
857 Clouds 21 1014 50 10000 0.45 142 00:43 17.06.2022
858 Clouds 21 1015 54 10000 2.57 250 23:25 16.06.2022
859 Clouds 19 1016 56 10000 2.06 250 22:31 16.06.2022
860 Clouds 17 1015 66 10000 3.6 240 21:19 16.06.2022
861 Clouds 16 1016 71 10000 2.06 210 20:50 16.06.2022
862 Clouds 16 1015 73 10000 0.89 239 19:59 16.06.2022
863 Clouds 14 1016 77 10000 1.54 130 18:44 16.06.2022
864 Clouds 13 1017 78 10000 2.57 20 17:44 16.06.2022
865 Clouds 12 1017 79 10000 2.57 20 17:22 16.06.2022
866 Clouds 12 1017 78 10000 0 0 15:58 16.06.2022
867 Clouds 12 1017 77 10000 2.57 40 15:21 16.06.2022
868 Clouds 12 1017 76 10000 1.54 70 14:22 16.06.2022
869 Clouds 13 1018 73 10000 0.45 320 12:53 16.06.2022
870 Clouds 12 1018 74 10000 0.45 320 12:34 16.06.2022
871 Clouds 13 1018 72 10000 1.54 310 11:21 16.06.2022
872 Clear 14 1019 68 10000 2.57 360 10:41 16.06.2022
873 Clear 16 1019 63 10000 2.57 350 09:43 16.06.2022
874 Clear 17 1019 61 10000 4.12 360 08:56 16.06.2022
875 Clouds 17 1019 58 10000 4.63 10 07:41 16.06.2022
876 Clouds 20 1019 50 10000 3.6 270 05:51 16.06.2022
877 Clouds 21 1019 50 10000 1.54 240 03:56 16.06.2022
878 Smoke 20 1020 53 10000 4.12 210 01:52 16.06.2022
879 Smoke 20 1021 53 10000 4.12 210 01:22 16.06.2022
880 Smoke 21 1021 49 10000 3.6 180 00:22 16.06.2022
881 Clouds 19 1022 57 10000 2.06 250 22:53 15.06.2022
882 Smoke 15 1023 71 10000 0 0 21:37 15.06.2022
883 Clouds 17 1021 83 10000 1.38 272 20:59 15.06.2022
884 Smoke 14 1022 77 10000 1.54 190 20:36 15.06.2022
885 Smoke 14 1022 77 10000 0 0 20:18 15.06.2022
886 Smoke 12 1021 83 10000 0 0 18:41 15.06.2022
887 Clouds 12 1021 84 10000 0.46 226 17:53 15.06.2022
888 Smoke 10 1021 86 10000 2.57 70 16:27 15.06.2022
889 Smoke 10 1021 86 10000 0 0 15:19 15.06.2022
890 Smoke 12 1020 81 8047 3.6 210 13:29 15.06.2022
891 Smoke 12 1020 78 8047 3.09 200 12:47 15.06.2022
892 Smoke 14 1020 75 8047 3.09 150 11:28 15.06.2022
893 Smoke 15 1018 68 8047 6.17 230 10:22 15.06.2022
894 Smoke 17 1016 51 8047 5.14 230 09:34 15.06.2022
895 Smoke 21 1017 44 8047 4.63 240 07:43 15.06.2022
896 Clouds 21 1017 49 10000 2.15 264 05:58 15.06.2022
897 Clear 22 1016 44 8047 1.54 290 02:56 15.06.2022
898 Smoke 21 1015 47 8047 3.6 170 01:37 15.06.2022
899 Smoke 20 1016 48 8047 3.6 190 00:37 15.06.2022
900 Smoke 19 1016 49 8047 1.34 222 23:38 14.06.2022
901 Smoke 18 1016 57 8047 2.57 170 22:48 14.06.2022
902 Smoke 17 1015 60 8047 2.06 170 21:44 14.06.2022
903 Smoke 16 1015 62 8047 2.06 170 21:21 14.06.2022
904 Smoke 15 1015 63 8047 1.54 290 20:40 14.06.2022
905 Clouds 15 1014 64 10000 2.17 257 19:58 14.06.2022
906 Smoke 13 1014 70 8047 0 0 18:40 14.06.2022
907 Smoke 11 1013 74 8047 2.57 50 17:20 14.06.2022
908 Smoke 11 1012 73 8047 2.06 60 16:42 14.06.2022
909 Smoke 11 1012 74 8047 2.06 250 15:43 14.06.2022
910 Smoke 11 1011 69 6437 2.06 210 14:56 14.06.2022
911 Smoke 11 1011 69 6437 2.06 210 14:18 14.06.2022
912 Smoke 12 1010 63 6437 3.09 200 13:28 14.06.2022
913 Smoke 13 1009 61 6437 2.57 200 12:19 14.06.2022
914 Smoke 15 1009 56 6437 0 0 10:55 14.06.2022
915 Smoke 16 1008 53 6437 0.45 251 10:29 14.06.2022
916 Smoke 19 1007 46 6437 2.06 70 09:26 14.06.2022
917 Smoke 20 1006 43 6437 0 0 08:40 14.06.2022
918 Smoke 23 1006 33 6437 2.57 280 06:53 14.06.2022
919 Smoke 24 1006 27 6437 2.57 190 04:23 14.06.2022
920 Smoke 23 1006 30 8047 2.06 50 01:50 14.06.2022
921 Smoke 22 1006 36 8047 3.09 10 00:27 14.06.2022
922 Smoke 21 1006 36 6437 3.09 110 22:59 13.06.2022
923 Smoke 20 1006 43 6437 3.6 50 22:23 13.06.2022
924 Smoke 19 1007 44 6437 2.57 70 21:41 13.06.2022
925 Clouds 16 1006 68 10000 1.94 121 19:59 13.06.2022
926 Smoke 14 1008 62 6437 2.06 70 19:25 13.06.2022
927 Haze 11 1008 72 8047 2.57 70 17:57 13.06.2022
928 Haze 9 1007 75 8047 2.57 70 17:27 13.06.2022
929 Haze 10 1005 74 4828 3.09 60 16:31 13.06.2022
930 Haze 9 1006 80 4828 1.54 80 14:53 13.06.2022
931 Haze 8 1006 81 4828 1.54 80 14:32 13.06.2022
932 Haze 8 1006 81 4828 2.57 20 13:39 13.06.2022
933 Haze 10 1006 76 4828 1.54 350 12:23 13.06.2022
934 Haze 11 1005 75 4828 0 0 11:18 13.06.2022
935 Haze 13 1005 69 4828 2.57 10 10:26 13.06.2022
936 Haze 15 1004 62 4828 1.54 30 09:22 13.06.2022
937 Haze 18 1004 49 6437 0 0 06:55 13.06.2022
938 Haze 19 1004 44 9656 0 0 05:36 13.06.2022
939 Haze 19 1004 43 8047 1.54 330 02:47 13.06.2022
940 Haze 19 1005 46 8047 1.54 310 01:36 13.06.2022
941 Smoke 17 1005 54 10000 2.06 240 23:52 12.06.2022
942 Smoke 15 1005 58 10000 1.54 160 22:50 12.06.2022
943 Smoke 14 1006 58 10000 1.54 160 22:22 12.06.2022
944 Smoke 13 1006 60 10000 0 0 21:20 12.06.2022
945 Smoke 12 1006 68 10000 0 0 20:27 12.06.2022
946 Smoke 10 1006 73 10000 0 0 19:30 12.06.2022
947 Clear 10 1005 71 10000 1.54 40 17:51 12.06.2022
948 Clear 9 1003 71 10000 2.57 80 16:24 12.06.2022
949 Clear 7 1004 78 10000 2.06 60 14:57 12.06.2022
950 Clear 8 1003 74 10000 2.06 60 14:21 12.06.2022
951 Clear 9 1003 73 10000 0.45 270 13:51 12.06.2022
952 Clear 10 1002 69 10000 0.45 270 12:40 12.06.2022
953 Clouds 11 1002 63 10000 0.45 270 11:39 12.06.2022
954 Rain 13 1002 56 10000 2.06 350 10:22 12.06.2022
955 Clouds 15 1001 51 10000 5.66 300 08:55 12.06.2022
956 Clouds 15 1001 50 10000 5.66 300 08:36 12.06.2022
957 Clear 17 1000 45 10000 3.09 220 07:33 12.06.2022
958 Clouds 20 999 34 10000 4.63 280 04:45 12.06.2022
959 Clear 20 999 35 10000 3.09 240 03:24 12.06.2022
960 Clear 20 999 34 10000 3.6 260 01:42 12.06.2022
961 Clear 19 999 39 10000 2.57 260 00:58 12.06.2022
962 Clear 19 999 42 10000 2.57 260 00:20 12.06.2022
963 Clear 19 999 42 10000 2.57 260 00:20 12.06.2022
964 Clear 18 1000 42 10000 0 0 23:44 11.06.2022
965 Clear 18 999 45 10000 1.54 240 22:38 11.06.2022
966 Clear 17 1000 53 10000 2.06 170 21:52 11.06.2022
967 Clear 14 1000 61 10000 1.54 80 20:37 11.06.2022
968 Clear 13 1000 67 10000 1.54 270 19:46 11.06.2022
969 Clear 12 1000 69 10000 1.54 270 19:25 11.06.2022
970 Clear 11 1000 73 10000 1.54 30 18:33 11.06.2022
971 Clear 10 1000 76 10000 0 0 17:51 11.06.2022
972 Clear 9 1000 78 10000 0 0 17:27 11.06.2022
973 Clear 8 999 82 10000 0 0 16:55 11.06.2022
974 Clear 8 999 82 10000 1.54 10 16:27 11.06.2022
975 Clear 7 999 84 10000 2.06 280 15:31 11.06.2022
976 Clouds 7 998 83 10000 1.54 270 13:53 11.06.2022
977 Clouds 8 999 82 10000 1.54 270 12:51 11.06.2022
978 Clouds 10 998 77 10000 2.06 310 10:48 11.06.2022
979 Clouds 10 998 76 10000 1.54 340 09:55 11.06.2022
980 Rain 10 998 74 10000 2.57 330 09:19 11.06.2022
981 Clouds 12 998 64 10000 3.6 330 07:41 11.06.2022
982 Clouds 13 997 60 10000 3.6 310 06:30 11.06.2022
983 Clouds 14 997 55 10000 4.12 340 04:49 11.06.2022
984 Clouds 14 998 50 10000 2.06 330 01:53 11.06.2022
985 Clouds 14 998 48 10000 2.06 330 01:33 11.06.2022
986 Clouds 14 998 49 10000 3.6 360 00:20 11.06.2022
987 Rain 12 1000 55 10000 3.09 90 22:32 10.06.2022
988 Clouds 10 1000 64 10000 2.06 100 21:52 10.06.2022
989 Clouds 11 999 65 10000 3.09 70 20:42 10.06.2022
990 Clouds 11 999 65 10000 3.09 70 20:22 10.06.2022
991 Clouds 11 999 62 10000 2.57 80 19:20 10.06.2022
992 Clouds 10 999 63 10000 2.57 50 18:56 10.06.2022
993 Clouds 10 999 64 10000 2.57 50 18:18 10.06.2022
994 Clouds 9 998 64 10000 4.63 360 17:35 10.06.2022
995 Clouds 8 999 66 10000 4.12 350 16:51 10.06.2022
996 Clear 7 1000 69 10000 4.12 350 15:45 10.06.2022
997 Clear 7 1000 69 10000 0.45 265 14:57 10.06.2022
998 Clear 8 1001 63 10000 3.09 360 13:41 10.06.2022
999 Clear 9 1002 57 10000 3.6 350 12:24 10.06.2022
1000 Clouds 10 1001 57 10000 4.63 60 11:30 10.06.2022
1001 Clouds 11 1002 53 10000 4.63 50 10:36 10.06.2022
1002 Clouds 12 1002 53 10000 2.57 40 09:37 10.06.2022
1003 Clouds 14 1002 52 10000 2 19 07:58 10.06.2022
1004 Clouds 15 1003 46 10000 1.54 0 06:50 10.06.2022
1005 Clouds 15 1003 44 10000 1.54 0 06:31 10.06.2022
1006 Clouds 15 1004 44 10000 2.06 150 05:35 10.06.2022
1007 Clouds 15 1005 43 10000 1.54 20 02:54 10.06.2022
1008 Clouds 14 1006 46 10000 2.57 0 01:37 10.06.2022
1009 Clouds 14 1006 47 10000 0.89 162 23:58 09.06.2022
1010 Clouds 13 1008 48 10000 2.57 40 22:47 09.06.2022
1011 Clouds 12 1009 46 10000 3.6 340 21:46 09.06.2022
1012 Clouds 12 1008 48 10000 3.6 340 21:28 09.06.2022
1013 Clouds 11 1008 49 10000 4.12 360 20:40 09.06.2022
1014 Clear 11 1009 51 10000 4.63 360 19:51 09.06.2022
1015 Clear 9 1009 55 10000 5.66 10 18:43 09.06.2022
1016 Clear 8 1010 58 10000 4.12 40 17:56 09.06.2022
1017 Clear 7 1010 63 10000 5.14 360 16:38 09.06.2022
1018 Clear 6 1011 63 10000 5.14 350 15:42 09.06.2022
1019 Clear 6 1011 64 10000 4.12 40 14:34 09.06.2022
1020 Clear 6 1011 63 10000 5.14 40 13:46 09.06.2022
1021 Clear 7 1011 62 10000 5.14 40 13:25 09.06.2022
1022 Clear 8 1011 59 10000 5.14 30 11:53 09.06.2022
1023 Clear 9 1011 57 10000 6.17 30 10:36 09.06.2022
1024 Clear 10 1012 53 10000 6.17 30 09:40 09.06.2022
1025 Clear 10 1012 52 10000 6.17 30 09:21 09.06.2022
1026 Clear 13 1011 45 10000 7.72 50 07:29 09.06.2022
1027 Clear 16 1011 38 10000 7.2 10 04:47 09.06.2022
1028 Clear 17 1012 37 10000 6.69 40 01:43 09.06.2022
1029 Clear 16 1012 39 10000 7.72 30 23:24 08.06.2022
1030 Clouds 16 1013 39 10000 9.26 10 22:45 08.06.2022
1031 Clouds 16 1012 39 10000 9.26 10 22:25 08.06.2022
1032 Clear 15 1013 41 10000 7.2 20 21:45 08.06.2022
1033 Clear 14 1013 45 10000 7.72 30 20:33 08.06.2022
1034 Clear 13 1013 50 10000 6.69 20 19:47 08.06.2022
1035 Clear 11 1013 54 10000 6.69 360 18:49 08.06.2022
1036 Clear 10 1014 59 10000 5.66 10 17:48 08.06.2022
1037 Clear 9 1014 63 10000 5.66 50 16:18 08.06.2022
1038 Clear 9 1013 63 10000 6.17 360 14:49 08.06.2022
1039 Clear 11 1013 59 10000 3.6 40 12:55 08.06.2022
1040 Clear 11 1013 59 10000 3.6 40 12:55 08.06.2022
1041 Clear 12 1012 56 10000 4.63 60 11:44 08.06.2022
1042 Clear 12 1013 55 10000 4.63 60 11:19 08.06.2022
1043 Clear 15 1012 47 10000 5.14 30 09:46 08.06.2022
1044 Clear 15 1012 45 10000 5.14 30 09:19 08.06.2022
1045 Clear 18 1011 36 10000 7.72 20 07:30 08.06.2022
1046 Clear 21 1010 31 10000 6.69 30 04:51 08.06.2022
1047 Clear 22 1010 29 10000 5.66 10 02:28 08.06.2022
1048 Clear 22 1010 31 10000 5.66 20 23:41 07.06.2022
1049 Clouds 22 1010 33 10000 5.66 20 23:22 07.06.2022
1050 Clear 21 1010 32 10000 3.6 360 22:38 07.06.2022
1051 Clear 21 1010 36 10000 2.57 330 21:45 07.06.2022
1052 Clear 20 1010 37 10000 2.57 330 21:24 07.06.2022
1053 Clear 19 1011 38 10000 4.63 360 20:43 07.06.2022
1054 Clear 18 1010 42 10000 0.45 242 19:59 07.06.2022
1055 Clear 16 1011 46 10000 4.63 10 18:51 07.06.2022
1056 Clear 14 1010 57 10000 0 0 17:54 07.06.2022
1057 Clear 12 1010 61 10000 0.45 237 16:54 07.06.2022
1058 Clear 12 1010 60 10000 4.63 360 16:32 07.06.2022
1059 Clear 11 1011 60 10000 5.14 360 15:40 07.06.2022
1060 Clear 10 1011 62 10000 5.14 360 15:22 07.06.2022
1061 Clear 11 1010 60 10000 5.14 360 14:45 07.06.2022
1062 Clear 12 1010 54 10000 5.14 360 13:46 07.06.2022
1063 Clear 12 1010 54 10000 5.14 360 13:46 07.06.2022
1064 Clear 12 1010 53 10000 5.14 360 13:27 07.06.2022
1065 Clear 14 1010 48 10000 4.63 360 12:22 07.06.2022
1066 Clear 15 1009 44 10000 5.14 50 10:57 07.06.2022
1067 Clear 17 1009 39 10000 6.69 20 09:46 07.06.2022
1068 Clear 19 1008 35 10000 5.66 40 08:32 07.06.2022
1069 Clear 20 1008 30 10000 6.17 40 07:21 07.06.2022
1070 Clear 23 1008 24 10000 5.66 10 05:47 07.06.2022
1071 Clouds 24 1007 23 10000 6.69 10 02:28 07.06.2022
1072 Clear 24 1008 23 10000 3.09 340 00:33 07.06.2022
1073 Clear 22 1008 27 10000 2.57 360 23:32 06.06.2022
1074 Clear 22 1009 27 10000 2.57 10 22:37 06.06.2022
1075 Clear 20 1009 30 10000 2.57 20 21:36 06.06.2022
1076 Clear 18 1008 36 10000 3.6 70 19:53 06.06.2022
1077 Clouds 16 1008 38 10000 2.06 40 19:19 06.06.2022
1078 Clear 15 1008 42 10000 4.63 10 18:34 06.06.2022
1079 Clear 12 1008 48 10000 5.14 10 17:42 06.06.2022
1080 Clear 11 1008 50 10000 5.14 360 16:33 06.06.2022
1081 Clear 10 1008 55 10000 5.66 360 15:39 06.06.2022
1082 Clear 10 1008 49 10000 5.14 360 14:40 06.06.2022
1083 Clear 11 1007 43 10000 4.63 360 13:27 06.06.2022
1084 Clear 12 1007 39 10000 5.14 360 12:38 06.06.2022
1085 Clear 12 1007 40 10000 5.14 360 12:19 06.06.2022
1086 Clear 13 1008 36 10000 4.63 360 11:42 06.06.2022
1087 Clear 15 1006 32 10000 5.66 40 09:41 06.06.2022
1088 Clear 17 1005 29 10000 5.66 40 08:35 06.06.2022
1089 Clear 19 1005 27 10000 7.2 40 07:37 06.06.2022
1090 Clear 21 1004 23 10000 7.2 20 05:34 06.06.2022
1091 Clear 22 1004 19 10000 7.72 50 03:47 06.06.2022
1092 Clear 22 1004 18 10000 4.63 70 01:29 06.06.2022
1093 Clear 22 1004 18 10000 5.66 50 00:43 06.06.2022
1094 Clear 22 1005 19 10000 4.63 30 23:50 05.06.2022
1095 Clear 21 1004 21 10000 4.63 80 22:53 05.06.2022
1096 Clear 19 1005 24 10000 5.14 90 21:33 05.06.2022
1097 Clear 18 1005 27 10000 5.66 50 20:23 05.06.2022
1098 Clear 15 1005 34 10000 5.14 50 18:42 05.06.2022
1099 Clear 13 1005 39 10000 2.57 70 17:57 05.06.2022
1100 Clear 13 1005 41 10000 4.63 360 17:36 05.06.2022
1101 Clouds 12 1004 44 10000 4.63 360 17:18 05.06.2022
1102 Clear 12 1004 41 10000 5.14 360 16:45 05.06.2022
1103 Clear 11 1005 42 10000 4.12 10 14:46 05.06.2022
1104 Clear 13 1006 37 10000 4.12 50 13:55 05.06.2022
1105 Clear 15 1004 35 10000 4.63 60 11:57 05.06.2022
1106 Clear 15 1004 34 10000 4.12 50 10:45 05.06.2022
1107 Clear 16 1004 32 10000 4.12 50 10:24 05.06.2022
1108 Clouds 17 1004 31 10000 6.17 40 09:21 05.06.2022
1109 Clouds 19 1003 28 10000 7.2 50 08:22 05.06.2022
1110 Rain 23 1003 23 10000 5.66 40 05:24 05.06.2022
1111 Clear 23 1003 23 10000 7.2 50 04:36 05.06.2022
1112 Rain 24 1003 23 10000 6.17 50 02:19 05.06.2022
1113 Clear 23 1003 27 10000 6.17 40 01:23 05.06.2022
1114 Clear 23 1003 27 10000 6.17 40 01:23 05.06.2022
1115 Clear 23 1004 33 10000 3.6 50 22:48 04.06.2022
1116 Clouds 22 1004 37 10000 5.66 70 21:24 04.06.2022
1117 Clouds 18 1005 46 10000 4.12 60 19:26 04.06.2022
1118 Clouds 15 1005 45 10000 4.12 60 16:48 04.06.2022
1119 Clouds 14 1005 39 10000 2.57 20 16:20 04.06.2022
1120 Clouds 15 1006 38 10000 4.63 10 15:35 04.06.2022
1121 Clouds 10 1007 42 10000 2.64 21 13:59 04.06.2022
1122 Clouds 17 1007 34 10000 4.63 50 11:38 04.06.2022
1123 Clouds 18 1005 35 10000 6.69 50 10:52 04.06.2022
1124 Clouds 19 1006 34 10000 5.14 50 09:47 04.06.2022
1125 Clouds 20 1005 35 10000 0.45 281 08:59 04.06.2022
1126 Clouds 20 1006 33 10000 6.17 70 08:37 04.06.2022
1127 Rain 22 1005 31 10000 3.09 160 06:32 04.06.2022
1128 Rain 24 1006 27 10000 2.06 30 03:52 04.06.2022
1129 Clouds 24 1008 27 10000 3.6 180 00:22 04.06.2022
1130 Clear 24 1009 26 10000 3.09 90 22:57 03.06.2022
1131 Clouds 23 1009 31 10000 3.09 0 21:53 03.06.2022
1132 Clouds 20 1010 38 10000 3.09 30 20:40 03.06.2022
1133 Clouds 18 1011 46 10000 2.57 30 19:37 03.06.2022
1134 Clouds 13 1010 59 10000 0 0 16:58 03.06.2022
1135 Clouds 11 1009 65 10000 0.45 249 15:55 03.06.2022
1136 Clouds 9 1012 70 10000 2.57 70 14:25 03.06.2022
1137 Clouds 12 1012 62 10000 1.54 50 12:21 03.06.2022
1138 Clouds 17 1012 47 10000 1.03 270 09:57 03.06.2022
1139 Clouds 18 1012 44 10000 2.06 280 09:29 03.06.2022
1140 Clouds 21 1012 36 10000 3.09 290 07:47 03.06.2022
1141 Clouds 22 1012 29 10000 0.45 236 06:59 03.06.2022
1142 Clouds 22 1012 28 10000 3.6 300 06:28 03.06.2022
1143 Clouds 23 1013 29 10000 1.03 230 03:39 03.06.2022
1144 Clouds 22 1015 34 10000 2.06 200 23:53 02.06.2022
1145 Clouds 21 1016 35 10000 2.06 0 22:23 02.06.2022
1146 Clouds 20 1017 39 10000 0.89 185 20:56 02.06.2022
1147 Clouds 18 1017 45 10000 0.9 316 19:57 02.06.2022
1148 Clouds 18 1017 46 10000 2.06 10 19:38 02.06.2022
1149 Clouds 16 1018 54 10000 1.03 50 18:51 02.06.2022
1150 Clouds 13 1018 58 10000 1.54 60 16:30 02.06.2022
1151 Clouds 13 1018 57 10000 2.06 360 15:47 02.06.2022
1152 Clouds 14 1018 55 10000 2.57 330 13:31 02.06.2022
1153 Clouds 15 1018 52 10000 4.12 360 12:49 02.06.2022
1154 Clouds 16 1018 48 10000 0 0 10:45 02.06.2022
1155 Clouds 19 1017 37 10000 2.57 300 09:30 02.06.2022
1156 Clouds 21 1018 23 10000 4.63 300 08:45 02.06.2022
1157 Clouds 21 1016 32 10000 4.63 300 08:23 02.06.2022
1158 Clouds 23 1016 29 10000 3.6 300 06:21 02.06.2022
1159 Clouds 25 1017 28 10000 4.63 190 03:50 02.06.2022
1160 Clouds 24 1018 28 10000 5.14 250 01:33 02.06.2022
1161 Clouds 23 1018 33 10000 2.57 140 23:22 01.06.2022
1162 Clouds 22 1019 40 10000 2.06 190 22:18 01.06.2022
1163 Rain 20 1019 42 10000 2.06 180 21:24 01.06.2022
1164 Clear 19 1019 44 10000 0.45 229 20:39 01.06.2022
1165 Clear 17 1020 47 10000 1.54 130 19:52 01.06.2022
1166 Clear 15 1020 53 10000 2.06 70 18:41 01.06.2022
1167 Clear 12 1019 62 10000 3.09 60 16:58 01.06.2022
1168 Clear 12 1019 56 10000 2.06 80 15:45 01.06.2022
1169 Clear 12 1019 59 10000 2.57 80 14:50 01.06.2022
1170 Clear 11 1020 68 10000 0.45 92 13:26 01.06.2022
1171 Clear 14 1019 61 10000 1.54 80 11:23 01.06.2022
1172 Clear 18 1018 50 10000 0 0 09:30 01.06.2022
1173 Clear 21 1017 37 10000 1.54 140 08:19 01.06.2022
1174 Clear 23 1017 30 10000 1.54 170 07:20 01.06.2022
1175 Clear 25 1018 25 10000 1.54 170 04:53 01.06.2022
1176 Clear 24 1020 27 10000 2.06 190 23:50 31.05.2022
1177 Clear 23 1020 31 10000 1.54 0 22:43 31.05.2022
1178 Clear 22 1021 33 10000 1.54 0 22:24 31.05.2022
1179 Clear 20 1021 37 10000 2.06 20 21:44 31.05.2022
1180 Clear 18 1022 43 10000 1.54 80 20:44 31.05.2022
1181 Clear 18 1022 43 10000 1.54 80 20:44 31.05.2022
1182 Clear 18 1022 43 10000 1.54 80 20:44 31.05.2022
1183 Clear 18 1022 43 10000 1.54 80 20:44 31.05.2022
1184 Clear 17 1022 49 10000 1.54 0 19:46 31.05.2022
1185 Clear 13 1022 60 10000 2.06 90 18:33 31.05.2022
1186 Clear 12 1020 62 10000 2.57 70 17:46 31.05.2022
1187 Clear 10 1021 69 10000 2.57 80 16:21 31.05.2022
1188 Clouds 11 1020 62 10000 1.54 70 15:37 31.05.2022
1189 Clear 10 1020 68 10000 1.54 60 13:22 31.05.2022
1190 Clear 12 1020 64 10000 2.57 80 12:19 31.05.2022
1191 Clear 15 1019 53 10000 1.54 40 10:34 31.05.2022
1192 Clear 20 1018 33 10000 2.57 320 08:26 31.05.2022
1193 Clear 23 1018 28 10000 5.14 260 06:38 31.05.2022
1194 Clear 24 1018 26 10000 4.12 230 04:34 31.05.2022
1195 Clear 21 1019 34 10000 3.09 150 23:46 30.05.2022
1196 Clear 21 1019 34 10000 3.09 150 23:24 30.05.2022
1197 Clear 21 1019 36 10000 2.06 0 22:42 30.05.2022
1198 Clear 19 1020 40 10000 0.45 196 21:42 30.05.2022
1199 Clear 18 1020 41 10000 0 0 21:21 30.05.2022
1200 Clear 15 1020 52 10000 1.54 130 19:45 30.05.2022
1201 Clear 12 1020 59 10000 2.06 90 18:21 30.05.2022
1202 Clear 10 1020 65 10000 2.57 70 17:23 30.05.2022
1203 Clear 9 1018 70 10000 2.57 90 16:30 30.05.2022
1204 Clear 7 1018 75 10000 1.54 70 13:38 30.05.2022
1205 Clear 10 1016 63 10000 2.06 210 11:40 30.05.2022
1206 Clear 14 1013 49 10000 0.45 259 09:58 30.05.2022
1207 Clear 16 1015 43 10000 3.09 250 09:18 30.05.2022
1208 Clear 20 1013 33 10000 6.69 280 06:28 30.05.2022
1209 Clear 22 1012 32 10000 5.14 260 04:52 30.05.2022
1210 Clear 22 1012 32 10000 6.69 290 01:23 30.05.2022
1211 Clear 20 1012 36 10000 6.17 230 22:49 29.05.2022
1212 Clear 20 1012 38 10000 6.17 230 22:28 29.05.2022
1213 Clear 16 1013 52 10000 2.57 130 20:29 29.05.2022
1214 Clear 15 1013 58 10000 1.54 120 19:29 29.05.2022
1215 Clear 13 1013 64 10000 1.54 60 18:34 29.05.2022
1216 Rain 10 1011 71 10000 2.06 60 16:40 29.05.2022
1217 Clouds 10 1011 71 10000 2.57 360 15:47 29.05.2022
1218 Clouds 9 1010 71 10000 0 0 14:55 29.05.2022
1219 Clouds 10 1010 68 10000 2.06 90 13:18 29.05.2022
1220 Clear 11 1010 64 10000 0 0 11:20 29.05.2022
1221 Clear 13 1010 59 10000 0 0 10:34 29.05.2022
1222 Clear 19 1009 39 10000 3.09 280 08:36 29.05.2022
1223 Clouds 22 1008 30 10000 0.45 198 04:59 29.05.2022
1224 Clouds 22 1008 27 10000 5.66 220 04:39 29.05.2022
1225 Clear 22 1010 27 10000 6.17 260 01:52 29.05.2022
1226 Clear 21 1011 28 10000 3.09 210 23:48 28.05.2022
1227 Clear 21 1011 29 10000 3.09 210 23:25 28.05.2022
1228 Clear 19 1012 31 10000 1.54 0 22:21 28.05.2022
1229 Clear 17 1012 36 10000 0 0 21:19 28.05.2022
1230 Clear 17 1012 36 10000 0 0 21:19 28.05.2022
1231 Clear 13 1013 43 10000 1.54 90 19:21 28.05.2022
1232 Clear 11 1013 49 10000 1.54 80 18:45 28.05.2022
1233 Clear 9 1013 54 10000 3.09 70 17:34 28.05.2022
1234 Clear 7 1012 58 10000 2.57 70 16:22 28.05.2022
1235 Clear 8 1012 60 10000 0 0 15:38 28.05.2022
1236 Clear 7 1013 64 10000 0 0 13:57 28.05.2022
1237 Clear 7 1013 63 10000 2.57 50 12:43 28.05.2022
1238 Clear 8 1012 60 10000 2.06 80 11:54 28.05.2022
1239 Clear 11 1012 57 10000 0 0 10:43 28.05.2022
1240 Clear 14 1012 42 10000 2.06 360 09:56 28.05.2022
1241 Clear 17 1012 31 10000 2.06 290 08:39 28.05.2022
1242 Clear 19 1011 23 10000 3.6 290 07:23 28.05.2022
1243 Clear 20 1011 21 10000 4.63 290 05:24 28.05.2022
1244 Clear 20 1011 24 10000 4.63 330 02:33 28.05.2022
1245 Clear 20 1012 28 10000 4.63 320 00:31 28.05.2022
1246 Clear 18 1012 31 10000 3.6 330 22:50 27.05.2022
1247 Clear 18 1012 35 10000 4.63 360 21:37 27.05.2022
1248 Clear 17 1012 40 10000 2.06 360 20:48 27.05.2022
1249 Clear 16 1012 42 10000 2.06 360 20:21 27.05.2022
1250 Clear 15 1012 46 10000 2.57 360 19:41 27.05.2022
1251 Clear 15 1012 47 10000 2.57 360 19:21 27.05.2022
1252 Clear 11 1011 60 10000 2.06 160 17:34 27.05.2022
1253 Clear 10 1011 66 10000 1.54 110 16:36 27.05.2022
1254 Clear 9 1011 66 10000 3.09 260 15:20 27.05.2022
1255 Clear 10 1011 64 10000 4.63 320 13:44 27.05.2022
1256 Clear 11 1010 61 10000 2.57 310 12:35 27.05.2022
1257 Clear 13 1009 57 10000 2.57 300 11:33 27.05.2022
1258 Clouds 13 1009 57 10000 2.57 280 10:52 27.05.2022
1259 Clouds 13 1010 55 10000 2.57 280 10:22 27.05.2022
1260 Clouds 15 1008 50 10000 5.14 290 09:31 27.05.2022
1261 Clouds 18 1008 39 10000 6.17 290 07:42 27.05.2022
1262 Clear 20 1007 33 10000 7.72 250 05:27 27.05.2022
1263 Clouds 19 1009 35 10000 8.75 270 01:47 27.05.2022
1264 Clouds 19 1009 37 10000 8.23 260 00:19 27.05.2022
1265 Clouds 17 1009 40 10000 6.17 270 22:30 26.05.2022
1266 Clouds 17 1009 42 10000 6.17 250 21:34 26.05.2022
1267 Clouds 15 1010 52 10000 3.09 250 19:51 26.05.2022
1268 Clouds 14 1009 57 10000 3.09 250 19:19 26.05.2022
1269 Clouds 11 1008 66 10000 2.06 200 17:36 26.05.2022
1270 Clouds 11 1008 66 10000 2.06 200 17:36 26.05.2022
1271 Clouds 10 1009 69 10000 2.06 60 16:36 26.05.2022
1272 Clear 10 1009 69 10000 2.06 200 15:41 26.05.2022
1273 Clear 11 1008 65 10000 3.09 210 14:21 26.05.2022
1274 Clouds 12 1009 58 10000 3.09 200 12:35 26.05.2022
1275 Clear 13 1008 53 10000 4.12 230 11:21 26.05.2022
1276 Clouds 16 1007 39 10000 3.09 270 09:40 26.05.2022
1277 Clouds 17 1007 41 10000 3.09 270 09:19 26.05.2022
1278 Clouds 19 1006 35 10000 5.14 280 07:51 26.05.2022
1279 Clouds 20 1007 32 10000 7.72 260 03:35 26.05.2022
1280 Clouds 18 1008 34 10000 7.2 240 00:21 26.05.2022
1281 Clouds 17 1008 38 10000 6.17 250 23:22 25.05.2022
1282 Clouds 14 1009 50 10000 1.54 0 21:47 25.05.2022
1283 Clouds 13 1009 52 10000 1.54 0 21:28 25.05.2022
1284 Clouds 10 1010 56 10000 2.57 80 19:59 25.05.2022
1285 Clouds 9 1009 58 10000 2.06 70 19:21 25.05.2022
1286 Clouds 7 1009 62 10000 2.06 60 17:33 25.05.2022
1287 Clouds 7 1010 61 10000 2.06 80 16:36 25.05.2022
1288 Clouds 7 1009 58 10000 3.09 80 15:53 25.05.2022
1289 Clouds 7 1009 56 10000 3.09 80 14:51 25.05.2022
1290 Clouds 7 1009 58 10000 3.09 80 14:32 25.05.2022
1291 Clouds 7 1008 60 10000 2.06 70 13:35 25.05.2022
1292 Clouds 7 1009 60 10000 0 0 12:36 25.05.2022
1293 Clear 10 1009 47 10000 1.54 230 10:43 25.05.2022
1294 Clear 12 1008 44 10000 1.54 310 09:53 25.05.2022
1295 Clouds 14 1008 32 10000 2.25 228 08:23 25.05.2022
1296 Clouds 16 1008 26 10000 0.45 231 06:53 25.05.2022
1297 Clear 18 1008 27 10000 4.63 240 03:22 25.05.2022
1298 Clouds 15 1010 28 10000 0.89 262 23:55 24.05.2022
1299 Clouds 15 1010 30 10000 0.89 102 23:25 24.05.2022
1300 Clouds 14 1011 32 10000 1.54 0 22:19 24.05.2022
1301 Clear 13 1011 34 10000 0.45 281 21:39 24.05.2022
1302 Clear 13 1011 35 10000 0.89 281 21:20 24.05.2022
1303 Clouds 10 1011 43 10000 2.06 20 19:45 24.05.2022
1304 Clouds 8 1012 49 10000 2.57 60 18:50 24.05.2022
1305 Clear 5 1011 59 10000 3.09 60 16:42 24.05.2022
1306 Clear 4 1011 62 10000 3.09 60 16:19 24.05.2022
1307 Clear 2 1012 66 10000 3.6 350 14:50 24.05.2022
1308 Clear 3 1011 62 10000 2.06 360 13:52 24.05.2022
1309 Clear 4 1012 60 10000 2.06 10 12:49 24.05.2022
1310 Clear 7 1012 51 10000 2.57 30 10:46 24.05.2022
1311 Clear 9 1011 45 10000 4.12 40 09:43 24.05.2022
1312 Clear 10 1011 40 10000 6.17 50 08:49 24.05.2022
1313 Clear 13 1012 32 10000 5.14 70 06:57 24.05.2022
1314 Clear 14 1012 29 10000 4.63 70 03:56 24.05.2022
1315 Clouds 14 1013 28 10000 5.66 80 01:53 24.05.2022
1316 Clouds 14 1013 27 10000 7.2 40 01:32 24.05.2022
1317 Clouds 14 1014 31 10000 4.63 50 22:55 23.05.2022
1318 Clouds 13 1014 32 10000 4.12 30 21:55 23.05.2022
1319 Clouds 12 1014 37 10000 4.63 50 21:29 23.05.2022
1320 Clouds 11 1015 40 10000 6.17 50 20:35 23.05.2022
1321 Clear 10 1015 45 10000 6.17 30 19:32 23.05.2022
1322 Clear 8 1015 48 10000 5.66 50 18:58 23.05.2022
1323 Clear 8 1015 50 10000 5.66 50 18:30 23.05.2022
1324 Clear 6 1015 54 10000 6.17 10 17:20 23.05.2022
1325 Clear 6 1015 58 10000 5.66 10 15:23 23.05.2022
1326 Clouds 6 1015 55 10000 2.57 350 13:21 23.05.2022
1327 Clear 8 1015 48 10000 5.14 50 11:31 23.05.2022
1328 Clear 10 1014 40 10000 7.72 50 09:51 23.05.2022
1329 Clear 11 1014 40 10000 7.72 50 09:30 23.05.2022
1330 Clear 12 1013 36 10000 9.77 50 08:31 23.05.2022
1331 Clear 15 1012 31 10000 7.72 40 06:46 23.05.2022
1332 Clear 16 1012 28 10000 8.23 40 05:39 23.05.2022
1333 Clear 18 1012 25 10000 4.63 360 02:34 23.05.2022
1334 Clear 18 1012 25 10000 7.2 350 01:39 23.05.2022
1335 Clear 19 1013 24 10000 5.14 350 00:23 23.05.2022
1336 Clear 18 1013 26 10000 4.12 340 22:42 22.05.2022
1337 Clear 17 1013 29 10000 4.12 350 21:55 22.05.2022
1338 Clear 17 1013 28 10000 4.12 350 21:36 22.05.2022
1339 Clear 16 1013 31 10000 3.09 10 20:32 22.05.2022
1340 Clear 15 1014 32 10000 2.57 50 19:57 22.05.2022
1341 Clear 13 1013 41 10000 2.06 60 18:57 22.05.2022
1342 Clear 12 1013 45 10000 4.63 10 18:28 22.05.2022
1343 Clear 11 1013 53 10000 3.09 360 17:39 22.05.2022
1344 Clear 9 1014 59 10000 4.63 360 16:50 22.05.2022
1345 Clear 8 1014 61 10000 0 0 14:53 22.05.2022
1346 Clear 10 1014 56 10000 0.89 341 13:57 22.05.2022
1347 Clear 11 1014 53 10000 2.06 60 12:53 22.05.2022
1348 Clear 12 1014 49 10000 4.12 360 11:52 22.05.2022
1349 Clear 14 1015 44 10000 3.09 60 10:27 22.05.2022
1350 Clouds 15 1014 41 10000 3.6 30 09:19 22.05.2022
1351 Clouds 18 1014 36 10000 5.66 30 07:34 22.05.2022
1352 Clear 19 1015 33 10000 6.69 40 06:40 22.05.2022
1353 Clouds 23 1015 26 10000 3.09 190 03:20 22.05.2022
1354 Clear 22 1017 28 10000 3.6 160 00:48 22.05.2022
1355 Clear 22 1018 27 10000 2.57 140 23:56 21.05.2022
1356 Clouds 22 1018 28 10000 1.79 195 23:22 21.05.2022
1357 Clear 19 1020 33 10000 1.54 160 21:55 21.05.2022
1358 Clear 18 1020 34 10000 2.06 110 21:30 21.05.2022
1359 Clear 16 1021 38 10000 1.54 30 20:29 21.05.2022
1360 Clear 14 1021 44 10000 1.54 100 19:43 21.05.2022
1361 Clear 12 1020 51 10000 1.54 70 18:31 21.05.2022
1362 Clear 8 1021 63 10000 0 0 16:57 21.05.2022
1363 Clear 6 1022 71 10000 3.6 70 14:39 21.05.2022
1364 Clear 7 1022 71 10000 2.57 60 13:55 21.05.2022
1365 Clouds 8 1022 70 10000 2.06 330 13:19 21.05.2022
1366 Clouds 8 1022 69 10000 1.54 90 12:38 21.05.2022
1367 Clouds 11 1022 62 10000 0 0 11:20 21.05.2022
1368 Clear 14 1022 51 10000 0 0 09:57 21.05.2022
1369 Clear 18 1022 37 10000 0 0 08:59 21.05.2022
1370 Clear 19 1022 36 10000 0 0 08:37 21.05.2022
1371 Clear 22 1022 27 10000 0.06 51 06:20 21.05.2022
1372 Clouds 21 1026 26 10000 2.57 260 01:41 21.05.2022
1373 Clear 20 1027 31 10000 1.54 180 23:32 20.05.2022
1374 Clear 18 1028 37 10000 1.54 330 22:30 20.05.2022
1375 Clouds 17 1028 39 10000 0.89 182 21:56 20.05.2022
1376 Clouds 16 1029 41 10000 1.54 310 21:19 20.05.2022
1377 Clear 15 1029 43 10000 0.89 219 20:45 20.05.2022
1378 Clouds 13 1029 48 10000 0.45 199 19:45 20.05.2022
1379 Clouds 11 1029 53 10000 0.45 123 18:53 20.05.2022
1380 Clear 8 1029 63 10000 2.57 80 17:53 20.05.2022
1381 Clear 6 1029 69 10000 3.09 70 16:23 20.05.2022
1382 Clear 6 1029 68 10000 3.09 80 15:53 20.05.2022
1383 Clear 5 1029 70 10000 3.09 70 14:32 20.05.2022
1384 Clouds 6 1029 70 10000 0.45 88 13:59 20.05.2022
1385 Clear 7 1029 70 10000 1.54 50 11:51 20.05.2022
1386 Clear 9 1028 65 10000 1.54 70 10:45 20.05.2022
1387 Haze 13 1028 48 8047 0.45 266 09:23 20.05.2022
1388 Clear 16 1028 37 10000 3.09 300 07:43 20.05.2022
1389 Clouds 18 1027 35 10000 3.6 220 06:40 20.05.2022
1390 Clouds 18 1027 32 10000 1.54 300 05:39 20.05.2022
1391 Clouds 18 1028 31 10000 3.09 220 01:29 20.05.2022
1392 Clouds 16 1027 36 10000 4.63 200 23:46 19.05.2022
1393 Clouds 16 1028 38 10000 3.09 190 22:35 19.05.2022
1394 Clouds 15 1028 41 10000 2.06 230 21:50 19.05.2022
1395 Clouds 15 1028 43 10000 2.06 230 21:23 19.05.2022
1396 Clouds 13 1028 47 10000 1.54 180 20:43 19.05.2022
1397 Clouds 12 1028 50 10000 2.57 80 19:54 19.05.2022
1398 Clouds 10 1028 54 10000 0.89 191 18:59 19.05.2022
1399 Clouds 8 1026 59 10000 1.54 40 17:36 19.05.2022
1400 Clouds 6 1025 66 10000 1.03 70 15:43 19.05.2022
1401 Clouds 6 1026 67 10000 0 0 14:39 19.05.2022
1402 Clouds 6 1025 67 10000 0 0 14:19 19.05.2022
1403 Clouds 9 1023 56 10000 0.51 0 11:53 19.05.2022
1404 Clouds 9 1022 53 10000 2.06 70 10:30 19.05.2022
1405 Clouds 11 1020 47 10000 2.06 260 08:33 19.05.2022
1406 Clouds 13 1020 39 10000 2.57 300 07:18 19.05.2022
1407 Clouds 15 1018 34 10000 2.57 0 03:26 19.05.2022
1408 Clouds 15 1016 35 10000 1.34 254 00:56 19.05.2022
1409 Clouds 14 1017 39 10000 2.06 310 23:35 18.05.2022
1410 Clouds 13 1017 43 10000 2.57 0 22:43 18.05.2022
1411 Clouds 12 1017 44 10000 3.6 20 21:42 18.05.2022
1412 Clouds 12 1017 46 10000 3.6 20 21:20 18.05.2022
1413 Clouds 10 1017 50 10000 1.54 130 20:19 18.05.2022
1414 Clear 8 1016 58 10000 3.09 10 18:53 18.05.2022
1415 Clear 8 1016 58 10000 3.09 10 18:53 18.05.2022
1416 Clear 5 1016 65 10000 2.57 60 17:42 18.05.2022
1417 Clear 5 1016 66 10000 2.57 60 17:24 18.05.2022
1418 Clear 4 1015 70 10000 0 0 16:53 18.05.2022
1419 Clear 4 1015 73 10000 3.09 350 15:45 18.05.2022
1420 Clouds 3 1015 71 10000 3.09 350 15:20 18.05.2022
1421 Clouds 3 1014 69 10000 0.89 284 13:59 18.05.2022
1422 Clouds 6 1014 65 10000 1.54 310 12:53 18.05.2022
1423 Clouds 7 1014 59 10000 2.57 350 11:48 18.05.2022
1424 Clouds 7 1014 62 10000 2.57 350 11:30 18.05.2022
1425 Clouds 8 1014 57 10000 2.57 10 10:43 18.05.2022
1426 Clouds 8 1015 62 10000 2.16 34 07:59 18.05.2022
1427 Clouds 11 1012 53 10000 1.54 10 06:54 18.05.2022
1428 Clouds 13 1010 52 10000 0.51 0 03:40 18.05.2022
1429 Clouds 13 1011 47 10000 3.6 340 00:42 18.05.2022
1430 Clouds 13 1011 52 10000 4.12 150 23:21 17.05.2022
1431 Clouds 11 1011 62 10000 3.6 170 21:21 17.05.2022
1432 Clouds 10 1011 65 10000 1.54 180 20:43 17.05.2022
1433 Clouds 7 1011 73 10000 0.45 112 19:31 17.05.2022
1434 Clouds 6 1011 79 10000 2.06 170 18:46 17.05.2022
1435 Clouds 4 1011 83 10000 1.54 150 17:34 17.05.2022
1436 Clouds 4 1010 84 10000 0.51 200 16:55 17.05.2022
1437 Clouds 2 1010 88 10000 0 0 15:49 17.05.2022
1438 Clouds 3 1010 88 10000 0.51 230 14:55 17.05.2022
1439 Clouds 2 1010 88 10000 0.51 230 14:28 17.05.2022
1440 Clouds 3 1009 84 10000 0.51 190 12:37 17.05.2022
1441 Clouds 5 1008 81 10000 0 0 10:39 17.05.2022
1442 Clouds 6 1008 75 10000 2.06 170 08:51 17.05.2022
1443 Clouds 7 1008 72 10000 2.06 170 07:46 17.05.2022
1444 Clouds 8 1008 69 10000 2.06 140 06:23 17.05.2022
1445 Clouds 9 1008 59 10000 1.34 250 01:23 17.05.2022
1446 Clouds 8 1008 63 10000 2.06 160 23:43 16.05.2022
1447 Clouds 7 1008 65 10000 0.89 254 22:33 16.05.2022
1448 Clouds 6 1008 66 10000 0.51 190 21:18 16.05.2022
1449 Clouds 6 1008 70 10000 0.51 90 20:37 16.05.2022
1450 Clouds 3 1008 84 10000 2.06 360 18:51 16.05.2022
1451 Rain 2 1008 90 10000 2.57 20 17:18 16.05.2022
1452 Rain 2 1008 90 10000 2.57 20 17:18 16.05.2022
1453 Clouds 1 1009 92 10000 1.54 310 15:29 16.05.2022
1454 Rain 2 1008 91 10000 3.09 270 13:45 16.05.2022
1455 Rain 3 1008 89 10000 2.57 350 12:41 16.05.2022
1456 Rain 3 1008 86 10000 2.06 30 10:36 16.05.2022
1457 Clouds 4 1009 74 10000 0.77 98 07:59 16.05.2022
1458 Clouds 6 1008 58 10000 5.66 80 06:30 16.05.2022
1459 Clouds 10 1009 49 10000 1.79 61 01:43 16.05.2022
1460 Clouds 9 1010 48 10000 4.12 50 22:44 15.05.2022
1461 Clouds 9 1010 49 10000 4.12 50 22:20 15.05.2022
1462 Clouds 8 1010 50 10000 6.17 30 21:37 15.05.2022
1463 Clouds 8 1010 52 10000 7.2 40 20:47 15.05.2022
1464 Clouds 5 1011 58 10000 4.63 20 18:46 15.05.2022
1465 Clouds 4 1013 66 10000 3.09 10 16:54 15.05.2022
1466 Clouds 2 1014 70 10000 3.09 360 14:34 15.05.2022
1467 Clouds 2 1015 69 10000 3.09 350 13:46 15.05.2022
1468 Clouds 3 1016 67 10000 2.29 9 11:59 15.05.2022
1469 Clouds 2 1017 70 10000 3.6 360 10:49 15.05.2022
1470 Clouds 3 1018 60 10000 4.12 20 09:51 15.05.2022
1471 Rain 7 1018 60 10000 3.09 360 07:23 15.05.2022
1472 Rain 7 1018 63 10000 3.6 330 06:55 15.05.2022
1473 Rain 8 1019 68 10000 6.69 60 03:38 15.05.2022
1474 Rain 7 1020 69 10000 4.12 300 00:26 15.05.2022
1475 Rain 8 1020 65 10000 1.54 0 23:37 14.05.2022
1476 Clouds 6 1020 73 10000 0.89 271 21:51 14.05.2022
1477 Clouds 6 1020 75 10000 0 0 21:26 14.05.2022
1478 Clouds 4 1020 85 10000 1.54 80 20:27 14.05.2022
1479 Clouds 2 1020 90 10000 1.54 140 19:21 14.05.2022
1480 Clouds 2 1020 90 10000 1.15 300 18:58 14.05.2022
1481 Mist 0 1020 91 8047 1.54 110 17:47 14.05.2022
1482 Clouds 0 1020 93 10000 0.96 294 15:58 14.05.2022
1483 Clouds 0 1019 91 10000 0 0 14:39 14.05.2022
1484 Clouds 0 1019 91 10000 0.45 261 14:18 14.05.2022
1485 Clouds 1 1018 88 10000 0.45 272 11:48 14.05.2022
1486 Clouds 2 1018 87 10000 0.45 302 10:45 14.05.2022
1487 Rain 2 1017 85 10000 0.45 306 10:19 14.05.2022
1488 Rain 3 1017 84 10000 0.89 288 09:25 14.05.2022
1489 Rain 5 1016 71 10000 4.12 300 07:34 14.05.2022
1490 Rain 8 1014 54 10000 2.57 0 04:43 14.05.2022
1491 Clouds 7 1013 65 10000 5.66 280 01:42 14.05.2022
1492 Rain 6 1013 73 10000 2.57 0 23:28 13.05.2022
1493 Rain 6 1012 73 10000 4.12 170 22:55 13.05.2022
1494 Clouds 5 1012 77 10000 4.12 170 22:21 13.05.2022
1495 Clouds 4 1011 84 10000 3.09 160 20:59 13.05.2022
1496 Clouds 4 1011 86 10000 3.09 160 20:40 13.05.2022
1497 Clouds 4 1011 87 10000 2.57 250 20:21 13.05.2022
1498 Clouds 3 1010 88 10000 2.57 290 19:18 13.05.2022
1499 Clouds 2 1010 92 10000 2.57 190 17:47 13.05.2022
1500 Clouds 2 1009 92 10000 2.57 190 17:23 13.05.2022
1501 Clouds 1 1009 94 10000 3.6 170 15:48 13.05.2022
1502 Snow 2 1008 94 10000 3.09 160 14:45 13.05.2022
1503 Rain 2 1008 95 8047 3.09 170 12:54 13.05.2022
1504 Rain 2 1008 94 8047 3.09 170 12:20 13.05.2022
1505 Rain 2 1007 95 10000 3.09 210 10:19 13.05.2022
1506 Rain 2 1007 93 10000 3.09 210 09:29 13.05.2022
1507 Rain 3 1007 93 10000 4.12 220 07:59 13.05.2022
1508 Rain 3 1007 92 10000 3.6 160 07:26 13.05.2022
1509 Rain 3 1007 93 4828 5.14 180 05:31 13.05.2022
1510 Rain 4 1009 89 10000 2.06 210 01:21 13.05.2022
1511 Rain 4 1010 82 4828 4.63 170 23:24 12.05.2022
1512 Rain 5 1011 76 10000 2.57 160 22:35 12.05.2022
1513 Rain 5 1011 75 10000 3.6 170 21:26 12.05.2022
1514 Rain 3 1012 88 10000 1.79 236 19:55 12.05.2022
1515 Rain 2 1013 90 10000 2.57 220 18:29 12.05.2022
1516 Rain 2 1013 90 10000 2.06 200 16:45 12.05.2022
1517 Rain 2 1014 85 10000 2.57 180 15:22 12.05.2022
1518 Clouds 3 1013 75 10000 2.06 220 13:52 12.05.2022
1519 Clouds 3 1013 73 10000 2.06 260 12:29 12.05.2022
1520 Clouds 4 1013 64 10000 3.09 0 10:34 12.05.2022
1521 Clouds 6 1012 53 10000 3.09 300 08:56 12.05.2022
1522 Clouds 6 1012 53 10000 3.09 300 08:35 12.05.2022
1523 Clouds 7 1012 45 10000 2.06 300 07:25 12.05.2022
1524 Clouds 9 1012 39 10000 2.57 200 04:45 12.05.2022
1525 Clouds 9 1013 40 10000 3.09 190 01:37 12.05.2022
1526 Clouds 8 1015 44 10000 2.57 200 23:36 11.05.2022
1527 Clouds 7 1016 48 10000 2.06 0 22:21 11.05.2022
1528 Clouds 6 1016 55 10000 2.06 180 21:26 11.05.2022
1529 Clouds 6 1016 55 10000 2.06 180 21:26 11.05.2022
1530 Rain 5 1017 60 10000 2.57 180 20:45 11.05.2022
1531 Clear 0 1019 83 10000 1.54 190 17:43 11.05.2022
1532 Clear -1 1019 86 10000 0 0 16:39 11.05.2022
1533 Clouds 0 1019 82 10000 1.54 170 14:48 11.05.2022
1534 Clouds 0 1019 81 10000 1.54 170 14:25 11.05.2022
1535 Clouds 1 1020 76 10000 5.14 260 13:25 11.05.2022
1536 Clouds 2 1020 76 10000 3.6 230 11:48 11.05.2022
1537 Clouds 3 1020 73 10000 3.6 230 09:34 11.05.2022
1538 Clouds 5 1018 73 10000 5.66 240 06:59 11.05.2022
1539 Snow 4 1018 81 10000 7.2 230 02:27 11.05.2022
1540 Snow 3 1018 85 10000 5.66 230 23:45 10.05.2022
1541 Snow 2 1017 89 10000 6.17 250 22:30 10.05.2022
1542 Snow 2 1017 90 9656 5.66 230 21:41 10.05.2022
1543 Rain 1 1016 91 4828 5.14 230 20:47 10.05.2022
1544 Snow 0 1015 93 10000 4.63 230 18:58 10.05.2022
1545 Clouds 0 1014 93 10000 5.14 230 17:43 10.05.2022
1546 Rain 0 1014 94 9656 4.12 230 16:38 10.05.2022
1547 Clouds 1 1012 94 10000 4.12 230 13:37 10.05.2022
1548 Clouds 0 1012 96 10000 3.6 220 11:54 10.05.2022
1549 Clouds 1 1011 94 10000 3.6 220 11:34 10.05.2022
1550 Clouds 0 1011 95 10000 3.6 230 10:57 10.05.2022
1551 Clouds 1 1010 94 10000 3.09 220 09:52 10.05.2022
1552 Snow 1 1009 93 10000 3.09 240 08:22 10.05.2022
1553 Rain 2 1008 92 10000 3.6 220 06:21 10.05.2022
1554 Snow 2 1008 88 1811 5.14 270 02:31 10.05.2022
1555 Rain 3 1008 83 8047 5.66 250 23:55 09.05.2022
1556 Rain 3 1008 85 10000 5.66 260 22:41 09.05.2022
1557 Rain 2 1008 90 10000 7.2 250 21:42 09.05.2022
1558 Rain 2 1008 94 9656 6.17 220 20:22 09.05.2022
1559 Snow 1 1008 93 10000 5.14 220 18:29 09.05.2022
1560 Rain 1 1008 94 6437 1.54 220 17:27 09.05.2022
1561 Snow 1 1009 95 10000 1.54 170 16:21 09.05.2022
1562 Snow 0 1009 94 10000 2.06 160 15:47 09.05.2022
1563 Snow 0 1009 95 4023 2.06 170 14:41 09.05.2022
1564 Snow 0 1010 95 4828 1.54 160 13:59 09.05.2022
1565 Snow 0 1010 94 4828 2.06 190 13:32 09.05.2022
1566 Snow 1 1010 94 10000 1.54 150 11:53 09.05.2022
1567 Snow 1 1011 92 4426 2.57 180 10:50 09.05.2022
1568 Snow 1 1011 92 4828 2.57 180 10:26 09.05.2022
1569 Rain 3 1012 81 9656 3.6 300 07:57 09.05.2022
1570 Clouds 6 1013 57 10000 5.14 300 05:59 09.05.2022
1571 Clouds 7 1016 51 10000 2.24 302 01:59 09.05.2022
1572 Rain 6 1018 59 10000 5.66 210 23:29 08.05.2022
1573 Clouds 5 1018 63 10000 5.66 250 22:32 08.05.2022
1574 Rain 4 1019 68 10000 5.14 230 21:24 08.05.2022
1575 Clouds 4 1019 71 10000 3.6 190 20:25 08.05.2022
1576 Clouds 3 1019 74 10000 2.57 220 19:35 08.05.2022
1577 Clouds 2 1020 77 10000 3.09 230 18:40 08.05.2022
1578 Clouds 2 1019 78 10000 2.57 250 17:40 08.05.2022
1579 Clouds 1 1019 78 10000 2.57 250 16:23 08.05.2022
1580 Clouds 2 1018 78 10000 4.12 250 15:24 08.05.2022
1581 Clouds 3 1017 81 10000 3.09 250 13:44 08.05.2022
1582 Rain 4 1016 88 10000 1.54 190 11:50 08.05.2022
1583 Clouds 5 1015 85 10000 2.06 230 10:26 08.05.2022
1584 Clouds 5 1015 86 10000 2.57 250 09:53 08.05.2022
1585 Rain 6 1015 79 6437 5.14 290 07:57 08.05.2022
1586 Clear 8 1014 76 10000 1.54 100 06:18 08.05.2022
1587 Rain 8 1014 78 10000 2.06 280 03:22 08.05.2022
1588 Rain 8 1014 78 10000 2.06 280 03:22 08.05.2022
1589 Rain 11 1013 59 10000 5.14 240 01:19 08.05.2022
1590 Clear 10 1012 72 10000 2.24 213 23:57 07.05.2022
1591 Clear 10 1012 71 10000 2.06 140 23:32 07.05.2022
1592 Clear 8 1013 80 10000 1.34 98 22:42 07.05.2022
1593 Clouds 7 1012 87 10000 0 0 21:56 07.05.2022
1594 Clouds 6 1013 90 10000 0 0 21:21 07.05.2022
1595 Mist 4 1012 94 10000 0.89 209 20:25 07.05.2022
1596 Mist 4 1012 94 10000 0.89 209 20:25 07.05.2022
1597 Mist 3 1012 95 10000 0 0 18:49 07.05.2022
1598 Fog 3 1011 93 10000 0 0 16:34 07.05.2022
1599 Clouds 3 1010 94 10000 0 0 14:54 07.05.2022
1600 Rain 4 1009 91 10000 3.6 80 11:28 07.05.2022
1601 Rain 5 1008 89 10000 0 0 09:44 07.05.2022
1602 Clouds 6 1008 84 10000 2.06 220 08:30 07.05.2022
1603 Clouds 7 1007 82 10000 1.54 330 07:20 07.05.2022
1604 Clouds 7 1007 80 10000 2.06 260 06:42 07.05.2022
1605 Rain 7 1006 83 6437 4.12 40 03:57 07.05.2022
1606 Clear 10 1006 62 10000 2.57 0 23:51 06.05.2022
1607 Clear 10 1006 66 10000 2.06 180 22:40 06.05.2022
1608 Clear 9 1006 70 10000 1.54 190 21:53 06.05.2022
1609 Clear 8 1006 74 10000 1.54 190 21:29 06.05.2022
1610 Clouds 5 1006 84 10000 0.45 171 19:47 06.05.2022
1611 Clouds 5 1006 86 10000 0.45 147 19:24 06.05.2022
1612 Clear 3 1006 90 10000 0 0 18:31 06.05.2022
1613 Clouds 2 1006 92 10000 0 0 17:36 06.05.2022
1614 Clear 2 1005 92 10000 2.06 80 15:53 06.05.2022
1615 Clear 1 1005 91 10000 2.06 80 15:28 06.05.2022
1616 Clouds 2 1005 90 10000 0 0 13:49 06.05.2022
1617 Clouds 2 1004 89 10000 0 0 12:50 06.05.2022
1618 Clouds -2 1005 91 10000 1.33 0 11:58 06.05.2022
1619 Clouds 4 1004 81 10000 1.54 310 10:41 06.05.2022
1620 Clouds 5 1004 81 10000 2.06 30 09:47 06.05.2022
1621 Rain 5 1003 84 10000 2.06 30 09:18 06.05.2022
1622 Rain 6 1002 81 10000 2.06 220 07:49 06.05.2022
1623 Rain 8 1002 69 10000 5.14 230 06:26 06.05.2022
1624 Rain 8 1002 72 9656 6.17 310 02:58 06.05.2022
1625 Clouds 9 1001 64 10000 1.79 296 01:58 06.05.2022
1626 Clouds 9 1003 61 10000 0.74 23 22:58 05.05.2022
1627 Clear 9 1002 59 10000 1.54 0 21:49 05.05.2022
1628 Clouds 8 1001 61 10000 0.89 223 20:36 05.05.2022
1629 Clouds 5 1000 69 10000 0.61 96 18:56 05.05.2022
1630 Clouds 1 1000 80 10000 2.06 30 16:42 05.05.2022
1631 Clouds 1 1000 81 10000 2.06 70 15:30 05.05.2022
1632 Clouds 1 999 80 10000 1.54 40 13:30 05.05.2022
1633 Clear 1 999 78 10000 0 0 12:56 05.05.2022
1634 Clear 3 999 73 10000 0 0 11:35 05.05.2022
1635 Clear 6 998 53 10000 3.09 200 09:41 05.05.2022
1636 Clear 6 998 53 10000 3.09 200 09:41 05.05.2022
1637 Clouds 7 997 51 10000 3.6 290 08:40 05.05.2022
1638 Clouds 11 996 42 10000 4.12 310 06:24 05.05.2022
1639 Rain 13 996 31 10000 3.6 190 02:25 05.05.2022
1640 Clear 12 996 37 10000 4.12 230 01:41 05.05.2022
1641 Rain 12 997 40 10000 4.63 210 00:43 05.05.2022
1642 Rain 11 996 43 10000 4.63 200 23:18 04.05.2022
1643 Clouds 10 996 46 10000 3.6 190 21:59 04.05.2022
1644 Clouds 10 996 49 10000 2.06 130 21:34 04.05.2022
1645 Clouds 9 996 51 10000 0.45 221 20:52 04.05.2022
1646 Clouds 8 995 55 10000 0.45 342 20:18 04.05.2022
1647 Clear 6 996 56 10000 0.45 172 19:35 04.05.2022
1648 Clear 4 995 66 10000 2.06 30 18:42 04.05.2022
1649 Clear 3 995 68 10000 2.06 30 18:18 04.05.2022
1650 Clouds 1 995 77 10000 2.57 90 16:36 04.05.2022
1651 Clear 0 995 79 10000 2.57 80 15:32 04.05.2022
1652 Clear 0 994 79 10000 1.54 40 14:41 04.05.2022
1653 Clear 0 994 78 10000 1.54 40 14:19 04.05.2022
1654 Clouds 2 993 73 10000 2.06 50 12:39 04.05.2022
1655 Clear 4 992 61 10000 0 0 11:40 04.05.2022
1656 Clouds 8 992 35 10000 4.12 290 09:57 04.05.2022
1657 Clouds 8 992 42 10000 4.12 290 09:21 04.05.2022
1658 Clouds 9 991 37 10000 2.57 260 07:51 04.05.2022
1659 Clear 13 989 36 10000 1.54 270 04:45 04.05.2022
1660 Clear 12 990 37 10000 2.57 240 02:37 04.05.2022
1661 Clouds 11 990 40 10000 2.06 250 23:20 03.05.2022
1662 Clear 11 989 41 10000 2.06 110 21:53 03.05.2022
1663 Clear 11 990 41 10000 2.06 110 21:31 03.05.2022
1664 Clear 10 990 41 10000 1.79 173 20:52 03.05.2022
1665 Clear 7 990 47 10000 0.45 159 19:33 03.05.2022
1666 Clear 5 990 53 10000 2.06 80 18:47 03.05.2022
1667 Clear 1 990 70 10000 3.09 60 17:22 03.05.2022
1668 Clear 0 990 73 10000 2.57 60 16:19 03.05.2022
1669 Clear 0 991 72 10000 3.09 70 14:25 03.05.2022
1670 Clear 1 991 69 10000 2.57 70 12:42 03.05.2022
1671 Clear 1 991 61 10000 2.57 20 11:39 03.05.2022
1672 Clear 1 991 63 10000 4.12 30 10:49 03.05.2022
1673 Clear 8 990 39 10000 2.57 320 08:29 03.05.2022
1674 Clear 10 992 32 10000 5.14 140 06:45 03.05.2022
1675 Clear 12 992 30 10000 4.12 150 02:48 03.05.2022
1676 Clouds 11 993 38 10000 3.09 130 23:32 02.05.2022
1677 Clouds 11 994 41 10000 2.57 160 22:29 02.05.2022
1678 Clouds 10 993 42 10000 3.09 160 21:47 02.05.2022
1679 Clouds 8 992 53 10000 0.89 165 19:59 02.05.2022
1680 Clouds 4 993 65 10000 2.06 10 18:27 02.05.2022
1681 Clouds 3 993 66 10000 2.06 80 17:41 02.05.2022
1682 Clouds 2 993 70 10000 2.06 80 16:43 02.05.2022
1683 Clouds 2 993 67 10000 1.54 280 15:44 02.05.2022
1684 Clear 3 993 68 10000 2.57 70 14:51 02.05.2022
1685 Clouds 2 993 65 10000 3.6 70 13:42 02.05.2022
1686 Clear 4 993 63 10000 3.09 70 11:41 02.05.2022
1687 Clouds 4 994 60 10000 3.09 70 09:59 02.05.2022
1688 Clear 7 994 48 10000 2.57 70 08:31 02.05.2022
1689 Clear 10 994 40 10000 3.09 100 06:56 02.05.2022
1690 Clouds 12 996 34 10000 3.09 150 00:48 02.05.2022
1691 Clouds 11 996 34 10000 3.09 150 00:22 02.05.2022
1692 Clear 12 997 34 10000 3.6 90 23:40 01.05.2022
1693 Clear 10 998 40 10000 4.63 100 21:45 01.05.2022
1694 Clear 9 998 44 10000 4.12 80 20:50 01.05.2022
1695 Clear 6 998 54 10000 4.63 60 19:40 01.05.2022
1696 Clear 5 999 57 10000 2.57 60 18:53 01.05.2022
1697 Clear 2 1000 70 10000 3.09 60 17:51 01.05.2022
1698 Clear 1 1000 73 10000 3.6 60 16:42 01.05.2022
1699 Clear 0 1001 75 10000 3.6 60 16:18 01.05.2022
1700 Clear 1 1001 71 10000 4.12 70 14:54 01.05.2022
1701 Clear 1 1002 67 10000 4.63 70 12:52 01.05.2022
1702 Clear 3 1003 60 10000 3.6 70 10:45 01.05.2022
1703 Clouds 7 1004 37 10000 2.57 130 08:50 01.05.2022
1704 Clouds 11 1005 25 10000 4.63 130 06:51 01.05.2022
1705 Clear 12 1006 31 10000 8.23 120 02:46 01.05.2022
1706 Clear 12 1009 35 10000 4.12 140 22:51 30.04.2022
1707 Clear 12 1009 35 10000 4.12 140 22:51 30.04.2022
1708 Clear 11 1009 39 10000 3.09 120 21:33 30.04.2022
1709 Clear 9 1010 44 10000 2.57 100 20:22 30.04.2022
1710 Clear 8 1010 47 10000 3.09 90 19:31 30.04.2022
1711 Clear 1 1011 74 10000 2.57 80 17:37 30.04.2022
1712 Clear -1 1011 77 10000 3.6 70 16:28 30.04.2022
1713 Clear -1 1011 80 10000 1.54 40 15:19 30.04.2022
1714 Clear 0 1011 76 10000 0 0 14:30 30.04.2022
1715 Clouds 2 1011 69 10000 1.94 37 11:59 30.04.2022
1716 Clouds 3 1012 65 10000 2.06 20 11:32 30.04.2022
1717 Clouds 3 1011 63 10000 3.6 80 10:25 30.04.2022
1718 Clouds 6 1011 50 10000 0 0 08:26 30.04.2022
1719 Clear 12 1013 37 10000 1.54 270 04:58 30.04.2022
1720 Clear 11 1015 42 10000 0 0 00:34 30.04.2022
1721 Clouds 11 1014 45 10000 0.45 289 22:58 29.04.2022
1722 Clear 9 1016 46 10000 0 0 22:29 29.04.2022
1723 Clear 8 1016 51 10000 0 0 21:26 29.04.2022
1724 Clouds 7 1014 55 10000 1.54 60 20:24 29.04.2022
1725 Clear 5 1015 64 10000 1.54 50 19:28 29.04.2022
1726 Clouds 2 1015 73 10000 2.57 40 17:38 29.04.2022
1727 Clouds 0 1015 80 10000 2.57 70 16:43 29.04.2022
1728 Clouds 0 1015 77 10000 2.06 60 14:38 29.04.2022
1729 Clouds 0 1015 77 10000 2.06 60 14:38 29.04.2022
1730 Clouds 0 1015 77 10000 2.06 60 14:38 29.04.2022
1731 Clouds 1 1015 76 10000 0.45 61 13:59 29.04.2022
1732 Clouds 2 1016 70 10000 2.57 50 12:41 29.04.2022
1733 Clouds 2 1016 69 10000 2.57 100 10:56 29.04.2022
1734 Clouds 6 1015 37 10000 3.6 330 08:18 29.04.2022
1735 Clouds 9 1016 40 10000 1.54 180 07:27 29.04.2022
1736 Clear 12 1016 30 10000 2.57 190 06:34 29.04.2022
1737 Clear 11 1016 34 10000 3.09 210 03:23 29.04.2022
1738 Clear 11 1016 41 10000 3.09 230 00:18 29.04.2022
1739 Clear 10 1017 43 10000 2.57 150 23:26 28.04.2022
1740 Clouds 10 1015 42 10000 0.45 258 22:37 28.04.2022
1741 Clear 9 1016 43 10000 0.45 174 21:45 28.04.2022
1742 Clouds 8 1016 45 10000 0.45 137 20:49 28.04.2022
1743 Clouds 4 1016 54 10000 1.23 22 19:59 28.04.2022
1744 Clear 5 1016 54 10000 2.57 60 19:40 28.04.2022
1745 Clear 4 1016 59 10000 2.57 60 19:20 28.04.2022
1746 Clear 1 1015 68 10000 0 0 17:56 28.04.2022
1747 Clear 0 1015 73 10000 0 0 16:59 28.04.2022
1748 Clear 0 1016 70 10000 2.06 70 16:21 28.04.2022
1749 Clear -1 1016 74 10000 1.54 50 15:56 28.04.2022
1750 Clouds -1 1016 70 10000 3.6 50 15:23 28.04.2022
1751 Clear 1 1016 66 10000 3.09 30 13:43 28.04.2022
1752 Clear 1 1016 63 10000 4.12 10 12:34 28.04.2022
1753 Clear 3 1015 59 10000 4.12 350 11:51 28.04.2022
1754 Clear 4 1015 54 10000 5.14 360 10:30 28.04.2022
1755 Clear 4 1015 55 10000 3.6 10 09:51 28.04.2022
1756 Clear 6 1015 40 10000 4.63 60 07:45 28.04.2022
1757 Clear 8 1015 37 10000 4.12 50 06:54 28.04.2022
1758 Clouds 11 1016 84 10000 2.6 33 05:54 28.04.2022
1759 Clear 11 1015 33 10000 5.66 40 04:44 28.04.2022
1760 Clear 11 1015 32 10000 3.6 60 03:40 28.04.2022
1761 Clear 11 1016 37 10000 1.54 180 23:52 27.04.2022
1762 Clear 10 1016 40 10000 2.57 190 22:30 27.04.2022
1763 Clear 9 1016 44 10000 2.06 90 21:50 27.04.2022
1764 Clouds 9 1013 50 10000 1.05 59 20:56 27.04.2022
1765 Clouds 8 1015 51 10000 2.06 90 20:34 27.04.2022
1766 Clear 5 1016 59 10000 1.54 50 19:37 27.04.2022
1767 Clear 4 1016 68 10000 2.06 50 18:52 27.04.2022
1768 Clear 3 1016 73 10000 2.06 50 18:21 27.04.2022
1769 Clouds 1 1016 76 10000 1.54 320 16:23 27.04.2022
1770 Clouds 2 1016 65 10000 0 0 13:51 27.04.2022
1771 Rain 5 1016 57 10000 3.09 90 11:45 27.04.2022
1772 Rain 5 1016 57 10000 3.09 90 11:20 27.04.2022
1773 Clouds 1 1018 97 8576 1.86 15 08:58 27.04.2022
1774 Rain 10 1016 42 10000 1.54 130 06:45 27.04.2022
1775 Clear 11 1016 37 10000 3.6 200 03:41 27.04.2022
1776 Clouds 9 1016 43 10000 2.06 270 01:30 27.04.2022
1777 Clouds 9 1016 49 10000 1.54 280 00:36 27.04.2022
1778 Clouds 8 1016 57 10000 2.57 180 23:25 26.04.2022
1779 Clouds 6 1016 61 10000 1.54 230 22:57 26.04.2022
1780 Clouds 7 1015 57 10000 2.06 140 22:38 26.04.2022
1781 Clouds 6 1016 61 10000 3.6 140 21:26 26.04.2022
1782 Clouds 6 1015 58 10000 2.57 160 20:41 26.04.2022
1783 Clouds 4 1015 67 10000 0 0 19:49 26.04.2022
1784 Clouds 4 1015 68 10000 0 0 19:30 26.04.2022
1785 Clouds 3 1014 71 10000 0 0 18:44 26.04.2022
1786 Clear 0 1015 81 10000 0 0 17:54 26.04.2022
1787 Clouds -1 1015 81 10000 3.09 70 16:28 26.04.2022
1788 Clear 0 1015 75 10000 1.54 40 13:59 26.04.2022
1789 Clear 1 1015 73 10000 2.06 60 13:31 26.04.2022
1790 Clear 2 1014 72 10000 3.09 80 11:49 26.04.2022
1791 Clear 3 1014 65 10000 3.09 60 10:34 26.04.2022
1792 Clouds 0 1015 99 471 1.38 357 08:54 26.04.2022
1793 Clear 10 1013 37 10000 1.54 270 06:57 26.04.2022
1794 Clear 11 1013 36 10000 2.06 170 04:23 26.04.2022
1795 Clear 9 1014 43 10000 3.09 190 01:22 26.04.2022
1796 Clear 9 1014 40 10000 2.06 230 00:25 26.04.2022
1797 Clouds 8 1013 46 10000 0 0 22:21 25.04.2022
1798 Clouds 7 1014 56 10000 2.06 260 21:39 25.04.2022
1799 Clouds 5 1014 58 10000 0.45 141 20:35 25.04.2022
1800 Clouds 3 1013 70 10000 0 0 18:54 25.04.2022
1801 Clouds 1 1013 78 10000 2.57 110 17:52 25.04.2022
1802 Clouds 0 1013 80 10000 2.57 50 16:52 25.04.2022
1803 Clouds -1 1013 79 10000 1.54 60 15:24 25.04.2022
1804 Clouds 0 1012 77 10000 1.54 80 14:34 25.04.2022
1805 Clouds 0 1012 76 10000 2.06 50 13:32 25.04.2022
1806 Clear 2 1011 70 10000 2.06 70 11:37 25.04.2022
1807 Clear 1 1011 70 10000 3.6 90 10:20 25.04.2022
1808 Clouds 6 1010 43 10000 1.54 200 08:35 25.04.2022
1809 Clear 10 1010 35 10000 2.57 200 06:37 25.04.2022
1810 Clear 11 1010 33 10000 3.09 200 03:44 25.04.2022
1811 Clear 7 1011 45 10000 2.57 240 00:33 25.04.2022
1812 Clear 7 1011 47 10000 2.57 200 23:51 24.04.2022
1813 Clear 6 1011 49 10000 2.06 230 22:41 24.04.2022
1814 Clear 6 1011 49 10000 2.06 230 22:18 24.04.2022
1815 Clear 5 1011 52 10000 1.54 210 21:24 24.04.2022
1816 Clear 4 1011 59 10000 0 0 20:48 24.04.2022
1817 Clear 4 1011 58 10000 0 0 20:22 24.04.2022
1818 Clear 2 1010 66 10000 0.45 325 19:19 24.04.2022
1819 Clear 0 1010 75 10000 0 0 18:20 24.04.2022
1820 Clear -2 1010 81 10000 0 0 17:27 24.04.2022
1821 Clouds -2 1009 81 4367 0.54 50 16:58 24.04.2022
1822 Clear -2 1010 82 10000 2.57 90 16:30 24.04.2022
1823 Clear -2 1010 82 10000 2.57 90 16:30 24.04.2022
1824 Clear -2 1010 82 10000 2.57 60 15:53 24.04.2022
1825 Clear -2 1009 80 10000 2.06 70 14:55 24.04.2022
1826 Clear -1 1009 78 10000 0 0 13:45 24.04.2022
1827 Clear -1 1009 78 10000 0 0 13:45 24.04.2022
1828 Clear -1 1009 77 10000 0 0 13:23 24.04.2022
1829 Clear -1 1009 70 10000 0 0 11:55 24.04.2022
1830 Clear 0 1009 71 10000 0 0 11:22 24.04.2022
1831 Clear 2 1008 61 10000 1.54 300 09:51 24.04.2022
1832 Clouds 4 1008 55 10000 0 0 08:31 24.04.2022
1833 Clouds 10 1006 37 10000 2.06 250 05:46 24.04.2022
1834 Clouds 11 1007 28 10000 0.53 43 02:59 24.04.2022
1835 Clear 10 1006 35 10000 2.57 50 00:55 24.04.2022
1836 Clouds 9 1006 35 10000 2.06 60 23:55 23.04.2022
1837 Clouds 9 1006 38 10000 2.06 60 23:25 23.04.2022
1838 Clear 9 1006 36 10000 2.06 50 22:42 23.04.2022
1839 Clear 7 1005 46 10000 3.09 70 21:49 23.04.2022
1840 Clear 6 1005 46 10000 3.09 70 21:30 23.04.2022
1841 Clear 6 1006 44 10000 2.06 50 20:27 23.04.2022
1842 Clear 2 1005 64 10000 2.57 70 19:21 23.04.2022
1843 Clear 0 1006 70 10000 4.63 80 18:55 23.04.2022
1844 Clear 1 1005 66 10000 4.63 80 18:32 23.04.2022
1845 Clear -1 1005 73 10000 3.09 70 17:47 23.04.2022
1846 Clear -2 1005 75 10000 3.09 70 16:46 23.04.2022
1847 Clear -2 1006 72 10000 3.09 70 15:53 23.04.2022
1848 Clear -2 1006 72 10000 3.09 70 15:53 23.04.2022
1849 Clouds -1 1005 72 10000 3.6 80 13:33 23.04.2022
1850 Clear -1 1004 67 10000 3.6 70 11:57 23.04.2022
1851 Clear 0 1004 61 10000 2.06 70 10:37 23.04.2022
1852 Clouds 8 1003 34 10000 2.57 110 08:27 23.04.2022
1853 Clear 10 1003 30 10000 1.54 240 04:18 23.04.2022
1854 Clear 9 1003 36 10000 2.06 260 03:32 23.04.2022
1855 Clouds 8 1003 38 10000 0 0 23:38 22.04.2022
1856 Clouds 8 1003 38 10000 0 0 23:20 22.04.2022
1857 Clouds 7 1003 40 10000 3.6 80 21:58 22.04.2022
1858 Clouds 7 1003 41 10000 3.6 80 21:39 22.04.2022
1859 Clouds 4 1002 56 10000 1.54 70 20:35 22.04.2022
1860 Clouds 2 1003 52 10000 4.12 70 19:27 22.04.2022
1861 Clouds 0 1003 48 10000 3.09 60 18:57 22.04.2022
1862 Clouds -1 1003 58 10000 3.09 60 18:28 22.04.2022
1863 Clear -2 1003 67 10000 3.09 70 17:24 22.04.2022
1864 Clouds -3 1003 68 10000 2.2 33 15:59 22.04.2022
1865 Clear -3 1003 67 10000 3.6 70 15:30 22.04.2022
1866 Clear -5 1002 68 10000 0 0 14:38 22.04.2022
1867 Clear -3 1003 57 10000 3.6 60 13:41 22.04.2022
1868 Clear -1 1003 55 10000 3.09 60 12:48 22.04.2022
1869 Clear -1 1003 57 10000 3.6 60 11:23 22.04.2022
1870 Clear 0 1003 59 10000 3.09 60 10:57 22.04.2022
1871 Clear -1 1003 55 10000 3.09 60 10:34 22.04.2022
1872 Clear -1 1003 60 10000 3.09 70 09:59 22.04.2022
1873 Clear 0 1003 58 10000 3.09 70 09:22 22.04.2022
1874 Clear 4 1002 45 10000 2.57 60 08:48 22.04.2022
1875 Clear 8 1003 34 10000 3.6 80 06:42 22.04.2022
1876 Clear 8 1005 34 10000 2.57 240 01:34 22.04.2022
1877 Clouds 6 1007 41 10000 2.57 230 23:35 21.04.2022
1878 Clear 6 1006 43 10000 2.06 240 22:47 21.04.2022
1879 Clear 4 1007 48 10000 2.06 240 21:42 21.04.2022
1880 Clear 1 1007 54 10000 0.45 186 20:31 21.04.2022
1881 Clear -1 1007 61 10000 0 0 19:24 21.04.2022
1882 Clear -2 1007 63 10000 0 0 18:32 21.04.2022
1883 Clear -5 1008 76 10000 1.54 80 17:20 21.04.2022
1884 Clear -7 1009 79 10000 1.54 70 16:19 21.04.2022
1885 Clear -6 1009 76 10000 2.06 90 15:19 21.04.2022
1886 Clear -5 1008 77 10000 0 0 14:28 21.04.2022
1887 Clear -4 1009 76 10000 0 0 13:22 21.04.2022
1888 Clear -5 1009 76 10000 2.06 90 12:25 21.04.2022
1889 Clouds -3 1010 68 2929 0.84 24 09:58 21.04.2022
1890 Clear -1 1008 47 10000 0 0 08:47 21.04.2022
1891 Clear 5 1010 31 10000 2.57 200 06:44 21.04.2022
1892 Clouds 7 1009 35 10000 2.06 0 03:42 21.04.2022
1893 Clouds 7 1009 35 10000 2.06 0 03:22 21.04.2022
1894 Clouds 7 1010 36 10000 0.89 315 02:44 21.04.2022
1895 Clouds 7 1010 36 10000 0.89 315 02:44 21.04.2022
1896 Clouds 6 1011 34 10000 2.24 199 00:35 21.04.2022
1897 Clouds 5 1010 37 10000 1.54 0 23:40 20.04.2022
1898 Clouds 5 1010 38 10000 1.54 0 23:18 20.04.2022
1899 Clouds 5 1010 38 10000 0.45 244 22:36 20.04.2022
1900 Clear 3 1011 39 10000 0.45 190 21:47 20.04.2022
1901 Clouds 2 1011 43 10000 0.89 173 20:45 20.04.2022
1902 Clouds 2 1011 44 10000 0 0 20:21 20.04.2022
1903 Clear 1 1011 45 10000 0 0 19:46 20.04.2022
1904 Clear -2 1011 57 10000 2.06 70 18:48 20.04.2022
1905 Clear -5 1011 70 10000 0 0 17:50 20.04.2022
1906 Clear -5 1011 65 10000 2.06 60 16:39 20.04.2022
1907 Clear -5 1011 61 10000 4.12 70 15:26 20.04.2022
1908 Clear -5 1010 67 10000 3.6 90 12:22 20.04.2022
1909 Clear -4 1009 70 10000 3.6 70 11:42 20.04.2022
1910 Clear -4 1010 66 10000 3.6 70 10:43 20.04.2022
1911 Clear -3 1009 64 10000 1.54 70 09:31 20.04.2022
1912 Clear -2 1008 55 10000 0 0 08:40 20.04.2022
1913 Clear -1 1009 58 10000 0 0 08:18 20.04.2022
1914 Clear 5 1007 35 10000 1.54 230 06:18 20.04.2022
1915 Clear 7 1006 27 10000 5.14 90 01:37 20.04.2022
1916 Clear 6 1006 28 10000 6.17 80 00:22 20.04.2022
1917 Clear 6 1006 29 10000 1.34 218 22:59 19.04.2022
1918 Clear 6 1006 29 10000 1.34 218 22:59 19.04.2022
1919 Clear 5 1006 31 10000 6.17 80 22:23 19.04.2022
1920 Clear 5 1006 31 10000 1.79 190 21:53 19.04.2022
1921 Clear 4 1006 30 10000 1.79 275 20:59 19.04.2022
1922 Clear 4 1006 31 10000 7.2 70 20:37 19.04.2022
1923 Clear 0 1007 40 10000 4.63 60 19:32 19.04.2022
1924 Clear -2 1007 45 10000 3.6 50 18:31 19.04.2022
1925 Clear -4 1007 50 10000 4.12 60 16:55 19.04.2022
1926 Clear -4 1007 50 10000 4.12 60 16:33 19.04.2022
1927 Clear -8 1007 91 10000 2.14 41 15:59 19.04.2022
1928 Clear -5 1007 47 10000 4.63 60 14:46 19.04.2022
1929 Clear -2 1008 46 10000 3.6 50 12:58 19.04.2022
1930 Clear -5 1008 52 10000 4.12 30 12:36 19.04.2022
1931 Clear -5 1008 54 10000 4.12 40 11:35 19.04.2022
1932 Clear -2 1008 50 10000 3.09 50 09:51 19.04.2022
1933 Clear 0 1008 51 10000 4.63 80 08:22 19.04.2022
1934 Clear 6 1008 29 10000 6.17 70 04:26 19.04.2022
1935 Clear 6 1010 28 10000 6.17 90 02:41 19.04.2022
1936 Clear 5 1012 29 10000 5.14 80 00:23 19.04.2022
1937 Clear 3 1014 27 10000 4.63 40 22:54 18.04.2022
1938 Clear 1 1014 35 10000 4.63 60 21:28 18.04.2022
1939 Clear 0 1016 37 10000 4.12 70 20:40 18.04.2022
1940 Clear 0 1016 38 10000 4.12 70 20:22 18.04.2022
1941 Clear -2 1016 42 10000 4.63 60 19:40 18.04.2022
1942 Clear -5 1016 52 10000 4.63 60 18:49 18.04.2022
1943 Clear -7 1018 57 10000 4.63 70 17:49 18.04.2022
1944 Clear -8 1018 60 10000 4.63 70 17:49 18.04.2022
1945 Clear -7 1018 57 10000 4.63 70 17:49 18.04.2022
1946 Clear -9 1018 62 10000 4.63 70 17:20 18.04.2022
1947 Clear -8 1019 59 10000 5.14 70 16:40 18.04.2022
1948 Clear -7 1019 57 10000 5.14 60 15:43 18.04.2022
1949 Clear -7 1019 60 10000 3.6 60 14:28 18.04.2022
1950 Clear -7 1020 60 10000 3.6 60 13:25 18.04.2022
1951 Clear -6 1020 54 10000 3.6 60 12:27 18.04.2022
1952 Clouds -10 1021 96 10000 1.91 25 10:59 18.04.2022
1953 Clear -7 1021 63 10000 2.57 50 10:28 18.04.2022
1954 Clear -6 1021 63 10000 2.06 60 09:30 18.04.2022
1955 Clear 1 1021 36 10000 1.54 150 07:34 18.04.2022
1956 Clear 5 1022 26 10000 3.09 130 03:57 18.04.2022
1957 Clear 2 1023 26 10000 4.63 80 23:41 17.04.2022
1958 Clear 1 1023 27 10000 5.14 70 22:39 17.04.2022
1959 Clear 0 1024 31 10000 5.66 80 21:39 17.04.2022
1960 Clear -1 1024 30 10000 5.66 80 21:19 17.04.2022
1961 Clear -3 1025 34 10000 7.2 70 20:32 17.04.2022
1962 Clear -5 1025 33 10000 4.63 60 19:21 17.04.2022
1963 Clear -10 1025 47 10000 4.12 30 17:38 17.04.2022
1964 Clear -8 1024 45 10000 4.63 50 15:38 17.04.2022
1965 Clear -9 1026 48 10000 3.09 60 14:53 17.04.2022
1966 Clear -11 1025 46 10000 3.6 40 13:44 17.04.2022
1967 Clear -8 1026 45 10000 3.09 60 12:56 17.04.2022
1968 Clear -9 1025 46 10000 4.63 70 11:24 17.04.2022
1969 Clear -8 1025 44 10000 4.63 60 10:38 17.04.2022
1970 Clear -6 1024 42 10000 4.12 30 10:19 17.04.2022
1971 Clear -6 1025 36 10000 4.63 10 09:23 17.04.2022
1972 Clear -5 1024 39 10000 5.14 60 08:41 17.04.2022
1973 Clear -3 1023 40 10000 6.69 50 06:52 17.04.2022
1974 Clear 1 1022 32 10000 7.2 50 03:20 17.04.2022
1975 Clear 1 1022 31 10000 5.66 50 00:53 17.04.2022
1976 Clear 0 1021 32 10000 5.14 40 23:48 16.04.2022
1977 Clear -2 1022 38 10000 3.6 60 21:55 16.04.2022
1978 Clear -2 1022 42 10000 3.6 60 21:23 16.04.2022
1979 Clear -6 1021 41 10000 2.06 40 19:54 16.04.2022
1980 Clear -7 1021 47 10000 2.06 70 18:54 16.04.2022
1981 Clear -9 1021 54 10000 5.14 10 17:38 16.04.2022
1982 Clear -10 1020 53 10000 4.63 360 16:31 16.04.2022
1983 Clear -9 1020 53 10000 5.14 360 15:26 16.04.2022
1984 Clear -9 1020 52 10000 5.14 360 14:47 16.04.2022
1985 Clear -6 1020 42 10000 2.57 50 13:56 16.04.2022
1986 Clear -7 1019 43 10000 5.66 360 13:25 16.04.2022
1987 Clear -7 1019 42 10000 3.09 50 11:58 16.04.2022
1988 Clear -5 1019 44 10000 6.17 360 10:37 16.04.2022
1989 Clear -4 1018 42 10000 5.66 50 09:39 16.04.2022
1990 Clear -3 1018 39 10000 5.66 60 08:54 16.04.2022
1991 Clear -3 1018 45 10000 7.72 10 07:31 16.04.2022
1992 Clear -2 1016 41 10000 6.69 20 06:22 16.04.2022
1993 Clear 1 1016 33 10000 7.2 50 01:53 16.04.2022
1994 Clear 2 1017 34 10000 6.69 60 00:19 16.04.2022
1995 Clear 1 1017 40 10000 6.17 70 22:52 15.04.2022
1996 Clear 1 1017 40 10000 6.17 70 22:31 15.04.2022
1997 Clear 0 1016 43 10000 6.17 50 21:44 15.04.2022
1998 Clear -1 1017 43 10000 4.63 30 20:55 15.04.2022
1999 Clear -3 1017 43 10000 5.66 10 19:52 15.04.2022
2000 Clear -3 1018 44 10000 5.66 10 19:33 15.04.2022
2001 Clear -4 1017 43 10000 5.14 360 18:45 15.04.2022
2002 Clouds -5 1017 43 10000 5.14 360 18:23 15.04.2022
2003 Clear -5 1018 48 10000 6.17 360 17:29 15.04.2022
2004 Clear -5 1018 50 10000 5.66 360 16:26 15.04.2022
2005 Clear -5 1018 53 10000 3.6 50 15:54 15.04.2022
2006 Clear -4 1018 54 10000 5.14 10 14:22 15.04.2022
2007 Clouds -4 1018 55 10000 5.14 10 13:23 15.04.2022
2008 Clear -3 1019 54 10000 4.63 10 12:40 15.04.2022
2009 Clouds -7 1020 88 10000 3.07 21 11:54 15.04.2022
2010 Clouds -2 1019 54 10000 4.12 50 10:49 15.04.2022
2011 Clouds -1 1018 55 10000 4.12 10 10:21 15.04.2022
2012 Clear -1 1019 56 10000 5.14 60 09:24 15.04.2022
2013 Clouds -2 1020 57 10000 3.26 23 08:57 15.04.2022
2014 Clear 3 1019 50 10000 5.66 60 06:55 15.04.2022
2015 Clear 6 1019 39 10000 4.63 50 05:56 15.04.2022
2016 Clear 5 1022 47 10000 2.57 260 01:33 15.04.2022
2017 Clear 5 1023 41 10000 1.54 240 23:30 14.04.2022
2018 Clear 2 1024 55 10000 2.06 220 22:46 14.04.2022
2019 Clear 2 1024 55 10000 2.06 220 22:27 14.04.2022
2020 Clear 0 1024 63 10000 0 0 21:54 14.04.2022
2021 Clouds 1 1023 57 10000 0.45 203 20:35 14.04.2022
2022 Clear -2 1024 65 10000 0 0 19:22 14.04.2022
2023 Clouds -2 1022 63 10000 0.57 26 17:58 14.04.2022
2024 Clear -5 1024 69 10000 1.54 280 17:28 14.04.2022
2025 Clear -5 1024 71 10000 2.57 40 16:33 14.04.2022
2026 Clear -6 1025 78 10000 0 0 14:23 14.04.2022
2027 Clear -5 1025 77 10000 0 0 13:31 14.04.2022
2028 Clear -4 1026 73 10000 1.54 30 12:42 14.04.2022
2029 Clear -3 1026 72 10000 1.54 30 12:22 14.04.2022
2030 Clear -3 1025 68 10000 3.09 60 11:21 14.04.2022
2031 Clear -3 1025 72 10000 0 0 10:36 14.04.2022
2032 Clear -3 1026 72 10000 0 0 09:56 14.04.2022
2033 Clouds -1 1025 66 10000 0 0 08:40 14.04.2022
2034 Clouds 4 1026 45 10000 0 0 06:50 14.04.2022
2035 Clouds 6 1027 33 10000 0.89 191 02:45 14.04.2022
2036 Clear 3 1028 41 10000 0 0 22:52 13.04.2022
2037 Clear 2 1028 47 10000 1.54 250 21:44 13.04.2022
2038 Clouds 1 1028 46 10000 0.89 150 20:55 13.04.2022
2039 Clouds -1 1028 53 10000 0.45 149 20:22 13.04.2022
2040 Clouds -2 1028 61 10000 0 0 19:24 13.04.2022
2041 Clear -6 1028 70 10000 0 0 18:19 13.04.2022
2042 Clear -7 1029 78 10000 0 0 17:23 13.04.2022
2043 Clear -6 1029 76 10000 0 0 16:33 13.04.2022
2044 Clear -6 1029 75 10000 0 0 15:35 13.04.2022
2045 Clouds -6 1029 74 10000 0 0 14:50 13.04.2022
2046 Clouds -5 1028 75 10000 0 0 14:18 13.04.2022
2047 Clear -4 1029 75 10000 2.57 280 13:19 13.04.2022
2048 Clear -4 1029 71 10000 1.54 300 12:25 13.04.2022
2049 Clear -4 1029 71 10000 0 0 10:47 13.04.2022
2050 Clouds -2 1028 69 7007 1.14 43 08:58 13.04.2022
2051 Clouds -1 1028 65 10000 1.54 280 08:33 13.04.2022
2052 Clear 3 1029 44 10000 2.57 150 06:51 13.04.2022
2053 Clear 3 1029 46 10000 2.57 150 06:25 13.04.2022
2054 Clear 5 1030 44 10000 3.09 220 04:55 13.04.2022
2055 Clear 5 1031 34 10000 2.57 130 00:20 13.04.2022
2056 Clear 5 1031 33 10000 3.6 100 23:21 12.04.2022
2057 Clear 3 1032 36 10000 4.12 60 21:57 12.04.2022
2058 Clouds 1 1032 40 10000 4.63 60 20:51 12.04.2022
2059 Clouds 1 1032 42 10000 4.63 60 20:33 12.04.2022
2060 Clear -2 1032 50 10000 3.09 60 19:48 12.04.2022
2061 Clear -3 1033 55 10000 3.09 60 19:29 12.04.2022
2062 Clouds -5 1034 58 10000 1.71 51 17:59 12.04.2022
2063 Clouds -10 1034 93 10000 1.81 35 16:58 12.04.2022
2064 Clouds -5 1033 58 10000 4.12 60 16:19 12.04.2022
2065 Clear -5 1035 59 10000 4.12 50 15:26 12.04.2022
2066 Clear -7 1034 54 10000 3.6 60 14:21 12.04.2022
2067 Clear -6 1035 56 10000 4.12 60 13:28 12.04.2022
2068 Clear -4 1035 52 10000 4.63 60 12:44 12.04.2022
2069 Clear -3 1036 55 10000 4.63 70 11:42 12.04.2022
2070 Clear -2 1036 53 10000 4.63 60 10:30 12.04.2022
2071 Clear -2 1035 59 10000 3.09 70 08:57 12.04.2022
2072 Clear 0 1036 51 10000 3.6 90 07:51 12.04.2022
2073 Clear 4 1036 45 10000 5.14 90 05:49 12.04.2022
2074 Clear 4 1036 44 10000 4.63 70 04:46 12.04.2022
2075 Clear 2 1039 57 10000 4.12 70 23:49 11.04.2022
2076 Clear 1 1039 61 10000 3.6 70 22:44 11.04.2022
2077 Clear -1 1039 67 10000 3.6 90 21:37 11.04.2022
2078 Clouds -2 1040 72 10000 0.89 134 20:55 11.04.2022
2079 Clouds -3 1040 76 10000 0.45 80 20:28 11.04.2022
2080 Clear -6 1040 81 10000 1.54 60 19:37 11.04.2022
2081 Clouds -5 1039 81 10000 0.45 51 19:18 11.04.2022
2082 Clear -8 1039 83 10000 1.54 60 18:40 11.04.2022
2083 Clouds -6 1037 81 5061 0.45 30 17:56 11.04.2022
2084 Clear -9 1039 84 10000 1.54 70 16:54 11.04.2022
2085 Clear -8 1039 84 10000 0.45 30 15:24 11.04.2022
2086 Clear -7 1040 82 10000 1.54 70 13:51 11.04.2022
2087 Clear -7 1040 80 10000 1.54 70 12:44 11.04.2022
2088 Clear -7 1040 79 10000 1.54 70 12:25 11.04.2022
2089 Clouds -6 1041 75 2396 0.85 65 10:58 11.04.2022
2090 Clouds -5 1042 77 10000 1.54 50 09:58 11.04.2022
2091 Clouds -5 1040 74 10000 2.57 80 08:24 11.04.2022
2092 Clouds -3 1040 68 10000 2.06 90 05:26 11.04.2022
2093 Snow -6 1040 71 10000 0 0 00:49 11.04.2022
2094 Clouds -8 1040 67 10000 0 0 22:33 10.04.2022
2095 Clouds -8 1040 65 10000 0.45 92 21:54 10.04.2022
2096 Snow -9 1041 64 10000 0.89 198 21:26 10.04.2022
2097 Snow -10 1041 62 10000 0.89 174 20:25 10.04.2022
2098 Clouds -11 1041 60 10000 0.89 109 19:37 10.04.2022
2099 Clouds -12 1041 61 10000 0.45 198 18:50 10.04.2022
2100 Clouds -12 1041 61 10000 0 0 18:30 10.04.2022
2101 Clouds -12 1041 63 10000 0.45 155 17:49 10.04.2022
2102 Clouds -13 1041 62 10000 0 0 16:59 10.04.2022
2103 Clouds -13 1041 61 10000 2.06 90 15:41 10.04.2022
2104 Clear -13 1041 60 10000 2.06 80 14:42 10.04.2022
2105 Clear -13 1041 60 10000 2.06 80 14:42 10.04.2022
2106 Clear -15 1041 64 10000 2.57 80 13:44 10.04.2022
2107 Clear -16 1041 67 10000 2.57 80 12:32 10.04.2022
2108 Clear -17 1041 67 10000 1.54 50 11:44 10.04.2022
2109 Clear -17 1041 67 10000 1.54 50 11:20 10.04.2022
2110 Clear -16 1041 66 10000 0 0 10:34 10.04.2022
2111 Clouds -15 1040 61 10000 0 0 09:41 10.04.2022
2112 Clouds -13 1040 60 10000 0 0 08:28 10.04.2022
2113 Clouds -11 1040 48 10000 0 0 07:57 10.04.2022
2114 Clouds -10 1038 45 10000 0.68 128 06:59 10.04.2022
2115 Clear -8 1039 40 10000 3.09 140 03:40 10.04.2022
2116 Clear -8 1039 41 10000 2.57 180 02:19 10.04.2022
2117 Clouds -9 1039 44 10000 0.89 182 23:53 09.04.2022
2118 Clear -11 1039 45 10000 2.06 120 22:56 09.04.2022
2119 Clear -11 1039 45 10000 2.06 120 22:33 09.04.2022
2120 Clear -13 1039 49 10000 0.89 53 21:23 09.04.2022
2121 Clear -14 1038 54 10000 1.54 70 20:30 09.04.2022
2122 Clouds -16 1038 57 10000 0.82 174 19:57 09.04.2022
2123 Clear -17 1038 60 10000 0.89 174 19:39 09.04.2022
2124 Clear -20 1038 69 10000 2.06 50 18:23 09.04.2022
2125 Clear -20 1037 69 10000 2.06 90 17:49 09.04.2022
2126 Clear -21 1037 70 10000 0 0 16:57 09.04.2022
2127 Clear -21 1036 70 10000 0 0 16:38 09.04.2022
2128 Clear -21 1036 70 10000 0 0 16:38 09.04.2022
2129 Clear -21 1036 70 10000 0 0 16:38 09.04.2022
2130 Clear -21 1036 70 10000 0 0 16:38 09.04.2022
2131 Clear -21 1036 70 10000 0 0 16:38 09.04.2022
2132 Clear -21 1036 69 10000 0 0 15:49 09.04.2022
2133 Clear -21 1036 69 10000 0 0 15:49 09.04.2022
2134 Clear -21 1036 69 10000 0 0 15:49 09.04.2022
2135 Clear -20 1036 69 10000 0 0 15:25 09.04.2022
2136 Clear -18 1036 60 10000 0 0 14:25 09.04.2022
2137 Clear -17 1035 58 10000 2.57 210 13:27 09.04.2022
2138 Clear -16 1034 57 10000 2.06 200 12:54 09.04.2022
2139 Clear -14 1033 52 10000 3.6 220 11:45 09.04.2022
2140 Clear -13 1031 51 10000 4.12 240 10:52 09.04.2022
2141 Clear -13 1031 51 10000 4.12 240 10:18 09.04.2022
2142 Clouds -13 1031 50 10000 4.63 240 09:22 09.04.2022
2143 Clouds -12 1030 48 10000 3.6 260 08:18 09.04.2022
2144 Clouds -10 1026 48 10000 7.2 270 04:37 09.04.2022
2145 Snow -10 1023 58 9656 4.63 250 00:35 09.04.2022
2146 Snow -10 1022 63 10000 6.17 260 23:23 08.04.2022
2147 Snow -11 1020 68 8047 6.17 260 21:49 08.04.2022
2148 Snow -11 1019 67 6437 6.17 240 20:43 08.04.2022
2149 Snow -11 1018 69 10000 6.69 250 19:47 08.04.2022
2150 Clouds -11 1018 67 10000 5.66 250 18:56 08.04.2022
2151 Snow -11 1017 67 10000 7.2 240 18:22 08.04.2022
2152 Snow -11 1016 70 10000 7.2 250 17:29 08.04.2022
2153 Clouds -11 1015 73 10000 6.17 250 16:58 08.04.2022
2154 Snow -11 1014 71 10000 6.17 250 16:27 08.04.2022
2155 Clouds -10 1014 71 10000 7.72 250 15:36 08.04.2022
2156 Clouds -9 1012 70 10000 6.69 260 14:52 08.04.2022
2157 Clouds -9 1012 69 10000 6.69 260 14:19 08.04.2022
2158 Clouds -7 1011 67 10000 7.72 240 13:31 08.04.2022
2159 Clouds -6 1010 68 10000 8.75 240 12:55 08.04.2022
2160 Clouds -4 1007 68 10000 9.77 240 11:35 08.04.2022
2161 Clouds -2 1006 66 637 0.89 256 09:59 08.04.2022
2162 Clouds -2 1004 70 10000 2.57 210 09:19 08.04.2022
2163 Haze 0 1004 59 9656 1.54 260 07:44 08.04.2022
2164 Clear 1 1004 48 10000 2.06 250 06:45 08.04.2022
2165 Clouds 6 1004 42 10000 0.2 124 02:55 08.04.2022
2166 Clear 4 1006 45 10000 2.06 250 00:30 08.04.2022
2167 Clear 2 1007 54 10000 1.54 270 23:47 07.04.2022
2168 Clear 0 1007 63 10000 1.54 270 22:55 07.04.2022
2169 Clouds 1 1006 54 10000 0 0 22:36 07.04.2022
2170 Clouds 1 1006 55 10000 0 0 22:18 07.04.2022
2171 Clouds -1 1006 60 10000 0 0 21:30 07.04.2022
2172 Clouds -2 1007 60 10000 1.54 150 20:46 07.04.2022
2173 Clouds -4 1007 68 10000 1.54 150 20:20 07.04.2022
2174 Clouds -12 1009 81 10000 0 0 17:43 07.04.2022
2175 Clouds -12 1009 80 10000 0 0 17:23 07.04.2022
2176 Clear -11 1009 82 10000 0 0 16:35 07.04.2022
2177 Clear -11 1009 80 10000 0 0 15:52 07.04.2022
2178 Clouds -9 1010 74 10000 1.65 31 13:59 07.04.2022
2179 Clear -9 1010 77 10000 1.54 60 13:24 07.04.2022
2180 Clear -8 1010 71 10000 1.54 30 11:54 07.04.2022
2181 Clear -7 1010 66 10000 1.54 70 10:55 07.04.2022
2182 Clear -6 1010 62 10000 0 0 09:28 07.04.2022
2183 Clear 1 1009 31 10000 1.54 220 07:38 07.04.2022
2184 Clear 4 1009 41 10000 3.6 200 05:32 07.04.2022
2185 Clouds 5 1009 39 10000 3.6 210 02:37 07.04.2022
2186 Clear 5 1009 47 10000 4.63 130 00:44 07.04.2022
2187 Clear 4 1009 47 10000 6.17 140 23:39 06.04.2022
2188 Clear 2 1009 53 10000 2.57 100 22:45 06.04.2022
2189 Clear 2 1009 55 10000 2.57 100 22:21 06.04.2022
2190 Clouds -7 1009 73 10000 0 0 20:53 06.04.2022
2191 Clouds -8 1008 80 10000 0 0 20:26 06.04.2022
2192 Clouds -9 1008 82 10000 0 0 19:48 06.04.2022
2193 Clouds -11 1008 83 10000 0 0 18:48 06.04.2022
2194 Clouds -11 1007 82 10000 0 0 17:38 06.04.2022
2195 Clouds -11 1006 78 10000 0 0 17:20 06.04.2022
2196 Clear -13 1008 84 10000 0 0 16:34 06.04.2022
2197 Clear -13 1008 85 10000 0 0 15:45 06.04.2022
2198 Clear -13 1008 82 10000 0 0 13:57 06.04.2022
2199 Clear -13 1007 80 10000 0 0 12:37 06.04.2022
2200 Clear -12 1006 78 10000 1.54 190 11:44 06.04.2022
2201 Clear -12 1005 79 10000 0 0 10:42 06.04.2022
2202 Clear -11 1005 79 10000 0 0 10:18 06.04.2022
2203 Clear -9 1005 73 10000 0 0 09:25 06.04.2022
2204 Clouds -6 1004 67 10000 0 0 08:26 06.04.2022
2205 Clouds -3 1001 59 10000 2.57 110 06:45 06.04.2022
2206 Clouds -2 997 55 10000 1.54 180 01:44 06.04.2022
2207 Snow -4 997 58 10000 2.06 170 23:50 05.04.2022
2208 Clouds -7 996 67 10000 0.45 111 22:20 05.04.2022
2209 Clear -9 996 72 10000 1.54 240 21:18 05.04.2022
2210 Clear -9 997 72 10000 1.54 240 21:18 05.04.2022
2211 Clear -9 997 72 10000 1.54 240 21:18 05.04.2022
2212 Clear -9 996 72 10000 1.54 240 21:18 05.04.2022
2213 Snow -11 996 75 10000 0 0 20:25 05.04.2022
2214 Snow -13 997 80 10000 1.54 190 18:53 05.04.2022
2215 Mist -14 996 79 6437 0 0 17:30 05.04.2022
2216 Snow -14 996 78 9656 0 0 16:45 05.04.2022
2217 Snow -14 996 75 9656 0 0 15:52 05.04.2022
2218 Snow -14 995 76 9656 0 0 15:33 05.04.2022
2219 Clouds -14 995 73 10000 0 0 14:18 05.04.2022
2220 Clouds -13 993 72 3823 1.38 335 12:55 05.04.2022
2221 Clouds -14 993 72 10000 0 0 11:49 05.04.2022
2222 Clouds -14 993 72 10000 0 0 11:31 05.04.2022
2223 Clouds -13 992 68 10000 1.54 70 09:42 05.04.2022
2224 Clouds -12 992 63 10000 0 0 08:52 05.04.2022
2225 Clouds -8 992 60 10000 2.06 220 06:43 05.04.2022
2226 Clouds -7 991 59 10000 2.06 200 00:39 05.04.2022
2227 Snow -10 991 66 10000 2.06 260 22:41 04.04.2022
2228 Clouds -11 991 66 2312 0.45 112 21:57 04.04.2022
2229 Clouds -12 990 70 10000 0.45 169 21:21 04.04.2022
2230 Snow -14 990 73 10000 0.45 128 20:49 04.04.2022
2231 Snow -15 990 75 10000 1.54 100 19:40 04.04.2022
2232 Clouds -14 987 73 5545 1.89 333 18:59 04.04.2022
2233 Clouds -17 989 75 10000 0 0 17:55 04.04.2022
2234 Snow -17 989 77 10000 0 0 16:36 04.04.2022
2235 Clouds -17 989 77 10000 1.54 130 15:34 04.04.2022
2236 Clouds -15 989 73 293 1.46 328 14:58 04.04.2022
2237 Clouds -16 989 75 10000 0 0 14:40 04.04.2022
2238 Clouds -16 989 74 10000 0 0 13:22 04.04.2022
2239 Clouds -15 989 73 10000 3.6 10 11:49 04.04.2022
2240 Clouds -14 989 73 10000 3.6 10 11:28 04.04.2022
2241 Clear -12 988 70 10000 0 0 08:29 04.04.2022
2242 Clear -5 987 59 10000 4.12 230 03:52 04.04.2022
2243 Clear -5 988 57 10000 2.57 130 00:41 04.04.2022
2244 Clouds -7 988 61 10000 2.06 220 22:36 03.04.2022
2245 Clouds -8 988 63 10000 1.54 230 21:44 03.04.2022
2246 Clouds -9 989 66 10000 0.45 188 20:53 03.04.2022
2247 Clear -12 989 76 10000 0 0 19:49 03.04.2022
2248 Clouds -14 990 79 10000 0 0 18:32 03.04.2022
2249 Clouds -14 990 77 10000 1.54 60 17:47 03.04.2022
2250 Clouds -13 990 77 10000 0.45 298 16:57 03.04.2022
2251 Clouds -13 990 78 10000 1.54 50 16:39 03.04.2022
2252 Clouds -12 991 75 10000 2.57 40 14:39 03.04.2022
2253 Snow -11 992 76 10000 3.09 10 13:51 03.04.2022
2254 Snow -11 992 78 10000 3.09 20 12:41 03.04.2022
2255 Clouds -10 992 77 876 1.73 342 10:58 03.04.2022
2256 Clouds -10 993 77 10000 4.63 360 09:38 03.04.2022
2257 Clouds -9 993 77 10000 4.63 360 08:33 03.04.2022
2258 Snow -6 995 76 3621 4.12 10 04:42 03.04.2022
2259 Snow -5 997 69 9656 2.06 100 01:54 03.04.2022
2260 Clouds -7 997 59 10000 2.57 80 23:21 02.04.2022
2261 Clouds -8 999 55 10000 1.54 100 22:18 02.04.2022
2262 Snow -9 998 55 10000 2.06 50 21:46 02.04.2022
2263 Snow -9 998 53 10000 2.06 50 21:18 02.04.2022
2264 Clouds -10 999 51 10000 2.57 90 19:54 02.04.2022
2265 Clouds -11 999 49 10000 3.6 10 18:23 02.04.2022
2266 Clouds -11 999 47 10000 3.6 10 17:53 02.04.2022
2267 Snow -10 999 41 10000 3.6 360 16:29 02.04.2022
2268 Snow -10 1000 45 10000 4.63 10 15:22 02.04.2022
2269 Clouds -10 1000 41 10000 4.63 360 14:51 02.04.2022
2270 Clouds -10 1001 41 10000 3.09 60 13:56 02.04.2022
2271 Clouds -10 1001 40 10000 5.14 360 13:19 02.04.2022
2272 Clouds -9 1000 38 10000 5.66 360 11:39 02.04.2022
2273 Clouds -10 1001 37 10000 5.14 360 09:31 02.04.2022
2274 Clouds -9 1001 35 10000 6.69 50 06:56 02.04.2022
2275 Clouds -6 1001 33 10000 6.17 50 03:55 02.04.2022
2276 Clear -5 1002 29 10000 7.72 70 00:25 02.04.2022
2277 Clear -5 1003 30 10000 7.72 70 23:45 01.04.2022
2278 Clear -8 1005 37 10000 5.66 70 21:55 01.04.2022
2279 Clear -8 1006 36 10000 0.89 94 20:54 01.04.2022
2280 Clear -9 1004 33 10000 5.66 50 20:31 01.04.2022
2281 Clear -12 1006 43 10000 4.12 60 19:39 01.04.2022
2282 Clear -16 1007 53 10000 4.12 50 18:54 01.04.2022
2283 Clear -16 1007 53 10000 4.12 50 18:23 01.04.2022
2284 Clear -19 1008 62 10000 3.6 60 17:35 01.04.2022
2285 Clear -16 1009 51 10000 5.14 60 15:44 01.04.2022
2286 Clear -19 1010 61 10000 3.09 40 14:39 01.04.2022
2287 Clear -16 1010 53 10000 4.63 50 13:36 01.04.2022
2288 Clear -15 1011 51 10000 5.14 70 12:33 01.04.2022
2289 Clear -14 1011 45 10000 5.14 60 11:45 01.04.2022
2290 Clear -14 1012 44 10000 5.14 60 10:34 01.04.2022
2291 Clear -12 1012 44 10000 5.14 70 09:34 01.04.2022
2292 Clear -8 1012 43 10000 5.14 60 07:19 01.04.2022
2293 Clear -4 1012 34 10000 5.14 40 04:56 01.04.2022
2294 Clear -4 1012 35 10000 7.2 40 04:37 01.04.2022
2295 Clouds -2 1013 25 10000 4.63 80 02:19 01.04.2022
2296 Clear -2 1013 27 10000 6.17 90 01:31 01.04.2022
2297 Clear -5 1013 32 10000 6.69 70 22:23 31.03.2022
2298 Clear -6 1015 32 10000 6.69 70 21:37 31.03.2022
2299 Clear -7 1014 34 10000 1.34 299 20:43 31.03.2022
2300 Clouds -10 1015 42 10000 3.09 60 20:25 31.03.2022
2301 Clear -12 1016 46 10000 4.12 60 18:57 31.03.2022
2302 Clear -13 1016 47 10000 3.09 70 17:55 31.03.2022
2303 Clear -14 1015 56 10000 5.14 60 16:46 31.03.2022
2304 Clear -16 1016 68 10000 4.12 50 15:54 31.03.2022
2305 Clear -16 1016 68 10000 3.6 50 15:22 31.03.2022
2306 Clear -16 1016 67 10000 3.09 60 14:44 31.03.2022
2307 Clear -15 1016 63 10000 3.09 50 13:27 31.03.2022
2308 Clear -11 1015 57 10000 3.6 50 11:30 31.03.2022
2309 Clear -12 1015 53 10000 4.63 70 10:19 31.03.2022
2310 Clouds -8 1013 49 10000 4.63 10 08:52 31.03.2022
2311 Clear -8 1013 47 10000 4.12 50 07:31 31.03.2022
2312 Clear -2 1011 47 10000 4.12 350 01:27 31.03.2022
2313 Clouds -2 1010 53 10000 1.54 170 23:23 30.03.2022
2314 Clouds -4 1010 60 10000 2.57 340 21:50 30.03.2022
2315 Clouds -4 1010 60 10000 2.57 340 21:27 30.03.2022
2316 Clouds -5 1009 61 10000 4.12 350 20:22 30.03.2022
2317 Clouds -6 1009 70 10000 4.63 360 19:43 30.03.2022
2318 Snow -6 1009 70 10000 4.12 350 18:40 30.03.2022
2319 Clouds -6 1008 73 10000 0.45 277 17:49 30.03.2022
2320 Clouds -6 1007 71 145 0.89 309 16:58 30.03.2022
2321 Clouds -6 1008 69 10000 5.14 10 16:39 30.03.2022
2322 Clouds -6 1007 72 10000 5.14 350 15:38 30.03.2022
2323 Clouds -5 1007 70 10000 3.6 350 14:18 30.03.2022
2324 Clouds -5 1007 79 10000 0.45 302 13:19 30.03.2022
2325 Clouds -4 1006 84 10000 0 0 11:55 30.03.2022
2326 Snow -2 1006 79 6437 4.63 350 10:38 30.03.2022
2327 Snow -2 1006 77 6437 3.6 350 09:28 30.03.2022
2328 Snow -1 1004 80 8047 2.57 340 07:59 30.03.2022
2329 Snow 0 1004 83 6437 2.06 280 05:41 30.03.2022
2330 Snow 0 1004 81 6437 2.06 280 05:23 30.03.2022
2331 Clouds 2 1003 62 10000 1.54 270 00:43 30.03.2022
2332 Clouds 1 1002 56 10000 1.54 260 22:35 29.03.2022
2333 Clouds 0 1002 62 10000 2.06 50 21:46 29.03.2022
2334 Clouds -1 1001 63 8420 0.79 346 20:55 29.03.2022
2335 Clouds -3 1001 73 10000 3.6 50 20:25 29.03.2022
2336 Clouds -4 1001 69 10000 3.09 60 19:20 29.03.2022
2337 Clouds -5 1001 70 10000 3.6 50 18:48 29.03.2022
2338 Clouds -6 1000 77 10000 2.06 30 17:39 29.03.2022
2339 Clouds -7 1000 74 10000 0 0 16:58 29.03.2022
2340 Clouds -6 1000 72 10000 2.06 40 16:20 29.03.2022
2341 Clouds -10 1001 95 10000 1.3 10 14:53 29.03.2022
2342 Clouds -3 998 63 10000 2.57 40 14:24 29.03.2022
2343 Clouds -3 999 64 10000 3.6 60 12:57 29.03.2022
2344 Clouds -2 998 69 10000 3.6 20 11:45 29.03.2022
2345 Clouds -3 998 76 10000 1.93 11 10:58 29.03.2022
2346 Clear -3 997 68 10000 4.12 70 09:49 29.03.2022
2347 Clouds -1 996 61 10000 4.12 350 08:20 29.03.2022
2348 Clouds 3 997 54 10000 3.09 70 05:35 29.03.2022
2349 Clouds 5 998 39 10000 3.6 90 01:25 29.03.2022
2350 Clear 4 998 41 10000 3.6 100 23:24 28.03.2022
2351 Clouds 3 998 44 10000 4.12 80 22:54 28.03.2022
2352 Clouds 3 998 43 10000 4.12 80 22:26 28.03.2022
2353 Clouds 0 1000 50 10000 2.57 41 20:59 28.03.2022
2354 Clouds -1 999 50 10000 3.6 40 20:31 28.03.2022
2355 Clouds -5 999 62 10000 3.09 60 19:46 28.03.2022
2356 Clouds -5 999 66 10000 3.09 60 19:27 28.03.2022
2357 Clear -5 1000 63 10000 2.57 60 18:40 28.03.2022
2358 Clouds -6 1000 63 10000 3.09 60 17:39 28.03.2022
2359 Clouds -5 1001 59 10000 3.6 60 16:33 28.03.2022
2360 Clouds -9 1001 67 10000 2.57 70 14:48 28.03.2022
2361 Clouds -8 1002 66 10000 2.57 70 14:21 28.03.2022
2362 Clear -5 1002 54 10000 3.6 60 12:41 28.03.2022
2363 Clear -5 1003 58 10000 3.6 60 11:32 28.03.2022
2364 Clear -6 1003 66 10000 4.12 70 09:43 28.03.2022
2365 Clear -6 1003 66 10000 4.12 70 09:19 28.03.2022
2366 Clear -6 1003 69 10000 2.57 60 08:22 28.03.2022
2367 Clear -3 1004 63 10000 0 0 07:40 28.03.2022
2368 Clear 4 1006 45 10000 2.06 100 04:18 28.03.2022
2369 Clear 1 1009 64 10000 2.06 220 23:33 27.03.2022
2370 Clear -2 1010 72 10000 1.54 250 22:25 27.03.2022
2371 Clouds -2 1010 73 10000 0.45 188 21:42 27.03.2022
2372 Clouds -3 1010 79 7818 0.45 98 20:58 27.03.2022
2373 Clear -7 1009 82 10000 2.06 140 19:49 27.03.2022
2374 Clear -8 1010 83 10000 2.06 140 19:26 27.03.2022
2375 Clouds -6 1010 79 10000 1.54 320 18:28 27.03.2022
2376 Clouds -5 1010 79 10000 1.11 147 17:39 27.03.2022
2377 Clear -6 1010 78 10000 0 0 16:31 27.03.2022
2378 Clouds -4 1010 74 10000 1.1 111 15:25 27.03.2022
2379 Clouds -3 1010 72 10000 1.15 99 13:56 27.03.2022
2380 Clear -5 1009 71 10000 0 0 12:37 27.03.2022
2381 Clear -4 1009 70 10000 0.89 314 11:20 27.03.2022
2382 Clouds -1 1009 63 10000 1.54 230 08:53 27.03.2022
2383 Clouds 0 1011 66 10000 0 0 05:54 27.03.2022
2384 Clouds 2 1012 57 10000 2.57 260 00:48 27.03.2022
2385 Clear 0 1012 58 10000 2.57 250 23:42 26.03.2022
2386 Clear 0 1012 59 10000 1.54 220 22:38 26.03.2022
2387 Clouds 0 1011 56 10000 0 0 21:38 26.03.2022
2388 Clouds -2 1011 61 10000 0 0 20:57 26.03.2022
2389 Clear -6 1011 68 10000 0 0 19:21 26.03.2022
2390 Clouds -9 1012 75 10000 1.54 50 17:54 26.03.2022
2391 Clouds -9 1012 75 10000 1.54 50 17:33 26.03.2022
2392 Clouds -9 1012 75 10000 0 0 16:27 26.03.2022
2393 Clear -8 1012 73 10000 0 0 14:57 26.03.2022
2394 Clouds -9 1011 86 10000 2.06 210 13:53 26.03.2022
2395 Clear -7 1010 83 10000 0 0 12:51 26.03.2022
2396 Clouds -7 1010 84 10000 0 0 11:41 26.03.2022
2397 Clear -7 1009 80 10000 0 0 10:22 26.03.2022
2398 Clouds -7 1008 76 10000 2.57 40 08:34 26.03.2022
2399 Clear 0 1006 55 10000 3.09 50 05:54 26.03.2022
2400 Clear 3 1006 50 10000 3.09 60 04:23 26.03.2022
2401 Clear 5 1005 42 10000 4.63 90 00:22 26.03.2022
2402 Clouds -1 1006 55 10000 2.06 60 21:41 25.03.2022
2403 Clouds -2 1006 53 10000 2.57 60 20:46 25.03.2022
2404 Clouds -5 1007 62 10000 3.6 20 19:36 25.03.2022
2405 Clouds -8 1007 65 10000 3.6 70 18:47 25.03.2022
2406 Clouds -9 1007 64 10000 5.14 70 17:47 25.03.2022
2407 Clouds -9 1007 65 10000 5.14 70 17:26 25.03.2022
2408 Clear -9 1006 66 10000 3.6 60 16:18 25.03.2022
2409 Clear -9 1007 60 10000 4.12 40 14:26 25.03.2022
2410 Clear -9 1009 55 10000 4.12 60 12:48 25.03.2022
2411 Clear -5 1011 50 10000 4.12 70 09:57 25.03.2022
2412 Clear -7 1010 54 10000 4.12 70 09:27 25.03.2022
2413 Clouds -12 1013 89 10000 2.86 26 07:54 25.03.2022
2414 Clouds -4 1010 50 10000 0 0 07:27 25.03.2022
2415 Clear -3 1012 46 10000 5.14 60 05:35 25.03.2022
2416 Clear 0 1015 40 10000 5.14 70 00:42 25.03.2022
2417 Clear -2 1015 42 10000 3.09 40 22:39 24.03.2022
2418 Clear -4 1015 46 10000 2.06 40 21:42 24.03.2022
2419 Clouds -9 1015 57 10000 3.6 70 19:51 24.03.2022
2420 Clouds -13 1015 66 10000 3.6 70 19:33 24.03.2022
2421 Clear -17 1015 70 10000 4.12 20 17:46 24.03.2022
2422 Clear -18 1015 70 10000 4.12 20 17:19 24.03.2022
2423 Clear -17 1014 65 10000 2.06 20 15:21 24.03.2022
2424 Clear -16 1014 65 10000 4.63 40 14:43 24.03.2022
2425 Clear -16 1014 65 10000 4.63 40 14:18 24.03.2022
2426 Clear -15 1013 64 10000 3.09 60 12:47 24.03.2022
2427 Clouds -13 1013 61 10000 2.57 70 11:33 24.03.2022
2428 Clouds -13 1012 55 10000 3.09 60 09:51 24.03.2022
2429 Clouds -13 1011 57 10000 3.6 60 08:41 24.03.2022
2430 Clear -11 1010 50 10000 4.12 10 06:48 24.03.2022
2431 Clear -7 1008 45 10000 6.17 40 02:24 24.03.2022
2432 Clear -8 1008 46 10000 6.17 40 23:18 23.03.2022
2433 Clear -11 1008 50 10000 6.17 70 21:27 23.03.2022
2434 Clouds -11 1009 54 10000 0.45 105 20:59 23.03.2022
2435 Clouds -13 1009 57 10000 3.36 47 19:45 23.03.2022
2436 Clouds -17 1007 59 10000 3.6 10 18:36 23.03.2022
2437 Clouds -19 1008 59 10000 4.12 10 17:36 23.03.2022
2438 Clear -18 1007 55 10000 4.12 10 16:33 23.03.2022
2439 Clouds -15 1006 60 10000 4.63 50 14:51 23.03.2022
2440 Clouds -16 1006 58 10000 4.63 50 14:24 23.03.2022
2441 Clear -15 1006 59 10000 5.66 50 12:45 23.03.2022
2442 Clear -14 1006 58 10000 6.69 40 09:42 23.03.2022
2443 Clear -13 1006 57 10000 6.17 30 06:41 23.03.2022
2444 Clouds -12 1006 54 10000 7.72 30 04:41 23.03.2022
2445 Snow -11 1006 55 10000 7.72 30 00:29 23.03.2022
2446 Mist -11 1006 64 4828 3.09 60 22:46 22.03.2022
2447 Snow -14 1007 60 9656 2.57 140 21:30 22.03.2022
2448 Clouds -15 1008 61 10000 1.54 40 20:40 22.03.2022
2449 Clouds -17 1009 63 10000 1.54 10 19:43 22.03.2022
2450 Clouds -19 1008 70 10000 1.54 10 19:18 22.03.2022
2451 Clouds -23 1010 74 10000 1.54 120 18:31 22.03.2022
2452 Clear -25 1011 77 10000 0 0 17:29 22.03.2022
2453 Clear -25 1012 70 10000 1.54 90 16:21 22.03.2022
2454 Clear -23 1013 67 10000 1.54 70 15:22 22.03.2022
2455 Clear -23 1014 67 10000 3.09 80 14:46 22.03.2022
2456 Clear -23 1014 66 10000 3.09 80 14:27 22.03.2022
2457 Clear -23 1015 66 10000 0 0 13:35 22.03.2022
2458 Clear -20 1017 63 10000 4.12 10 11:52 22.03.2022
2459 Clear -20 1018 58 10000 4.12 360 10:40 22.03.2022
2460 Clear -18 1019 55 10000 5.66 20 08:29 22.03.2022
2461 Clear -13 1020 48 10000 5.14 20 05:25 22.03.2022
2462 Clear -10 1020 43 10000 5.14 40 03:47 22.03.2022
2463 Clear -10 1020 45 10000 1.79 355 00:22 22.03.2022
2464 Clear -12 1021 46 10000 2.06 230 22:42 21.03.2022
2465 Clear -14 1022 50 10000 0.89 109 20:57 21.03.2022
2466 Clear -15 1021 55 10000 2.06 110 20:38 21.03.2022
2467 Clear -18 1021 72 10000 0.45 137 19:58 21.03.2022
2468 Clouds -18 1021 65 10000 2.57 80 19:33 21.03.2022
2469 Clear -25 1021 69 10000 1.54 70 18:22 21.03.2022
2470 Clear -27 1021 77 10000 1.54 30 17:19 21.03.2022
2471 Clear -25 1021 66 10000 2.06 40 16:44 21.03.2022
2472 Clear -28 1021 83 10000 0 0 15:55 21.03.2022
2473 Clear -25 1021 74 10000 2.57 30 15:19 21.03.2022
2474 Clear -27 1021 76 10000 0 0 14:25 21.03.2022
2475 Clear -22 1020 66 10000 5.14 360 12:42 21.03.2022
2476 Clear -21 1020 66 10000 5.66 350 11:53 21.03.2022
2477 Clear -20 1020 67 10000 4.63 360 10:40 21.03.2022
2478 Clear -17 1020 66 10000 2.06 60 08:56 21.03.2022
2479 Clear -14 1017 58 10000 4.63 70 06:57 21.03.2022
2480 Clear -8 1016 54 10000 3.6 240 02:55 21.03.2022
2481 Clear -9 1015 52 10000 3.6 210 00:35 21.03.2022
2482 Clear -10 1015 56 10000 2.57 220 22:55 20.03.2022
2483 Clouds -10 1015 56 10000 1.47 331 21:57 20.03.2022
2484 Clouds -10 1014 58 10000 0.89 246 21:29 20.03.2022
2485 Clouds -12 1014 62 10000 3.09 30 20:45 20.03.2022
2486 Clouds -13 1014 67 10000 0.45 259 20:00 20.03.2022
2487 Clouds -14 1013 67 10000 3.6 360 19:38 20.03.2022
2488 Clear -16 1012 72 10000 2.57 360 18:40 20.03.2022
2489 Clouds -16 1012 72 10000 3.09 340 17:37 20.03.2022
2490 Clouds -15 1011 73 8446 1.3 328 16:57 20.03.2022
2491 Clear -16 1011 73 10000 3.6 350 15:52 20.03.2022
2492 Clouds -14 1010 71 10000 3.09 350 14:36 20.03.2022
2493 Clear -16 1011 72 10000 3.6 360 13:18 20.03.2022
2494 Clouds -15 1010 73 10000 4.12 360 11:32 20.03.2022
2495 Clouds -14 1009 73 10000 0 0 09:57 20.03.2022
2496 Clouds -11 1008 70 10000 5.14 10 07:50 20.03.2022
2497 Clouds -10 1007 69 10000 0 0 05:49 20.03.2022
2498 Clouds -6 1005 59 10000 3.6 200 02:53 20.03.2022
2499 Clouds -6 1004 62 10000 3.6 200 00:48 20.03.2022
2500 Clouds -7 1004 61 10000 2.57 200 23:21 19.03.2022
2501 Clouds -9 1003 65 10000 0.45 271 21:41 19.03.2022
2502 Clouds -9 1003 67 10000 0 0 21:18 19.03.2022
2503 Clouds -13 1003 75 10000 0 0 19:21 19.03.2022
2504 Clouds -14 1003 78 10000 0 0 18:25 19.03.2022
2505 Clouds -14 1002 79 10000 1.54 90 17:41 19.03.2022
2506 Clouds -15 1002 78 10000 0 0 16:29 19.03.2022
2507 Clouds -16 1002 78 10000 0 0 15:20 19.03.2022
2508 Clouds -15 1001 77 10000 0 0 13:39 19.03.2022
2509 Clouds -16 1001 79 10000 0 0 12:42 19.03.2022
2510 Clouds -14 1001 76 10000 0 0 11:54 19.03.2022
2511 Clouds -14 1001 76 10000 0 0 11:33 19.03.2022
2512 Clear -12 999 68 10000 2.06 90 08:23 19.03.2022
2513 Clouds -4 999 53 10000 2.57 200 04:23 19.03.2022
2514 Clear -4 1000 53 10000 3.09 190 02:30 19.03.2022
2515 Clear -5 1001 55 10000 2.06 230 23:46 18.03.2022
2516 Clear -7 1001 58 10000 2.06 270 22:36 18.03.2022
2517 Clouds -8 1003 57 7353 0.45 144 21:56 18.03.2022
2518 Clear -12 1003 71 10000 0.45 136 20:25 18.03.2022
2519 Clear -15 1003 75 10000 2.06 80 19:23 18.03.2022
2520 Clear -15 1002 77 10000 1.54 90 18:34 18.03.2022
2521 Clouds -16 1004 79 10000 1.54 70 16:52 18.03.2022
2522 Clouds -16 1004 78 10000 2.06 70 15:52 18.03.2022
2523 Clouds -14 1003 76 10000 1.54 90 14:25 18.03.2022
2524 Clouds -15 1003 74 10000 1.54 50 13:18 18.03.2022
2525 Mist -16 1002 74 9656 2.06 70 11:28 18.03.2022
2526 Clear -17 1001 75 10000 1.54 40 09:41 18.03.2022
2527 Clear -14 1001 72 10000 0 0 08:45 18.03.2022
2528 Clear -11 1000 66 10000 0 0 06:42 18.03.2022
2529 Clear -7 998 57 10000 2.06 250 04:38 18.03.2022
2530 Clear -7 998 58 10000 2.06 250 04:38 18.03.2022
2531 Clouds -3 997 56 10000 1.54 260 00:54 18.03.2022
2532 Snow -4 997 56 10000 1.54 170 23:52 17.03.2022
2533 Snow -4 997 56 10000 1.54 170 23:52 17.03.2022
2534 Clouds -5 997 57 10000 0 0 22:43 17.03.2022
2535 Clouds -6 997 58 10000 0 0 22:18 17.03.2022
2536 Clouds -8 996 63 10000 0.45 131 21:27 17.03.2022
2537 Clear -10 996 65 10000 0 0 20:52 17.03.2022
2538 Clear -12 996 69 10000 0 0 20:18 17.03.2022
2539 Clouds -13 996 70 10000 0 0 19:37 17.03.2022
2540 Clear -17 997 79 10000 2.06 40 18:51 17.03.2022
2541 Clear -19 996 76 10000 1.54 20 17:27 17.03.2022
2542 Clear -18 997 70 10000 2.06 40 15:57 17.03.2022
2543 Clear -17 996 73 10000 3.09 20 15:36 17.03.2022
2544 Clear -18 997 77 10000 0 0 14:55 17.03.2022
2545 Clouds -15 997 69 10000 3.6 20 13:22 17.03.2022
2546 Clear -15 997 70 10000 3.6 40 12:38 17.03.2022
2547 Clear -14 997 67 10000 2.57 10 11:31 17.03.2022
2548 Clear -13 996 70 10000 3.09 50 10:38 17.03.2022
2549 Clear -11 996 65 10000 2.06 20 08:42 17.03.2022
2550 Clouds -14 999 91 10000 2.55 10 07:57 17.03.2022
2551 Clear -6 995 53 10000 2.57 80 05:48 17.03.2022
2552 Clear -3 995 48 10000 2.57 50 03:45 17.03.2022
2553 Clear -3 997 47 10000 2.57 60 00:21 17.03.2022
2554 Clear -5 998 51 10000 2.06 50 22:52 16.03.2022
2555 Clear -6 998 50 10000 2.06 50 22:33 16.03.2022
2556 Clear -7 999 54 10000 2.57 40 21:52 16.03.2022
2557 Clear -10 999 61 10000 3.09 30 20:32 16.03.2022
2558 Clouds -16 999 72 10000 2.57 30 19:22 16.03.2022
2559 Clear -17 999 70 10000 3.09 40 18:40 16.03.2022
2560 Clear -18 1000 63 10000 4.12 10 17:44 16.03.2022
2561 Clear -17 1000 63 10000 4.12 10 17:26 16.03.2022
2562 Clear -15 1001 66 10000 1.54 40 15:56 16.03.2022
2563 Clear -15 1000 62 10000 3.6 40 14:35 16.03.2022
2564 Clouds -16 1000 61 10000 5.14 10 13:34 16.03.2022
2565 Clouds -18 1001 69 10000 1.91 13 11:59 16.03.2022
2566 Clouds -17 1000 64 10000 3.6 60 11:22 16.03.2022
2567 Clouds -18 1000 66 10000 3.6 70 10:28 16.03.2022
2568 Clear -18 1001 63 10000 4.12 80 09:55 16.03.2022
2569 Clear -17 999 58 10000 3.09 10 06:47 16.03.2022
2570 Clear -9 998 39 10000 2.06 50 02:29 16.03.2022
2571 Clouds -12 998 49 10000 0.89 167 22:54 15.03.2022
2572 Clouds -13 998 50 10000 0.45 51 22:33 15.03.2022
2573 Clouds -13 998 49 10000 0.45 200 22:33 15.03.2022
2574 Clear -18 997 62 10000 0.45 144 20:42 15.03.2022
2575 Clouds -17 995 61 3995 0.51 48 19:34 15.03.2022
2576 Clear -26 998 73 10000 1.54 40 17:41 15.03.2022
2577 Clear -25 998 72 10000 1.54 70 16:34 15.03.2022
2578 Clear -25 998 72 10000 2.06 140 15:26 15.03.2022
2579 Clear -25 998 72 10000 2.06 60 14:47 15.03.2022
2580 Clouds -22 997 70 1122 0.45 63 13:55 15.03.2022
2581 Clouds -23 997 67 10000 1.54 360 13:20 15.03.2022
2582 Clouds -23 998 68 10000 0 0 11:32 15.03.2022
2583 Clouds -22 998 67 10000 0 0 10:21 15.03.2022
2584 Clouds -22 998 64 10000 0 0 08:50 15.03.2022
2585 Clouds -22 997 60 10000 1.54 30 07:53 15.03.2022
2586 Clouds -21 997 59 10000 1.54 30 07:35 15.03.2022
2587 Clear -18 997 51 10000 0 0 05:45 15.03.2022
2588 Clouds -11 1000 40 10000 1.54 230 00:25 15.03.2022
2589 Clear -13 1000 45 10000 1.54 240 23:26 14.03.2022
2590 Clear -14 1001 47 10000 0.89 85 22:37 14.03.2022
2591 Clear -15 1001 51 10000 0.45 76 21:51 14.03.2022
2592 Clear -17 1001 56 10000 0 0 20:55 14.03.2022
2593 Clear -20 1002 64 10000 0 0 20:24 14.03.2022
2594 Clouds -25 1002 75 10000 0 0 19:22 14.03.2022
2595 Clear -30 1004 74 10000 0 0 17:55 14.03.2022
2596 Clear -30 1004 74 10000 0 0 17:33 14.03.2022
2597 Clear -30 1004 70 10000 0 0 16:27 14.03.2022
2598 Clear -28 1006 70 10000 2.06 150 14:42 14.03.2022
2599 Clear -27 1007 72 10000 3.6 60 12:55 14.03.2022
2600 Clouds -25 1009 61 10000 1.76 29 10:59 14.03.2022
2601 Clear -24 1010 61 10000 0 0 09:56 14.03.2022
2602 Clear -24 1010 69 10000 0 0 09:23 14.03.2022
2603 Clear -24 1010 68 10000 0 0 08:57 14.03.2022
2604 Clear -24 1010 71 10000 1.54 10 08:24 14.03.2022
2605 Haze -18 1011 55 9656 1.54 160 05:51 14.03.2022
2606 Clear -8 1013 34 10000 4.12 110 02:57 14.03.2022
2607 Clear -8 1013 31 10000 4.12 100 01:33 14.03.2022
2608 Clear -10 1015 32 10000 3.6 60 23:29 13.03.2022
2609 Clear -15 1017 42 10000 2.06 70 21:41 13.03.2022
2610 Clear -16 1017 45 10000 2.06 70 21:19 13.03.2022
2611 Clear -19 1017 48 10000 3.09 20 20:46 13.03.2022
2612 Clear -19 1017 48 10000 3.09 20 20:21 13.03.2022
2613 Clear -20 1016 48 10000 2.57 90 19:41 13.03.2022
2614 Clear -22 1017 52 10000 2.57 90 19:20 13.03.2022
2615 Clear -22 1018 54 10000 3.09 20 18:41 13.03.2022
2616 Clouds -24 1017 64 10000 3.6 20 17:52 13.03.2022
2617 Clouds -24 1017 64 10000 3.6 20 17:33 13.03.2022
2618 Clear -29 1017 69 10000 2.57 30 16:44 13.03.2022
2619 Clear -29 1017 69 10000 2.57 30 16:20 13.03.2022
2620 Clear -30 1018 69 10000 4.12 20 15:34 13.03.2022
2621 Clear -24 1018 64 10000 0 0 14:20 13.03.2022
2622 Clear -21 1019 55 10000 4.12 60 13:27 13.03.2022
2623 Clear -22 1020 60 10000 2.57 50 12:20 13.03.2022
2624 Clear -20 1020 53 10000 4.12 40 11:36 13.03.2022
2625 Clear -22 1020 59 10000 3.6 50 10:49 13.03.2022
2626 Clear -22 1020 59 10000 3.6 50 10:25 13.03.2022
2627 Clear -21 1020 52 10000 1.54 80 09:41 13.03.2022
2628 Clear -20 1020 48 10000 5.14 30 08:48 13.03.2022
2629 Clear -20 1020 48 10000 5.14 30 08:21 13.03.2022
2630 Clear -17 1021 48 10000 0.89 65 05:59 13.03.2022
2631 Clear -12 1018 40 10000 7.72 50 03:33 13.03.2022
2632 Clear -10 1018 38 10000 7.72 40 00:48 13.03.2022
2633 Clear -10 1019 39 10000 8.75 40 22:47 12.03.2022
2634 Clear -12 1018 47 10000 7.2 50 20:59 12.03.2022
2635 Clear -12 1018 47 10000 3.6 50 19:57 12.03.2022
2636 Clear -12 1018 50 10000 6.17 20 19:39 12.03.2022
2637 Clear -24 1019 92 10000 1.85 31 18:31 12.03.2022
2638 Clouds -14 1016 47 10000 5.66 10 17:43 12.03.2022
2639 Clear -23 1017 69 10000 2.57 20 16:25 12.03.2022
2640 Clear -24 1016 68 10000 2.57 40 15:24 12.03.2022
2641 Clear -23 1015 64 10000 3.09 60 14:52 12.03.2022
2642 Clear -22 1014 62 10000 3.6 70 13:53 12.03.2022
2643 Clear -22 1014 63 10000 3.6 70 13:53 12.03.2022
2644 Clear -22 1013 63 10000 3.6 70 12:25 12.03.2022
2645 Clear -22 1012 57 10000 3.6 50 11:51 12.03.2022
2646 Clear -22 1012 57 10000 3.6 50 11:19 12.03.2022
2647 Clouds -22 1014 89 10000 2.04 17 09:58 12.03.2022
2648 Clouds -22 1014 89 10000 2.04 17 09:58 12.03.2022
2649 Clear -20 1011 63 10000 3.6 70 09:38 12.03.2022
2650 Clouds -15 1008 47 10000 2.57 20 07:51 12.03.2022
2651 Clear -12 1008 38 10000 3.6 50 05:20 12.03.2022
2652 Clear -6 1008 33 10000 3.09 80 00:24 12.03.2022
2653 Clear -7 1007 36 10000 4.63 80 23:28 11.03.2022
2654 Clear -9 1008 42 10000 3.09 60 21:47 11.03.2022
2655 Clear -11 1009 48 10000 2.57 60 20:57 11.03.2022
2656 Clear -11 1009 50 10000 2.57 60 20:37 11.03.2022
2657 Clear -15 1009 68 10000 1.93 42 19:53 11.03.2022
2658 Clouds -17 1007 71 10000 1.54 30 19:27 11.03.2022
2659 Clear -19 1009 68 10000 2.06 40 17:37 11.03.2022
2660 Clear -18 1009 68 10000 2.06 40 17:18 11.03.2022
2661 Clear -18 1009 66 10000 3.6 70 15:57 11.03.2022
2662 Clear -17 1009 63 10000 3.09 50 14:22 11.03.2022
2663 Clouds -18 1010 68 10000 2.06 60 13:21 11.03.2022
2664 Clear -16 1010 62 10000 2.57 20 12:22 11.03.2022
2665 Clear -15 1011 63 10000 2.57 40 11:56 11.03.2022
2666 Clear -14 1011 61 10000 3.6 360 10:18 11.03.2022
2667 Clear -12 1011 56 10000 3.09 40 09:27 11.03.2022
2668 Clear -12 1012 54 10000 6.17 30 08:24 11.03.2022
2669 Clouds -11 1011 57 10000 7.2 30 07:46 11.03.2022
2670 Clear -11 1012 62 10000 7.2 20 05:49 11.03.2022
2671 Snow -9 1012 60 10000 6.69 50 04:24 11.03.2022
2672 Clouds -6 1013 62 10000 6.69 30 00:21 11.03.2022
2673 Clouds -6 1013 64 10000 5.14 60 22:31 10.03.2022
2674 Clouds -6 1014 67 10000 5.66 10 21:50 10.03.2022
2675 Clouds -6 1014 68 10000 5.66 10 21:23 10.03.2022
2676 Snow -7 1014 80 4828 2.57 50 19:51 10.03.2022
2677 Snow -8 1014 82 4023 3.09 50 18:56 10.03.2022
2678 Snow -8 1014 82 8047 2.57 60 17:36 10.03.2022
2679 Snow -7 1014 79 10000 4.63 10 16:37 10.03.2022
2680 Snow -6 1014 78 10000 4.63 30 15:26 10.03.2022
2681 Snow -6 1015 74 10000 2.57 40 13:30 10.03.2022
2682 Snow -6 1015 70 10000 4.12 10 12:34 10.03.2022
2683 Snow -6 1015 69 10000 4.12 360 11:22 10.03.2022
2684 Snow -6 1015 75 9656 4.63 10 09:27 10.03.2022
2685 Snow -5 1016 77 10000 5.66 360 07:43 10.03.2022
2686 Snow -3 1016 87 4023 3.6 10 04:59 10.03.2022
2687 Snow -1 1016 89 2414 2.57 20 01:53 10.03.2022
2688 Snow -2 1017 89 4023 1.54 40 23:29 09.03.2022
2689 Snow -3 1019 88 4828 0 0 21:56 09.03.2022
2690 Snow -3 1018 88 4828 0 0 21:36 09.03.2022
2691 Snow -4 1019 83 4828 1.54 100 19:56 09.03.2022
2692 Clouds -6 1021 78 10000 0 0 18:34 09.03.2022
2693 Clouds -6 1021 79 10000 1.54 40 17:27 09.03.2022
2694 Clouds -6 1021 77 10000 0 0 16:34 09.03.2022
2695 Clouds -6 1023 79 10000 0 0 15:31 09.03.2022
2696 Clouds -7 1023 79 10000 1.54 40 13:54 09.03.2022
2697 Clouds -8 1025 80 10000 0 0 12:56 09.03.2022
2698 Clouds -8 1025 78 10000 0 0 12:18 09.03.2022
2699 Clouds -7 1026 76 10000 0 0 11:36 09.03.2022
2700 Clouds -6 1026 79 10000 0 0 10:38 09.03.2022
2701 Clouds -5 1028 74 10000 0 0 08:59 09.03.2022
2702 Clouds -5 1027 69 10000 0 0 08:23 09.03.2022
2703 Clouds -3 1029 52 10000 1.54 20 03:50 09.03.2022
2704 Clouds -3 1031 52 10000 2.06 260 00:47 09.03.2022
2705 Clear -4 1032 52 10000 0.45 116 22:48 08.03.2022
2706 Clear -6 1033 57 10000 0 0 22:29 08.03.2022
2707 Clear -9 1033 66 10000 0 0 21:24 08.03.2022
2708 Clear -12 1033 74 10000 0 0 20:44 08.03.2022
2709 Clear -14 1033 75 10000 1.54 80 19:42 08.03.2022
2710 Clear -18 1033 85 10000 1.54 40 18:44 08.03.2022
2711 Clear -17 1033 80 10000 0 0 17:37 08.03.2022
2712 Clear -16 1034 77 10000 0 0 16:26 08.03.2022
2713 Clouds -14 1035 74 10000 0 0 14:20 08.03.2022
2714 Clear -10 1036 68 10000 1.54 80 12:44 08.03.2022
2715 Clear -9 1036 64 10000 5.14 70 11:45 08.03.2022
2716 Clear -12 1037 73 10000 4.63 60 10:50 08.03.2022
2717 Clear -12 1037 73 10000 4.63 60 10:19 08.03.2022
2718 Clouds -11 1037 67 10000 3.09 60 07:33 08.03.2022
2719 Clear -9 1038 68 10000 2.57 60 05:43 08.03.2022
2720 Clouds -2 1040 60 10000 0.89 136 23:58 07.03.2022
2721 Clear -4 1041 68 10000 5.66 60 22:23 07.03.2022
2722 Clear -6 1043 76 10000 4.12 60 21:34 07.03.2022
2723 Clear -10 1043 83 10000 3.6 70 20:49 07.03.2022
2724 Clear -11 1042 87 10000 3.6 70 20:20 07.03.2022
2725 Clear -14 1043 85 10000 4.12 90 19:34 07.03.2022
2726 Clear -17 1043 84 10000 4.63 70 18:46 07.03.2022
2727 Clear -18 1043 79 10000 4.63 70 17:52 07.03.2022
2728 Clear -19 1043 78 10000 0 0 16:56 07.03.2022
2729 Clouds -19 1044 78 8928 1.82 33 15:59 07.03.2022
2730 Clear -17 1043 80 10000 2.57 50 14:18 07.03.2022
2731 Clear -16 1043 87 10000 0 0 12:33 07.03.2022
2732 Clear -17 1043 84 10000 0 0 10:39 07.03.2022
2733 Clear -17 1042 81 10000 0 0 09:24 07.03.2022
2734 Clear -11 1040 79 10000 0 0 06:19 07.03.2022
2735 Snow -3 1035 71 10000 5.66 270 00:23 07.03.2022
2736 Clouds -3 1034 73 10000 4.63 270 23:35 06.03.2022
2737 Clouds -3 1034 73 10000 4.63 270 23:35 06.03.2022
2738 Clouds -3 1034 73 10000 5.14 250 22:52 06.03.2022
2739 Snow -3 1033 72 10000 5.14 260 22:19 06.03.2022
2740 Snow -3 1032 75 10000 5.14 240 20:50 06.03.2022
2741 Snow -4 1031 76 10000 5.14 250 20:23 06.03.2022
2742 Snow -4 1030 77 10000 3.6 200 19:21 06.03.2022
2743 Clouds -5 1029 78 10000 4.12 230 18:25 06.03.2022
2744 Snow -5 1028 81 10000 4.12 230 17:21 06.03.2022
2745 Clouds -5 1027 77 10000 3.09 200 16:42 06.03.2022
2746 Clouds -5 1026 79 10000 1.54 210 15:54 06.03.2022
2747 Clouds -6 1025 80 10000 2.57 270 14:49 06.03.2022
2748 Clouds -6 1026 82 10000 2.57 270 14:31 06.03.2022
2749 Clouds -6 1025 80 10000 2.57 220 13:29 06.03.2022
2750 Clouds -6 1024 80 10000 3.6 240 12:35 06.03.2022
2751 Clear -5 1021 75 10000 3.09 260 11:18 06.03.2022
2752 Clouds -4 1020 73 10000 5.14 260 10:27 06.03.2022
2753 Clouds -3 1017 80 10000 2.57 230 08:30 06.03.2022
2754 Clouds -3 1017 80 10000 2.57 230 08:30 06.03.2022
2755 Clouds -2 1016 84 10000 2.57 200 07:35 06.03.2022
2756 Snow -2 1016 85 10000 3.6 240 06:19 06.03.2022
2757 Clouds -1 1015 67 10000 0 0 00:53 06.03.2022
2758 Clouds -1 1015 67 10000 0 0 00:31 06.03.2022
2759 Snow -2 1016 72 10000 0 0 23:23 05.03.2022
2760 Snow -4 1017 74 10000 0 0 22:53 05.03.2022
2761 Clouds -6 1017 80 10000 0.59 122 21:56 05.03.2022
2762 Clouds -7 1017 82 10000 1.54 360 21:23 05.03.2022
2763 Clouds -13 1018 87 10000 0.89 85 19:44 05.03.2022
2764 Clouds -14 1019 83 10000 2.57 70 18:54 05.03.2022
2765 Clouds -15 1019 81 10000 2.57 70 18:27 05.03.2022
2766 Clear -15 1019 83 10000 2.06 60 16:49 05.03.2022
2767 Clear -15 1019 83 10000 1.54 340 15:31 05.03.2022
2768 Clear -15 1018 80 10000 1.54 90 14:47 05.03.2022
2769 Clear -15 1018 80 10000 1.54 90 14:29 05.03.2022
2770 Clouds -14 1018 83 10000 0 0 13:22 05.03.2022
2771 Clear -13 1017 85 10000 0 0 11:48 05.03.2022
2772 Clear -13 1017 85 10000 0 0 11:19 05.03.2022
2773 Clear -12 1016 87 10000 1.54 70 10:18 05.03.2022
2774 Clear -9 1015 80 10000 1.54 80 09:22 05.03.2022
2775 Clouds -9 1014 80 10000 0 0 07:38 05.03.2022
2776 Clear -5 1012 75 10000 2.57 100 05:43 05.03.2022
2777 Clouds 1 1010 64 10000 2.06 70 03:18 05.03.2022
2778 Clouds 2 1009 56 10000 5.66 80 23:37 04.03.2022
2779 Clouds 1 1009 55 10000 4.63 70 22:42 04.03.2022
2780 Clouds 0 1008 60 10000 4.12 70 21:49 04.03.2022
2781 Clouds -1 1009 56 10000 0.89 214 20:56 04.03.2022
2782 Clear -5 1009 70 10000 4.12 70 20:27 04.03.2022
2783 Clear -4 1009 64 10000 4.63 70 19:36 04.03.2022
2784 Clear -7 1010 71 10000 3.6 70 18:45 04.03.2022
2785 Clear -9 1010 78 10000 4.12 70 17:39 04.03.2022
2786 Clear -9 1011 73 10000 4.12 80 16:54 04.03.2022
2787 Clear -15 1011 79 10000 4.12 60 15:30 04.03.2022
2788 Clear -15 1012 79 10000 4.63 70 14:33 04.03.2022
2789 Clear -15 1013 85 10000 4.12 70 13:26 04.03.2022
2790 Clear -16 1014 81 10000 0 0 11:46 04.03.2022
2791 Clear -13 1014 81 10000 3.09 70 10:54 04.03.2022
2792 Clouds -13 1015 80 10000 1.92 42 09:58 04.03.2022
2793 Clear -11 1015 80 10000 3.09 80 08:40 04.03.2022
2794 Clouds -10 1015 80 10000 2.06 30 07:36 04.03.2022
2795 Clouds -7 1014 70 10000 2.06 270 04:31 04.03.2022
2796 Clear -3 1014 65 10000 0 0 00:38 04.03.2022
2797 Clouds -6 1013 69 10000 0 0 22:28 03.03.2022
2798 Clear -13 1013 81 10000 0 0 21:45 03.03.2022
2799 Clear -14 1013 84 10000 0 0 21:26 03.03.2022
2800 Clear -13 1013 88 10000 0.89 77 20:18 03.03.2022
2801 Clear -20 1012 81 10000 0 0 18:55 03.03.2022
2802 Clear -19 1012 80 10000 0 0 18:24 03.03.2022
2803 Clear -18 1012 80 10000 0 0 17:31 03.03.2022
2804 Clear -18 1012 82 10000 0 0 16:25 03.03.2022
2805 Clear -14 1011 87 10000 0.45 66 15:24 03.03.2022
2806 Clear -13 1012 80 10000 3.09 90 14:43 03.03.2022
2807 Clear -14 1012 80 10000 3.09 90 14:20 03.03.2022
2808 Clear -14 1012 85 10000 3.09 70 12:23 03.03.2022
2809 Clear -14 1011 80 10000 0 0 10:49 03.03.2022
2810 Clouds -13 1011 84 10000 1.54 90 09:45 03.03.2022
2811 Clouds -10 1011 78 10000 0 0 08:19 03.03.2022
2812 Clouds -7 1011 86 10000 2.57 70 06:37 03.03.2022
2813 Clouds -6 1011 80 10000 2.06 60 04:46 03.03.2022
2814 Clouds -5 1013 81 10000 1.54 40 23:41 02.03.2022
2815 Clouds -7 1014 87 10000 0 0 22:53 02.03.2022
2816 Clouds -12 1014 85 10000 0 0 21:36 02.03.2022
2817 Mist -14 1014 87 6437 0 0 20:57 02.03.2022
2818 Mist -15 1014 85 6437 0 0 20:25 02.03.2022
2819 Fog -17 1014 87 805 0 0 19:37 02.03.2022
2820 Mist -16 1014 85 3219 0 0 18:57 02.03.2022
2821 Fog -16 1014 82 10000 0 0 18:26 02.03.2022
2822 Clouds -16 1013 84 10000 0 0 17:37 02.03.2022
2823 Mist -15 1013 84 3018 0 0 16:52 02.03.2022
2824 Mist -15 1013 84 1609 0 0 15:20 02.03.2022
2825 Fog -16 1013 80 10000 0 0 13:52 02.03.2022
2826 Mist -14 1013 83 1609 0 0 12:46 02.03.2022
2827 Fog -13 1013 81 10000 0 0 12:24 02.03.2022
2828 Clouds -11 1012 85 10000 0 0 11:26 02.03.2022
2829 Clouds -9 1012 86 10000 0 0 10:31 02.03.2022
2830 Clouds -8 1012 83 10000 0 0 09:36 02.03.2022
2831 Snow -7 1012 86 10000 0 0 08:34 02.03.2022
2832 Snow -6 1010 79 10000 1.54 0 07:23 02.03.2022
2833 Clouds -6 1011 83 10000 0 0 04:51 02.03.2022
2834 Clouds -5 1011 80 10000 0 0 00:40 02.03.2022
2835 Clouds -5 1011 80 10000 0 0 00:40 02.03.2022
2836 Clouds -6 1011 80 10000 0 0 23:27 01.03.2022
2837 Clouds -7 1011 81 10000 0 0 22:38 01.03.2022
2838 Clouds -8 1011 83 10000 0 0 21:44 01.03.2022
2839 Clouds -9 1011 85 10000 0 0 20:40 01.03.2022
2840 Clouds -9 1011 85 10000 0 0 20:19 01.03.2022
2841 Clouds -9 1011 85 10000 0 0 18:53 01.03.2022
2842 Clouds -9 1011 83 10000 1.54 190 18:24 01.03.2022
2843 Clouds -9 1011 92 10000 0 0 17:54 01.03.2022
2844 Clouds -9 1010 86 10000 0 0 16:37 01.03.2022
2845 Clouds -9 1010 86 10000 1.54 200 15:48 01.03.2022
2846 Clouds -9 1011 92 10000 0 0 14:54 01.03.2022
2847 Clouds -9 1010 86 10000 0 0 14:31 01.03.2022
2848 Clouds -9 1010 86 10000 0 0 13:26 01.03.2022
2849 Snow -9 1010 89 10000 0 0 12:37 01.03.2022
2850 Mist -10 1010 86 8047 0 0 11:38 01.03.2022
2851 Snow -9 1010 89 10000 2.06 180 09:53 01.03.2022
2852 Snow -8 1010 85 10000 0 0 08:30 01.03.2022
2853 Snow -8 1009 84 10000 0 0 07:19 01.03.2022
2854 Clouds -7 1008 83 10000 1.54 200 03:27 01.03.2022
2855 Snow -6 1008 82 10000 0 0 00:49 01.03.2022
2856 Mist -7 1008 81 4828 0 0 23:47 28.02.2022
2857 Snow -7 1008 83 10000 0 0 22:43 28.02.2022
2858 Mist -8 1008 84 4426 0 0 21:48 28.02.2022
2859 Snow -8 1009 85 3219 0 0 20:55 28.02.2022
2860 Snow -9 1008 85 3219 0 0 19:51 28.02.2022
2861 Snow -10 1008 86 2414 0 0 19:22 28.02.2022
2862 Snow -10 1008 86 2615 0 0 18:35 28.02.2022
2863 Snow -10 1008 87 3621 0 0 17:23 28.02.2022
2864 Snow -10 1008 87 4023 0 0 16:32 28.02.2022
2865 Snow -10 1007 87 3219 0 0 15:21 28.02.2022
2866 Snow -10 1008 88 10000 0 0 14:29 28.02.2022
2867 Snow -10 1008 86 4828 0 0 13:24 28.02.2022
2868 Snow -10 1008 87 10000 0 0 12:31 28.02.2022
2869 Snow -10 1008 88 10000 0 0 11:21 28.02.2022
2870 Snow -9 1007 87 6437 0 0 10:24 28.02.2022
2871 Mist -9 1008 87 6437 0 0 09:59 28.02.2022
2872 Snow -9 1007 86 3219 0 0 09:27 28.02.2022
2873 Snow -9 1007 87 9656 0 0 08:26 28.02.2022
2874 Snow -9 1007 87 8047 0 0 06:53 28.02.2022
2875 Snow -9 1006 85 4828 0 0 04:31 28.02.2022
2876 Snow -8 1006 82 4426 1.54 200 02:41 28.02.2022
2877 Mist -8 1006 82 8047 1.54 230 23:19 27.02.2022
2878 Mist -8 1006 82 8047 0.45 53 22:33 27.02.2022
2879 Mist -8 1005 83 3621 0 0 21:47 27.02.2022
2880 Clouds -9 1005 85 10000 0 0 20:54 27.02.2022
2881 Snow -9 1005 85 4828 0.45 167 20:27 27.02.2022
2882 Snow -9 1005 85 3621 0.45 166 19:56 27.02.2022
2883 Snow -9 1005 85 4023 0 0 19:26 27.02.2022
2884 Snow -10 1004 86 3621 0.45 178 18:39 27.02.2022
2885 Snow -9 1003 85 6437 1.54 180 17:54 27.02.2022
2886 Mist -9 1003 84 9656 1.54 190 16:37 27.02.2022
2887 Mist -9 1003 83 9656 1.54 200 15:55 27.02.2022
2888 Clouds -8 1003 80 10000 3.09 210 12:53 27.02.2022
2889 Clouds -8 1003 79 10000 3.09 210 12:29 27.02.2022
2890 Clouds -4 1002 90 10000 2.06 220 10:50 27.02.2022
2891 Clouds -4 1002 93 10000 0 0 09:58 27.02.2022
2892 Snow -3 1002 87 10000 0 0 09:29 27.02.2022
2893 Snow -8 1004 96 136 2.24 353 09:00 27.02.2022
2894 Clouds -2 1001 75 8047 5.14 10 06:43 27.02.2022
2895 Clouds -1 1001 72 10000 4.63 360 05:36 27.02.2022
2896 Clouds -1 1003 72 10000 3.09 10 00:52 27.02.2022
2897 Clouds -1 1003 77 10000 3.6 50 22:56 26.02.2022
2898 Clouds -4 1003 83 10000 2.57 40 21:44 26.02.2022
2899 Clouds -7 1004 87 10000 2.06 50 20:52 26.02.2022
2900 Clouds -8 1004 89 10000 2.06 50 20:19 26.02.2022
2901 Clear -10 1004 86 10000 0 0 19:41 26.02.2022
2902 Clear -11 1004 84 10000 0 0 19:19 26.02.2022
2903 Mist -11 1004 83 3018 1.54 20 17:45 26.02.2022
2904 Clear -9 1004 86 10000 0 0 16:51 26.02.2022
2905 Clear -9 1004 86 10000 0 0 15:57 26.02.2022
2906 Clear -9 1004 86 10000 0 0 15:23 26.02.2022
2907 Clear -8 1004 85 10000 0 0 14:54 26.02.2022
2908 Clear -8 1004 85 10000 0 0 14:36 26.02.2022
2909 Clear -5 1004 81 10000 0 0 13:19 26.02.2022
2910 Clear -3 1003 75 10000 0 0 12:29 26.02.2022
2911 Clouds -1 1003 75 10000 3.09 70 11:28 26.02.2022
2912 Clouds 1 1003 64 10000 5.14 60 10:49 26.02.2022
2913 Clouds -3 1003 78 10000 2.52 42 08:59 26.02.2022
2914 Clouds 2 1000 64 10000 1.54 80 07:37 26.02.2022
2915 Clouds 1 999 74 10000 2.57 50 01:27 26.02.2022
2916 Clouds -1 1000 82 10000 4.12 60 22:57 25.02.2022
2917 Clear -4 1001 91 10000 3.6 60 21:46 25.02.2022
2918 Clear -4 1002 91 10000 3.6 60 21:26 25.02.2022
2919 Clear -5 1001 90 10000 4.12 60 20:33 25.02.2022
2920 Clear -10 1003 87 10000 2.57 60 19:22 25.02.2022
2921 Clear -13 1003 86 10000 0 0 17:30 25.02.2022
2922 Clear -13 1004 85 10000 0 0 16:44 25.02.2022
2923 Clear -12 1004 85 10000 0 0 15:48 25.02.2022
2924 Clear -12 1005 85 10000 0 0 15:22 25.02.2022
2925 Clear -11 1005 85 10000 0 0 14:42 25.02.2022
2926 Mist -11 1006 87 4426 0 0 13:58 25.02.2022
2927 Mist -11 1006 86 4426 0 0 13:20 25.02.2022
2928 Clear -8 1007 89 10000 3.6 70 11:28 25.02.2022
2929 Mist -9 1007 87 8047 1.54 40 10:48 25.02.2022
2930 Mist -9 1007 87 8047 1.54 40 10:22 25.02.2022
2931 Clear -7 1008 90 10000 3.09 70 09:31 25.02.2022
2932 Clouds -7 1008 84 10000 0 0 07:44 25.02.2022
2933 Mist -6 1008 87 6437 2.06 50 06:19 25.02.2022
2934 Mist -6 1008 87 6437 1.54 80 05:36 25.02.2022
2935 Clear -1 1009 88 10000 2.57 60 00:30 25.02.2022
2936 Clouds -2 1010 89 10000 2.57 60 22:20 24.02.2022
2937 Clouds -5 1009 88 10000 0 0 21:42 24.02.2022
2938 Clouds -5 1010 89 10000 0 0 21:20 24.02.2022
2939 Clouds -6 1011 89 10000 0 0 20:42 24.02.2022
2940 Clouds -10 1011 88 10000 0 0 19:19 24.02.2022
2941 Clear -10 1011 88 10000 0 0 18:20 24.02.2022
2942 Clear -10 1011 88 10000 0 0 17:46 24.02.2022
2943 Mist -10 1011 89 6437 0 0 16:57 24.02.2022
2944 Mist -11 1011 87 6437 0 0 16:25 24.02.2022
2945 Mist -11 1012 88 2012 0 0 15:31 24.02.2022
2946 Mist -11 1012 88 4828 0 0 14:43 24.02.2022
2947 Mist -12 1013 85 9656 0 0 13:45 24.02.2022
2948 Mist -9 1012 87 9656 0 0 13:27 24.02.2022
2949 Clouds -8 1014 86 10000 0 0 10:48 24.02.2022
2950 Clouds -8 1014 84 10000 1.54 10 09:42 24.02.2022
2951 Clouds -8 1014 86 10000 0 0 08:43 24.02.2022
2952 Clouds -8 1014 86 10000 0 0 08:43 24.02.2022
2953 Clouds -11 1014 84 10000 1.54 20 06:27 24.02.2022
2954 Fog -12 1014 86 805 0 0 05:36 24.02.2022
2955 Snow -4 1016 84 10000 0 0 00:30 24.02.2022
2956 Clouds -9 1017 92 10000 2.57 80 21:56 23.02.2022
2957 Mist -10 1017 90 10000 0 0 20:43 23.02.2022
2958 Mist -13 1018 91 10000 0 0 20:20 23.02.2022
2959 Clouds -16 1019 83 10000 1.54 30 19:23 23.02.2022
2960 Mist -16 1019 84 3621 0 0 17:56 23.02.2022
2961 Fog -13 1020 84 10000 1.54 70 16:27 23.02.2022
2962 Mist -7 1021 90 9656 0 0 13:45 23.02.2022
2963 Snow -4 1022 88 10000 0 0 12:31 23.02.2022
2964 Mist -5 1022 87 8047 3.09 60 10:56 23.02.2022
2965 Snow -4 1020 89 10000 2.57 80 09:38 23.02.2022
2966 Clouds -5 1021 91 10000 2.57 60 08:54 23.02.2022
2967 Snow -5 1021 90 10000 2.57 60 07:47 23.02.2022
2968 Snow -4 1018 86 6437 4.63 240 02:31 23.02.2022
2969 Snow -4 1017 86 9656 4.12 220 23:50 22.02.2022
2970 Snow -4 1016 86 9656 4.12 220 23:32 22.02.2022
2971 Snow -5 1015 88 6437 3.6 230 22:28 22.02.2022
2972 Snow -6 1014 90 805 3.09 190 21:44 22.02.2022
2973 Snow -6 1014 90 805 3.09 190 21:21 22.02.2022
2974 Snow -6 1013 90 402 3.09 190 20:41 22.02.2022
2975 Snow -6 1013 90 402 3.09 190 20:22 22.02.2022
2976 Snow -5 1012 89 402 3.09 190 19:34 22.02.2022
2977 Snow -6 1012 90 8047 0 0 18:35 22.02.2022
2978 Snow -6 1011 89 4426 2.57 260 17:34 22.02.2022
2979 Snow -6 1010 89 4023 0 0 16:56 22.02.2022
2980 Mist -6 1009 88 1609 0 0 16:21 22.02.2022
2981 Mist -6 1009 88 3219 0 0 15:30 22.02.2022
2982 Snow -6 1009 87 3219 0 0 14:33 22.02.2022
2983 Clouds -7 1010 83 10000 0 0 11:39 22.02.2022
2984 Clouds -7 1010 83 10000 0 0 11:39 22.02.2022
2985 Clouds -7 1012 82 10000 0.45 196 09:45 22.02.2022
2986 Snow -8 1014 84 10000 2.06 10 07:38 22.02.2022
2987 Snow -8 1015 85 10000 2.06 10 07:19 22.02.2022
2988 Snow -8 1015 85 10000 2.06 10 07:19 22.02.2022
2989 Clouds -8 1022 72 10000 2.57 20 02:51 22.02.2022
2990 Clouds -8 1026 72 10000 2.57 30 23:42 21.02.2022
2991 Clouds -9 1027 73 10000 2.06 70 22:37 21.02.2022
2992 Snow -10 1027 74 10000 2.57 20 21:21 21.02.2022
2993 Clouds -11 1028 76 10000 0.23 54 18:58 21.02.2022
2994 Clouds -12 1028 75 10000 2.06 60 18:39 21.02.2022
2995 Clouds -13 1029 75 10000 2.06 90 16:30 21.02.2022
2996 Clouds -14 1030 75 10000 2.06 30 14:24 21.02.2022
2997 Clouds -14 1030 75 10000 1.54 10 13:40 21.02.2022
2998 Clouds -15 1030 75 10000 1.54 100 12:57 21.02.2022
2999 Clouds -15 1030 72 10000 2.57 30 12:21 21.02.2022
3000 Clear -17 1030 76 10000 3.09 70 10:31 21.02.2022
3001 Clear -17 1031 77 10000 3.6 70 07:51 21.02.2022
3002 Clear -14 1032 70 10000 2.06 50 00:36 21.02.2022
3003 Clear -17 1031 72 10000 3.09 40 22:37 20.02.2022
3004 Clear -20 1030 73 10000 2.57 50 21:51 20.02.2022
3005 Clear -21 1031 74 10000 2.57 50 21:25 20.02.2022
3006 Clear -22 1031 76 10000 0 0 20:45 20.02.2022
3007 Clear -26 1031 77 10000 3.09 10 19:51 20.02.2022
3008 Clear -29 1031 72 10000 2.57 40 18:57 20.02.2022
3009 Clear -29 1031 72 10000 2.57 40 18:37 20.02.2022
3010 Clear -28 1030 72 10000 2.57 40 17:56 20.02.2022
3011 Clear -28 1030 72 10000 2.57 40 17:24 20.02.2022
3012 Clear -29 1030 72 10000 2.06 30 15:28 20.02.2022
3013 Clouds -25 1029 73 10000 1.78 20 13:59 20.02.2022
3014 Haze -25 1028 75 4426 0 0 12:49 20.02.2022
3015 Clear -23 1028 76 10000 0 0 11:56 20.02.2022
3016 Clear -22 1027 76 10000 2.57 30 10:21 20.02.2022
3017 Clouds -20 1027 79 10000 2.06 60 09:46 20.02.2022
3018 Clouds -19 1025 77 10000 1.54 20 06:30 20.02.2022
3019 Clouds -14 1022 73 10000 1.54 150 00:33 20.02.2022
3020 Clear -15 1021 76 10000 0 0 23:39 19.02.2022
3021 Clouds -17 1020 77 10000 0 0 22:24 19.02.2022
3022 Clouds -17 1019 80 10000 1.54 240 21:50 19.02.2022
3023 Clouds -18 1018 80 10000 0 0 20:41 19.02.2022
3024 Haze -19 1017 79 8047 0 0 19:36 19.02.2022
3025 Snow -20 1017 79 10000 0 0 18:41 19.02.2022
3026 Snow -18 1016 81 10000 0 0 17:58 19.02.2022
3027 Snow -18 1015 78 10000 0 0 17:23 19.02.2022
3028 Clouds -19 1015 78 333 0.96 332 15:59 19.02.2022
3029 Clouds -19 1014 83 10000 0 0 14:55 19.02.2022
3030 Clouds -20 1014 82 10000 0 0 13:58 19.02.2022
3031 Snow -20 1012 78 10000 0 0 11:58 19.02.2022
3032 Snow -19 1011 79 10000 0 0 11:24 19.02.2022
3033 Clouds -17 1009 82 10000 0 0 08:59 19.02.2022
3034 Mist -17 1008 82 6437 0 0 06:48 19.02.2022
3035 Snow -15 1004 79 10000 2.06 190 00:50 19.02.2022
3036 Snow -14 1003 82 2012 4.12 200 22:33 18.02.2022
3037 Snow -13 1003 83 10000 3.09 190 21:26 18.02.2022
3038 Snow -12 1002 82 3621 2.06 200 20:24 18.02.2022
3039 Mist -11 1002 83 3018 2.57 210 19:50 18.02.2022
3040 Mist -10 1002 87 3621 2.06 350 18:37 18.02.2022
3041 Mist -10 1002 85 4023 2.06 350 18:18 18.02.2022
3042 Snow -10 1002 85 9656 3.09 360 17:18 18.02.2022
3043 Snow -10 990 83 3621 3.6 10 14:30 18.02.2022
3044 Snow -11 1002 88 4023 2.06 50 13:46 18.02.2022
3045 Mist -11 1003 87 4828 3.09 40 12:50 18.02.2022
3046 Snow -11 1003 85 4828 2.57 40 11:57 18.02.2022
3047 Mist -12 992 85 8047 3.09 60 10:45 18.02.2022
3048 Snow -12 1008 85 1609 3.09 60 08:47 18.02.2022
3049 Snow -12 1010 81 1609 3.6 30 06:35 18.02.2022
3050 Snow -12 1012 77 6437 3.6 60 05:34 18.02.2022
3051 Clouds -18 1020 73 10000 1.54 50 22:39 17.02.2022
3052 Clouds -20 1021 72 10000 0 0 21:41 17.02.2022
3053 Clouds -22 1021 73 10000 2.57 50 20:44 17.02.2022
3054 Clouds -21 1020 75 10000 1.57 36 19:56 17.02.2022
3055 Clouds -26 1023 73 10000 1.54 20 19:26 17.02.2022
3056 Clouds -29 1023 76 10000 0 0 18:29 17.02.2022
3057 Clear -31 1023 76 10000 0 0 17:42 17.02.2022
3058 Clear -30 1024 78 10000 0 0 15:57 17.02.2022
3059 Clear -30 1024 74 10000 0 0 14:30 17.02.2022
3060 Clouds -29 1023 72 10000 0 0 13:47 17.02.2022
3061 Clouds -29 1023 74 10000 0 0 11:52 17.02.2022
3062 Clouds -29 1024 75 10000 0 0 10:57 17.02.2022
3063 Clouds -24 1020 77 10000 0 0 07:56 17.02.2022
3064 Snow -14 1011 81 3219 3.6 260 23:50 16.02.2022
3065 Snow -14 1009 83 2012 1.54 260 22:38 16.02.2022
3066 Snow -16 1009 79 3621 4.63 40 20:24 16.02.2022
3067 Snow -17 1010 79 10000 4.12 60 19:23 16.02.2022
3068 Clouds -16 1010 78 10000 5.14 50 18:34 16.02.2022
3069 Clouds -19 1012 80 10000 4.12 20 17:24 16.02.2022
3070 Clouds -21 1016 75 10000 4.12 40 15:24 16.02.2022
3071 Clouds -23 1019 73 10000 2.57 30 13:47 16.02.2022
3072 Clear -28 1021 74 10000 0 0 12:27 16.02.2022
3073 Clear -26 1022 73 10000 0 0 11:46 16.02.2022
3074 Clear -27 1024 76 10000 0 0 10:35 16.02.2022
3075 Haze -24 1024 77 10000 0 0 09:54 16.02.2022
3076 Clear -21 1026 80 10000 0 0 06:44 16.02.2022
3077 Mist -18 1026 78 4426 2.57 200 02:48 16.02.2022
3078 Snow -17 1024 78 3219 2.06 210 22:34 15.02.2022
3079 Mist -17 1024 77 4828 2.06 200 21:51 15.02.2022
3080 Snow -17 1023 77 4023 2.57 250 21:31 15.02.2022
3081 Mist -17 1022 78 6437 1.54 240 20:58 15.02.2022
3082 Snow -17 1022 78 10000 1.54 200 20:27 15.02.2022
3083 Snow -17 1021 77 10000 0 0 19:46 15.02.2022
3084 Snow -17 1020 75 10000 1.54 40 18:27 15.02.2022
3085 Clouds -18 1020 77 10000 0 0 17:57 15.02.2022
3086 Clouds -17 1020 74 10000 0 0 17:38 15.02.2022
3087 Clouds -17 1019 76 10000 2.06 50 15:44 15.02.2022
3088 Clouds -18 1019 76 10000 3.09 350 14:31 15.02.2022
3089 Clouds -18 1019 74 10000 2.57 20 13:26 15.02.2022
3090 Clouds -20 1018 74 10000 3.09 40 11:41 15.02.2022
3091 Clouds -19 1017 75 10000 3.6 40 10:32 15.02.2022
3092 Clouds -20 1019 77 10000 0 0 08:56 15.02.2022
3093 Clear -19 1018 77 10000 0 0 06:47 15.02.2022
3094 Clear -18 1024 78 10000 3.6 60 00:26 15.02.2022
3095 Clouds -19 1024 79 10000 1.68 20 21:59 14.02.2022
3096 Clouds -20 1025 80 10000 1.62 25 20:57 14.02.2022
3097 Clouds -23 1028 79 7518 1.53 12 19:52 14.02.2022
3098 Clouds -23 1027 77 1833 0.45 311 19:30 14.02.2022
3099 Clouds -32 1029 69 10000 0 0 18:24 14.02.2022
3100 Clouds -32 1029 69 10000 0 0 18:24 14.02.2022
3101 Clouds -26 1028 77 10000 0 0 17:31 14.02.2022
3102 Clouds -31 1029 73 10000 0 0 16:49 14.02.2022
3103 Clear -33 1025 78 10000 1.54 50 15:42 14.02.2022
3104 Clouds -29 1028 76 10000 2.57 40 13:36 14.02.2022
3105 Clouds -25 1026 77 2727 1.04 32 12:59 14.02.2022
3106 Clouds -30 1029 75 10000 0 0 12:32 14.02.2022
3107 Clear -25 1028 76 10000 0 0 11:39 14.02.2022
3108 Clear -23 1028 79 10000 1.54 60 10:22 14.02.2022
3109 Clear -18 1025 80 10000 0 0 08:26 14.02.2022
3110 Snow -17 1025 76 10000 2.57 230 07:26 14.02.2022
3111 Snow -12 1021 81 2816 2.06 200 23:19 13.02.2022
3112 Snow -12 1020 82 9656 2.06 200 22:41 13.02.2022
3113 Snow -12 1020 81 9656 0 0 22:22 13.02.2022
3114 Snow -13 1021 81 8047 0 0 21:24 13.02.2022
3115 Snow -14 1020 83 10000 0 0 20:28 13.02.2022
3116 Snow -16 1021 80 4828 0 0 19:23 13.02.2022
3117 Snow -15 1020 82 10000 0 0 18:41 13.02.2022
3118 Snow -16 1022 83 10000 0 0 17:41 13.02.2022
3119 Mist -14 1022 85 3621 0 0 15:53 13.02.2022
3120 Snow -15 1021 82 10000 0 0 14:52 13.02.2022
3121 Snow -16 1020 79 6437 0 0 13:42 13.02.2022
3122 Snow -15 1020 81 3621 2.06 240 12:49 13.02.2022
3123 Snow -15 1019 81 10000 0 0 10:50 13.02.2022
3124 Snow -15 1020 83 10000 0 0 10:27 13.02.2022
3125 Snow -18 1020 82 4426 0 0 08:59 13.02.2022
3126 Snow -18 1021 76 9656 0 0 05:27 13.02.2022
3127 Clouds -19 1018 73 10000 0 0 00:34 13.02.2022
3128 Clouds -19 1016 74 10000 0 0 22:59 12.02.2022
3129 Clouds -21 1016 74 10000 0 0 22:33 12.02.2022
3130 Clear -23 1015 75 10000 0 0 21:19 12.02.2022
3131 Clouds -23 1015 74 10000 1.54 240 20:25 12.02.2022
3132 Clear -23 1015 74 10000 1.54 220 19:18 12.02.2022
3133 Clear -23 1015 78 10000 2.06 190 18:41 12.02.2022
3134 Clear -23 1014 78 10000 2.06 190 18:23 12.02.2022
3135 Clouds -21 1014 83 10000 0 0 16:55 12.02.2022
3136 Clouds -21 1013 81 10000 2.06 0 16:25 12.02.2022
3137 Clouds -21 993 82 10000 0 0 15:49 12.02.2022
3138 Clouds -21 1013 81 10000 0 0 14:30 12.02.2022
3139 Clear -25 1014 78 10000 0 0 12:55 12.02.2022
3140 Clouds -21 1015 78 10000 1.54 20 10:36 12.02.2022
3141 Clear -21 1015 78 10000 2.06 60 09:39 12.02.2022
3142 Clear -20 1016 79 10000 0 0 08:48 12.02.2022
3143 Clouds -18 1016 77 10000 0 0 07:50 12.02.2022
3144 Clouds -18 1017 77 10000 3.09 30 05:33 12.02.2022
3145 Clear -16 1017 74 10000 1.54 340 02:20 12.02.2022
3146 Clouds -14 1018 73 10000 3.09 60 01:44 12.02.2022
3147 Clouds -17 1020 74 10000 3.09 20 22:28 11.02.2022
3148 Clouds -18 1021 76 10000 4.12 360 21:45 11.02.2022
3149 Clear -21 1022 76 10000 2.06 360 20:38 11.02.2022
3150 Clouds -21 1022 75 10000 3.6 20 19:33 11.02.2022
3151 Clouds -22 1023 75 10000 0.99 13 18:59 11.02.2022
3152 Clear -23 1025 75 10000 4.12 20 17:41 11.02.2022
3153 Clear -23 1025 75 10000 4.12 20 17:22 11.02.2022
3154 Clouds -24 1004 76 10000 0 0 15:55 11.02.2022
3155 Clouds -25 1029 71 10000 2.57 50 14:38 11.02.2022
3156 Clouds -25 1029 71 10000 2.57 50 14:20 11.02.2022
3157 Snow -23 1028 65 10000 3.09 30 13:50 11.02.2022
3158 Snow -23 1028 65 10000 3.09 30 13:31 11.02.2022
3159 Clouds -24 1016 75 10000 3.6 50 11:32 11.02.2022
3160 Clouds -28 1033 72 10000 2.06 40 09:45 11.02.2022
3161 Clear -27 1033 75 10000 2.57 50 08:40 11.02.2022
3162 Clear -28 1034 78 10000 2.57 50 08:22 11.02.2022
3163 Snow -26 1034 71 9656 2.06 80 06:33 11.02.2022
3164 Clear -22 1034 76 10000 1.54 70 02:26 11.02.2022
3165 Clear -21 1033 77 10000 1.54 80 00:47 11.02.2022
3166 Snow -23 1032 77 10000 1.54 80 22:45 10.02.2022
3167 Snow -24 1032 77 10000 2.06 80 21:45 10.02.2022
3168 Mist -24 1031 76 9656 2.57 60 20:54 10.02.2022
3169 Mist -24 1031 77 6437 1.54 80 20:30 10.02.2022
3170 Snow -24 1030 75 1811 1.54 70 19:25 10.02.2022
3171 Snow -24 1029 75 2615 1.54 70 18:44 10.02.2022
3172 Snow -25 1015 77 8047 0 0 17:26 10.02.2022
3173 Clouds -25 1014 75 10000 2.06 70 16:50 10.02.2022
3174 Clouds -27 1011 76 10000 2.57 90 15:47 10.02.2022
3175 Clouds -28 1011 75 10000 2.57 90 15:28 10.02.2022
3176 Clear -28 1009 77 10000 0 0 14:46 10.02.2022
3177 Clear -27 1008 78 10000 0 0 14:23 10.02.2022
3178 Clouds -25 1007 76 10000 0.45 349 13:22 10.02.2022
3179 Clear -24 1005 77 10000 2.06 210 12:23 10.02.2022
3180 Snow -22 1019 72 10000 2.06 210 11:33 10.02.2022
3181 Snow -20 1016 77 10000 2.57 220 10:35 10.02.2022
3182 Snow -20 1016 78 9656 3.09 200 09:49 10.02.2022
3183 Snow -20 1014 78 9656 4.12 230 08:53 10.02.2022
3184 Snow -20 1011 76 9656 3.6 240 06:50 10.02.2022
3185 Snow -20 1008 78 9656 2.06 190 03:55 10.02.2022
3186 Snow -21 1006 76 2816 0 0 01:43 10.02.2022
3187 Snow -21 1004 76 4828 0 0 00:42 10.02.2022
3188 Snow -21 1004 76 4828 0 0 00:24 10.02.2022
3189 Snow -22 1002 75 4828 1.54 190 22:58 09.02.2022
3190 Snow -21 1002 74 4828 1.54 190 22:33 09.02.2022
3191 Snow -22 1001 76 2213 1.54 170 21:49 09.02.2022
3192 Snow -22 1000 76 6437 1.54 200 21:28 09.02.2022
3193 Snow -22 1000 75 6437 2.06 230 20:47 09.02.2022
3194 Snow -22 999 75 6437 2.06 230 20:23 09.02.2022
3195 Mist -22 999 74 4828 2.06 230 19:44 09.02.2022
3196 Haze -22 994 74 4426 1.54 200 18:58 09.02.2022
3197 Snow -22 991 75 4426 0 0 17:32 09.02.2022
3198 Snow -22 991 76 10000 0 0 16:26 09.02.2022
3199 Snow -22 989 76 10000 1.54 200 15:32 09.02.2022
3200 Clouds -22 1000 77 1125 0.73 295 13:57 09.02.2022
3201 Snow -21 1000 77 10000 0 0 12:27 09.02.2022
3202 Snow -21 1000 76 9656 0 0 10:37 09.02.2022
3203 Snow -20 1000 75 9656 1.54 180 09:57 09.02.2022
3204 Snow -20 1000 75 9656 2.06 200 09:23 09.02.2022
3205 Snow -20 999 76 9656 2.06 180 08:51 09.02.2022
3206 Snow -20 999 75 10000 3.09 190 07:34 09.02.2022
3207 Clouds -20 998 74 10000 4.12 200 05:30 09.02.2022
3208 Clear -15 996 69 10000 2.06 210 03:50 09.02.2022
3209 Clouds -16 993 71 10000 2.06 80 00:21 09.02.2022
3210 Clouds -19 993 72 10000 2.06 60 23:29 08.02.2022
3211 Clouds -19 994 70 10000 2.57 50 22:43 08.02.2022
3212 Clouds -19 993 74 10000 2.57 50 22:21 08.02.2022
3213 Clear -20 994 72 10000 2.57 40 21:38 08.02.2022
3214 Clear -21 993 74 10000 2.57 40 21:19 08.02.2022
3215 Clouds -20 995 73 10000 2.06 20 20:41 08.02.2022
3216 Clouds -20 995 73 10000 2.06 20 20:41 08.02.2022
3217 Clouds -22 995 72 10000 3.09 30 19:45 08.02.2022
3218 Clear -22 996 74 10000 2.57 40 18:34 08.02.2022
3219 Clouds -22 996 76 10000 2.06 40 17:36 08.02.2022
3220 Clear -20 999 73 10000 2.06 20 15:55 08.02.2022
3221 Clear -21 999 73 10000 3.09 30 15:29 08.02.2022
3222 Clouds -20 999 72 10000 2.93 15 13:59 08.02.2022
3223 Clouds -21 1000 71 10000 2.06 40 12:40 08.02.2022
3224 Snow -20 1000 73 10000 2.06 80 11:28 08.02.2022
3225 Clouds -19 1001 73 10000 0 0 09:59 08.02.2022
3226 Clouds -20 1002 72 10000 2.06 20 08:56 08.02.2022
3227 Clouds -20 1001 73 10000 3.09 50 07:37 08.02.2022
3228 Clouds -19 1003 70 10000 3.09 360 04:40 08.02.2022
3229 Clouds -19 1002 67 10000 3.09 360 04:22 08.02.2022
3230 Clouds -19 1002 66 10000 4.63 10 03:37 08.02.2022
3231 Clouds -19 1002 68 10000 4.63 10 03:18 08.02.2022
3232 Clouds -20 1005 75 10000 2.07 10 02:59 08.02.2022
3233 Clouds -19 1002 68 10000 3.6 10 02:37 08.02.2022
3234 Clouds -19 1003 70 10000 3.6 10 02:19 08.02.2022
3235 Clouds -19 1002 75 10000 2.24 20 01:55 08.02.2022
3236 Snow -19 1002 73 10000 2.57 50 01:37 08.02.2022
3237 Snow -19 1002 75 10000 2.57 60 01:19 08.02.2022
3238 Snow -19 1002 75 10000 3.09 50 00:44 08.02.2022
3239 Mist -20 1002 76 9656 0 0 23:45 07.02.2022
3240 Mist -20 1002 76 9656 0 0 23:18 07.02.2022
3241 Haze -20 983 76 8047 0 0 22:59 07.02.2022
3242 Haze -20 987 76 4828 2.57 70 22:19 07.02.2022
3243 Snow -20 1003 79 3219 2.06 40 21:52 07.02.2022
3244 Snow -20 1003 79 3219 2.06 40 21:29 07.02.2022
3245 Snow -20 1002 78 4426 1.54 10 20:56 07.02.2022
3246 Snow -20 1002 78 4426 1.54 10 20:38 07.02.2022
3247 Snow -21 1002 77 4828 0 0 19:47 07.02.2022
3248 Snow -20 1001 77 4828 0 0 19:20 07.02.2022
3249 Snow -21 1000 76 4023 4.12 360 17:39 07.02.2022
3250 Snow -21 999 77 6437 1.54 10 16:52 07.02.2022
3251 Haze -21 999 78 9656 0 0 15:49 07.02.2022
3252 Snow -21 998 78 4426 0 0 14:41 07.02.2022
3253 Snow -21 998 75 6437 3.09 360 13:27 07.02.2022
3254 Clouds -21 998 76 10000 0 0 12:38 07.02.2022
3255 Clouds -22 998 78 10000 0 0 11:55 07.02.2022
3256 Clouds -22 998 76 10000 0 0 11:26 07.02.2022
3257 Clouds -22 997 76 10000 0 0 10:45 07.02.2022
3258 Clouds -22 997 76 10000 0 0 10:26 07.02.2022
3259 Clouds -22 997 77 10000 1.54 200 09:52 07.02.2022
3260 Clouds -22 998 77 10000 0 0 09:18 07.02.2022
3261 Clouds -22 997 77 10000 0 0 08:20 07.02.2022
3262 Clouds -22 998 77 10000 0 0 06:35 07.02.2022
3263 Clouds -22 998 77 10000 0 0 05:47 07.02.2022
3264 Clouds -21 999 77 10000 0 0 02:56 07.02.2022
3265 Haze -20 998 77 8047 0 0 00:42 07.02.2022
3266 Clouds -20 998 78 10000 0 0 23:42 06.02.2022
3267 Snow -20 998 78 10000 0 0 22:47 06.02.2022
3268 Haze -20 997 78 6437 0 0 21:51 06.02.2022
3269 Haze -20 997 76 6437 0 0 21:30 06.02.2022
3270 Snow -20 996 77 6437 0 0 20:52 06.02.2022
3271 Snow -20 996 78 8047 0 0 20:28 06.02.2022
3272 Mist -20 995 77 10000 0 0 19:32 06.02.2022
3273 Snow -20 995 76 6437 2.57 200 18:38 06.02.2022
3274 Clouds -19 995 78 10000 2.06 190 17:55 06.02.2022
3275 Snow -19 994 79 3621 2.06 180 16:56 06.02.2022
3276 Mist -19 993 79 9656 2.57 200 16:38 06.02.2022
3277 Snow -18 993 79 10000 3.09 220 15:47 06.02.2022
3278 Snow -18 993 80 10000 2.57 200 15:26 06.02.2022
3279 Snow -17 993 80 4828 2.57 210 14:33 06.02.2022
3280 Snow -17 993 81 4828 0 0 13:25 06.02.2022
3281 Mist -17 993 82 6437 0 0 12:49 06.02.2022
3282 Snow -17 993 82 4426 0 0 11:23 06.02.2022
3283 Snow -16 993 81 6437 0 0 10:29 06.02.2022
3284 Snow -16 994 80 8047 0 0 08:49 06.02.2022
3285 Mist -16 995 83 8047 0 0 07:36 06.02.2022
3286 Snow -15 997 83 4426 1.54 200 05:30 06.02.2022
3287 Snow -15 997 83 4426 1.54 200 05:30 06.02.2022
3288 Snow -13 998 80 8047 0 0 02:26 06.02.2022
3289 Snow -13 998 79 8047 0 0 01:47 06.02.2022
3290 Clouds -13 999 78 10000 0 0 00:26 06.02.2022
3291 Clouds -15 1000 80 10000 0 0 22:20 05.02.2022
3292 Clouds -16 1000 78 10000 1.35 3 20:59 05.02.2022
3293 Clouds -18 1001 79 10000 0 0 20:24 05.02.2022
3294 Clouds -18 1001 80 10000 0 0 19:45 05.02.2022
3295 Clouds -19 1001 79 10000 0 0 18:52 05.02.2022
3296 Clouds -20 994 77 10000 3.09 40 17:39 05.02.2022
3297 Snow -20 1002 80 10000 0 0 16:48 05.02.2022
3298 Clouds -18 1003 78 10000 0 0 15:34 05.02.2022
3299 Clouds -18 1003 79 10000 0 0 14:53 05.02.2022
3300 Snow -16 1004 81 10000 0 0 12:47 05.02.2022
3301 Snow -16 1004 81 10000 0 0 12:22 05.02.2022
3302 Snow -16 1004 80 6437 0 0 10:48 05.02.2022
3303 Snow -16 1004 80 4828 0 0 09:53 05.02.2022
3304 Snow -16 1004 80 10000 0 0 09:30 05.02.2022
3305 Snow -16 1004 79 9656 0 0 07:38 05.02.2022
3306 Snow -16 1003 78 9656 0 0 06:56 05.02.2022
3307 Snow -15 1002 67 9656 0 0 04:28 05.02.2022
3308 Clouds -15 1001 62 10000 2.57 50 01:19 05.02.2022
3309 Clouds -16 1001 62 10000 2.57 70 00:52 05.02.2022
3310 Clouds -16 1002 62 10000 0 0 23:39 04.02.2022
3311 Clouds -16 1002 62 10000 0 0 23:21 04.02.2022
3312 Clouds -17 1002 65 10000 2.57 50 21:54 04.02.2022
3313 Clouds -17 1002 65 10000 2.57 50 21:36 04.02.2022
3314 Clouds -17 1002 65 5689 1.5 27 21:18 04.02.2022
3315 Clouds -18 1002 67 10000 2.57 40 19:36 04.02.2022
3316 Snow -19 1002 66 10000 0 0 17:28 04.02.2022
3317 Clouds -18 1002 64 10000 0 0 15:39 04.02.2022
3318 Clouds -19 1003 66 10000 1.54 80 14:52 04.02.2022
3319 Clouds -19 1004 61 10000 1.54 360 13:24 04.02.2022
3320 Clouds -18 1004 62 10000 0 0 12:43 04.02.2022
3321 Snow -18 1005 58 10000 1.54 60 11:41 04.02.2022
3322 Clouds -18 1006 56 10000 1.54 70 10:34 04.02.2022
3323 Clouds -18 1007 54 10000 2.06 60 08:34 04.02.2022
3324 Clouds -19 1008 55 10000 4.63 70 06:18 04.02.2022
3325 Clouds -17 1011 54 10000 4.12 90 02:42 04.02.2022
3326 Clouds -16 1012 53 10000 4.12 80 01:22 04.02.2022
3327 Clouds -20 1014 62 10000 2.06 70 23:29 03.02.2022
3328 Clouds -23 1014 64 10000 2.57 60 22:33 03.02.2022
3329 Clouds -23 1014 60 10000 3.09 50 21:49 03.02.2022
3330 Clouds -27 1016 64 10000 2.57 50 20:38 03.02.2022
3331 Clouds -31 1018 62 10000 3.09 40 20:18 03.02.2022
3332 Clear -30 1018 62 10000 2.57 60 19:30 03.02.2022
3333 Clouds -30 1017 63 10000 2.57 70 18:35 03.02.2022
3334 Clear -32 1018 68 10000 2.06 50 17:32 03.02.2022
3335 Clear -34 1019 69 10000 2.06 60 16:25 03.02.2022
3336 Clear -34 1020 68 10000 1.54 60 14:37 03.02.2022
3337 Clear -30 1021 64 10000 2.06 60 12:52 03.02.2022
3338 Clear -32 1024 61 10000 2.06 40 10:58 03.02.2022
3339 Clear -30 1023 69 10000 3.09 50 08:36 03.02.2022
3340 Clear -31 1024 70 10000 0 0 04:28 03.02.2022
3341 Clear -28 1025 74 10000 0 0 00:31 03.02.2022
3342 Clouds -31 1024 76 10000 0 0 23:39 02.02.2022
3343 Mist -36 1025 67 9656 0 0 21:55 02.02.2022
3344 Mist -36 1025 67 9656 0 0 21:31 02.02.2022
3345 Mist -35 1026 74 9656 0 0 20:40 02.02.2022
3346 Clear -33 1027 98 10000 1.53 27 19:58 02.02.2022
3347 Haze -36 1025 73 4426 0 0 19:27 02.02.2022
3348 Clear -37 1023 98 10000 0 0 18:39 02.02.2022
3349 Clear -38 1024 67 10000 0 0 17:56 02.02.2022
3350 Clear -37 1024 67 10000 0 0 17:19 02.02.2022
3351 Clear -37 1024 67 10000 0 0 16:41 02.02.2022
3352 Haze -32 1025 61 8047 0 0 12:57 02.02.2022
3353 Haze -34 1023 69 8047 0 0 12:20 02.02.2022
3354 Clear -34 1023 67 10000 0 0 11:33 02.02.2022
3355 Clear -35 1022 72 10000 0 0 09:47 02.02.2022
3356 Clear -29 1019 71 10000 0 0 07:33 02.02.2022
3357 Clouds -23 1026 75 10000 0 0 22:52 01.02.2022
3358 Clear -31 1026 71 10000 0 0 21:50 01.02.2022
3359 Clear -37 1031 74 10000 0 0 19:58 01.02.2022
3360 Clear -31 1031 73 10000 0 0 17:43 01.02.2022
3361 Clear -32 1032 74 10000 0 0 16:39 01.02.2022
3362 Clear -33 1032 74 10000 0 0 16:39 01.02.2022
3363 Clear -32 1034 76 10000 0 0 14:24 01.02.2022
3364 Clear -32 1035 72 10000 0 0 12:43 01.02.2022
3365 Clear -32 1035 70 10000 0 0 11:30 01.02.2022
3366 Clear -29 1036 76 10000 0 0 04:53 01.02.2022
3367 Clear -28 1034 74 10000 0 0 23:41 31.01.2022
3368 Clear -26 1031 76 10000 0.47 70 22:58 31.01.2022
3369 Mist -34 1033 70 9656 0 0 21:40 31.01.2022
3370 Mist -33 1035 73 9656 0 0 21:19 31.01.2022
3371 Clear -34 1034 72 10000 0 0 20:29 31.01.2022
3372 Clear -34 1034 72 10000 0 0 19:35 31.01.2022
3373 Snow -34 1034 71 10000 0 0 18:26 31.01.2022
3374 Haze -35 1033 71 8047 0 0 17:33 31.01.2022
3375 Clear -34 1033 70 10000 0 0 16:29 31.01.2022
3376 Snow -35 1033 74 10000 0 0 15:41 31.01.2022
3377 Clear -35 1032 69 10000 0 0 14:22 31.01.2022
3378 Clear -34 1032 70 10000 0 0 12:39 31.01.2022
3379 Clear -34 1032 71 10000 0 0 11:55 31.01.2022
3380 Snow -34 1030 69 10000 0 0 10:50 31.01.2022
3381 Snow -34 1030 69 10000 0 0 10:50 31.01.2022
3382 Snow -34 1030 69 10000 0 0 10:25 31.01.2022
3383 Snow -33 1029 69 10000 0 0 09:26 31.01.2022
3384 Snow -33 1029 69 10000 0 0 08:50 31.01.2022
3385 Snow -33 1030 70 10000 0 0 08:20 31.01.2022
3386 Clear -32 1028 69 10000 0 0 06:18 31.01.2022
3387 Clear -25 1026 77 10000 0 0 00:55 31.01.2022
3388 Clear -28 1025 73 10000 0 0 22:55 30.01.2022
3389 Clear -28 1026 74 10000 0 0 22:25 30.01.2022
3390 Clear -29 1025 73 10000 0 0 21:40 30.01.2022
3391 Clear -32 1028 70 10000 0 0 21:19 30.01.2022
3392 Clouds -32 1027 72 10000 0 0 20:46 30.01.2022
3393 Clouds -32 1028 71 10000 0 0 20:27 30.01.2022
3394 Clouds -33 1027 71 10000 0 0 19:52 30.01.2022
3395 Snow -35 1026 67 10000 0 0 18:43 30.01.2022
3396 Snow -35 1025 67 10000 0 0 18:20 30.01.2022
3397 Snow -35 1025 69 10000 0 0 17:22 30.01.2022
3398 Snow -35 1025 67 10000 0 0 16:40 30.01.2022
3399 Snow -35 1025 67 10000 0 0 16:22 30.01.2022
3400 Snow -35 1025 67 10000 0 0 15:50 30.01.2022
3401 Snow -35 1025 67 10000 0 0 15:31 30.01.2022
3402 Snow -35 1024 67 10000 0 0 14:46 30.01.2022
3403 Snow -34 1023 68 10000 0 0 12:47 30.01.2022
3404 Clouds -33 1024 61 10000 1.09 41 11:58 30.01.2022
3405 Clear -33 1021 71 10000 0 0 10:36 30.01.2022
3406 Clear -32 1020 66 10000 0 0 09:51 30.01.2022
3407 Clear -32 1019 68 10000 0 0 08:56 30.01.2022
3408 Clear -31 1018 71 10000 1.54 90 07:29 30.01.2022
3409 Clear -23 1012 70 10000 1.54 320 01:56 30.01.2022
3410 Clouds -22 1012 72 10000 0 0 00:41 30.01.2022
3411 Clear -23 1012 73 10000 0 0 23:20 29.01.2022
3412 Clear -27 1012 75 10000 0 0 21:58 29.01.2022
3413 Clear -27 1011 75 10000 0 0 21:25 29.01.2022
3414 Clear -27 1011 73 10000 0 0 20:35 29.01.2022
3415 Clear -27 1012 70 10000 2.06 40 19:35 29.01.2022
3416 Clear -25 1011 71 10000 1.54 40 18:53 29.01.2022
3417 Clouds -26 1012 67 10000 1.54 10 18:26 29.01.2022
3418 Clear -26 1011 73 10000 0 0 17:35 29.01.2022
3419 Clear -26 1011 75 10000 0 0 16:37 29.01.2022
3420 Clear -23 1012 71 10000 2.06 50 14:23 29.01.2022
3421 Clear -23 1012 70 10000 0 0 13:45 29.01.2022
3422 Clear -23 1012 70 10000 0 0 13:24 29.01.2022
3423 Clear -24 1011 72 10000 1.54 50 12:35 29.01.2022
3424 Clear -23 1013 67 10000 1.54 40 11:27 29.01.2022
3425 Clear -22 1012 70 10000 2.57 50 09:29 29.01.2022
3426 Clouds -19 1014 58 10000 2.06 60 06:55 29.01.2022
3427 Clouds -15 1013 51 10000 0 0 00:49 29.01.2022
3428 Clouds -15 1013 51 10000 0 0 00:31 29.01.2022
3429 Snow -16 1013 55 10000 3.6 50 22:51 28.01.2022
3430 Snow -16 1013 55 10000 3.6 50 22:26 28.01.2022
3431 Snow -15 1013 53 10000 4.63 50 21:50 28.01.2022
3432 Snow -15 1013 53 10000 4.12 40 20:30 28.01.2022
3433 Snow -15 1013 53 10000 4.12 40 20:30 28.01.2022
3434 Snow -15 1013 53 10000 4.12 40 20:30 28.01.2022
3435 Snow -14 1011 51 10000 6.69 20 19:31 28.01.2022
3436 Snow -15 1012 56 10000 5.14 50 18:43 28.01.2022
3437 Snow -15 1012 56 10000 4.63 50 17:31 28.01.2022
3438 Snow -16 1012 74 9656 3.09 50 15:20 28.01.2022
3439 Clouds -18 1013 81 10000 2.11 1 13:52 28.01.2022
3440 Snow -20 1013 79 6437 0 0 12:30 28.01.2022
3441 Snow -21 1013 78 9656 0 0 11:25 28.01.2022
3442 Snow -21 1013 79 9656 0 0 09:52 28.01.2022
3443 Snow -22 1012 75 6437 0 0 08:26 28.01.2022
3444 Snow -22 1012 73 9656 0 0 07:34 28.01.2022
3445 Clouds -23 1013 76 10000 0 0 05:23 28.01.2022
3446 Clouds -23 1013 76 10000 0 0 03:44 28.01.2022
3447 Clouds -23 1014 76 10000 0 0 02:22 28.01.2022
3448 Clouds -23 1014 74 10000 1.54 0 01:32 28.01.2022
3449 Snow -26 1017 75 10000 0 0 22:52 27.01.2022
3450 Clear -27 1018 71 10000 0 0 21:49 27.01.2022
3451 Clear -27 1019 75 10000 0 0 21:29 27.01.2022
3452 Snow -28 1020 74 10000 0 0 20:26 27.01.2022
3453 Snow -29 1021 73 10000 0 0 18:40 27.01.2022
3454 Clear -28 1021 78 10000 0 0 17:55 27.01.2022
3455 Clear -28 1006 76 10000 0 0 14:42 27.01.2022
3456 Snow -30 1024 71 10000 0 0 13:35 27.01.2022
3457 Snow -29 1025 71 10000 0 0 12:39 27.01.2022
3458 Haze -28 1026 71 8047 0 0 10:23 27.01.2022
3459 Haze -27 1026 73 6437 0 0 08:52 27.01.2022
3460 Haze -27 1026 73 6437 0 0 08:30 27.01.2022
3461 Haze -27 1026 73 6437 0 0 08:30 27.01.2022
3462 Clear -24 1027 74 10000 0 0 05:49 27.01.2022
3463 Clouds -20 1028 78 10000 0 0 02:36 27.01.2022
3464 Clouds -20 1030 80 10000 0 0 22:44 26.01.2022
3465 Clouds -20 1029 79 10000 0 0 21:55 26.01.2022
3466 Clouds -21 1029 78 10000 0 0 21:31 26.01.2022
3467 Clouds -22 1029 77 10000 0 0 20:35 26.01.2022
3468 Clouds -23 1031 81 5386 1.13 32 19:55 26.01.2022
3469 Clouds -20 1028 79 10000 0 0 19:20 26.01.2022
3470 Clouds -22 1028 77 10000 0 0 18:40 26.01.2022
3471 Clouds -23 1029 80 10000 0 0 17:49 26.01.2022
3472 Clouds -23 1030 77 10000 0 0 17:21 26.01.2022
3473 Clouds -23 1029 80 10000 0 0 16:27 26.01.2022
3474 Clouds -23 1029 80 10000 0 0 15:47 26.01.2022
3475 Clouds -21 1028 79 10000 1.54 60 13:24 26.01.2022
3476 Clear -20 1028 78 10000 0 0 11:40 26.01.2022
3477 Clouds -19 1027 85 10000 1.54 40 10:20 26.01.2022
3478 Clouds -20 1027 81 10000 2.57 70 09:43 26.01.2022
3479 Clouds -19 1025 85 10000 0 0 07:32 26.01.2022
3480 Clouds -7 1020 76 10000 5.66 240 00:48 26.01.2022
3481 Clouds -7 1020 76 10000 5.66 240 00:48 26.01.2022
3482 Clouds -7 1020 75 10000 0.45 263 23:48 25.01.2022
3483 Snow -7 1018 76 10000 0.45 284 22:50 25.01.2022
3484 Snow -7 1018 76 10000 0.45 267 22:50 25.01.2022
3485 Snow -7 1018 77 10000 0.45 284 22:50 25.01.2022
3486 Snow -7 1018 77 10000 2.24 275 22:21 25.01.2022
3487 Snow -7 1017 75 10000 2.24 243 21:41 25.01.2022
3488 Snow -6 1016 74 10000 2.24 230 20:46 25.01.2022
3489 Snow -6 1016 75 10000 2.24 261 20:21 25.01.2022
3490 Clouds -6 1015 74 10000 2.68 226 19:44 25.01.2022
3491 Snow -5 1012 73 10000 2.68 258 18:22 25.01.2022
3492 Snow -5 1011 75 10000 3.58 261 17:42 25.01.2022
3493 Snow -2 1009 83 9656 8.23 240 16:35 25.01.2022
3494 Snow 0 1007 78 9656 9.26 240 15:44 25.01.2022
3495 Snow -1 1006 84 9656 9.26 240 15:26 25.01.2022
3496 Snow 0 1004 85 9656 4.63 230 14:57 25.01.2022
3497 Snow 0 1004 85 9656 4.63 230 14:57 25.01.2022
3498 Snow 0 1003 89 6437 4.63 260 13:18 25.01.2022
3499 Clouds -5 998 93 10000 0 0 10:00 25.01.2022
3500 Clouds -5 998 87 10000 0 0 08:32 25.01.2022
3501 Clouds -6 996 86 10000 0 0 07:28 25.01.2022
3502 Clouds -3 997 84 10000 0 0 06:22 25.01.2022
3503 Clouds -3 995 80 10000 3.09 50 01:34 25.01.2022
3504 Clouds 2 995 67 10000 3.09 120 23:36 24.01.2022
3505 Clouds 2 995 67 10000 3.09 120 23:18 24.01.2022
3506 Clouds 2 995 65 10000 3.09 90 22:59 24.01.2022
3507 Clouds 2 995 65 10000 3.09 90 22:41 24.01.2022
3508 Clouds 3 995 65 10000 4.12 100 21:45 24.01.2022
3509 Clouds 3 995 65 10000 4.12 100 21:27 24.01.2022
3510 Clouds 3 995 61 10000 4.63 90 20:29 24.01.2022
3511 Clouds 0 995 69 10000 2.57 30 19:39 24.01.2022
3512 Clouds 1 997 72 10000 4.63 70 18:55 24.01.2022
3513 Clouds 2 997 79 10000 4.63 60 17:44 24.01.2022
3514 Clouds 2 997 78 10000 4.63 60 17:23 24.01.2022
3515 Clouds 2 999 77 10000 4.12 60 16:33 24.01.2022
3516 Clouds 2 1000 76 10000 3.6 70 15:52 24.01.2022
3517 Clouds 3 1000 74 10000 5.66 70 14:27 24.01.2022
3518 Clouds 0 1004 79 10000 4.12 80 12:36 24.01.2022
3519 Clouds 0 1004 83 10000 4.63 70 11:53 24.01.2022
3520 Clouds -2 1006 82 10000 4.63 60 10:25 24.01.2022
3521 Clear -1 1007 80 10000 4.63 60 09:47 24.01.2022
3522 Clouds -4 1008 84 10000 4.63 80 08:19 24.01.2022
3523 Clouds -11 1010 82 10000 1.54 170 02:51 24.01.2022
3524 Clear -15 1012 76 10000 0 0 01:28 24.01.2022
3525 Clear -13 1012 83 10000 0 0 00:34 24.01.2022
3526 Clear -13 1011 78 10000 0 0 23:47 23.01.2022
3527 Clear -15 1012 86 10000 2.06 180 22:21 23.01.2022
3528 Clear -14 1013 85 10000 0 0 21:42 23.01.2022
3529 Clear -15 1012 84 10000 0 0 21:24 23.01.2022
3530 Clouds -14 1013 85 10000 0 0 20:29 23.01.2022
3531 Clouds -14 1011 85 10000 0 0 19:21 23.01.2022
3532 Clouds -14 1011 83 10000 0 0 18:44 23.01.2022
3533 Clouds -13 1010 85 10000 0 0 17:28 23.01.2022
3534 Clouds -14 1009 84 10000 0 0 16:38 23.01.2022
3535 Clouds -14 1007 86 10000 0 0 14:56 23.01.2022
3536 Clouds -15 1007 84 10000 0 0 14:19 23.01.2022
3537 Clouds -14 1005 82 10000 0 0 12:50 23.01.2022
3538 Clouds -13 1005 82 10000 0 0 12:21 23.01.2022
3539 Clouds -14 1004 84 10000 0 0 11:51 23.01.2022
3540 Clouds -13 1002 84 10000 0 0 11:18 23.01.2022
3541 Clouds -11 1001 79 10000 0 0 10:27 23.01.2022
3542 Clouds -13 1001 81 10000 0 0 09:40 23.01.2022
3543 Clouds -13 1001 72 10000 0 0 08:51 23.01.2022
3544 Clear -16 1002 92 10000 0 0 05:55 23.01.2022
3545 Clouds -11 999 81 10000 0 0 01:49 23.01.2022
3546 Clouds -10 999 81 10000 0 0 01:25 23.01.2022
3547 Clear -13 1000 82 10000 0 0 00:23 23.01.2022
3548 Clouds -13 998 83 10000 0 0 23:35 22.01.2022
3549 Clear -13 998 83 10000 0 0 22:40 22.01.2022
3550 Clear -13 981 83 10000 0 0 21:28 22.01.2022
3551 Clouds -13 996 83 10000 0 0 19:51 22.01.2022
3552 Clouds -12 997 78 10000 1.54 200 18:49 22.01.2022
3553 Clouds -8 999 84 10000 1.13 0 17:59 22.01.2022
3554 Clouds -10 996 77 10000 0 0 17:35 22.01.2022
3555 Clouds -8 993 84 10000 1.04 334 16:56 22.01.2022
3556 Clouds -12 996 76 10000 2.57 220 15:50 22.01.2022
3557 Clouds -9 994 86 10000 1.13 326 14:58 22.01.2022
3558 Clouds -9 995 86 10000 0 0 13:42 22.01.2022
3559 Clouds -8 985 87 10000 0 0 12:50 22.01.2022
3560 Clouds -9 994 87 10000 0 0 12:28 22.01.2022
3561 Clouds -9 994 85 10000 0 0 11:31 22.01.2022
3562 Clouds -9 994 86 10000 0 0 10:29 22.01.2022
3563 Clouds -10 994 87 10000 1.93 4 09:59 22.01.2022
3564 Clouds -11 993 85 10000 0 0 08:52 22.01.2022
3565 Clouds -11 993 84 10000 0 0 07:38 22.01.2022
3566 Clouds -9 992 88 10000 0 0 04:53 22.01.2022
3567 Clouds -8 993 83 10000 2.06 60 01:35 22.01.2022
3568 Snow -9 986 85 4828 3.6 60 23:45 21.01.2022
3569 Clouds -11 986 78 10000 4.63 60 22:28 21.01.2022
3570 Clouds -13 987 79 10000 0 0 20:28 21.01.2022
3571 Clear -16 996 80 10000 3.6 50 18:40 21.01.2022
3572 Clear -15 997 78 10000 1.54 70 17:31 21.01.2022
3573 Clouds -17 999 79 10000 2.57 70 15:44 21.01.2022
3574 Clouds -16 1001 77 10000 2.57 50 13:51 21.01.2022
3575 Clouds -16 1001 77 10000 2.57 50 13:51 21.01.2022
3576 Clouds -14 1003 76 10000 0 0 12:38 21.01.2022
3577 Clouds -15 1004 76 10000 2.57 20 11:28 21.01.2022
3578 Clouds -14 1004 75 10000 3.09 50 10:19 21.01.2022
3579 Clouds -15 1006 75 10000 2.06 50 08:25 21.01.2022
3580 Clouds -16 1007 78 10000 4.12 60 06:57 21.01.2022
3581 Clouds -21 1012 79 10000 2.06 60 23:40 20.01.2022
3582 Clouds -23 1012 78 10000 0 0 22:41 20.01.2022
3583 Clear -26 1012 77 10000 0 0 21:43 20.01.2022
3584 Clouds -24 1011 80 10000 0 0 20:53 20.01.2022
3585 Clouds -26 1011 69 10000 0 0 19:20 20.01.2022
3586 Clear -25 1010 78 10000 0 0 18:50 20.01.2022
3587 Clouds -24 1009 75 10000 2.57 40 17:30 20.01.2022
3588 Clear -23 1007 79 10000 0 0 15:44 20.01.2022
3589 Clear -23 1007 79 10000 0 0 15:22 20.01.2022
3590 Clouds -18 1002 82 10000 1.54 210 13:42 20.01.2022
3591 Clear -17 994 82 10000 0 0 12:35 20.01.2022
3592 Clear -15 991 83 10000 0 0 11:57 20.01.2022
3593 Clear -15 1004 82 10000 0 0 10:40 20.01.2022
3594 Clouds -14 1003 82 10000 0 0 09:40 20.01.2022
3595 Clouds -13 1002 80 10000 0 0 08:32 20.01.2022
3596 Clouds -13 1002 81 10000 4.63 350 05:34 20.01.2022
3597 Clouds -18 1004 81 10000 0 0 23:35 19.01.2022
3598 Clouds -20 1005 83 10000 0 0 22:32 19.01.2022
3599 Clouds -22 1006 78 10000 0 0 21:24 19.01.2022
3600 Clouds -19 1004 78 10000 0 0 20:50 19.01.2022
3601 Clouds -19 1007 80 10000 1.28 3 19:54 19.01.2022
3602 Clear -19 1008 80 10000 0 0 18:43 19.01.2022
3603 Snow -17 997 83 10000 0 0 17:49 19.01.2022
3604 Mist -15 1000 83 8047 0 0 16:57 19.01.2022
3605 Snow -13 1009 80 10000 0 0 14:42 19.01.2022
3606 Clouds -14 1010 79 10000 0 0 12:43 19.01.2022
3607 Clouds -15 1010 79 10000 0 0 11:42 19.01.2022
3608 Clouds -16 1011 79 10000 0 0 10:37 19.01.2022
3609 Clouds -19 988 80 10000 0 0 09:34 19.01.2022
3610 Clouds -18 1013 79 10000 0 0 07:18 19.01.2022
3611 Clouds -18 1014 81 10000 0 0 05:18 19.01.2022
3612 Clouds -17 1016 80 10000 0 0 23:20 18.01.2022
3613 Clouds -17 1016 81 10000 0 0 22:44 18.01.2022
3614 Clouds -17 1026 82 10000 0 0 21:20 18.01.2022
3615 Clouds -18 1028 81 10000 0 0 19:55 18.01.2022
3616 Clouds -18 1028 81 10000 0 0 19:55 18.01.2022
3617 Clouds -18 1028 81 10000 0 0 19:37 18.01.2022
3618 Clouds -18 1028 82 10000 0 0 18:54 18.01.2022
3619 Clouds -20 1015 82 10000 0.81 33 17:58 18.01.2022
3620 Clouds -21 1015 80 10000 0.79 20 16:59 18.01.2022
3621 Clear -23 1017 80 10000 0 0 15:48 18.01.2022
3622 Clear -23 1017 80 10000 0 0 15:48 18.01.2022
3623 Clear -23 1017 80 10000 0 0 15:48 18.01.2022
3624 Clear -22 1016 80 10000 0 0 15:22 18.01.2022
3625 Clouds -22 1017 78 10000 0 0 12:49 18.01.2022
3626 Clear -20 1017 79 10000 0 0 10:47 18.01.2022
3627 Clouds -19 1018 79 10000 0 0 09:28 18.01.2022
3628 Clouds -19 1020 80 10000 0 0 07:56 18.01.2022
3629 Snow -19 1019 80 10000 0 0 05:31 18.01.2022
3630 Clear -20 1019 82 10000 0 0 23:55 17.01.2022
3631 Clear -20 1019 80 10000 0 0 22:29 17.01.2022
3632 Clear -21 1018 81 10000 2.06 60 21:35 17.01.2022
3633 Clear -22 1018 80 10000 0 0 20:27 17.01.2022
3634 Clear -23 1018 81 10000 0 0 18:31 17.01.2022
3635 Clouds -21 1019 80 10000 0 0 17:51 17.01.2022
3636 Clear -22 1018 81 10000 0 0 16:45 17.01.2022
3637 Clouds -22 1021 83 10000 0 0 15:23 17.01.2022
3638 Clouds -22 1020 82 10000 0 0 14:57 17.01.2022
3639 Snow -19 1020 81 10000 0 0 13:27 17.01.2022
3640 Clouds -20 1021 84 10000 4.12 70 12:57 17.01.2022
3641 Snow -19 1021 78 10000 1.54 50 11:49 17.01.2022
3642 Snow -19 1021 74 10000 2.06 70 10:25 17.01.2022
3643 Snow -19 1021 78 10000 2.06 80 09:35 17.01.2022
3644 Snow -19 1021 81 10000 1.54 70 07:43 17.01.2022
3645 Snow -19 1021 78 10000 0 0 07:18 17.01.2022
3646 Clouds -17 1019 85 10000 0 0 00:56 17.01.2022
3647 Haze -17 1018 84 6437 0 0 22:31 16.01.2022
3648 Snow -16 1016 86 3018 0 0 20:38 16.01.2022
3649 Snow -16 1014 84 10000 0 0 18:53 16.01.2022
3650 Snow -16 1020 85 6437 0 0 17:59 16.01.2022
3651 Snow -16 1013 84 6437 0 0 17:23 16.01.2022
3652 Snow -17 1013 85 8047 0 0 16:45 16.01.2022
3653 Snow -17 1012 84 10000 0 0 14:50 16.01.2022
3654 Snow -17 1012 83 10000 2.06 50 14:27 16.01.2022
3655 Clouds -17 1011 83 10000 1.54 60 12:49 16.01.2022
3656 Clouds -17 1011 82 10000 0 0 11:43 16.01.2022
3657 Clouds -17 1010 83 10000 1.54 100 10:55 16.01.2022
3658 Clouds -17 1010 83 10000 1.54 100 10:19 16.01.2022
3659 Clouds -17 1009 82 10000 0 0 09:51 16.01.2022
3660 Clouds -16 1008 82 10000 0 0 09:22 16.01.2022
3661 Clouds -16 1008 82 10000 0 0 09:22 16.01.2022
3662 Clouds -16 1008 83 10000 1.54 210 08:37 16.01.2022
3663 Clouds -16 1009 86 10000 0 0 02:36 16.01.2022
3664 Clouds -17 1009 84 10000 0 0 23:49 15.01.2022
3665 Clouds -18 1010 79 10000 0 0 21:46 15.01.2022
3666 Clouds -18 1009 81 10000 0 0 21:19 15.01.2022
3667 Clouds -20 1011 83 10000 0 0 20:40 15.01.2022
3668 Clouds -20 1011 82 10000 0 0 19:29 15.01.2022
3669 Clouds -21 1010 78 10000 0 0 18:44 15.01.2022
3670 Clouds -22 1010 82 10000 0 0 17:25 15.01.2022
3671 Clouds -21 1006 81 10000 2.57 40 15:50 15.01.2022
3672 Clouds -18 1005 83 10000 1.31 1 13:55 15.01.2022
3673 Clear -19 1007 82 10000 0 0 11:46 15.01.2022
3674 Clouds -17 1005 80 10000 0 0 10:36 15.01.2022
3675 Snow -14 1004 84 10000 0 0 07:48 15.01.2022
3676 Clouds -15 999 85 10000 0 0 00:28 15.01.2022
3677 Clouds -15 999 85 10000 0 0 21:52 14.01.2022
3678 Clouds -14 998 86 10000 0 0 20:37 14.01.2022
3679 Clouds -9 996 88 10000 1.68 346 19:58 14.01.2022
3680 Clear -16 997 84 10000 0 0 18:49 14.01.2022
3681 Clouds -14 998 87 10000 0 0 17:57 14.01.2022
3682 Clouds -14 999 86 10000 0 0 16:48 14.01.2022
3683 Clear -14 997 85 10000 0 0 15:37 14.01.2022
3684 Clouds -12 996 84 10000 0 0 14:42 14.01.2022
3685 Clouds -11 996 83 10000 1.54 90 13:35 14.01.2022
3686 Clear -12 997 87 10000 0 0 12:24 14.01.2022
3687 Clear -9 996 83 10000 0 0 10:50 14.01.2022
3688 Clouds -10 995 86 10000 1.54 270 08:54 14.01.2022
3689 Clouds -10 995 86 10000 1.54 270 08:20 14.01.2022
3690 Clouds -12 999 87 10000 0 0 03:55 14.01.2022
3691 Clouds -16 1002 87 10000 2.04 355 00:59 14.01.2022
3692 Haze -20 1003 81 9656 0 0 22:46 13.01.2022
3693 Mist -21 1005 81 9656 0 0 21:31 13.01.2022
3694 Clear -20 1006 81 10000 0 0 20:56 13.01.2022
3695 Clouds -19 987 79 10000 0 0 19:32 13.01.2022
3696 Clear -20 1007 81 10000 0 0 18:57 13.01.2022
3697 Clear -20 1007 82 10000 0 0 17:48 13.01.2022
3698 Clear -18 1008 81 10000 0 0 16:19 13.01.2022
3699 Clouds -18 1008 82 10000 0 0 15:35 13.01.2022
3700 Clouds -17 1008 83 10000 2.06 210 13:48 13.01.2022
3701 Clouds -16 1008 84 10000 0 0 12:25 13.01.2022
3702 Clear -16 1007 84 10000 1.54 300 09:38 13.01.2022
3703 Clouds -15 1007 84 10000 0 0 08:57 13.01.2022
3704 Clouds -14 1006 82 10000 0 0 08:26 13.01.2022
3705 Clouds -14 1006 82 10000 0 0 07:22 13.01.2022
3706 Clouds -13 1002 85 10000 1.14 15 05:59 13.01.2022
3707 Clouds -15 1005 83 10000 0 0 05:19 13.01.2022
3708 Clouds -13 1003 84 10000 1.14 27 01:53 13.01.2022
3709 Clouds -13 1003 83 10000 0 0 00:40 13.01.2022
3710 Clouds -13 1004 83 10000 0 0 23:45 12.01.2022
3711 Clouds -13 1003 84 10000 1.14 15 22:57 12.01.2022
3712 Clouds -14 1003 84 10000 1.14 26 21:56 12.01.2022
3713 Clouds -14 1003 83 10000 0 0 21:21 12.01.2022
3714 Clouds -14 1003 85 10000 0 0 20:56 12.01.2022
3715 Snow -14 1003 81 10000 0 0 19:41 12.01.2022
3716 Snow -12 1003 83 10000 0 0 18:30 12.01.2022
3717 Snow -12 1003 84 10000 0 0 17:20 12.01.2022
3718 Snow -12 1003 84 10000 0 0 16:28 12.01.2022
3719 Snow -13 1002 83 10000 0 0 14:48 12.01.2022
3720 Snow -13 1002 82 10000 0 0 13:19 12.01.2022
3721 Snow -15 1002 83 9656 0 0 10:48 12.01.2022
3722 Snow -15 1000 82 6437 0 0 08:38 12.01.2022
3723 Snow -14 1000 81 4023 0 0 07:50 12.01.2022
3724 Snow -14 1000 82 2414 0 0 07:31 12.01.2022
3725 Clouds -15 997 80 10000 0 0 23:53 11.01.2022
3726 Snow -15 997 79 10000 0 0 22:54 11.01.2022
3727 Snow -15 997 78 10000 0 0 22:22 11.01.2022
3728 Clouds -15 996 79 10000 0 0 20:54 11.01.2022
3729 Clouds -15 996 78 10000 0 0 19:50 11.01.2022
3730 Clouds -16 995 79 10000 0 0 18:32 11.01.2022
3731 Clouds -17 995 78 10000 0 0 17:26 11.01.2022
3732 Clear -18 995 78 10000 0 0 16:38 11.01.2022
3733 Clear -18 996 78 10000 0 0 15:47 11.01.2022
3734 Clouds -20 997 79 10000 0 0 14:42 11.01.2022
3735 Clouds -24 1000 96 10000 1.28 351 13:56 11.01.2022
3736 Clouds -21 995 71 10000 1.54 30 13:36 11.01.2022
3737 Clear -21 996 74 10000 0 0 12:48 11.01.2022
3738 Clear -21 996 74 10000 0 0 12:20 11.01.2022
3739 Clouds -19 993 81 10000 1.18 358 09:58 11.01.2022
3740 Clouds -19 996 71 10000 1.54 30 07:18 11.01.2022
3741 Clear -18 987 74 10000 2.06 80 00:34 11.01.2022
3742 Clear -18 986 71 10000 2.57 50 23:44 10.01.2022
3743 Clear -18 988 73 10000 2.57 50 23:24 10.01.2022
3744 Clear -18 1000 72 10000 1.54 30 22:19 10.01.2022
3745 Clear -20 1001 76 10000 1.54 20 21:54 10.01.2022
3746 Clear -19 992 74 10000 1.54 20 21:21 10.01.2022
3747 Clear -20 1001 72 10000 0 0 20:57 10.01.2022
3748 Clear -20 1001 70 10000 0 0 20:28 10.01.2022
3749 Clouds -19 999 69 10000 4.63 20 19:44 10.01.2022
3750 Clouds -17 1000 67 10000 4.63 20 19:21 10.01.2022
3751 Clouds -20 1002 68 10000 0 0 18:50 10.01.2022
3752 Clouds -19 1002 71 10000 1.54 50 17:56 10.01.2022
3753 Clouds -20 1002 68 10000 1.54 40 16:42 10.01.2022
3754 Clouds -19 1001 70 10000 2.57 50 15:49 10.01.2022
3755 Clouds -18 1002 68 10000 2.57 60 14:34 10.01.2022
3756 Clouds -19 1003 63 10000 4.12 50 12:22 10.01.2022
3757 Clouds -19 1003 66 10000 3.09 60 11:25 10.01.2022
3758 Clouds -18 1006 95 10000 1.9 53 09:53 10.01.2022
3759 Clouds -18 1003 60 10000 4.63 80 08:22 10.01.2022
3760 Snow -19 1003 63 10000 4.12 70 05:50 10.01.2022
3761 Clouds -24 1005 77 10000 2.06 80 01:33 10.01.2022
3762 Clear -27 1006 70 10000 3.09 80 00:29 10.01.2022
3763 Clear -28 1007 73 10000 3.09 50 23:43 09.01.2022
3764 Clear -30 1008 72 10000 3.09 60 22:40 09.01.2022
3765 Clear -30 1009 73 10000 4.12 60 21:47 09.01.2022
3766 Clear -30 1009 73 10000 4.12 60 21:24 09.01.2022
3767 Clear -30 1009 73 10000 4.12 60 21:24 09.01.2022
3768 Clear -29 1011 76 10000 4.12 50 20:53 09.01.2022
3769 Clear -30 1011 72 10000 4.12 50 20:34 09.01.2022
3770 Clear -31 1012 72 10000 4.63 50 19:45 09.01.2022
3771 Clear -31 1012 72 10000 4.63 50 19:23 09.01.2022
3772 Clear -30 1013 76 10000 3.6 40 18:56 09.01.2022
3773 Clear -32 1013 76 10000 3.6 40 18:35 09.01.2022
3774 Clear -34 1014 66 10000 3.09 60 17:45 09.01.2022
3775 Clear -34 1014 66 10000 3.09 60 17:21 09.01.2022
3776 Haze -37 1015 67 9656 0 0 15:59 09.01.2022
3777 Haze -37 1015 67 9656 0 0 15:36 09.01.2022
3778 Haze -36 1015 74 9656 0 0 14:41 09.01.2022
3779 Haze -35 1017 65 9656 0 0 13:56 09.01.2022
3780 Haze -35 1016 66 9656 0 0 13:36 09.01.2022
3781 Haze -34 1018 63 8047 0 0 11:56 09.01.2022
3782 Haze -35 1017 63 8047 0 0 11:19 09.01.2022
3783 Clear -33 1017 67 10000 3.09 60 09:51 09.01.2022
3784 Clear -31 1019 67 10000 3.6 60 08:54 09.01.2022
3785 Haze -35 1019 63 9656 0 0 05:54 09.01.2022
3786 Clear -35 1020 64 10000 3.6 70 01:25 09.01.2022
3787 Fog -36 1019 63 10000 0 0 00:37 09.01.2022
3788 Clear -37 1019 67 10000 0 0 23:27 08.01.2022
3789 Haze -38 1019 71 6437 0 0 22:35 08.01.2022
3790 Haze -38 1019 70 6437 0 0 21:26 08.01.2022
3791 Haze -39 1019 70 1609 0 0 20:43 08.01.2022
3792 Haze -39 1019 70 1811 0 0 20:21 08.01.2022
3793 Haze -39 1018 70 1811 0 0 18:45 08.01.2022
3794 Haze -39 1018 69 2615 0 0 17:23 08.01.2022
3795 Haze -39 1018 69 2414 0 0 16:40 08.01.2022
3796 Haze -40 1019 67 1811 0 0 14:50 08.01.2022
3797 Haze -40 1019 67 4426 0 0 13:41 08.01.2022
3798 Haze -40 1019 66 9656 0 0 11:30 08.01.2022
3799 Haze -39 1019 67 6437 0 0 10:31 08.01.2022
3800 Haze -35 1019 73 4426 0 0 09:54 08.01.2022
3801 Haze -35 1019 73 6437 0 0 09:30 08.01.2022
3802 Clear -37 1021 66 10000 0 0 04:25 08.01.2022
3803 Clouds -35 1023 69 10000 1.09 28 00:58 08.01.2022
3804 Haze -34 1020 74 9656 0 0 22:54 07.01.2022
3805 Haze -36 1020 72 6437 0 0 21:34 07.01.2022
3806 Haze -36 1020 68 10000 1.54 90 20:23 07.01.2022
3807 Clear -35 1020 69 10000 0 0 19:26 07.01.2022
3808 Haze -36 1020 69 4023 0 0 18:45 07.01.2022
3809 Haze -35 1020 69 4023 0 0 17:58 07.01.2022
3810 Haze -35 1020 75 8047 1.54 80 17:22 07.01.2022
3811 Clear -33 1019 75 10000 0 0 14:55 07.01.2022
3812 Clouds -35 1020 65 10000 0 0 13:52 07.01.2022
3813 Clouds -35 1020 69 10000 0 0 12:50 07.01.2022
3814 Clear -33 1020 67 10000 0 0 10:18 07.01.2022
3815 Clouds -29 1024 96 10000 0.93 14 02:59 07.01.2022
3816 Clear -25 1022 74 10000 0 0 02:22 07.01.2022
3817 Clouds -22 1022 74 10000 2.06 240 01:48 07.01.2022
3818 Clouds -22 1022 74 10000 2.06 240 01:25 07.01.2022
3819 Clouds -22 1022 74 10000 0 0 00:29 07.01.2022
3820 Clouds -23 1024 77 10000 0 0 21:57 06.01.2022
3821 Clouds -23 1024 70 10000 0 0 20:43 06.01.2022
3822 Clouds -23 1026 96 10000 1.19 35 19:58 06.01.2022
3823 Clouds -24 1024 74 10000 0 0 19:36 06.01.2022
3824 Clouds -26 1025 70 10000 0 0 17:51 06.01.2022
3825 Clouds -26 1025 70 10000 0 0 17:21 06.01.2022
3826 Clouds -24 1026 71 10000 0 0 16:31 06.01.2022
3827 Clouds -25 1026 70 10000 0 0 15:43 06.01.2022
3828 Clouds -25 1026 70 10000 0 0 15:20 06.01.2022
3829 Clouds -28 1027 70 10000 0 0 14:19 06.01.2022
3830 Clouds -29 1028 64 10000 0 0 13:30 06.01.2022
3831 Clouds -33 1028 70 10000 0 0 12:20 06.01.2022
3832 Clear -34 1028 68 10000 0 0 11:29 06.01.2022
3833 Clear -34 1029 65 10000 0 0 09:56 06.01.2022
3834 Clear -34 1030 68 10000 0 0 06:37 06.01.2022
3835 Clear -34 1033 71 10000 0 0 00:34 06.01.2022
3836 Fog -35 1033 71 10000 0 0 23:22 05.01.2022
3837 Clear -36 1034 70 10000 0 0 22:48 05.01.2022
3838 Clear -36 1034 70 10000 0 0 22:21 05.01.2022
3839 Clear -37 1034 71 10000 0 0 21:25 05.01.2022
3840 Clear -37 1034 74 10000 0 0 20:30 05.01.2022
3841 Clear -36 1034 74 10000 0 0 19:29 05.01.2022
3842 Haze -37 1035 70 9656 0 0 18:21 05.01.2022
3843 Clear -37 1036 71 10000 0 0 16:56 05.01.2022
3844 Clear -37 1036 71 10000 0 0 16:18 05.01.2022
3845 Clear -37 1037 71 10000 0 0 15:19 05.01.2022
3846 Clear -37 1037 72 10000 0 0 13:34 05.01.2022
3847 Clear -37 1038 71 10000 0 0 12:20 05.01.2022
3848 Clear -37 1038 71 10000 0 0 08:35 05.01.2022
3849 Clear -38 1039 74 10000 0 0 06:46 05.01.2022
3850 Haze -34 1039 76 9656 0 0 01:47 05.01.2022
3851 Clear -33 1039 76 10000 1.54 30 23:43 04.01.2022
3852 Clear -33 1039 76 10000 1.54 30 23:21 04.01.2022
3853 Clear -37 1038 98 10000 0 0 21:50 04.01.2022
3854 Clear -33 1039 69 10000 3.09 60 20:42 04.01.2022
3855 Clear -36 1038 98 10000 2.57 30 18:41 04.01.2022
3856 Clear -33 1038 72 10000 4.63 60 17:33 04.01.2022
3857 Clear -36 1037 98 10000 2.57 30 16:38 04.01.2022
3858 Clear -35 1037 68 10000 2.06 40 15:25 04.01.2022
3859 Clear -36 1037 98 10000 3.6 20 14:38 04.01.2022
3860 Clear -38 1041 98 10000 1.55 43 13:56 04.01.2022
3861 Clear -31 1038 69 10000 3.6 50 12:22 04.01.2022
3862 Clear -31 1038 69 10000 3.6 60 10:23 04.01.2022
3863 Clear -28 1037 69 10000 4.12 50 08:57 04.01.2022
3864 Clear -31 1037 76 10000 3.6 60 06:28 04.01.2022
3865 Clear -35 1037 68 10000 0 0 00:43 04.01.2022
3866 Clear -35 1038 68 10000 0 0 23:56 03.01.2022
3867 Clouds -37 1037 68 10000 0 0 22:22 03.01.2022
3868 Clear -37 1038 67 10000 0 0 21:40 03.01.2022
3869 Clear -37 1038 67 10000 0 0 21:40 03.01.2022
3870 Clear -35 1038 68 10000 0 0 20:41 03.01.2022
3871 Clear -32 1037 68 10000 3.09 50 19:38 03.01.2022
3872 Clear -31 1039 72 10000 0 0 18:31 03.01.2022
3873 Clear -31 1039 66 10000 0 0 17:23 03.01.2022
3874 Clear -34 1039 68 10000 2.06 50 16:53 03.01.2022
3875 Clear -37 1039 67 10000 2.06 40 14:33 03.01.2022
3876 Haze -39 1039 66 4828 2.06 40 13:25 03.01.2022
3877 Haze -40 1039 67 3219 0 0 12:22 03.01.2022
3878 Haze -40 1040 67 3219 0 0 11:22 03.01.2022
3879 Haze -41 1040 69 3018 0 0 09:29 03.01.2022
3880 Haze -39 1041 68 4828 0 0 07:55 03.01.2022
3881 Clear -38 1041 74 10000 0 0 04:23 03.01.2022
3882 Clear -35 1041 69 10000 2.06 60 23:44 02.01.2022
3883 Clear -33 1041 63 10000 2.06 70 22:57 02.01.2022
3884 Clear -35 1040 63 10000 2.06 70 22:22 02.01.2022
3885 Clear -37 1040 75 10000 0 0 21:26 02.01.2022
3886 Clear -33 1040 65 10000 0 0 20:30 02.01.2022
3887 Clear -35 1040 75 10000 0 0 19:32 02.01.2022
3888 Clear -35 1039 62 10000 2.06 60 18:56 02.01.2022
3889 Clear -35 1039 62 10000 2.06 60 18:30 02.01.2022
3890 Clear -33 1039 62 10000 1.54 90 17:42 02.01.2022
3891 Clear -33 1039 62 10000 1.54 90 17:21 02.01.2022
3892 Clear -34 1038 75 10000 0 0 16:30 02.01.2022
3893 Clear -33 1038 75 10000 1.54 50 15:49 02.01.2022
3894 Clear -33 1038 75 10000 1.54 50 15:49 02.01.2022
3895 Clear -32 1036 75 10000 0 0 13:57 02.01.2022
3896 Clear -30 1036 64 10000 2.57 90 12:33 02.01.2022
3897 Clear -32 1036 66 10000 0 0 11:55 02.01.2022
3898 Clear -29 1034 67 10000 0 0 10:56 02.01.2022
3899 Clear -29 1034 64 10000 0 0 10:22 02.01.2022
3900 Clear -27 1030 59 10000 3.09 50 07:45 02.01.2022
3901 Clouds -27 1024 63 10000 2.06 360 02:57 02.01.2022
3902 Clear -29 1021 63 10000 3.6 350 23:54 01.01.2022
3903 Clear -27 1021 67 10000 3.6 350 23:35 01.01.2022
3904 Snow -27 1019 66 10000 2.06 360 22:39 01.01.2022
3905 Snow -27 1019 66 10000 2.06 360 22:18 01.01.2022
3906 Snow -27 1019 66 10000 2.06 360 22:18 01.01.2022
3907 Snow -27 1019 66 10000 2.06 320 21:42 01.01.2022
3908 Snow -26 1017 72 10000 3.09 300 20:36 01.01.2022
3909 Snow -26 1016 70 10000 0 0 19:47 01.01.2022
3910 Clouds -26 1015 72 10000 3.09 20 18:53 01.01.2022
3911 Snow -26 1013 72 10000 2.06 340 17:45 01.01.2022
3912 Snow -25 1012 72 10000 2.57 340 16:35 01.01.2022
3913 Snow -24 1011 73 10000 2.57 330 15:45 01.01.2022
3914 Snow -24 1010 71 10000 0 0 14:40 01.01.2022
3915 Haze -24 1009 79 6437 0 0 13:42 01.01.2022
3916 Haze -24 1009 79 6437 0 0 13:42 01.01.2022
3917 Snow -25 1009 78 10000 0 0 12:26 01.01.2022
3918 Clouds -25 1008 77 10000 0 0 11:30 01.01.2022
3919 Clouds -24 1008 77 10000 1.75 346 10:59 01.01.2022
3920 Snow -24 1005 76 10000 0 0 09:48 01.01.2022
3921 Snow -23 1004 74 10000 0 0 08:45 01.01.2022
3922 Snow -23 1004 74 10000 0 0 08:21 01.01.2022
3923 Clouds -23 1003 75 10000 0 0 07:39 01.01.2022
3924 Clouds -22 1003 62 10000 1.54 350 06:44 01.01.2022
3925 Clouds -21 1003 66 10000 2.06 350 05:25 01.01.2022
3926 Snow -18 1002 63 10000 2.57 320 04:36 01.01.2022
3927 Clouds -19 1003 72 10000 0 0 00:25 01.01.2022
3928 Clouds -20 1003 69 10000 0 0 22:34 31.12.2021
3929 Clouds -22 1004 73 10000 0 0 21:47 31.12.2021
3930 Haze -24 1004 71 9656 0 0 19:48 31.12.2021
3931 Haze -24 1004 71 9656 0 0 19:28 31.12.2021
3932 Clouds -25 1005 77 10000 0 0 18:24 31.12.2021
3933 Clear -24 1005 77 10000 0 0 17:37 31.12.2021
3934 Clear -20 1006 77 10000 2.06 20 16:56 31.12.2021
3935 Clear -20 1006 77 10000 2.06 20 16:18 31.12.2021
3936 Clouds -22 1011 96 10000 1.49 333 15:50 31.12.2021
3937 Clouds -22 1011 97 10000 1.5 330 15:28 31.12.2021
3938 Clouds -30 1011 97 10000 1.5 330 14:41 31.12.2021
3939 Clouds -20 1011 96 10000 1.59 336 13:56 31.12.2021
3940 Clouds -19 1007 84 10000 2.57 50 13:23 31.12.2021
3941 Clouds -19 1011 96 10000 1.68 343 12:33 31.12.2021
3942 Clouds -19 1008 84 10000 4.12 70 11:42 31.12.2021
3943 Clouds -18 1009 85 10000 3.09 70 10:58 31.12.2021
3944 Clouds -19 1009 78 10000 3.6 80 10:29 31.12.2021
3945 Clouds -20 1010 85 10000 3.6 70 09:35 31.12.2021
3946 Clouds -22 1012 84 10000 2.06 70 08:54 31.12.2021
3947 Snow -21 1011 78 10000 2.06 70 08:23 31.12.2021
3948 Clouds -25 1013 76 10000 2.06 70 06:39 31.12.2021
3949 Clouds -19 1018 83 10000 0 0 23:23 30.12.2021
3950 Clouds -19 1018 81 10000 0 0 22:32 30.12.2021
3951 Clouds -17 1018 82 10000 2.06 60 21:41 30.12.2021
3952 Clouds -17 1018 82 10000 2.57 80 21:20 30.12.2021
3953 Mist -17 1018 82 4023 0 0 20:43 30.12.2021
3954 Haze -17 1018 82 4828 0 0 20:23 30.12.2021
3955 Mist -16 1017 83 2012 0 0 19:36 30.12.2021
3956 Snow -15 1017 84 10000 1.54 270 18:29 30.12.2021
3957 Snow -14 1017 85 10000 2.06 220 17:38 30.12.2021
3958 Clouds -13 1016 86 10000 0.45 232 15:55 30.12.2021
3959 Snow -13 1016 85 10000 4.63 240 15:36 30.12.2021
3960 Snow -12 1015 85 10000 0.45 259 14:37 30.12.2021
3961 Snow -12 1015 86 9656 4.12 220 13:32 30.12.2021
3962 Snow -11 1015 86 10000 5.14 220 11:59 30.12.2021
3963 Clouds -11 1015 85 10000 3.6 210 10:44 30.12.2021
3964 Snow -10 1014 86 10000 3.09 200 09:54 30.12.2021
3965 Mist -10 1014 88 9656 3.09 190 08:49 30.12.2021
3966 Snow -10 1014 89 10000 0 0 06:51 30.12.2021
3967 Snow -9 1014 87 8047 0.89 228 03:41 30.12.2021
3968 Snow -9 1014 88 10000 8.75 270 02:38 30.12.2021
3969 Clouds -5 1009 66 10000 6.69 260 23:42 29.12.2021
3970 Clouds -5 1009 66 10000 6.69 260 23:21 29.12.2021
3971 Clouds -6 1007 87 10000 5.66 280 22:19 29.12.2021
3972 Snow -4 1005 89 1609 3.09 330 21:27 29.12.2021
3973 Snow -4 1004 90 1811 3.6 360 20:34 29.12.2021
3974 Snow -3 1002 91 10000 2.24 227 19:48 29.12.2021
3975 Snow -2 1002 92 8047 2.68 230 18:47 29.12.2021
3976 Mist -1 1002 89 2615 3.58 259 17:54 29.12.2021
3977 Snow -1 1001 86 10000 3.58 238 17:27 29.12.2021
3978 Snow 0 1001 84 10000 2.68 291 16:24 29.12.2021
3979 Snow -1 1002 83 10000 3.13 232 15:45 29.12.2021
3980 Clouds -1 1003 87 10000 1.79 258 14:19 29.12.2021
3981 Snow -2 1005 88 10000 1.34 244 12:37 29.12.2021
3982 Snow -2 1005 91 10000 1.79 279 11:35 29.12.2021
3983 Snow -2 1003 92 10000 2.24 252 09:58 29.12.2021
3984 Snow -4 1001 92 1811 0 0 07:52 29.12.2021
3985 Snow -5 1001 91 2414 0 0 06:39 29.12.2021
3986 Snow -5 1001 91 1609 0 0 06:18 29.12.2021
3987 Snow -5 1001 91 1609 2.06 50 05:36 29.12.2021
3988 Snow -7 1007 92 4023 2.57 60 02:46 29.12.2021
3989 Mist -8 1012 91 4426 2.57 50 00:23 29.12.2021
3990 Snow -8 1013 90 3219 2.57 60 23:34 28.12.2021
3991 Mist -9 1014 90 9656 2.06 60 22:42 28.12.2021
3992 Mist -9 1014 90 9656 2.06 60 22:24 28.12.2021
3993 Snow -9 1015 89 6437 0 0 21:38 28.12.2021
3994 Snow -9 1015 89 6437 2.06 90 20:40 28.12.2021
3995 Mist -9 1015 89 4828 0 0 19:25 28.12.2021
3996 Mist -9 1015 89 4828 0 0 18:39 28.12.2021
3997 Snow -9 1015 89 4828 0 0 17:59 28.12.2021
3998 Snow -9 1015 88 4023 0 0 16:34 28.12.2021
3999 Snow -9 1015 88 4023 0 0 16:34 28.12.2021
4000 Snow -9 1015 88 4023 0 0 15:50 28.12.2021
4001 Snow -9 1015 88 3219 0 0 15:22 28.12.2021
4002 Snow -9 1015 87 3621 0 0 14:50 28.12.2021
4003 Snow -9 1014 87 3219 0 0 14:21 28.12.2021
4004 Snow -9 1014 87 2816 0 0 13:42 28.12.2021
4005 Snow -9 1014 87 3219 0 0 13:24 28.12.2021
4006 Snow -10 1014 86 2816 0 0 12:49 28.12.2021
4007 Snow -10 1014 87 3018 1.54 70 11:46 28.12.2021
4008 Clouds -11 1015 83 10000 3.6 60 08:53 28.12.2021
4009 Clouds -13 1016 84 8800 1.22 36 06:58 28.12.2021
4010 Clouds -8 1017 71 10000 2.06 260 00:34 28.12.2021
4011 Clear -7 1017 71 10000 1.54 330 23:24 27.12.2021
4012 Clear -4 1015 66 10000 5.66 300 21:42 27.12.2021
4013 Clear -4 1015 66 10000 5.66 300 21:24 27.12.2021
4014 Clear -3 1014 66 10000 9.77 300 20:24 27.12.2021
4015 Clear -2 1013 69 10000 6.69 300 19:42 27.12.2021
4016 Clear -2 1011 76 10000 10.8 270 18:54 27.12.2021
4017 Snow 1 1010 76 10000 10.8 280 17:50 27.12.2021
4018 Snow 1 1009 79 10000 3.13 233 16:57 27.12.2021
4019 Snow 1 1008 85 10000 2.68 271 15:53 27.12.2021
4020 Rain 2 1006 88 10000 3.13 275 14:34 27.12.2021
4021 Rain 2 1004 91 10000 2.68 282 13:40 27.12.2021
4022 Rain 2 1003 92 10000 3.58 226 12:47 27.12.2021
4023 Mist 3 1000 93 10000 0.89 232 10:32 27.12.2021
4024 Rain 2 1000 94 10000 1.79 263 09:57 27.12.2021
4025 Mist 3 999 95 9656 1.79 245 08:39 27.12.2021
4026 Mist 2 997 94 9656 2.24 234 07:32 27.12.2021
4027 Rain 0 996 93 4426 0 0 02:26 27.12.2021
4028 Rain 0 997 92 3621 0 0 00:23 27.12.2021
4029 Mist -1 997 94 3219 0 0 23:41 26.12.2021
4030 Rain -1 997 92 4023 0 0 22:47 26.12.2021
4031 Rain -2 1000 93 6437 2.06 60 21:29 26.12.2021
4032 Snow -5 1001 93 9656 3.09 90 19:49 26.12.2021
4033 Mist -7 1002 91 3621 0.89 250 18:25 26.12.2021
4034 Mist -8 1003 88 2012 4.12 70 17:44 26.12.2021
4035 Mist -10 1010 87 3621 0 0 14:38 26.12.2021
4036 Snow -10 1012 87 3621 0 0 13:43 26.12.2021
4037 Snow -11 1012 88 6437 0 0 13:21 26.12.2021
4038 Mist -11 1012 88 2012 0 0 12:34 26.12.2021
4039 Mist -11 1014 88 4828 0 0 11:18 26.12.2021
4040 Snow -11 1015 88 3621 0 0 09:30 26.12.2021
4041 Snow -11 1015 87 10000 0 0 08:44 26.12.2021
4042 Mist -11 1015 86 8047 0 0 08:23 26.12.2021
4043 Snow -12 1015 87 4426 0 0 01:37 26.12.2021
4044 Mist -12 1016 85 4023 0 0 00:20 26.12.2021
4045 Mist -12 1016 86 2615 0 0 23:35 25.12.2021
4046 Snow -13 1016 84 3621 0 0 22:29 25.12.2021
4047 Snow -13 1016 85 2615 0 0 21:29 25.12.2021
4048 Mist -14 1017 86 6437 0 0 19:46 25.12.2021
4049 Snow -14 1017 85 4828 0 0 19:18 25.12.2021
4050 Snow -14 1018 85 8047 0 0 18:26 25.12.2021
4051 Snow -14 1017 85 6437 0 0 16:49 25.12.2021
4052 Snow -15 1018 82 2414 2.06 40 15:30 25.12.2021
4053 Snow -15 1019 83 3621 0 0 14:22 25.12.2021
4054 Snow -17 1020 82 10000 0 0 12:21 25.12.2021
4055 Snow -17 1022 81 10000 0 0 10:38 25.12.2021
4056 Snow -18 1023 82 10000 2.57 70 09:48 25.12.2021
4057 Snow -19 1025 80 10000 2.57 80 07:27 25.12.2021
4058 Clear -26 1031 76 10000 0 0 01:40 25.12.2021
4059 Clouds -27 1032 75 10000 0 0 00:21 25.12.2021
4060 Clouds -28 1030 78 10000 0 0 21:57 24.12.2021
4061 Clear -29 1031 73 10000 0 0 19:27 24.12.2021
4062 Clouds -29 1032 74 10000 1.54 60 18:56 24.12.2021
4063 Clear -32 1030 73 10000 0 0 16:49 24.12.2021
4064 Clear -31 1030 73 10000 0 0 15:50 24.12.2021
4065 Clear -31 1030 73 10000 0 0 15:25 24.12.2021
4066 Clear -29 1028 72 10000 0 0 14:35 24.12.2021
4067 Clear -30 1030 73 10000 0 0 13:57 24.12.2021
4068 Clear -29 1029 74 10000 0 0 13:32 24.12.2021
4069 Clear -29 1028 72 10000 1.54 60 12:45 24.12.2021
4070 Clear -29 1028 74 10000 0 0 11:45 24.12.2021
4071 Clear -29 1028 74 10000 0 0 11:24 24.12.2021
4072 Clear -28 1027 76 10000 0 0 10:36 24.12.2021
4073 Clear -28 1026 73 10000 1.54 50 09:22 24.12.2021
4074 Clear -28 1025 76 10000 0 0 08:19 24.12.2021
4075 Clear -27 1024 74 10000 0 0 07:42 24.12.2021
4076 Clouds -19 1017 78 10000 2.57 220 00:47 24.12.2021
4077 Clouds -17 1016 79 10000 0 0 23:50 23.12.2021
4078 Snow -16 1015 82 10000 2.57 240 22:54 23.12.2021
4079 Snow -16 1015 82 10000 2.57 240 22:26 23.12.2021
4080 Clouds -16 1014 83 10000 3.09 230 21:50 23.12.2021
4081 Clouds -17 1015 82 10000 0.45 247 20:53 23.12.2021
4082 Mist -16 1012 82 9656 0.45 228 19:31 23.12.2021
4083 Snow -15 1011 84 8047 3.09 260 18:32 23.12.2021
4084 Snow -15 1009 84 10000 0.45 250 17:47 23.12.2021
4085 Snow -15 1007 83 4828 0 0 16:40 23.12.2021
4086 Mist -15 1006 83 2213 0 0 16:20 23.12.2021
4087 Mist -15 1005 83 4426 0 0 15:31 23.12.2021
4088 Snow -16 1005 83 9656 0 0 14:42 23.12.2021
4089 Snow -16 1004 83 10000 0 0 14:19 23.12.2021
4090 Snow -16 1004 84 3219 0 0 12:48 23.12.2021
4091 Snow -16 1005 84 4023 0 0 10:43 23.12.2021
4092 Snow -16 1006 84 4828 0 0 09:35 23.12.2021
4093 Snow -16 1006 83 3621 0 0 08:59 23.12.2021
4094 Snow -17 1007 82 10000 0 0 06:48 23.12.2021
4095 Clouds -19 1010 82 10000 3.09 70 03:41 23.12.2021
4096 Clouds -25 1018 77 10000 1.54 80 22:57 22.12.2021
4097 Clouds -24 1018 73 10000 1.54 80 22:32 22.12.2021
4098 Clouds -25 1019 76 10000 1.54 90 21:53 22.12.2021
4099 Clouds -25 1019 76 10000 1.54 90 21:28 22.12.2021
4100 Clouds -23 1019 74 10000 0 0 20:44 22.12.2021
4101 Clouds -23 1019 74 10000 0 0 20:25 22.12.2021
4102 Clouds -23 1020 76 10000 0 0 19:19 22.12.2021
4103 Clouds -21 1021 72 10000 0 0 17:42 22.12.2021
4104 Clear -18 1020 73 10000 0 0 16:38 22.12.2021
4105 Clear -17 1019 74 10000 0.51 0 15:39 22.12.2021
4106 Clear -14 1022 79 10000 0.45 227 13:32 22.12.2021
4107 Clear -14 1021 79 10000 1.34 246 12:31 22.12.2021
4108 Clear -13 1022 78 10000 0.45 259 09:53 22.12.2021
4109 Clear -12 1022 76 10000 0.89 260 09:35 22.12.2021
4110 Clear -12 1021 77 10000 2.68 263 07:25 22.12.2021
4111 Clear -11 1021 76 10000 5.66 260 05:42 22.12.2021
4112 Clear -11 1021 76 10000 5.66 260 05:24 22.12.2021
4113 Clear -11 1022 79 10000 1.34 240 04:47 22.12.2021
4114 Clear -11 1022 82 10000 8.23 240 04:22 22.12.2021
4115 Clear -10 1022 76 10000 6.69 250 03:32 22.12.2021
4116 Snow -9 1022 82 10000 0 0 00:33 22.12.2021
4117 Clouds -11 1021 83 10000 0 0 22:52 21.12.2021
4118 Clouds -11 1022 82 10000 2.06 60 22:27 21.12.2021
4119 Clouds -11 1023 81 10000 2.57 150 21:43 21.12.2021
4120 Clouds -8 1023 67 10000 0 0 20:54 21.12.2021
4121 Clouds -9 1023 74 10000 0 0 20:20 21.12.2021
4122 Clouds -9 1021 74 10000 5.14 290 19:41 21.12.2021
4123 Clear -8 1021 77 10000 6.69 250 18:43 21.12.2021
4124 Clear -8 1022 78 10000 6.69 250 18:21 21.12.2021
4125 Clouds -7 1022 76 10000 0.89 225 17:40 21.12.2021
4126 Clear -7 1019 82 10000 0.45 243 15:47 21.12.2021
4127 Clear -6 1019 84 10000 1.79 221 15:20 21.12.2021
4128 Clear -4 1017 89 10000 2.57 220 13:50 21.12.2021
4129 Clear -3 1017 87 10000 2.57 220 13:29 21.12.2021
4130 Clouds -1 994 94 10000 0.89 244 10:56 21.12.2021
4131 Snow -1 1013 94 10000 4.12 250 09:59 21.12.2021
4132 Snow -1 1013 94 10000 4.12 250 09:18 21.12.2021
4133 Snow -2 1012 94 10000 4.12 230 07:54 21.12.2021
4134 Mist -2 1012 94 6437 3.09 230 07:25 21.12.2021
4135 Mist -3 1012 93 10000 2.57 60 04:56 21.12.2021
4136 Mist -3 1013 94 10000 1.54 60 02:40 21.12.2021
4137 Snow -2 1012 94 10000 2.86 252 23:58 20.12.2021
4138 Mist -2 1013 92 10000 0 0 23:24 20.12.2021
4139 Snow -1 1013 94 6437 2.57 160 22:28 20.12.2021
4140 Snow -2 1014 92 1609 3.09 30 21:43 20.12.2021
4141 Snow -2 1014 93 4828 2.06 170 21:23 20.12.2021
4142 Snow -2 1014 95 8047 1.54 40 20:42 20.12.2021
4143 Mist -3 1013 91 4828 0 0 19:50 20.12.2021
4144 Snow -4 1013 89 4828 0 0 19:30 20.12.2021
4145 Snow -4 1013 90 8047 1.54 100 18:53 20.12.2021
4146 Snow -4 1015 88 2414 0 0 17:52 20.12.2021
4147 Snow -4 1015 89 2414 0 0 17:23 20.12.2021
4148 Snow -4 1015 89 1207 0.51 0 16:38 20.12.2021
4149 Snow -5 1016 90 805 0 0 15:48 20.12.2021
4150 Snow -5 1017 90 805 0 0 14:43 20.12.2021
4151 Snow -6 1016 89 2414 2.06 20 12:51 20.12.2021
4152 Snow -6 1016 88 8047 2.57 30 11:19 20.12.2021
4153 Mist -6 1017 88 2816 1.54 20 09:47 20.12.2021
4154 Snow -6 1017 89 3219 2.06 30 08:58 20.12.2021
4155 Mist -6 1018 89 1609 2.57 10 08:40 20.12.2021
4156 Snow -7 1018 89 1609 2.06 20 07:49 20.12.2021
4157 Snow -7 1018 89 1609 2.06 20 07:25 20.12.2021
4158 Snow -8 1021 89 108 1.22 100 03:59 20.12.2021
4159 Snow -9 1022 88 402 2.06 20 23:58 19.12.2021
4160 Fog -9 1023 87 805 1.54 30 22:45 19.12.2021
4161 Snow -9 1023 87 1207 1.54 40 21:50 19.12.2021
4162 Snow -9 1023 87 1207 1.54 40 21:29 19.12.2021
4163 Snow -9 1023 86 10000 0 0 20:30 19.12.2021
4164 Snow -9 1023 86 10000 0 0 19:46 19.12.2021
4165 Clouds -10 1025 91 9668 1 54 18:59 19.12.2021
4166 Clouds -8 1023 79 10000 2.06 90 18:29 19.12.2021
4167 Clouds -8 1024 79 10000 2.06 70 17:51 19.12.2021
4168 Clouds -9 1024 79 10000 2.06 70 17:18 19.12.2021
4169 Snow -9 1024 79 10000 0 0 16:26 19.12.2021
4170 Clouds -9 1024 79 10000 2.06 50 15:31 19.12.2021
4171 Clouds -10 1025 85 10000 1.54 50 14:59 19.12.2021
4172 Snow -10 1026 87 9656 2.57 40 14:36 19.12.2021
4173 Snow -10 1025 87 10000 3.09 360 13:22 19.12.2021
4174 Snow -10 1026 86 10000 2.57 360 12:33 19.12.2021
4175 Snow -11 1025 85 10000 2.06 20 11:44 19.12.2021
4176 Clouds -11 1025 86 395 0.99 52 10:59 19.12.2021
4177 Snow -11 1024 85 10000 1.54 10 10:25 19.12.2021
4178 Clouds -11 1025 85 231 1.06 61 09:26 19.12.2021
4179 Snow -11 1025 85 10000 1.54 40 07:50 19.12.2021
4180 Snow -12 1022 84 10000 0 0 04:45 19.12.2021
4181 Snow -13 1019 83 10000 1.54 60 00:56 19.12.2021
4182 Snow -12 1019 81 10000 1.54 60 00:28 19.12.2021
4183 Snow -13 1017 82 9656 0 0 22:32 18.12.2021
4184 Haze -13 1017 82 8047 0 0 21:54 18.12.2021
4185 Snow -12 1016 81 8047 1.54 150 21:35 18.12.2021
4186 Snow -12 1016 82 8047 0 0 20:44 18.12.2021
4187 Clouds -12 1014 84 10000 0 0 19:54 18.12.2021
4188 Snow -12 1014 82 10000 0 0 19:19 18.12.2021
4189 Mist -13 1013 83 4828 0 0 18:20 18.12.2021
4190 Snow -13 1013 81 10000 0 0 17:47 18.12.2021
4191 Snow -13 1012 82 10000 0 0 16:25 18.12.2021
4192 Snow -13 1012 82 10000 0 0 15:26 18.12.2021
4193 Snow -13 1012 82 10000 1.54 280 14:32 18.12.2021
4194 Snow -13 1012 82 10000 0 0 13:20 18.12.2021
4195 Snow -14 1012 81 10000 0 0 11:21 18.12.2021
4196 Clouds -14 1011 84 10000 1.54 270 09:39 18.12.2021
4197 Clouds -15 1011 83 10000 0 0 08:43 18.12.2021
4198 Clouds -15 1012 83 10000 0 0 08:19 18.12.2021
4199 Snow -14 1014 82 10000 0 0 02:20 18.12.2021
4200 Snow -14 1015 84 4828 0 0 00:27 18.12.2021
4201 Snow -14 1015 83 10000 0 0 23:39 17.12.2021
4202 Snow -15 1016 83 6437 0 0 21:56 17.12.2021
4203 Snow -15 1016 83 9656 0 0 20:51 17.12.2021
4204 Snow -15 1016 83 9656 0 0 20:31 17.12.2021
4205 Snow -15 1015 81 2615 0 0 19:18 17.12.2021
4206 Snow -15 1015 81 1408 0.51 200 18:38 17.12.2021
4207 Snow -15 1015 80 9656 0 0 17:26 17.12.2021
4208 Snow -15 1014 81 3219 0 0 16:44 17.12.2021
4209 Snow -15 1014 81 3219 0 0 16:21 17.12.2021
4210 Snow -15 1014 81 3219 0 0 15:20 17.12.2021
4211 Snow -15 1014 81 6437 0.51 0 14:38 17.12.2021
4212 Snow -15 1013 83 3219 0.51 0 12:46 17.12.2021
4213 Snow -15 1012 82 3219 0 0 11:27 17.12.2021
4214 Snow -15 1012 83 3219 0 0 09:59 17.12.2021
4215 Snow -16 1011 83 4828 0 0 08:58 17.12.2021
4216 Snow -16 1011 83 4828 0 0 08:29 17.12.2021
4217 Snow -16 1012 81 4426 0 0 05:41 17.12.2021
4218 Mist -16 1012 81 3219 0 0 02:53 17.12.2021
4219 Clouds -17 1012 79 10000 0 0 23:23 16.12.2021
4220 Snow -17 1013 79 10000 1.54 310 22:24 16.12.2021
4221 Snow -17 1013 79 10000 1.54 310 22:24 16.12.2021
4222 Mist -17 1013 79 9656 1.54 290 21:50 16.12.2021
4223 Mist -17 1013 80 9656 1.54 290 21:25 16.12.2021
4224 Snow -18 1013 79 6437 0 0 20:28 16.12.2021
4225 Clouds -18 1013 78 10000 0 0 19:42 16.12.2021
4226 Clouds -19 1013 79 10000 0 0 18:38 16.12.2021
4227 Clouds -19 1012 78 10000 0 0 17:55 16.12.2021
4228 Clouds -20 1013 78 10000 0 0 17:28 16.12.2021
4229 Clouds -20 1012 78 10000 0 0 16:21 16.12.2021
4230 Clouds -20 1013 76 10000 0 0 14:50 16.12.2021
4231 Clouds -25 1015 80 10000 0 0 12:57 16.12.2021
4232 Clouds -22 1016 76 10000 0 0 11:20 16.12.2021
4233 Clouds -23 1017 78 10000 1.54 70 10:58 16.12.2021
4234 Clouds -24 1018 74 10000 1.54 70 10:20 16.12.2021
4235 Clouds -25 1020 71 10000 2.57 20 07:31 16.12.2021
4236 Clouds -27 1020 75 10000 0 0 06:19 16.12.2021
4237 Haze -35 1026 71 2414 0 0 00:54 16.12.2021
4238 Haze -36 1025 71 3219 0 0 23:25 15.12.2021
4239 Haze -37 1026 71 2414 0 0 22:41 15.12.2021
4240 Haze -37 1026 70 1609 0 0 21:55 15.12.2021
4241 Haze -37 1027 66 2816 0 0 21:26 15.12.2021
4242 Haze -38 1027 66 1207 0 0 20:18 15.12.2021
4243 Haze -40 1026 66 1207 0 0 19:45 15.12.2021
4244 Mist -39 1028 65 1207 0 0 18:37 15.12.2021
4245 Mist -37 1027 66 1408 0 0 17:51 15.12.2021
4246 Mist -37 1027 66 1408 0 0 17:51 15.12.2021
4247 Mist -38 1027 67 3219 0 0 17:32 15.12.2021
4248 Mist -38 1026 63 2615 0 0 16:28 15.12.2021
4249 Mist -39 1027 63 3219 0 0 15:46 15.12.2021
4250 Mist -38 1027 67 3219 0 0 15:27 15.12.2021
4251 Clouds -37 1027 65 10000 0 0 14:18 15.12.2021
4252 Mist -39 1027 65 9656 0 0 12:37 15.12.2021
4253 Clear -39 1026 68 10000 0 0 10:27 15.12.2021
4254 Clear -37 1024 67 10000 0 0 08:55 15.12.2021
4255 Clouds -36 1025 66 10000 0 0 06:54 15.12.2021
4256 Haze -38 1021 66 2213 0 0 01:20 15.12.2021
4257 Haze -38 1019 67 6437 0 0 23:42 14.12.2021
4258 Haze -38 1018 66 3621 0 0 22:49 14.12.2021
4259 Mist -38 1018 65 3219 0 0 22:19 14.12.2021
4260 Haze -39 1017 64 3018 0 0 20:28 14.12.2021
4261 Mist -38 1016 64 8047 0 0 19:40 14.12.2021
4262 Clouds -38 1016 64 10000 0.34 41 18:53 14.12.2021
4263 Mist -38 1015 64 9656 0 0 18:22 14.12.2021
4264 Mist -38 1014 66 2414 0 0 17:30 14.12.2021
4265 Mist -39 1014 63 2615 0 0 16:39 14.12.2021
4266 Haze -38 1014 65 4828 0 0 15:35 14.12.2021
4267 Clouds -39 1012 76 10000 0 0 13:31 14.12.2021
4268 Clouds -39 1012 76 10000 0 0 13:31 14.12.2021
4269 Clouds -35 1016 77 10000 0.86 12 11:59 14.12.2021
4270 Haze -39 1011 67 4828 0 0 11:24 14.12.2021
4271 Haze -40 1011 67 6437 0 0 09:57 14.12.2021
4272 Haze -36 1011 72 6437 0 0 09:35 14.12.2021
4273 Haze -36 1012 72 8047 0 0 08:25 14.12.2021
4274 Mist -35 1012 73 9656 0 0 07:43 14.12.2021
4275 Haze -36 1015 74 4828 0 0 02:27 14.12.2021
4276 Haze -36 1019 71 9656 0 0 22:55 13.12.2021
4277 Mist -37 1020 70 6437 0 0 21:53 13.12.2021
4278 Mist -36 1020 73 9656 0 0 21:18 13.12.2021
4279 Mist -37 1020 70 6437 0 0 20:38 13.12.2021
4280 Haze -37 1022 71 3219 0 0 19:52 13.12.2021
4281 Haze -36 1023 74 4828 0 0 18:24 13.12.2021
4282 Mist -35 1023 73 4828 0 0 17:26 13.12.2021
4283 Snow -34 1024 73 10000 0 0 15:51 13.12.2021
4284 Snow -34 1025 73 10000 0 0 15:25 13.12.2021
4285 Snow -35 1026 74 9656 0 0 13:39 13.12.2021
4286 Snow -34 1026 73 10000 0 0 12:46 13.12.2021
4287 Clear -35 1027 70 10000 0 0 11:56 13.12.2021
4288 Snow -33 1026 73 10000 0 0 11:35 13.12.2021
4289 Snow -33 1026 73 10000 0 0 10:44 13.12.2021
4290 Snow -32 1026 73 10000 0 0 09:29 13.12.2021
4291 Snow -34 1026 71 10000 0 0 07:48 13.12.2021
4292 Snow -31 1025 69 10000 0 0 05:35 13.12.2021
4293 Snow -33 1024 71 10000 0 0 03:26 13.12.2021
4294 Snow -30 1022 69 10000 1.54 50 23:22 12.12.2021
4295 Snow -30 1021 70 10000 0 0 21:40 12.12.2021
4296 Snow -30 1019 76 10000 0 0 19:57 12.12.2021
4297 Snow -27 1018 72 10000 0 0 18:36 12.12.2021
4298 Snow -27 1018 70 10000 0 0 18:36 12.12.2021
4299 Haze -27 1017 70 8047 0 0 17:31 12.12.2021
4300 Snow -29 1017 70 9656 0 0 16:27 12.12.2021
4301 Snow -29 1016 71 10000 0 0 15:46 12.12.2021
4302 Mist -28 1016 71 10000 0 0 15:25 12.12.2021
4303 Snow -27 1015 73 10000 0 0 14:34 12.12.2021
4304 Snow -24 1015 73 10000 0 0 13:26 12.12.2021
4305 Haze -25 1013 74 8047 0 0 12:30 12.12.2021
4306 Mist -24 1013 76 4828 0 0 11:44 12.12.2021
4307 Haze -24 1013 77 6437 0 0 11:22 12.12.2021
4308 Snow -24 1012 76 10000 2.06 230 10:22 12.12.2021
4309 Snow -24 1011 77 10000 1.54 210 09:38 12.12.2021
4310 Haze -24 1010 77 6437 1.54 220 08:33 12.12.2021
4311 Snow -23 1008 76 10000 2.57 250 06:19 12.12.2021
4312 Clouds -22 1007 77 10000 2.57 240 04:56 12.12.2021
4313 Haze -22 1005 77 9656 0.45 277 03:31 12.12.2021
4314 Snow -20 1002 76 10000 1.34 229 23:44 11.12.2021
4315 Snow -20 1000 77 10000 0.45 241 22:22 11.12.2021
4316 Mist -19 999 77 10000 1.34 232 21:52 11.12.2021
4317 Snow -19 998 77 10000 0.89 223 20:51 11.12.2021
4318 Snow -18 997 78 10000 1.34 250 19:27 11.12.2021
4319 Snow -18 996 78 10000 0.89 247 18:52 11.12.2021
4320 Snow -18 996 77 10000 0.45 273 18:25 11.12.2021
4321 Snow -17 995 79 10000 1.34 277 17:21 11.12.2021
4322 Clouds -17 994 81 10000 1.34 254 15:55 11.12.2021
4323 Snow -16 993 81 10000 6.69 250 15:30 11.12.2021
4324 Clouds -14 991 82 10000 0.45 254 12:59 11.12.2021
4325 Snow -14 989 81 10000 0.45 257 11:26 11.12.2021
4326 Snow -13 987 83 10000 0.45 250 09:47 11.12.2021
4327 Snow -13 987 82 4828 3.09 260 09:18 11.12.2021
4328 Snow -13 982 82 3219 0.45 245 02:40 11.12.2021
4329 Snow -14 980 82 8047 1.54 200 00:40 11.12.2021
4330 Snow -13 979 82 8047 2.57 200 23:23 10.12.2021
4331 Snow -13 979 85 4828 2.57 200 21:57 10.12.2021
4332 Snow -13 978 84 10000 2.06 260 21:36 10.12.2021
4333 Snow -12 975 82 9656 3.6 280 19:22 10.12.2021
4334 Snow -12 974 81 9656 2.57 290 18:39 10.12.2021
4335 Snow -11 975 86 9656 2.57 280 16:57 10.12.2021
4336 Snow -11 975 85 9656 2.57 280 16:30 10.12.2021
4337 Snow -12 974 85 9656 1.54 280 15:42 10.12.2021
4338 Snow -12 974 85 10000 0 0 15:22 10.12.2021
4339 Snow -13 974 84 10000 0 0 13:52 10.12.2021
4340 Snow -13 974 83 10000 0 0 13:27 10.12.2021
4341 Snow -13 973 86 10000 1.54 270 12:47 10.12.2021
4342 Snow -12 974 84 10000 2.06 260 11:34 10.12.2021
4343 Snow -13 975 84 10000 0 0 10:38 10.12.2021
4344 Clouds -12 976 84 10000 0 0 09:29 10.12.2021
4345 Clouds -11 976 84 10000 2.57 60 07:21 10.12.2021
4346 Clouds -13 981 86 10000 2.06 50 02:51 10.12.2021
4347 Clouds -17 984 86 10000 0 0 00:57 10.12.2021
4348 Clouds -18 987 79 10000 0 0 23:38 09.12.2021
4349 Clouds -18 988 82 10000 0 0 22:41 09.12.2021
4350 Clouds -18 988 81 10000 0 0 22:20 09.12.2021
4351 Clouds -18 990 81 10000 0 0 21:20 09.12.2021
4352 Clouds -18 992 81 10000 0 0 20:34 09.12.2021
4353 Clouds -13 994 79 10000 0 0 19:22 09.12.2021
4354 Clouds -13 995 85 10000 0 0 18:53 09.12.2021
4355 Snow -11 996 85 10000 0 0 17:57 09.12.2021
4356 Snow -11 996 82 10000 0 0 17:28 09.12.2021
4357 Snow -12 997 82 4828 0 0 16:57 09.12.2021
4358 Snow -12 997 85 4828 0 0 16:20 09.12.2021
4359 Snow -12 997 85 1609 0 0 14:52 09.12.2021
4360 Snow -12 997 84 1609 2.06 10 13:50 09.12.2021
4361 Snow -13 998 85 1609 0 0 12:47 09.12.2021
4362 Snow -13 998 84 3219 0.51 50 11:25 09.12.2021
4363 Snow -13 998 83 2414 0 0 10:19 09.12.2021
4364 Snow -14 998 84 6437 0 0 06:51 09.12.2021
4365 Clouds -16 996 82 10000 0 0 03:50 09.12.2021
4366 Clouds -17 997 80 10000 1.54 90 00:24 09.12.2021
4367 Clouds -16 997 89 10000 1.54 70 23:32 08.12.2021
4368 Clouds -12 997 92 10000 1.54 60 22:56 08.12.2021
4369 Snow -12 997 89 10000 1.54 60 21:50 08.12.2021
4370 Snow -12 997 89 10000 1.54 60 21:31 08.12.2021
4371 Snow -11 998 89 8047 1.54 60 20:30 08.12.2021
4372 Snow -9 998 73 9656 0 0 19:48 08.12.2021
4373 Snow -11 998 85 9656 2.06 70 18:54 08.12.2021
4374 Snow -11 998 82 9656 2.06 70 18:22 08.12.2021
4375 Snow -10 1000 86 9656 0 0 16:44 08.12.2021
4376 Snow -10 1000 86 9656 0 0 16:44 08.12.2021
4377 Snow -10 1000 86 9656 1.54 120 15:40 08.12.2021
4378 Snow -10 1000 86 9656 1.54 120 15:40 08.12.2021
4379 Snow -10 1000 86 9656 1.54 120 15:21 08.12.2021
4380 Snow -8 1000 73 10000 2.06 210 13:21 08.12.2021
4381 Snow -8 1001 84 4828 4.63 230 10:42 08.12.2021
4382 Snow -9 1000 87 4828 0.45 236 09:32 08.12.2021
4383 Snow -8 1000 86 4828 3.6 170 07:37 08.12.2021
4384 Snow -8 998 88 6437 0.89 242 05:22 08.12.2021
4385 Snow -8 994 87 4828 0.45 192 00:21 08.12.2021
4386 Mist -8 992 86 1609 0 0 22:48 07.12.2021
4387 Snow -9 991 85 3219 1.54 220 21:25 07.12.2021
4388 Snow -8 990 87 4828 0 0 20:25 07.12.2021
4389 Clouds -9 990 86 3705 1.23 222 18:59 07.12.2021
4390 Clouds -9 988 83 10000 2.06 290 18:20 07.12.2021
4391 Clouds -10 988 88 10000 0 0 17:23 07.12.2021
4392 Clouds -11 987 88 10000 0 0 16:41 07.12.2021
4393 Clouds -10 986 83 10000 0.48 357 15:59 07.12.2021
4394 Clouds -9 986 83 10000 0 0 14:37 07.12.2021
4395 Clouds -9 986 84 10000 0 0 13:38 07.12.2021
4396 Clouds -9 986 86 10000 0 0 12:22 07.12.2021
4397 Clouds -9 986 83 10000 0 0 10:48 07.12.2021
4398 Clouds -9 986 83 10000 1.54 270 09:20 07.12.2021
4399 Clear -12 987 85 10000 0 0 06:50 07.12.2021
4400 Clear -12 988 85 10000 0 0 05:50 07.12.2021
4401 Clouds -9 989 83 10000 0 0 03:25 07.12.2021
4402 Clouds -7 991 73 10000 2.06 50 23:23 06.12.2021
4403 Clouds -7 992 73 10000 2.57 30 22:40 06.12.2021
4404 Clouds -9 995 87 10000 1.85 71 21:59 06.12.2021
4405 Clouds -7 992 72 10000 2.57 30 21:31 06.12.2021
4406 Clouds -8 993 74 10000 2.57 30 20:32 06.12.2021
4407 Clouds -8 993 74 10000 2.57 30 20:32 06.12.2021
4408 Clouds -9 994 78 10000 1.54 360 19:24 06.12.2021
4409 Clouds -10 994 79 10000 0 0 18:40 06.12.2021
4410 Clouds -9 995 77 10000 2.57 100 17:54 06.12.2021
4411 Clouds -9 995 77 10000 2.57 100 17:33 06.12.2021
4412 Clouds -9 996 79 10000 3.6 80 15:51 06.12.2021
4413 Clouds -8 997 71 10000 3.6 100 14:38 06.12.2021
4414 Clouds -8 997 68 10000 1.54 0 13:28 06.12.2021
4415 Clouds -9 999 76 10000 3.6 70 12:37 06.12.2021
4416 Clouds -10 1000 77 10000 3.6 90 10:23 06.12.2021
4417 Clouds -12 1002 82 10000 2.57 80 07:40 06.12.2021
4418 Clouds -15 1006 77 10000 0 0 02:26 06.12.2021
4419 Clear -20 1012 76 10000 0 0 22:26 05.12.2021
4420 Clear -22 1014 77 10000 0 0 21:25 05.12.2021
4421 Clear -22 1015 78 10000 0 0 20:52 05.12.2021
4422 Clear -25 1016 78 10000 0 0 20:18 05.12.2021
4423 Clear -25 1017 74 10000 0 0 19:24 05.12.2021
4424 Clear -26 1019 76 10000 0 0 18:29 05.12.2021
4425 Clear -26 1020 75 10000 0 0 17:49 05.12.2021
4426 Clear -25 1020 75 10000 0 0 17:20 05.12.2021
4427 Clear -25 1022 76 10000 0 0 16:36 05.12.2021
4428 Clear -25 1022 76 10000 0 0 16:18 05.12.2021
4429 Clouds -24 1026 77 10000 0 0 14:48 05.12.2021
4430 Clouds -24 1026 78 10000 0 0 14:30 05.12.2021
4431 Clouds -24 1027 78 10000 0 0 13:35 05.12.2021
4432 Clouds -24 1028 76 10000 0 0 12:46 05.12.2021
4433 Clouds -24 1028 76 10000 0 0 12:26 05.12.2021
4434 Clouds -24 1028 78 10000 0 0 11:46 05.12.2021
4435 Clouds -23 1029 77 10000 0 0 10:43 05.12.2021
4436 Snow -23 1029 76 10000 0 0 09:47 05.12.2021
4437 Clouds -25 1028 74 10000 0 0 06:31 05.12.2021
4438 Clouds -31 1028 72 10000 0 0 01:38 05.12.2021
4439 Clear -33 1028 69 10000 0 0 23:22 04.12.2021
4440 Haze -35 1028 73 9656 0 0 21:51 04.12.2021
4441 Haze -37 1028 62 9656 0 0 20:47 04.12.2021
4442 Clear -34 1027 68 10000 0 0 19:54 04.12.2021
4443 Clear -35 1027 68 10000 0 0 19:30 04.12.2021
4444 Clear -35 1028 67 10000 0 0 17:58 04.12.2021
4445 Clear -36 1027 66 10000 0 0 17:36 04.12.2021
4446 Clear -35 1027 67 10000 0 0 16:47 04.12.2021
4447 Clear -37 1026 62 10000 0 0 16:28 04.12.2021
4448 Clear -38 1025 67 10000 0 0 13:39 04.12.2021
4449 Clear -37 1025 74 10000 0 0 11:44 04.12.2021
4450 Clear -36 1026 66 10000 0 0 11:20 04.12.2021
4451 Clear -36 1025 72 10000 0 0 10:24 04.12.2021
4452 Clear -36 1025 62 10000 0 0 08:42 04.12.2021
4453 Clear -35 1027 70 10000 0 0 05:47 04.12.2021
4454 Clear -35 1027 68 10000 0 0 04:41 04.12.2021
4455 Clear -34 1029 70 10000 0 0 23:49 03.12.2021
4456 Clear -37 1029 67 10000 0 0 22:56 03.12.2021
4457 Clear -29 1029 75 10000 1.29 35 22:00 03.12.2021
4458 Clear -34 1028 70 10000 0 0 21:25 03.12.2021
4459 Clear -34 1030 76 10000 0 0 20:44 03.12.2021
4460 Clouds -37 1030 73 10000 0 0 19:36 03.12.2021
4461 Clear -34 1031 72 10000 0 0 18:26 03.12.2021
4462 Clear -29 1031 75 10000 1.35 35 17:58 03.12.2021
4463 Clear -34 1032 68 10000 0 0 14:23 03.12.2021
4464 Clear -33 1034 69 10000 0 0 12:52 03.12.2021
4465 Clear -32 1034 72 10000 0 0 11:25 03.12.2021
4466 Clear -32 1034 71 10000 0 0 10:32 03.12.2021
4467 Clear -31 1034 71 10000 0 0 08:25 03.12.2021
4468 Clear -29 1034 73 10000 0 0 07:38 03.12.2021
4469 Clouds -25 1033 79 10000 0 0 02:39 03.12.2021
4470 Snow -24 1031 77 10000 0 0 00:47 03.12.2021
4471 Clouds -24 1030 76 10000 0 0 23:47 02.12.2021
4472 Clouds -24 1028 76 10000 0 0 21:43 02.12.2021
4473 Clouds -23 1028 75 10000 0 0 21:20 02.12.2021
4474 Snow -23 1028 77 10000 0 0 20:38 02.12.2021
4475 Snow -22 1026 77 10000 0 0 19:31 02.12.2021
4476 Snow -22 1025 78 9656 0 0 18:33 02.12.2021
4477 Haze -21 1022 77 6437 0 0 15:43 02.12.2021
4478 Snow -21 1022 78 6437 0 0 15:20 02.12.2021
4479 Snow -21 1022 77 10000 0 0 14:43 02.12.2021
4480 Snow -21 1020 78 10000 0 0 12:52 02.12.2021
4481 Snow -21 1019 77 10000 0 0 12:18 02.12.2021
4482 Snow -21 1017 78 9656 0 0 10:36 02.12.2021
4483 Snow -22 1015 79 9656 1.54 80 08:55 02.12.2021
4484 Snow -24 1010 76 10000 0 0 04:54 02.12.2021
4485 Snow -20 1006 77 4828 0 0 00:53 02.12.2021
4486 Snow -20 1005 78 2012 0 0 23:28 01.12.2021
4487 Snow -20 1004 78 1609 0 0 22:24 01.12.2021
4488 Snow -20 1002 79 2414 0 0 20:53 01.12.2021
4489 Snow -20 1001 77 3219 0 0 19:58 01.12.2021
4490 Snow -20 1001 77 10000 0 0 19:28 01.12.2021
4491 Snow -21 999 78 10000 0 0 17:50 01.12.2021
4492 Snow -21 998 78 10000 0 0 16:50 01.12.2021
4493 Snow -21 997 79 239 0.9 282 14:54 01.12.2021
4494 Clouds -22 996 78 10000 0 0 13:46 01.12.2021
4495 Clouds -21 995 78 10000 0 0 12:51 01.12.2021
4496 Clouds -21 995 78 10000 0 0 12:51 01.12.2021
4497 Clear -19 993 77 10000 2.06 210 10:43 01.12.2021
4498 Clear -19 992 79 10000 0 0 09:25 01.12.2021
4499 Clouds -19 991 80 10000 0 0 08:36 01.12.2021
4500 Clouds -18 990 78 10000 0 0 07:37 01.12.2021
4501 Clouds -17 990 78 10000 0 0 07:19 01.12.2021
4502 Clouds -20 989 73 10000 0 0 03:47 01.12.2021
4503 Clouds -22 988 77 10000 0 0 01:59 01.12.2021
4504 Clouds -23 987 76 10000 0 0 23:55 30.11.2021
4505 Clouds -22 988 75 10000 0 0 23:26 30.11.2021
4506 Clouds -22 989 77 10000 0 0 21:40 30.11.2021
4507 Clouds -22 989 76 10000 0 0 20:46 30.11.2021
4508 Clouds -22 989 76 10000 0 0 20:19 30.11.2021
4509 Clear -25 991 71 10000 0 0 19:38 30.11.2021
4510 Clear -23 990 78 10000 0 0 18:38 30.11.2021
4511 Clear -22 991 76 10000 0 0 16:50 30.11.2021
4512 Clear -22 993 77 10000 1.54 30 15:44 30.11.2021
4513 Clear -22 994 77 10000 2.06 20 14:23 30.11.2021
4514 Clouds -22 994 78 10000 1.96 15 13:28 30.11.2021
4515 Clouds -24 995 76 10000 0 0 12:52 30.11.2021
4516 Clouds -24 996 76 10000 0 0 11:52 30.11.2021
4517 Clouds -23 996 75 10000 0 0 11:25 30.11.2021
4518 Clear -23 997 74 10000 0 0 10:35 30.11.2021
4519 Clear -25 998 77 10000 0 0 08:54 30.11.2021
4520 Clear -24 998 76 10000 0 0 08:31 30.11.2021
4521 Clouds -25 999 73 10000 1.54 60 07:48 30.11.2021
4522 Clouds -25 996 76 10000 1.78 12 04:59 30.11.2021
4523 Clouds -29 1003 70 10000 0 0 01:45 30.11.2021
4524 Clouds -28 1002 72 10000 0 0 00:33 30.11.2021
4525 Clouds -27 1003 72 10000 0 0 23:25 29.11.2021
4526 Clouds -26 1003 71 10000 0 0 22:58 29.11.2021
4527 Clouds -27 1003 71 10000 0 0 22:34 29.11.2021
4528 Clouds -29 1005 67 10000 0 0 21:44 29.11.2021
4529 Clouds -29 1006 67 10000 0 0 21:18 29.11.2021
4530 Clouds -29 1007 68 10000 0 0 20:41 29.11.2021
4531 Clouds -29 1006 68 10000 0 0 19:56 29.11.2021
4532 Clouds -29 1006 71 10000 0 0 19:37 29.11.2021
4533 Clouds -30 1007 68 10000 0 0 18:52 29.11.2021
4534 Clouds -30 1011 95 10000 0.96 42 18:26 29.11.2021
4535 Clouds -29 1011 94 10000 0.97 38 17:21 29.11.2021
4536 Clouds -29 1011 94 10000 0.97 38 16:32 29.11.2021
4537 Clouds -30 1012 96 10000 1.08 33 15:55 29.11.2021
4538 Clouds -31 1012 96 10000 0.83 30 14:45 29.11.2021
4539 Clouds -30 1013 95 10000 1.01 43 13:47 29.11.2021
4540 Clouds -31 1014 96 10000 1.2 36 12:44 29.11.2021
4541 Clouds -31 1014 96 10000 0.89 38 11:43 29.11.2021
4542 Clouds -31 1014 96 10000 1.05 40 10:59 29.11.2021
4543 Clear -38 1010 74 10000 0 0 09:56 29.11.2021
4544 Mist -35 1011 65 10000 0 0 06:43 29.11.2021
4545 Clear -36 1011 75 10000 0 0 04:53 29.11.2021
4546 Snow -32 1009 71 10000 0 0 00:44 29.11.2021
4547 Mist -32 1009 72 10000 0 0 23:45 28.11.2021
4548 Snow -32 1009 72 10000 0 0 23:25 28.11.2021
4549 Clear -34 1008 75 10000 0 0 21:53 28.11.2021
4550 Clear -34 1008 75 10000 0 0 21:27 28.11.2021
4551 Snow -33 1008 72 10000 0 0 20:35 28.11.2021
4552 Snow -31 1008 72 10000 0 0 19:29 28.11.2021
4553 Snow -30 1007 69 10000 0 0 18:38 28.11.2021
4554 Clouds -30 1007 76 10000 0 0 17:57 28.11.2021
4555 Clouds -30 1007 73 10000 0 0 17:32 28.11.2021
4556 Haze -29 1006 73 9656 0 0 16:44 28.11.2021
4557 Clouds -29 1006 73 10000 0 0 16:26 28.11.2021
4558 Clouds -29 1006 76 10000 0 0 15:43 28.11.2021
4559 Snow -29 1006 73 10000 0 0 14:50 28.11.2021
4560 Snow -29 1006 73 10000 0 0 13:49 28.11.2021
4561 Clouds -29 1006 76 10000 0 0 12:54 28.11.2021
4562 Snow -27 1006 70 10000 0 0 11:21 28.11.2021
4563 Snow -27 1006 67 9656 0 0 10:22 28.11.2021
4564 Haze -27 1006 73 4023 0 0 09:40 28.11.2021
4565 Snow -27 1006 69 4828 0 0 08:20 28.11.2021
4566 Clouds -26 1009 76 10000 0 0 00:40 28.11.2021
4567 Snow -25 1011 73 10000 1.54 160 21:45 27.11.2021
4568 Snow -25 1012 71 10000 0 0 19:50 27.11.2021
4569 Snow -25 1012 71 10000 0 0 19:50 27.11.2021
4570 Snow -25 1012 70 10000 0 0 18:20 27.11.2021
4571 Clouds -25 1016 98 1565 0.29 358 15:59 27.11.2021
4572 Clouds -28 1014 73 10000 0 0 14:35 27.11.2021
4573 Clouds -28 1014 73 10000 0 0 13:20 27.11.2021
4574 Haze -30 1015 76 9656 0 0 10:57 27.11.2021
4575 Snow -28 1015 76 8047 0 0 09:55 27.11.2021
4576 Snow -27 1015 73 10000 0 0 08:51 27.11.2021
4577 Snow -26 1015 70 10000 0 0 06:35 27.11.2021
4578 Mist -24 1014 77 4426 0 0 03:52 27.11.2021
4579 Snow -24 1013 77 4023 0 0 00:19 27.11.2021
4580 Snow -24 1013 74 10000 2.57 70 22:41 26.11.2021
4581 Haze -24 1012 74 8047 2.06 60 22:20 26.11.2021
4582 Snow -24 1012 74 8047 2.06 60 21:23 26.11.2021
4583 Snow -24 1011 74 10000 1.54 60 20:40 26.11.2021
4584 Snow -23 1010 74 10000 0 0 19:55 26.11.2021
4585 Haze -21 1009 74 4828 1.54 120 18:45 26.11.2021
4586 Snow -21 1008 71 8047 0 0 17:40 26.11.2021
4587 Snow -21 1008 71 8047 0 0 17:20 26.11.2021
4588 Mist -21 1007 74 6437 0 0 15:21 26.11.2021
4589 Snow -21 1006 77 8047 0 0 13:35 26.11.2021
4590 Haze -21 1004 77 4828 1.54 230 10:45 26.11.2021
4591 Snow -20 1003 77 2615 2.57 210 09:54 26.11.2021
4592 Snow -20 1002 76 2615 1.54 200 08:53 26.11.2021
4593 Haze -20 1003 76 4023 0 0 08:20 26.11.2021
4594 Snow -20 1001 74 2816 0 0 06:37 26.11.2021
4595 Snow -20 1001 74 2816 0 0 06:37 26.11.2021
4596 Snow -20 1000 73 2816 0 0 06:19 26.11.2021
4597 Snow -20 998 68 10000 0 0 03:44 26.11.2021
4598 Snow -22 996 70 10000 0 0 00:47 26.11.2021
4599 Clear -24 995 73 10000 0 0 22:38 25.11.2021
4600 Clear -27 995 75 10000 0 0 21:19 25.11.2021
4601 Clear -27 996 73 10000 0 0 19:54 25.11.2021
4602 Clear -28 996 73 10000 0 0 18:38 25.11.2021
4603 Clear -29 995 71 10000 0 0 17:28 25.11.2021
4604 Clouds -28 997 69 10000 1.01 2 16:58 25.11.2021
4605 Clear -28 995 71 10000 0 0 16:28 25.11.2021
4606 Clouds -27 996 64 10000 1.54 30 14:52 25.11.2021
4607 Clear -28 995 70 10000 0 0 13:25 25.11.2021
4608 Clear -27 995 70 10000 0 0 12:19 25.11.2021
4609 Clear -26 994 72 10000 0 0 11:40 25.11.2021
4610 Clouds -26 996 70 10000 0 0 08:42 25.11.2021
4611 Clear -25 996 77 10000 1.54 30 04:24 25.11.2021
4612 Clear -24 997 75 10000 0 0 02:45 25.11.2021
4613 Clouds -24 1000 74 10000 0 0 22:44 24.11.2021
4614 Clouds -24 1000 74 10000 0 0 22:21 24.11.2021
4615 Clear -26 1002 70 10000 0 0 21:28 24.11.2021
4616 Clear -25 1002 72 10000 0 0 20:42 24.11.2021
4617 Clear -26 1002 70 10000 0 0 20:18 24.11.2021
4618 Clear -26 1003 71 10000 0 0 18:30 24.11.2021
4619 Clear -26 1003 71 10000 0 0 18:30 24.11.2021
4620 Clear -25 1004 71 10000 0 0 16:53 24.11.2021
4621 Clear -26 1004 73 10000 0 0 15:22 24.11.2021
4622 Clear -26 1005 72 10000 0 0 14:42 24.11.2021
4623 Clear -26 1005 74 10000 0 0 14:19 24.11.2021
4624 Clear -24 1006 68 10000 0 0 11:50 24.11.2021
4625 Clear -24 1007 70 10000 0 0 11:20 24.11.2021
4626 Clouds -25 1007 70 10000 0 0 10:39 24.11.2021
4627 Clear -25 1007 73 10000 0 0 09:40 24.11.2021
4628 Clouds -24 1008 66 10000 1.54 60 07:46 24.11.2021
4629 Clouds -24 1007 68 10000 0 0 06:51 24.11.2021
4630 Clear -24 1008 65 10000 1.54 40 03:50 24.11.2021
4631 Clear -21 1009 62 10000 0 0 23:44 23.11.2021
4632 Clear -21 1009 60 10000 1.54 50 22:39 23.11.2021
4633 Clear -21 1009 59 10000 2.06 50 21:54 23.11.2021
4634 Clear -21 1009 57 10000 2.06 50 21:35 23.11.2021
4635 Clouds -19 1010 60 10000 0 0 19:37 23.11.2021
4636 Snow -18 1010 58 10000 2.06 60 18:39 23.11.2021
4637 Snow -18 1010 58 10000 2.06 60 18:18 23.11.2021
4638 Clouds -18 1011 60 10000 4.12 60 16:57 23.11.2021
4639 Clouds -24 1015 88 10000 2.08 29 15:59 23.11.2021
4640 Snow -18 1011 58 10000 4.12 70 15:19 23.11.2021
4641 Snow -18 1011 56 10000 3.09 50 13:46 23.11.2021
4642 Snow -18 1011 64 10000 3.09 50 11:40 23.11.2021
4643 Clouds -18 1013 69 10000 5.14 50 09:59 23.11.2021
4644 Mist -18 1011 72 10000 5.66 50 08:44 23.11.2021
4645 Snow -18 1011 70 8047 4.63 60 06:39 23.11.2021
4646 Snow -18 1010 60 10000 0.45 69 03:45 23.11.2021
4647 Clouds -18 1010 61 10000 0.45 62 00:54 23.11.2021
4648 Snow -17 1009 59 10000 0.45 274 23:21 22.11.2021
4649 Snow -18 1009 60 10000 7.2 50 22:33 22.11.2021
4650 Snow -18 1010 60 9656 0.45 88 21:49 22.11.2021
4651 Snow -18 1009 64 9656 7.2 20 21:31 22.11.2021
4652 Snow -18 1010 66 10000 6.69 20 20:50 22.11.2021
4653 Snow -18 1010 64 5548 0.89 217 19:47 22.11.2021
4654 Haze -18 1008 65 9656 0.45 16 19:18 22.11.2021
4655 Snow -18 1008 68 10000 3.6 50 18:38 22.11.2021
4656 Snow -18 1008 70 8047 0.45 22 17:20 22.11.2021
4657 Snow -17 1008 67 6437 0.45 14 15:47 22.11.2021
4658 Snow -18 1010 68 411 1.34 79 13:58 22.11.2021
4659 Snow -18 1009 68 10000 4.12 50 11:50 22.11.2021
4660 Snow -20 1010 69 10000 1.54 40 10:41 22.11.2021
4661 Clouds -24 1011 72 10000 0 0 09:26 22.11.2021
4662 Clouds -24 1011 72 10000 0 0 09:26 22.11.2021
4663 Clouds -26 1011 72 10000 0 0 08:39 22.11.2021
4664 Clear -30 1010 73 10000 0 0 04:36 22.11.2021
4665 Clear -28 1010 72 10000 0 0 23:26 21.11.2021
4666 Haze -32 1011 65 6437 0 0 22:48 21.11.2021
4667 Haze -31 1010 68 6437 0 0 21:51 21.11.2021
4668 Clear -31 1011 72 10000 0 0 20:42 21.11.2021
4669 Clear -31 1011 72 10000 0 0 20:42 21.11.2021
4670 Haze -32 1010 68 4828 0 0 19:48 21.11.2021
4671 Snow -32 1010 72 10000 0 0 18:24 21.11.2021
4672 Snow -32 1010 70 10000 0 0 17:38 21.11.2021
4673 Haze -32 1010 72 9656 0 0 15:49 21.11.2021
4674 Clear -34 1012 71 10000 0 0 14:45 21.11.2021
4675 Clear -32 1010 71 10000 0 0 13:46 21.11.2021
4676 Clear -30 1012 73 10000 0 0 12:35 21.11.2021
4677 Clear -29 1012 74 10000 0 0 11:42 21.11.2021
4678 Clear -30 1012 73 10000 0 0 11:24 21.11.2021
4679 Clear -30 1012 73 10000 0 0 10:18 21.11.2021
4680 Clouds -29 1012 73 10000 0 0 08:42 21.11.2021
4681 Clouds -28 1012 75 10000 0 0 08:23 21.11.2021
4682 Haze -32 1013 73 8047 0 0 07:47 21.11.2021
4683 Clear -28 1014 77 10000 0 0 05:53 21.11.2021
4684 Clear -28 1014 74 10000 0 0 05:25 21.11.2021
4685 Clear -30 1015 69 10000 0 0 03:19 21.11.2021
4686 Clear -27 1016 72 10000 0 0 02:51 21.11.2021
4687 Clear -25 1018 78 10000 0 0 00:59 21.11.2021
4688 Clear -26 1018 73 10000 0 0 23:47 20.11.2021
4689 Clear -30 1019 71 10000 0 0 21:46 20.11.2021
4690 Clear -30 1019 71 10000 0 0 21:27 20.11.2021
4691 Clouds -33 1022 73 10000 0 0 18:46 20.11.2021
4692 Clouds -33 1022 73 10000 0 0 18:26 20.11.2021
4693 Clear -30 1022 70 10000 0 0 17:57 20.11.2021
4694 Haze -33 1023 68 6437 0 0 16:57 20.11.2021
4695 Clear -33 1025 73 10000 0 0 14:47 20.11.2021
4696 Clear -33 1025 73 10000 0 0 14:25 20.11.2021
4697 Clear -30 1024 71 10000 0 0 12:23 20.11.2021
4698 Clear -30 1024 71 10000 0 0 12:23 20.11.2021
4699 Clear -30 1024 71 10000 0 0 11:18 20.11.2021
4700 Haze -33 1026 66 4828 0 0 09:51 20.11.2021
4701 Clear -32 1026 68 10000 0 0 07:47 20.11.2021
4702 Clear -29 1024 73 10000 0 0 05:28 20.11.2021
4703 Clear -29 1024 73 10000 0 0 04:50 20.11.2021
4704 Clear -27 1025 75 10000 0 0 03:24 20.11.2021
4705 Fog -24 1025 74 10000 0 0 00:41 20.11.2021
4706 Clear -24 1025 75 10000 0 0 23:43 19.11.2021
4707 Clouds -28 1026 70 10000 1.54 80 22:39 19.11.2021
4708 Clear -26 1025 76 10000 0 0 20:59 19.11.2021
4709 Clear -27 1025 75 10000 0 0 20:37 19.11.2021
4710 Clear -26 1025 73 10000 0 0 19:56 19.11.2021
4711 Clear -27 1026 75 10000 0 0 18:55 19.11.2021
4712 Clear -27 1025 75 10000 0 0 18:24 19.11.2021
4713 Snow -27 1025 76 10000 0 0 17:37 19.11.2021
4714 Clear -25 1025 77 10000 0 0 15:58 19.11.2021
4715 Snow -27 1024 73 10000 0 0 13:56 19.11.2021
4716 Clear -25 1023 72 10000 0 0 10:34 19.11.2021
4717 Clear -26 1023 72 10000 1.54 110 09:48 19.11.2021
4718 Clear -25 1022 74 10000 0 0 08:26 19.11.2021
4719 Clouds -22 1022 79 10000 0 0 04:54 19.11.2021
4720 Clouds -19 1021 75 10000 0 0 02:43 19.11.2021
4721 Mist -15 1020 73 6437 1.54 150 23:52 18.11.2021
4722 Snow -15 1020 75 10000 2.06 120 22:35 18.11.2021
4723 Mist -15 1020 74 4828 1.54 50 20:56 18.11.2021
4724 Snow -15 1019 73 4023 0.89 304 20:32 18.11.2021
4725 Snow -15 1019 74 4023 0.89 20 19:59 18.11.2021
4726 Snow -15 1019 74 2414 2.57 30 19:35 18.11.2021
4727 Snow -15 1019 73 3621 0.89 17 18:35 18.11.2021
4728 Snow -15 1018 74 4426 0.45 5 17:51 18.11.2021
4729 Snow -15 1018 72 10000 2.57 20 16:45 18.11.2021
4730 Snow -16 1018 71 6437 3.09 360 15:52 18.11.2021
4731 Snow -16 1018 68 9656 3.6 20 14:19 18.11.2021
4732 Clouds -16 1018 65 10000 3.09 20 12:53 18.11.2021
4733 Clouds -17 1019 65 10000 4.12 360 11:44 18.11.2021
4734 Clouds -17 1018 65 10000 4.12 360 11:25 18.11.2021
4735 Clouds -17 1017 67 10000 3.6 350 10:21 18.11.2021
4736 Snow -18 1018 69 10000 2.57 150 08:26 18.11.2021
4737 Clouds -16 1017 67 10000 3.09 20 06:39 18.11.2021
4738 Clouds -16 1017 65 10000 2.06 360 05:43 18.11.2021
4739 Mist -16 1016 74 4828 5.66 50 01:25 18.11.2021
4740 Snow -15 1016 73 8047 3.6 40 23:30 17.11.2021
4741 Snow -16 1016 73 10000 0.45 32 22:39 17.11.2021
4742 Snow -16 1016 74 10000 0.45 32 22:19 17.11.2021
4743 Snow -16 1016 75 10000 0.45 50 21:35 17.11.2021
4744 Mist -17 1015 77 4828 4.63 40 19:42 17.11.2021
4745 Snow -17 1014 77 4828 0.45 310 17:35 17.11.2021
4746 Snow -17 1015 80 6437 2.57 30 15:55 17.11.2021
4747 Snow -18 1015 79 8047 0 0 13:18 17.11.2021
4748 Mist -18 1015 79 8047 0 0 12:36 17.11.2021
4749 Snow -19 1015 79 4828 0 0 10:54 17.11.2021
4750 Snow -18 1015 80 4828 0 0 09:38 17.11.2021
4751 Snow -18 1015 80 9656 0 0 07:46 17.11.2021
4752 Snow -18 1016 80 9656 0 0 07:23 17.11.2021
4753 Haze -18 1018 80 6437 0 0 02:49 17.11.2021
4754 Mist -18 1017 78 6437 0 0 00:34 17.11.2021
4755 Snow -18 1018 77 10000 0 0 22:30 16.11.2021
4756 Snow -18 1018 75 10000 0 0 20:19 16.11.2021
4757 Snow -18 1018 72 10000 0 0 19:39 16.11.2021
4758 Snow -18 1018 72 10000 0 0 18:49 16.11.2021
4759 Snow -18 1018 72 10000 0 0 18:28 16.11.2021
4760 Snow -19 1018 78 10000 0 0 17:18 16.11.2021
4761 Snow -19 1018 78 10000 0 0 16:20 16.11.2021
4762 Snow -19 1018 75 10000 0 0 15:43 16.11.2021
4763 Snow -19 1018 71 10000 0 0 13:46 16.11.2021
4764 Snow -20 1018 78 10000 0 0 10:27 16.11.2021
4765 Snow -20 1018 78 8047 0 0 09:42 16.11.2021
4766 Snow -20 1020 80 10000 0 0 07:53 16.11.2021
4767 Clouds -20 1019 80 10000 0 0 07:28 16.11.2021
4768 Snow -20 1018 76 9656 2.06 80 23:54 15.11.2021
4769 Snow -21 1018 74 10000 0 0 22:41 15.11.2021
4770 Snow -21 1018 74 10000 0 0 22:20 15.11.2021
4771 Snow -21 1018 73 6437 0 0 21:32 15.11.2021
4772 Clouds -22 1018 73 5694 0.29 200 20:59 15.11.2021
4773 Snow -22 1018 73 10000 0 0 19:26 15.11.2021
4774 Snow -22 1018 75 10000 1.54 60 17:36 15.11.2021
4775 Clouds -23 1019 78 10000 0 0 15:56 15.11.2021
4776 Snow -23 1018 78 10000 0 0 15:36 15.11.2021
4777 Snow -23 1019 76 10000 0 0 14:39 15.11.2021
4778 Snow -23 1018 76 10000 0 0 12:39 15.11.2021
4779 Snow -23 1020 75 10000 0 0 10:33 15.11.2021
4780 Snow -24 1020 76 10000 0 0 09:23 15.11.2021
4781 Mist -23 1020 78 10000 0 0 07:26 15.11.2021
4782 Clouds -22 1021 79 10000 0 0 02:34 15.11.2021
4783 Snow -21 1022 79 6437 0 0 22:47 14.11.2021
4784 Snow -21 1021 77 6437 0 0 22:27 14.11.2021
4785 Snow -22 1020 76 9656 0 0 19:36 14.11.2021
4786 Snow -22 1020 76 9656 0 0 19:18 14.11.2021
4787 Snow -22 1020 76 9656 0 0 18:54 14.11.2021
4788 Snow -22 1020 76 9656 0 0 18:36 14.11.2021
4789 Snow -21 1020 76 9656 0 0 18:18 14.11.2021
4790 Snow -22 1020 75 10000 0 0 17:54 14.11.2021
4791 Snow -22 1020 75 10000 0 0 17:36 14.11.2021
4792 Snow -22 1020 73 10000 0 0 17:18 14.11.2021
4793 Snow -23 1020 74 10000 0 0 16:43 14.11.2021
4794 Snow -22 1019 73 10000 0 0 16:19 14.11.2021
4795 Snow -23 1020 75 10000 1.54 70 15:21 14.11.2021
4796 Snow -23 1018 76 10000 2.06 70 14:45 14.11.2021
4797 Snow -23 1018 76 10000 2.06 70 14:22 14.11.2021
4798 Snow -26 1019 71 10000 0 0 13:53 14.11.2021
4799 Snow -24 1019 75 10000 0 0 13:32 14.11.2021
4800 Snow -26 1018 74 10000 0 0 12:26 14.11.2021
4801 Clear -26 1018 74 10000 1.54 90 11:34 14.11.2021
4802 Clear -24 1018 78 10000 0 0 10:40 14.11.2021
4803 Clear -24 1018 76 10000 0 0 09:42 14.11.2021
4804 Clear -23 1018 75 10000 0 0 08:52 14.11.2021
4805 Clear -22 1018 79 10000 0 0 06:51 14.11.2021
4806 Clouds -18 1017 78 10000 0 0 23:27 13.11.2021
4807 Clouds -19 1017 79 10000 0 0 22:21 13.11.2021
4808 Clear -20 1016 77 10000 0 0 21:49 13.11.2021
4809 Clear -23 1015 78 10000 0 0 20:59 13.11.2021
4810 Snow -22 1016 77 10000 0 0 19:37 13.11.2021
4811 Snow -20 1016 81 10000 0 0 18:33 13.11.2021
4812 Snow -19 1015 80 10000 0 0 17:46 13.11.2021
4813 Snow -18 1014 80 10000 0 0 16:30 13.11.2021
4814 Clouds -21 1012 80 10000 0 0 14:55 13.11.2021
4815 Clouds -21 1012 81 10000 0 0 14:18 13.11.2021
4816 Clouds -21 1012 79 10000 0 0 12:45 13.11.2021
4817 Clouds -18 1009 79 3518 0.36 64 11:58 13.11.2021
4818 Clouds -19 1012 78 10000 0 0 11:26 13.11.2021
4819 Clouds -20 1011 81 10000 0 0 10:43 13.11.2021
4820 Snow -18 1010 80 10000 1.54 40 09:50 13.11.2021
4821 Snow -18 1010 78 10000 0 0 09:32 13.11.2021
4822 Clouds -18 1009 80 10000 0 0 08:54 13.11.2021
4823 Snow -18 1009 80 10000 0 0 08:18 13.11.2021
4824 Snow -17 1007 80 10000 0 0 04:43 13.11.2021
4825 Snow -17 1007 81 10000 0 0 04:23 13.11.2021
4826 Mist -15 1006 80 4426 0 0 00:28 13.11.2021
4827 Snow -16 1006 81 10000 0 0 22:43 12.11.2021
4828 Snow -16 1006 80 10000 0 0 21:29 12.11.2021
4829 Snow -17 1006 83 8047 0 0 19:43 12.11.2021
4830 Snow -17 1006 83 8047 0 0 19:23 12.11.2021
4831 Snow -17 1006 82 10000 0 0 18:20 12.11.2021
4832 Snow -17 1006 81 10000 0 0 16:19 12.11.2021
4833 Snow -17 1006 81 10000 0 0 14:53 12.11.2021
4834 Snow -18 1006 79 10000 0 0 11:31 12.11.2021
4835 Snow -18 1006 79 10000 0 0 10:49 12.11.2021
4836 Snow -19 1006 77 10000 0 0 09:29 12.11.2021
4837 Snow -19 1006 75 10000 0 0 08:38 12.11.2021
4838 Snow -18 1008 71 10000 0 0 02:22 12.11.2021
4839 Snow -17 1008 80 10000 0 0 23:33 11.11.2021
4840 Snow -18 1008 80 10000 0 0 22:28 11.11.2021
4841 Snow -18 1009 70 10000 0 0 21:27 11.11.2021
4842 Snow -19 1008 80 8047 0 0 20:38 11.11.2021
4843 Clouds -21 1008 77 10000 0 0 18:55 11.11.2021
4844 Clouds -20 1008 78 10000 0 0 17:43 11.11.2021
4845 Clear -23 1009 75 10000 0 0 16:40 11.11.2021
4846 Mist -22 1009 79 8047 0 0 14:45 11.11.2021
4847 Mist -22 1009 79 8047 0 0 14:26 11.11.2021
4848 Clear -23 1010 74 10000 0 0 13:37 11.11.2021
4849 Clear -23 1010 74 10000 0 0 13:37 11.11.2021
4850 Clear -21 1009 77 10000 2.06 80 12:48 11.11.2021
4851 Haze -21 1011 79 6437 0 0 10:36 11.11.2021
4852 Haze -21 1011 79 3018 0 0 09:33 11.11.2021
4853 Clouds -21 1011 73 10000 0 0 07:38 11.11.2021
4854 Clear -19 1010 78 10000 0 0 02:36 11.11.2021
4855 Clouds -17 1009 78 10000 0.45 249 22:59 10.11.2021
4856 Clear -18 1008 78 10000 2.06 70 22:22 10.11.2021
4857 Clear -19 1008 79 10000 0 0 21:21 10.11.2021
4858 Clear -19 1007 79 10000 0 0 20:46 10.11.2021
4859 Clouds -21 1007 78 10000 2.06 40 19:47 10.11.2021
4860 Clear -21 1006 80 10000 0 0 18:33 10.11.2021
4861 Clouds -20 1006 79 10000 0 0 16:34 10.11.2021
4862 Clear -19 1004 79 10000 0 0 14:52 10.11.2021
4863 Clear -18 1005 79 10000 0 0 13:41 10.11.2021
4864 Clear -18 1005 79 10000 0 0 12:50 10.11.2021
4865 Clear -17 1004 77 10000 0 0 10:48 10.11.2021
4866 Clear -16 1004 72 10000 1.54 70 08:45 10.11.2021
4867 Clouds -11 1003 62 10000 3.09 50 07:44 10.11.2021
4868 Clouds -11 1003 73 10000 2.57 70 06:26 10.11.2021
4869 Clouds -11 1003 79 10000 2.57 80 05:51 10.11.2021
4870 Mist -11 1005 82 9656 2.06 60 23:55 09.11.2021
4871 Clouds -13 1006 74 10000 3.09 70 21:50 09.11.2021
4872 Clouds -13 1006 74 10000 3.09 70 21:50 09.11.2021
4873 Clouds -15 1006 77 10000 3.09 70 20:32 09.11.2021
4874 Clouds -12 1005 67 10000 2.06 40 19:25 09.11.2021
4875 Clouds -13 1007 76 10000 3.09 60 17:44 09.11.2021
4876 Clouds -15 1009 79 10000 2.57 60 15:45 09.11.2021
4877 Clouds -16 1009 76 10000 4.12 60 14:44 09.11.2021
4878 Clouds -17 1010 78 10000 2.06 60 12:53 09.11.2021
4879 Clouds -17 1010 78 10000 2.06 60 12:53 09.11.2021
4880 Clouds -18 1011 74 10000 1.76 26 11:58 09.11.2021
4881 Clouds -16 1012 77 10000 3.09 80 10:45 09.11.2021
4882 Clear -16 1012 78 10000 1.54 60 09:35 09.11.2021
4883 Clear -15 1013 76 10000 1.54 60 08:27 09.11.2021
4884 Clouds -15 1014 79 10000 2.57 90 05:56 09.11.2021
4885 Clouds -11 1014 73 10000 4.63 50 02:25 09.11.2021
4886 Clouds -10 1014 69 10000 5.14 30 01:46 09.11.2021
4887 Clouds -10 1014 73 10000 1.34 222 23:59 08.11.2021
4888 Clear -10 1014 75 10000 0.89 9 22:51 08.11.2021
4889 Clear -10 1014 77 10000 3.09 70 22:27 08.11.2021
4890 Clear -11 1014 84 10000 0 0 20:56 08.11.2021
4891 Clear -11 1014 84 10000 0 0 20:56 08.11.2021
4892 Clouds -11 1015 82 10000 2.06 10 19:52 08.11.2021
4893 Clouds -13 1014 85 10000 3.09 50 18:57 08.11.2021
4894 Snow -11 1014 86 10000 3.09 30 16:34 08.11.2021
4895 Clouds -9 1013 86 10000 2.06 50 15:26 08.11.2021
4896 Clouds -8 1013 88 10000 0 0 14:42 08.11.2021
4897 Clouds -7 1014 90 10000 0 0 13:55 08.11.2021
4898 Snow -7 1013 89 10000 2.06 80 12:35 08.11.2021
4899 Snow -7 1013 89 10000 2.06 60 11:24 08.11.2021
4900 Snow -7 1013 89 10000 2.06 50 09:59 08.11.2021
4901 Snow -7 1013 91 4828 1.54 60 08:55 08.11.2021
4902 Snow -6 1012 91 4023 0 0 07:36 08.11.2021
4903 Mist -6 1013 91 4426 0 0 04:56 08.11.2021
4904 Snow -5 1012 90 4828 1.54 240 03:30 08.11.2021
4905 Mist -5 1013 89 3018 1.54 220 23:47 07.11.2021
4906 Mist -5 1012 92 3219 0 0 22:26 07.11.2021
4907 Snow -6 1012 92 6437 0 0 21:21 07.11.2021
4908 Snow -6 1012 93 6437 0 0 19:55 07.11.2021
4909 Clouds -6 1012 93 10000 0 0 18:24 07.11.2021
4910 Mist -6 1012 91 1609 0 0 17:36 07.11.2021
4911 Mist -6 1011 91 1609 0 0 15:54 07.11.2021
4912 Clouds -6 1011 91 10000 0 0 14:40 07.11.2021
4913 Snow -6 1010 90 10000 0 0 13:54 07.11.2021
4914 Clouds -6 1009 91 10000 0 0 11:49 07.11.2021
4915 Snow -6 1009 91 396 1.15 257 09:58 07.11.2021
4916 Snow -6 1008 90 10000 0 0 08:45 07.11.2021
4917 Snow -5 1005 90 8047 0 0 02:44 07.11.2021
4918 Mist -5 1005 89 10000 1.54 50 23:40 06.11.2021
4919 Mist -5 1005 89 10000 1.54 60 22:51 06.11.2021
4920 Clouds -5 1006 90 10000 0 0 21:36 06.11.2021
4921 Clouds -5 1005 90 10000 2.06 70 20:52 06.11.2021
4922 Clouds -5 1005 93 10000 0 0 18:56 06.11.2021
4923 Clouds -5 1004 87 10000 0 0 17:18 06.11.2021
4924 Clouds -5 1003 87 10000 0 0 15:31 06.11.2021
4925 Clouds -5 1004 91 10000 0 0 13:39 06.11.2021
4926 Clouds -6 1003 92 10000 0 0 12:29 06.11.2021
4927 Clouds -6 1001 89 10000 1.54 80 09:42 06.11.2021
4928 Clouds -5 1000 86 10000 0 0 07:58 06.11.2021
4929 Clouds -6 996 84 10000 1.54 70 03:20 06.11.2021
4930 Clouds -6 994 81 10000 0 0 23:38 05.11.2021
4931 Clouds -6 994 79 10000 0 0 22:50 05.11.2021
4932 Clear -7 993 82 10000 0 0 21:54 05.11.2021
4933 Clear -9 993 86 10000 0 0 20:20 05.11.2021
4934 Clouds -8 994 84 10000 0 0 19:49 05.11.2021
4935 Clear -9 995 86 10000 0 0 18:41 05.11.2021
4936 Clear -9 994 86 10000 0 0 17:31 05.11.2021
4937 Clear -8 994 85 10000 0 0 15:48 05.11.2021
4938 Clouds -8 995 86 10000 1.54 270 13:55 05.11.2021
4939 Clear -6 993 87 10000 0 0 11:31 05.11.2021
4940 Clouds -4 993 84 10000 2.57 50 08:41 05.11.2021
4941 Clouds -4 994 86 10000 3.6 70 07:39 05.11.2021
4942 Clouds -3 994 86 10000 0 0 05:33 05.11.2021
4943 Clear -4 995 91 10000 0 0 02:26 05.11.2021
4944 Clear -4 996 90 10000 0 0 00:52 05.11.2021
4945 Clear -5 996 91 10000 0 0 23:25 04.11.2021
4946 Clouds -6 997 90 10000 0 0 22:20 04.11.2021
4947 Clear -6 997 88 10000 0 0 21:43 04.11.2021
4948 Clear -7 997 88 10000 0 0 20:53 04.11.2021
4949 Clear -8 998 88 10000 0 0 20:22 04.11.2021
4950 Clouds -8 998 85 10000 0 0 19:47 04.11.2021
4951 Clouds -8 998 87 10000 0 0 19:19 04.11.2021
4952 Clouds -8 998 88 10000 0 0 18:20 04.11.2021
4953 Clear -7 999 91 10000 0 0 16:53 04.11.2021
4954 Clear -8 997 87 10000 0 0 15:18 04.11.2021
4955 Clear -6 997 89 10000 0 0 13:40 04.11.2021
4956 Fog -5 995 91 604 0 0 09:50 04.11.2021
4957 Fog -4 995 92 805 0 0 08:31 04.11.2021
4958 Fog -3 995 92 604 0 0 07:35 04.11.2021
4959 Fog -2 994 93 402 0 0 06:18 04.11.2021
4960 Snow -1 991 91 10000 0 0 22:53 03.11.2021
4961 Fog -2 991 91 10000 0 0 21:50 03.11.2021
4962 Fog -2 991 91 10000 0 0 21:31 03.11.2021
4963 Mist -3 992 92 10000 0 0 20:38 03.11.2021
4964 Mist -4 992 91 10000 0 0 20:18 03.11.2021
4965 Fog -3 992 90 6437 0 0 19:19 03.11.2021
4966 Clouds -3 992 90 10000 0 0 18:25 03.11.2021
4967 Clouds -4 991 93 10000 0 0 17:41 03.11.2021
4968 Clouds -2 991 90 10000 0 0 16:27 03.11.2021
4969 Clouds -2 990 92 10000 0 0 15:44 03.11.2021
4970 Clouds -2 991 92 10000 0 0 14:25 03.11.2021
4971 Clouds -2 992 89 10000 0 0 12:33 03.11.2021
4972 Clouds -2 992 92 10000 0 0 11:27 03.11.2021
4973 Clear -2 993 91 10000 2.06 260 10:49 03.11.2021
4974 Clear -2 993 91 10000 2.06 260 10:49 03.11.2021
4975 Clear -2 993 91 10000 2.06 260 10:49 03.11.2021
4976 Clouds -2 994 91 10000 0 0 09:31 03.11.2021
4977 Clouds -2 994 91 10000 0 0 09:31 03.11.2021
4978 Clouds -2 994 90 10000 0 0 08:24 03.11.2021
4979 Clouds -2 995 90 10000 0 0 07:39 03.11.2021
4980 Clouds -2 996 89 10000 0 0 05:35 03.11.2021
4981 Clouds -2 998 88 10000 0 0 02:50 03.11.2021
4982 Clouds -1 999 89 10000 0.41 325 23:56 02.11.2021
4983 Clouds -2 1000 90 10000 0 0 22:47 02.11.2021
4984 Clouds -1 1000 90 10000 0 0 21:39 02.11.2021
4985 Clouds -1 1000 90 10000 0 0 20:33 02.11.2021
4986 Clouds -2 1001 90 10000 0 0 19:53 02.11.2021
4987 Clouds -2 1001 90 10000 0 0 19:18 02.11.2021
4988 Clouds -2 1001 91 10000 0 0 18:26 02.11.2021
4989 Clouds -2 1001 91 10000 0 0 18:26 02.11.2021
4990 Snow -2 1001 90 10000 0 0 17:42 02.11.2021
4991 Snow -2 1001 90 10000 0 0 16:31 02.11.2021
4992 Snow -2 1002 91 10000 0 0 15:48 02.11.2021
4993 Snow -2 1003 90 10000 0 0 14:30 02.11.2021
4994 Snow -2 1003 90 10000 0 0 13:28 02.11.2021
4995 Snow -3 1004 91 9656 0 0 12:43 02.11.2021
4996 Snow -2 1005 90 4023 0 0 11:38 02.11.2021
4997 Snow -3 1005 90 4023 0 0 10:53 02.11.2021
4998 Snow -3 1006 90 4023 0 0 10:28 02.11.2021
4999 Snow -2 1007 89 4828 0 0 08:44 02.11.2021
5000 Snow -2 1007 88 4828 0 0 06:57 02.11.2021
5001 Snow -2 1006 83 9656 0.45 222 03:49 02.11.2021
5002 Snow -1 1006 79 10000 0.45 248 02:24 02.11.2021
5003 Clouds -1 1004 80 10000 0.89 242 22:55 01.11.2021
5004 Clear -1 1003 80 10000 0.45 212 21:23 01.11.2021
5005 Clouds 0 1002 80 10000 2.57 220 20:38 01.11.2021
5006 Clouds 0 1001 79 10000 4.12 200 19:57 01.11.2021
5007 Clouds 0 1002 78 10000 4.12 200 19:29 01.11.2021
5008 Clouds 1 1000 70 10000 2.06 250 18:22 01.11.2021
5009 Clouds 2 1000 63 10000 2.57 80 17:35 01.11.2021
5010 Clouds 1 999 72 10000 0 0 16:50 01.11.2021
5011 Clouds 1 999 66 10000 2.06 70 15:47 01.11.2021
5012 Clouds 1 999 66 10000 2.06 70 15:21 01.11.2021
5013 Clouds 0 999 71 10000 0 0 14:42 01.11.2021
5014 Clouds 0 999 70 10000 0 0 14:20 01.11.2021
5015 Clouds 1 999 67 10000 0 0 13:25 01.11.2021
5016 Clouds 1 998 65 10000 0 0 12:25 01.11.2021
5017 Clear 2 998 56 10000 1.54 70 10:33 01.11.2021
5018 Clear 3 998 52 10000 3.09 80 08:53 01.11.2021
5019 Clear 4 998 46 10000 2.57 70 07:48 01.11.2021
5020 Clear 6 997 41 10000 4.63 60 05:56 01.11.2021
5021 Clear 7 997 46 10000 3.09 50 03:42 01.11.2021
5022 Clouds 6 997 49 10000 3.6 70 00:23 01.11.2021
5023 Clouds 6 998 54 10000 3.83 98 21:55 31.10.2021
5024 Clouds 7 998 42 10000 6.69 100 20:26 31.10.2021
5025 Clouds 6 998 42 10000 5.14 100 18:54 31.10.2021
5026 Clouds 7 998 42 10000 5.14 100 18:32 31.10.2021
5027 Clear 7 998 42 10000 6.69 100 16:49 31.10.2021
5028 Clear 7 999 42 10000 5.66 100 15:29 31.10.2021
5029 Clear 7 999 42 10000 6.17 100 13:27 31.10.2021
5030 Clouds 7 999 41 10000 8.23 120 12:37 31.10.2021
5031 Clear 7 1000 42 10000 5.14 90 10:53 31.10.2021
5032 Clear 7 1000 42 10000 5.66 100 09:54 31.10.2021
5033 Clear 5 1000 46 10000 5.14 80 08:48 31.10.2021
5034 Clear 0 1001 63 10000 4.12 90 04:55 31.10.2021
5035 Clear 4 1002 63 10000 5.14 70 00:48 31.10.2021
5036 Clouds 1 1002 70 10000 3.09 60 22:31 30.10.2021
5037 Clouds -1 1002 75 10000 4.12 70 21:33 30.10.2021
5038 Clouds -3 1004 83 10000 2.08 54 20:19 30.10.2021
5039 Clear -4 1004 85 10000 3.09 60 18:21 30.10.2021
5040 Clouds -5 1006 84 10000 3.6 60 16:20 30.10.2021
5041 Clouds -7 1008 88 10000 4.12 70 14:25 30.10.2021
5042 Clouds -7 1008 88 10000 1.54 80 13:39 30.10.2021
5043 Clouds -7 1009 88 10000 1.54 80 13:20 30.10.2021
5044 Snow -7 1010 89 10000 2.06 50 11:50 30.10.2021
5045 Snow -7 1010 90 10000 0.45 119 11:26 30.10.2021
5046 Clear -9 1012 90 10000 0 0 09:53 30.10.2021
5047 Clear -9 1012 89 10000 0 0 08:31 30.10.2021
5048 Snow -8 1012 88 10000 0 0 05:50 30.10.2021
5049 Clouds -8 1012 91 10000 0 0 05:19 30.10.2021
5050 Clouds -7 1012 90 10000 2.06 70 23:47 29.10.2021
5051 Mist -7 1011 90 9656 1.54 70 22:35 29.10.2021
5052 Mist -7 1010 90 6437 0 0 21:20 29.10.2021
5053 Mist -8 1010 91 4828 0 0 20:34 29.10.2021
5054 Mist -8 1009 90 2414 1.54 60 19:38 29.10.2021
5055 Mist -8 1009 90 1408 2.06 70 18:26 29.10.2021
5056 Mist -8 1008 90 2816 2.06 80 16:35 29.10.2021
5057 Clouds -9 1007 91 4828 1.54 60 14:29 29.10.2021
5058 Clear -9 1005 88 10000 1.54 200 10:52 29.10.2021
5059 Clear -9 1005 89 10000 1.54 200 10:33 29.10.2021
5060 Clouds -8 1003 89 10000 0 0 07:23 29.10.2021
5061 Clouds -5 1003 89 10000 0 0 00:35 29.10.2021
5062 Mist -6 1004 90 10000 2.57 70 22:51 28.10.2021
5063 Fog -7 1004 91 805 1.54 40 21:32 28.10.2021
5064 Fog -6 1004 91 604 1.54 40 20:20 28.10.2021
5065 Snow -6 1004 93 9656 0 0 18:57 28.10.2021
5066 Clouds -6 1004 93 10000 0 0 17:57 28.10.2021
5067 Snow -6 1004 89 10000 0 0 16:57 28.10.2021
5068 Snow -6 1003 89 10000 0 0 15:20 28.10.2021
5069 Snow -5 1003 89 10000 1.54 220 13:35 28.10.2021
5070 Clouds -6 1003 93 10000 0 0 12:53 28.10.2021
5071 Clouds -6 1003 93 10000 0 0 12:34 28.10.2021
5072 Clouds -5 1002 93 10000 0 0 10:48 28.10.2021
5073 Snow -5 1001 91 9656 0 0 09:38 28.10.2021
5074 Snow -5 1001 88 10000 0 0 08:37 28.10.2021
5075 Snow -5 1001 90 8047 1.54 260 07:49 28.10.2021
5076 Clouds -4 1001 89 10000 1.54 180 04:36 28.10.2021
5077 Snow -4 1000 90 9656 1.54 190 23:26 27.10.2021
5078 Snow -4 1000 90 9656 0.45 175 22:30 27.10.2021
5079 Snow -4 999 91 9656 2.06 220 21:32 27.10.2021
5080 Snow -4 999 91 9656 2.57 210 20:49 27.10.2021
5081 Snow -5 998 91 9656 0 0 19:52 27.10.2021
5082 Snow -5 998 93 9656 0 0 18:58 27.10.2021
5083 Clouds -4 998 92 10000 0 0 18:38 27.10.2021
5084 Mist -4 998 91 3219 2.06 190 16:26 27.10.2021
5085 Fog -3 997 92 604 2.06 230 15:30 27.10.2021
5086 Fog -3 997 92 604 2.06 230 15:30 27.10.2021
5087 Snow -3 997 93 10000 1.54 240 14:38 27.10.2021
5088 Snow -3 996 91 4828 0 0 11:20 27.10.2021
5089 Mist -3 996 93 2414 0 0 10:58 27.10.2021
5090 Mist -3 996 92 402 0 0 09:43 27.10.2021
5091 Mist -2 995 91 805 0 0 07:52 27.10.2021
5092 Snow -2 995 92 9656 1.54 240 06:38 27.10.2021
5093 Clouds -1 994 91 10000 0.45 158 01:31 27.10.2021
5094 Mist -1 994 91 8047 0 0 00:56 27.10.2021
5095 Mist -2 994 92 8047 0 0 23:57 26.10.2021
5096 Mist -2 993 91 8047 0 0 23:18 26.10.2021
5097 Mist -2 993 92 8047 0 0 22:29 26.10.2021
5098 Mist -2 993 92 8047 0 0 21:52 26.10.2021
5099 Mist -3 993 92 10000 0 0 20:26 26.10.2021
5100 Mist -3 993 94 8047 0 0 19:26 26.10.2021
5101 Drizzle -3 992 94 10000 0 0 18:32 26.10.2021
5102 Clouds -3 992 95 10000 0 0 16:22 26.10.2021
5103 Snow -3 992 93 10000 0 0 14:18 26.10.2021
5104 Clouds -3 991 92 10000 0 0 11:33 26.10.2021
5105 Snow -3 991 92 9656 0 0 09:29 26.10.2021
5106 Snow -2 990 90 10000 2.57 250 07:24 26.10.2021
5107 Clouds -2 990 91 10000 0 0 03:37 26.10.2021
5108 Clouds -2 990 91 10000 0 0 23:49 25.10.2021
5109 Clouds -3 990 92 10000 0 0 22:38 25.10.2021
5110 Clouds -3 990 92 10000 0 0 21:55 25.10.2021
5111 Clouds -3 990 91 10000 0 0 21:25 25.10.2021
5112 Clouds -4 990 91 10000 1.54 70 19:45 25.10.2021
5113 Clouds -4 990 91 10000 1.54 70 19:25 25.10.2021
5114 Clouds -4 990 91 10000 1.54 80 18:51 25.10.2021
5115 Snow -4 990 91 10000 0 0 17:43 25.10.2021
5116 Snow -4 991 92 10000 0 0 15:38 25.10.2021
5117 Snow -4 991 92 10000 0 0 13:54 25.10.2021
5118 Snow -5 991 93 4828 0 0 11:58 25.10.2021
5119 Snow -5 992 91 10000 0 0 09:58 25.10.2021
5120 Mist -4 993 90 8047 0 0 07:41 25.10.2021
5121 Snow -4 994 92 10000 0 0 05:55 25.10.2021
5122 Mist -4 996 89 10000 0 0 00:53 25.10.2021
5123 Mist -4 996 89 10000 0 0 00:35 25.10.2021
5124 Mist -4 996 89 3621 0 0 23:45 24.10.2021
5125 Fog -5 998 91 805 0 0 22:40 24.10.2021
5126 Mist -5 998 92 1408 0 0 22:20 24.10.2021
5127 Fog -5 997 91 805 0 0 21:37 24.10.2021
5128 Fog -5 997 87 402 0 0 20:42 24.10.2021
5129 Clouds -5 996 90 10000 1.54 50 19:49 24.10.2021
5130 Clouds -4 996 87 10000 0 0 18:30 24.10.2021
5131 Clouds -4 995 89 10000 0 0 17:48 24.10.2021
5132 Clouds -4 995 89 10000 0 0 16:32 24.10.2021
5133 Clouds -3 994 89 10000 0 0 15:23 24.10.2021
5134 Clouds -4 993 87 10000 1.54 60 13:43 24.10.2021
5135 Clouds -4 994 89 10000 2.06 170 12:29 24.10.2021
5136 Clouds -4 993 89 10000 0 0 11:36 24.10.2021
5137 Clear -4 992 91 10000 0 0 10:40 24.10.2021
5138 Clear -3 991 86 10000 0 0 08:43 24.10.2021
5139 Clouds 1 987 79 10000 0.7 293 02:58 24.10.2021
5140 Clear 0 986 83 10000 0 0 23:55 23.10.2021
5141 Clear 0 983 84 10000 0 0 22:54 23.10.2021
5142 Clear -5 983 92 10000 0 0 20:59 23.10.2021
5143 Clear -5 983 90 10000 0 0 19:36 23.10.2021
5144 Clear -4 982 89 10000 0 0 18:43 23.10.2021
5145 Clear -4 982 89 10000 0 0 17:44 23.10.2021
5146 Clear -3 981 91 10000 0 0 16:53 23.10.2021
5147 Clear -2 981 89 10000 0 0 15:56 23.10.2021
5148 Clouds -2 981 89 10000 0 0 13:31 23.10.2021
5149 Clouds 3 980 71 10000 0.45 156 00:42 23.10.2021
5150 Clouds 1 981 80 10000 0 0 23:35 22.10.2021
5151 Clouds -3 982 85 10000 0 0 21:27 22.10.2021
5152 Clouds -5 983 86 10000 0 0 19:24 22.10.2021
5153 Clouds -6 984 86 10000 0 0 18:24 22.10.2021
5154 Clear -6 984 87 10000 0 0 16:27 22.10.2021
5155 Clear -9 987 90 10000 0 0 14:35 22.10.2021
5156 Clear -6 989 88 10000 0 0 12:41 22.10.2021
5157 Clear -6 990 89 10000 0 0 10:56 22.10.2021
5158 Clear -7 991 91 10000 0 0 09:57 22.10.2021
5159 Clear -6 991 89 10000 0 0 09:32 22.10.2021
5160 Clear -4 993 84 10000 0 0 07:29 22.10.2021
5161 Clear -4 993 83 10000 0 0 06:20 22.10.2021
5162 Clouds -1 994 78 10000 2.06 240 00:40 22.10.2021
5163 Clouds -1 995 79 10000 1.34 194 23:49 21.10.2021
5164 Clouds -1 994 80 10000 1.54 220 22:40 21.10.2021
5165 Clear -3 994 82 10000 0 0 21:23 21.10.2021
5166 Clear -3 994 83 10000 0 0 20:21 21.10.2021
5167 Clouds -5 995 86 10000 0 0 19:31 21.10.2021
5168 Clouds -4 995 85 10000 0 0 18:59 21.10.2021
5169 Clouds -4 995 84 10000 0 0 18:30 21.10.2021
5170 Clouds -4 995 85 10000 0 0 17:47 21.10.2021
5171 Clouds -4 996 83 10000 0 0 16:40 21.10.2021
5172 Clouds -4 996 83 10000 0 0 15:22 21.10.2021
5173 Clouds -3 996 83 10000 0 0 14:50 21.10.2021
5174 Clouds -3 997 82 10000 0 0 13:39 21.10.2021
5175 Clouds -3 997 80 10000 0 0 11:47 21.10.2021
5176 Clouds -2 996 77 10000 0 0 09:26 21.10.2021
5177 Clouds -2 997 76 10000 0 0 07:33 21.10.2021
5178 Clouds -1 995 75 10000 0 0 06:28 21.10.2021
5179 Clouds 2 995 63 10000 0.45 190 00:32 21.10.2021
5180 Clouds 0 994 72 10000 0 0 22:23 20.10.2021
5181 Clouds -1 994 76 10000 0 0 21:47 20.10.2021
5182 Clouds -2 993 79 10000 0.89 84 20:58 20.10.2021
5183 Clouds -3 993 80 10000 0 0 20:37 20.10.2021
5184 Clouds -5 993 83 10000 1.17 41 20:00 20.10.2021
5185 Clear -6 993 84 10000 0 0 19:19 20.10.2021
5186 Clear -5 992 82 10000 0 0 18:29 20.10.2021
5187 Clear -5 992 82 10000 0 0 18:29 20.10.2021
5188 Clouds -3 991 75 10000 0 0 16:27 20.10.2021
5189 Clouds -3 989 77 10000 3.09 60 13:46 20.10.2021
5190 Clear -2 988 73 10000 2.57 70 09:52 20.10.2021
5191 Clouds 1 988 63 10000 3.09 60 05:29 20.10.2021
5192 Clouds 2 990 57 10000 4.12 70 01:27 20.10.2021
5193 Clouds 1 991 57 10000 4.63 70 00:32 20.10.2021
5194 Clouds -2 993 70 10000 2.57 80 22:28 19.10.2021
5195 Clouds -3 994 70 10000 0 0 21:33 19.10.2021
5196 Clouds -6 996 80 10000 3.6 70 20:26 19.10.2021
5197 Clouds -6 996 78 10000 3.6 70 19:56 19.10.2021
5198 Clouds -6 996 77 10000 3.6 70 19:29 19.10.2021
5199 Clouds -7 997 79 10000 3.09 80 18:31 19.10.2021
5200 Clear -7 999 79 10000 0 0 17:20 19.10.2021
5201 Clear -8 1000 83 10000 2.06 60 15:26 19.10.2021
5202 Clear -7 1001 81 10000 0 0 14:31 19.10.2021
5203 Clear -6 1002 79 10000 0 0 13:49 19.10.2021
5204 Clear -4 1002 76 10000 1.92 32 11:59 19.10.2021
5205 Clear -5 1002 75 10000 2.06 70 11:23 19.10.2021
5206 Clear -4 1003 76 10000 0 0 09:42 19.10.2021
5207 Clear -3 1003 72 10000 0 0 08:56 19.10.2021
5208 Clouds 1 1005 61 10000 2.06 80 00:36 19.10.2021
5209 Clouds -1 1006 67 10000 0 0 23:56 18.10.2021
5210 Clouds -1 1006 67 10000 0 0 23:36 18.10.2021
5211 Clouds -2 1005 75 10000 0 0 22:55 18.10.2021
5212 Clouds -3 1005 74 10000 0 0 22:18 18.10.2021
5213 Smoke -6 1005 81 10000 0 0 20:46 18.10.2021
5214 Smoke -7 1005 83 10000 0 0 20:21 18.10.2021
5215 Clear -7 1005 84 10000 0 0 19:31 18.10.2021
5216 Clouds -6 1005 84 10000 0.47 51 18:58 18.10.2021
5217 Clear -8 1005 85 10000 0 0 18:58 18.10.2021
5218 Clear -5 1005 82 10000 0 0 16:33 18.10.2021
5219 Clear -5 1004 79 10000 0 0 14:42 18.10.2021
5220 Clear -5 1004 82 10000 0 0 11:53 18.10.2021
5221 Clear -5 1003 83 10000 0 0 09:47 18.10.2021
5222 Clear -3 1003 76 10000 0 0 07:31 18.10.2021
5223 Clear -1 1001 68 10000 1.54 110 00:29 18.10.2021
5224 Clear -4 1001 76 10000 3.09 70 22:30 17.10.2021
5225 Clear -5 1000 78 10000 3.6 70 21:44 17.10.2021
5226 Clear -7 1000 83 10000 2.06 60 20:56 17.10.2021
5227 Clear -7 1001 83 10000 2.06 60 19:59 17.10.2021
5228 Clear -8 1001 85 10000 2.06 60 19:38 17.10.2021
5229 Clouds -7 1001 84 10000 0.45 49 18:28 17.10.2021
5230 Clear -7 1002 86 10000 3.6 70 16:40 17.10.2021
5231 Clear -7 1003 87 10000 3.6 70 14:40 17.10.2021
5232 Clear -7 1003 87 10000 3.6 70 14:20 17.10.2021
5233 Clear -6 1003 88 10000 2.06 70 13:33 17.10.2021
5234 Clear -5 1005 86 10000 0 0 11:31 17.10.2021
5235 Clouds -3 1007 84 10000 0 0 10:19 17.10.2021
5236 Clouds -2 1007 81 10000 2.06 110 08:47 17.10.2021
5237 Clouds -2 1011 83 10000 0 0 03:21 17.10.2021
5238 Clouds -2 1013 86 10000 2.06 90 00:35 17.10.2021
5239 Clouds -3 1013 88 10000 0 0 23:22 16.10.2021
5240 Clouds -4 1014 92 10000 0 0 20:55 16.10.2021
5241 Snow -4 1014 91 10000 0 0 20:29 16.10.2021
5242 Clouds -4 1014 91 10000 0 0 19:41 16.10.2021
5243 Mist -4 1014 92 10000 0 0 19:20 16.10.2021
5244 Snow -4 1014 91 10000 0 0 18:45 16.10.2021
5245 Snow -4 1014 92 10000 1.54 130 18:24 16.10.2021
5246 Snow -3 1014 91 4828 0 0 17:35 16.10.2021
5247 Snow -4 1014 92 4828 0 0 16:28 16.10.2021
5248 Clouds -4 1013 92 10000 0 0 13:26 16.10.2021
5249 Snow -3 1012 89 4023 0 0 11:25 16.10.2021
5250 Snow -3 1011 87 10000 1.54 170 09:38 16.10.2021
5251 Snow -2 1008 82 9656 0 0 04:47 16.10.2021
5252 Clouds -2 1006 78 10000 0 0 01:24 16.10.2021
5253 Snow -2 1005 79 10000 0 0 23:27 15.10.2021
5254 Snow -3 1004 77 10000 0 0 22:22 15.10.2021
5255 Snow -3 1004 79 10000 0 0 21:45 15.10.2021
5256 Snow -4 1003 81 10000 0 0 21:19 15.10.2021
5257 Snow -5 1003 82 10000 0 0 20:41 15.10.2021
5258 Snow -5 1002 81 10000 1.54 60 19:21 15.10.2021
5259 Snow -5 1001 80 10000 0 0 18:29 15.10.2021
5260 Clouds -4 1000 80 10000 0 0 16:26 15.10.2021
5261 Clouds -4 1000 80 10000 2.06 80 15:22 15.10.2021
5262 Clouds -4 999 81 10000 0 0 12:28 15.10.2021
5263 Clouds -4 999 81 10000 0 0 12:28 15.10.2021
5264 Clouds -4 998 82 10000 1.54 40 11:20 15.10.2021
5265 Clouds -3 998 81 10000 0 0 10:34 15.10.2021
5266 Clouds -3 997 84 10000 1.54 90 08:36 15.10.2021
5267 Clouds -1 997 79 10000 2.06 230 05:31 15.10.2021
5268 Clouds 0 996 73 10000 0 0 00:30 15.10.2021
5269 Clouds -1 996 75 10000 0 0 23:45 14.10.2021
5270 Clouds -1 996 76 10000 0 0 22:44 14.10.2021
5271 Clouds -2 996 80 10000 2.06 90 21:41 14.10.2021
5272 Clouds -2 996 82 10000 0 0 20:23 14.10.2021
5273 Snow -3 996 84 10000 1.54 30 19:52 14.10.2021
5274 Snow -3 995 82 10000 0 0 18:50 14.10.2021
5275 Snow -2 995 81 10000 1.54 40 17:25 14.10.2021
5276 Snow -2 995 81 10000 0 0 16:46 14.10.2021
5277 Clouds -2 995 81 10000 1.54 30 15:24 14.10.2021
5278 Clouds -2 994 76 10000 0 0 14:40 14.10.2021
5279 Clouds -2 994 77 10000 1.54 60 13:35 14.10.2021
5280 Snow -2 994 69 10000 2.06 70 11:43 14.10.2021
5281 Snow -1 993 69 9656 1.54 60 09:50 14.10.2021
5282 Clouds -3 996 86 10000 1.31 30 06:47 14.10.2021
5283 Clouds 0 992 71 10000 1.2 23 00:54 14.10.2021
5284 Clouds -1 992 71 10000 0 0 22:51 13.10.2021
5285 Clouds -1 992 74 10000 0 0 21:41 13.10.2021
5286 Clouds -2 992 76 10000 0 0 20:46 13.10.2021
5287 Clouds -2 992 79 10000 0 0 19:47 13.10.2021
5288 Clouds -2 992 77 10000 0 0 18:49 13.10.2021
5289 Clouds -2 992 77 10000 0 0 18:49 13.10.2021
5290 Clouds -2 992 82 10000 0 0 17:36 13.10.2021
5291 Clouds -2 992 81 10000 0 0 15:23 13.10.2021
5292 Clouds -2 991 83 10000 0 0 14:44 13.10.2021
5293 Clouds -3 990 83 10000 0 0 12:54 13.10.2021
5294 Clouds -3 990 82 10000 0 0 11:55 13.10.2021
5295 Clouds -2 989 80 10000 0 0 10:21 13.10.2021
5296 Clouds -1 989 83 10000 0 0 07:56 13.10.2021
5297 Snow 0 989 78 9656 1.54 0 05:41 13.10.2021
5298 Clouds 2 989 75 10000 1.54 230 02:24 13.10.2021
5299 Clouds 1 990 74 10000 0.45 134 23:54 12.10.2021
5300 Clouds 1 990 74 10000 0.45 134 23:28 12.10.2021
5301 Clouds 1 990 75 10000 1.54 240 22:42 12.10.2021
5302 Clouds -1 990 80 10000 0 0 20:55 12.10.2021
5303 Clouds -2 990 82 10000 0 0 20:32 12.10.2021
5304 Clouds -2 991 84 10000 0 0 19:51 12.10.2021
5305 Clear -3 991 84 10000 0 0 18:27 12.10.2021
5306 Clear -3 991 84 10000 0 0 17:35 12.10.2021
5307 Clear -4 992 84 10000 0 0 16:35 12.10.2021
5308 Clear -3 992 84 10000 0 0 15:43 12.10.2021
5309 Clear -3 993 81 10000 0 0 14:25 12.10.2021
5310 Clear -3 993 82 10000 1.54 40 13:41 12.10.2021
5311 Clear -3 994 80 10000 2.06 60 11:36 12.10.2021
5312 Clear -2 995 78 10000 3.6 60 09:41 12.10.2021
5313 Clear -1 995 78 10000 3.09 70 08:42 12.10.2021
5314 Clouds 0 996 77 10000 3.6 80 06:49 12.10.2021
5315 Clear 2 996 71 10000 2.06 60 05:29 12.10.2021
5316 Clouds 4 997 63 10000 2.57 60 04:29 12.10.2021
5317 Clear 4 1000 72 10000 4.12 70 00:18 12.10.2021
5318 Clear 4 1000 72 10000 4.12 70 00:18 12.10.2021
5319 Clear 4 1000 72 10000 4.12 70 00:18 12.10.2021
5320 Clear 3 1001 77 10000 3.09 70 23:37 11.10.2021
5321 Clouds 2 1001 82 10000 3.09 60 22:55 11.10.2021
5322 Clouds 1 1001 85 10000 4.12 70 21:41 11.10.2021
5323 Clear -2 1003 91 10000 3.6 60 20:32 11.10.2021
5324 Clear -2 1003 92 10000 2.57 60 19:36 11.10.2021
5325 Clear -2 1004 92 10000 3.6 60 18:24 11.10.2021
5326 Clear -2 1005 92 10000 3.09 60 16:48 11.10.2021
5327 Clear -2 1005 92 10000 3.09 60 16:28 11.10.2021
5328 Clear -1 1006 92 10000 4.12 60 15:45 11.10.2021
5329 Clouds -1 1007 93 10000 3.09 60 14:54 11.10.2021
5330 Clouds -1 1008 93 10000 3.09 60 14:22 11.10.2021
5331 Clouds 0 1007 94 10000 3.6 60 13:36 11.10.2021
5332 Clouds 0 1008 96 10000 3.6 60 11:25 11.10.2021
5333 Mist 1 1010 95 10000 2.06 50 09:55 11.10.2021
5334 Clouds 0 1010 95 10000 2.57 50 08:41 11.10.2021
5335 Mist 1 1013 94 9656 0 0 03:47 11.10.2021
5336 Snow 2 1013 94 10000 2.06 160 01:34 11.10.2021
5337 Snow 2 1013 94 10000 1.54 160 00:43 11.10.2021
5338 Rain 2 1013 94 10000 2.06 190 23:52 10.10.2021
5339 Mist 1 1012 95 4828 0 0 21:51 10.10.2021
5340 Mist 1 1012 95 4828 0 0 21:51 10.10.2021
5341 Mist 1 1012 95 4828 0 0 21:28 10.10.2021
5342 Mist 1 1011 95 1609 2.06 210 20:41 10.10.2021
5343 Fog 1 1011 94 10000 0.45 163 20:20 10.10.2021
5344 Snow 0 1011 95 10000 0.45 160 19:51 10.10.2021
5345 Mist 0 1011 95 10000 1.54 210 19:31 10.10.2021
5346 Snow 0 1010 94 10000 2.57 210 18:28 10.10.2021
5347 Snow 0 1008 94 4426 2.06 200 15:57 10.10.2021
5348 Snow 0 1008 94 9656 1.54 210 15:38 10.10.2021
5349 Clouds 1 1006 94 10000 0 0 13:42 10.10.2021
5350 Clouds 1 1006 93 10000 1.54 250 12:44 10.10.2021
5351 Clouds 1 1005 94 10000 0 0 12:23 10.10.2021
5352 Clouds 1 1003 93 10000 2.57 240 10:33 10.10.2021
5353 Clouds 1 1002 93 10000 2.06 230 09:27 10.10.2021
5354 Snow 1 1001 93 10000 1.54 240 08:52 10.10.2021
5355 Rain 2 999 92 10000 3.09 220 06:36 10.10.2021
5356 Rain 3 995 83 10000 2.06 260 02:28 10.10.2021
5357 Clouds 3 993 86 10000 1.54 270 00:54 10.10.2021
5358 Clouds 3 993 86 10000 1.54 270 00:54 10.10.2021
5359 Clouds 3 993 87 10000 1.54 240 23:52 09.10.2021
5360 Clouds 2 991 90 10000 0 0 22:26 09.10.2021
5361 Clouds 2 990 91 10000 0 0 21:30 09.10.2021
5362 Clouds 2 990 91 10000 0 0 21:30 09.10.2021
5363 Rain 1 989 91 10000 0 0 20:43 09.10.2021
5364 Mist 1 988 92 9656 0 0 19:41 09.10.2021
5365 Snow 1 988 92 10000 0 0 18:51 09.10.2021
5366 Snow 1 988 91 10000 0 0 18:27 09.10.2021
5367 Snow 0 986 91 10000 0 0 16:26 09.10.2021
5368 Clouds 1 986 91 10000 0 0 14:57 09.10.2021
5369 Clouds 0 985 89 10000 0 0 13:40 09.10.2021
5370 Clouds 0 984 89 10000 1.54 60 12:35 09.10.2021
5371 Clouds 0 984 91 10000 2.06 220 11:26 09.10.2021
5372 Rain 1 983 88 10000 2.06 60 10:22 09.10.2021
5373 Clouds 0 983 90 10000 0 0 09:29 09.10.2021
5374 Clouds 1 983 89 10000 2.57 80 08:28 09.10.2021
5375 Clouds 2 984 88 10000 2.06 60 06:47 09.10.2021
5376 Clouds 3 983 84 10000 2.06 60 05:27 09.10.2021
5377 Clouds 5 984 77 10000 2.57 70 02:48 09.10.2021
5378 Clouds 5 985 76 10000 4.12 60 00:45 09.10.2021
5379 Clouds 4 986 79 10000 3.09 50 23:35 08.10.2021
5380 Clear 3 986 84 10000 4.63 80 22:49 08.10.2021
5381 Clouds 2 988 86 10000 6.17 60 21:47 08.10.2021
5382 Clouds 1 991 89 10000 3.6 60 20:31 08.10.2021
5383 Clear 0 989 93 10000 3.6 60 18:50 08.10.2021
5384 Clear 0 990 93 10000 3.6 60 17:26 08.10.2021
5385 Clear 0 991 94 10000 3.6 50 16:45 08.10.2021
5386 Clear 0 991 94 10000 3.6 50 16:22 08.10.2021
5387 Clear 0 994 96 10000 2.06 70 13:49 08.10.2021
5388 Clouds 1 997 97 10000 4.12 70 11:57 08.10.2021
5389 Drizzle 1 998 97 10000 3.6 70 10:59 08.10.2021
5390 Mist 1 998 96 6437 3.09 60 10:25 08.10.2021
5391 Mist 2 1001 96 1609 1.54 170 06:51 08.10.2021
5392 Mist 3 1001 95 9656 2.57 210 23:29 07.10.2021
5393 Drizzle 3 1001 96 6437 0 0 22:56 07.10.2021
5394 Rain 2 1001 96 4828 1.54 70 21:33 07.10.2021
5395 Rain 1 1001 95 6437 1.54 60 20:49 07.10.2021
5396 Rain 1 1000 95 6437 2.06 80 19:39 07.10.2021
5397 Rain 1 1000 94 6437 0 0 18:59 07.10.2021
5398 Rain 1 1000 94 9656 0 0 17:38 07.10.2021
5399 Mist 1 1000 94 6437 1.54 80 16:42 07.10.2021
5400 Clouds 1 999 95 111 1.28 86 14:57 07.10.2021
5401 Rain 1 998 94 10000 2.57 70 13:44 07.10.2021
5402 Rain 1 998 94 10000 2.57 70 13:20 07.10.2021
5403 Rain 1 997 93 8047 0 0 11:48 07.10.2021
5404 Rain 1 998 91 6437 3.09 220 10:48 07.10.2021
5405 Rain 1 998 91 6437 3.09 220 10:48 07.10.2021
5406 Rain 2 997 83 9656 2.06 240 09:51 07.10.2021
5407 Clouds 2 996 80 10000 0.45 128 08:55 07.10.2021
5408 Clouds 2 996 82 10000 2.57 270 08:25 07.10.2021
5409 Clouds 2 996 80 10000 0 0 07:40 07.10.2021
5410 Clouds 2 995 80 10000 4.12 50 06:47 07.10.2021
5411 Rain 5 997 67 10000 1.54 50 02:21 07.10.2021
5412 Rain 4 999 69 10000 3.09 70 23:35 06.10.2021
5413 Rain 3 1000 72 10000 3.09 80 22:41 06.10.2021
5414 Rain 2 1001 79 10000 3.09 70 21:41 06.10.2021
5415 Clouds 0 1002 82 10000 2.57 40 20:34 06.10.2021
5416 Clouds -2 1003 89 10000 2.06 60 19:26 06.10.2021
5417 Clouds -3 1004 90 10000 2.06 60 18:20 06.10.2021
5418 Clouds -3 1006 91 10000 3.09 60 16:44 06.10.2021
5419 Clouds -3 1007 91 10000 2.06 60 15:24 06.10.2021
5420 Clouds -3 1008 93 10000 2.57 90 13:31 06.10.2021
5421 Clouds -3 1009 92 10000 1.54 80 12:53 06.10.2021
5422 Clouds -2 1009 91 10000 1.54 80 12:29 06.10.2021
5423 Clouds -2 1009 92 10000 2.06 80 11:39 06.10.2021
5424 Clouds -1 1010 94 10000 1.54 90 09:57 06.10.2021
5425 Clouds -1 1010 94 10000 1.54 90 09:37 06.10.2021
5426 Fog -1 1010 92 10000 0 0 08:39 06.10.2021
5427 Clouds 0 1010 91 10000 0 0 06:19 06.10.2021
5428 Snow 1 1010 87 10000 1.54 100 04:56 06.10.2021
5429 Rain 2 1011 86 10000 1.54 70 00:25 06.10.2021
5430 Rain 2 1011 87 10000 2.06 90 23:52 05.10.2021
5431 Rain 2 1011 86 10000 2.06 90 23:52 05.10.2021
5432 Rain 1 1011 88 10000 2.06 90 23:32 05.10.2021
5433 Rain 0 1011 89 10000 1.54 90 22:38 05.10.2021
5434 Clear 0 1011 91 10000 2.06 80 21:57 05.10.2021
5435 Clear -2 1011 90 10000 2.06 80 21:32 05.10.2021
5436 Clear -2 1011 90 10000 0 0 20:38 05.10.2021
5437 Clear -3 1011 91 10000 0 0 20:18 05.10.2021
5438 Clouds -4 1012 93 10000 0 0 19:25 05.10.2021
5439 Clear -4 1012 92 10000 0 0 18:21 05.10.2021
5440 Clear -4 1013 92 10000 3.6 80 16:18 05.10.2021
5441 Clouds -3 1014 93 10000 2.06 0 14:29 05.10.2021
5442 Clear -4 1014 91 10000 0 0 13:27 05.10.2021
5443 Mist -4 1015 92 2213 0 0 12:35 05.10.2021
5444 Mist -4 1015 91 2615 0 0 11:41 05.10.2021
5445 Mist -3 1015 92 1006 0 0 10:39 05.10.2021
5446 Fog -2 1016 94 805 0 0 08:38 05.10.2021
5447 Snow 0 1019 89 10000 2.57 50 01:47 05.10.2021
5448 Clouds 0 1020 92 10000 2.06 50 23:40 04.10.2021
5449 Snow -1 1020 93 10000 0 0 21:42 04.10.2021
5450 Clouds -2 1021 95 10000 0 0 18:54 04.10.2021
5451 Snow -1 1021 94 10000 0 0 17:44 04.10.2021
5452 Snow -1 1021 95 3219 0 0 15:59 04.10.2021
5453 Snow -1 1021 94 3219 0 0 15:29 04.10.2021
5454 Snow -1 1021 95 10000 0 0 14:34 04.10.2021
5455 Snow -1 1021 95 10000 0 0 13:47 04.10.2021
5456 Snow -1 1021 95 10000 0 0 13:23 04.10.2021
5457 Snow -1 1020 94 10000 0 0 11:34 04.10.2021
5458 Snow -1 1020 94 10000 0 0 10:47 04.10.2021
5459 Mist -1 1020 94 9656 0 0 09:47 04.10.2021
5460 Mist 0 1019 94 4426 1.54 200 08:30 04.10.2021
5461 Snow 0 1019 94 10000 2.57 220 06:51 04.10.2021
5462 Snow 1 1015 95 9656 0.45 220 23:42 03.10.2021
5463 Mist 1 1014 95 4023 0.45 221 22:32 03.10.2021
5464 Snow 1 1013 95 6437 0.45 217 21:35 03.10.2021
5465 Snow 0 1013 95 10000 3.6 240 20:50 03.10.2021
5466 Snow 0 1011 95 3621 1.54 230 19:54 03.10.2021
5467 Mist 0 1011 94 10000 2.57 230 18:31 03.10.2021
5468 Snow 0 1010 96 10000 2.57 220 17:40 03.10.2021
5469 Snow 0 1008 96 10000 2.06 220 15:30 03.10.2021
5470 Snow 0 1008 96 10000 2.06 240 14:39 03.10.2021
5471 Snow 0 1007 95 10000 2.57 240 13:40 03.10.2021
5472 Rain 0 1007 95 10000 2.57 250 13:20 03.10.2021
5473 Mist 0 1006 96 9656 2.06 240 11:49 03.10.2021
5474 Mist 0 1005 95 8047 2.57 250 10:33 03.10.2021
5475 Snow 0 1003 95 4828 0 0 08:33 03.10.2021
5476 Snow 1 997 94 3219 2.06 260 00:26 03.10.2021
5477 Mist 0 995 95 4828 3.09 280 22:23 02.10.2021
5478 Rain 0 994 94 10000 3.6 250 20:50 02.10.2021
5479 Snow -1 994 94 4426 4.12 250 18:59 02.10.2021
5480 Snow -1 994 94 3621 4.12 250 18:31 02.10.2021
5481 Mist -2 993 94 3018 0 0 17:38 02.10.2021
5482 Clouds -2 993 93 10000 0 0 16:46 02.10.2021
5483 Mist -3 993 94 10000 2.57 270 14:42 02.10.2021
5484 Clouds -3 998 75 10000 0 0 15:41 30.09.2021
5485 Clouds -3 999 77 10000 0.51 0 14:42 30.09.2021
5486 Clouds -3 999 75 10000 0.51 280 12:22 30.09.2021
5487 Clouds -3 1000 77 10000 1.54 0 11:29 30.09.2021
5488 Clouds -3 1000 78 10000 0.51 50 10:36 30.09.2021
5489 Clouds -3 1002 79 10000 0.51 120 08:54 30.09.2021
5490 Clouds -3 1002 79 10000 0.51 120 08:22 30.09.2021
5491 Clouds -2 1003 77 10000 0 0 05:50 30.09.2021
5492 Clouds -3 1004 72 10000 2.06 30 02:33 30.09.2021
5493 Clouds -4 1005 74 10000 0 0 00:37 30.09.2021
5494 Clouds 0 1005 59 10000 0.62 152 22:59 29.09.2021
5495 Clouds -5 1004 82 10000 0 0 21:54 29.09.2021
5496 Clouds -5 1004 85 10000 1.54 60 20:41 29.09.2021
5497 Clouds -5 1004 87 10000 1.54 60 20:20 29.09.2021
5498 Clouds -7 1004 89 10000 1.54 40 19:26 29.09.2021
5499 Clouds -7 1004 89 10000 0 0 18:18 29.09.2021
5500 Clear -7 1004 90 10000 1.54 70 16:56 29.09.2021
5501 Clear -9 1004 89 10000 1.54 70 16:56 29.09.2021
5502 Clear -7 1004 88 10000 1.54 70 16:29 29.09.2021
5503 Clear -7 1005 88 10000 1.54 60 15:35 29.09.2021
5504 Clear -7 1004 89 10000 1.54 80 14:38 29.09.2021
5505 Clear -7 1004 87 10000 2.06 80 13:33 29.09.2021
5506 Clear -5 1004 86 10000 2.06 70 12:40 29.09.2021
5507 Clear -6 1005 85 10000 2.06 60 11:23 29.09.2021
5508 Clear -5 1004 84 10000 1.54 80 10:32 29.09.2021
5509 Clear -5 1004 83 10000 0 0 09:43 29.09.2021
5510 Clear -3 1004 78 10000 0 0 07:55 29.09.2021
5511 Clouds -3 1003 74 10000 0 0 06:49 29.09.2021
5512 Clouds 0 1002 65 10000 0 0 00:43 29.09.2021
5513 Clear -1 1001 76 10000 0 0 22:52 28.09.2021
5514 Clear -2 1002 77 10000 0 0 22:22 28.09.2021
5515 Clear -4 1002 82 10000 0 0 21:24 28.09.2021
5516 Clouds -4 1001 83 10000 0.51 70 20:24 28.09.2021
5517 Clouds -5 1001 84 10000 0.51 70 19:40 28.09.2021
5518 Clouds -6 1001 84 10000 1.03 80 18:42 28.09.2021
5519 Clouds -6 1001 85 10000 0 0 17:29 28.09.2021
5520 Clouds -5 1001 83 10000 0 0 15:21 28.09.2021
5521 Clear -5 1001 83 10000 0.51 0 13:28 28.09.2021
5522 Clear -4 1000 85 10000 0.51 0 12:27 28.09.2021
5523 Clear -4 1000 85 10000 0.51 70 11:55 28.09.2021
5524 Clear -4 1000 85 10000 0.51 70 11:35 28.09.2021
5525 Clear -3 1001 86 10000 0 0 10:33 28.09.2021
5526 Clear -3 1001 86 10000 0.51 70 09:33 28.09.2021
5527 Clear -2 1001 86 10000 0.51 80 08:44 28.09.2021
5528 Clear -3 1001 86 10000 0.51 80 08:25 28.09.2021
5529 Clear 0 1002 73 10000 1.03 130 06:46 28.09.2021
5530 Clear 3 1001 69 10000 1.54 0 04:39 28.09.2021
5531 Clouds 2 1004 70 10000 1.03 70 01:22 28.09.2021
5532 Snow 1 1005 74 10000 0.51 0 23:54 27.09.2021
5533 Clouds 1 1005 75 10000 1.54 30 23:28 27.09.2021
5534 Clouds 0 1006 75 10000 0.51 0 22:44 27.09.2021
5535 Clouds 0 1006 76 10000 0.51 70 21:41 27.09.2021
5536 Clouds -1 1007 78 10000 1.54 70 20:38 27.09.2021
5537 Clouds -1 1008 81 10000 0.51 60 19:41 27.09.2021
5538 Clouds -1 1008 73 10000 0.51 60 19:22 27.09.2021
5539 Clouds 0 1008 69 10000 1.03 80 18:27 27.09.2021
5540 Clouds -1 1009 80 10000 0 0 17:22 27.09.2021
5541 Clouds 0 1009 74 10000 0 0 16:41 27.09.2021
5542 Clouds 0 1010 75 10000 0 0 15:42 27.09.2021
5543 Clouds 0 1010 75 10000 1.03 0 14:32 27.09.2021
5544 Clouds 0 1011 75 10000 0.51 70 13:30 27.09.2021
5545 Clouds 0 1012 74 10000 0.51 0 11:20 27.09.2021
5546 Clouds -1 1013 98 9700 1.1 44 09:53 27.09.2021
5547 Clouds 1 1012 69 10000 0 0 08:38 27.09.2021
5548 Clouds 0 1012 78 10000 2.06 190 05:21 27.09.2021
5549 Clouds 1 1013 75 10000 0.5 145 02:59 27.09.2021
5550 Clouds 0 1013 82 10000 0.45 239 22:32 26.09.2021
5551 Clouds 0 1013 86 10000 0 0 21:49 26.09.2021
5552 Mist -1 1013 91 8047 2.06 40 20:52 26.09.2021
5553 Mist -1 1013 92 8047 2.06 40 20:20 26.09.2021
5554 Mist -1 1013 91 8047 0 0 19:38 26.09.2021
5555 Clouds -2 1012 92 10000 0 0 18:45 26.09.2021
5556 Clouds -2 1012 93 7436 0.85 200 17:54 26.09.2021
5557 Clouds -2 1012 93 10000 0 0 17:21 26.09.2021
5558 Clouds -2 1012 93 8610 0.55 200 16:30 26.09.2021
5559 Clouds -2 1012 93 7995 0.3 184 15:58 26.09.2021
5560 Clouds -2 1012 93 3573 0.07 233 14:46 26.09.2021
5561 Clouds -1 1013 92 10000 0 0 13:54 26.09.2021
5562 Clouds -2 1013 97 4546 0.22 20 12:56 26.09.2021
5563 Clouds 0 1012 86 10000 1.54 180 12:20 26.09.2021
5564 Clouds 1 1011 86 10000 0 0 11:37 26.09.2021
5565 Clouds -1 1011 86 10000 0 0 10:23 26.09.2021
5566 Clouds -1 1010 93 10000 0.47 343 08:56 26.09.2021
5567 Clouds -1 1010 92 10000 0.66 299 06:32 26.09.2021
5568 Snow 1 1010 89 10000 0 0 00:21 26.09.2021
5569 Snow 1 1010 88 9656 0 0 23:24 25.09.2021
5570 Snow 0 1010 90 9656 0 0 22:38 25.09.2021
5571 Snow 0 1010 92 10000 0.56 64 21:55 25.09.2021
5572 Snow 0 1009 91 10000 1.54 350 21:31 25.09.2021
5573 Snow -1 1009 92 10000 1.54 360 20:45 25.09.2021
5574 Snow -2 1009 94 711 0.6 37 18:55 25.09.2021
5575 Snow -2 1008 94 412 0.49 28 17:55 25.09.2021
5576 Snow -2 1008 94 6437 0 0 15:48 25.09.2021
5577 Snow -1 1008 94 629 0.39 299 13:57 25.09.2021
5578 Snow -1 1008 94 8047 0 0 13:30 25.09.2021
5579 Snow -1 1007 93 8047 0 0 12:25 25.09.2021
5580 Snow -1 1007 93 10000 0 0 10:34 25.09.2021
5581 Snow -1 1007 93 3219 1.54 170 09:26 25.09.2021
5582 Snow 0 1006 94 4023 2.06 160 07:55 25.09.2021
5583 Snow 0 1005 91 1609 1.03 200 05:46 25.09.2021
5584 Rain 1 1001 87 4023 1.03 0 23:50 24.09.2021
5585 Snow 0 999 89 4828 0.51 0 21:42 24.09.2021
5586 Snow 0 998 90 4023 2.57 360 20:34 24.09.2021
5587 Snow -1 997 92 1609 0.51 0 19:47 24.09.2021
5588 Snow -1 996 91 2414 0.51 0 18:33 24.09.2021
5589 Snow -1 996 91 3219 1.03 0 17:54 24.09.2021
5590 Snow -1 996 91 3219 1.03 0 17:36 24.09.2021
5591 Snow -1 995 91 429 0.45 261 17:18 24.09.2021
5592 Snow -1 994 90 4828 2.57 290 13:57 24.09.2021
5593 Snow -1 994 90 2414 1.54 0 12:58 24.09.2021
5594 Snow 0 995 89 3219 1.03 280 12:38 24.09.2021
5595 Snow 0 995 88 4426 1.54 290 12:20 24.09.2021
5596 Snow 1 995 76 9656 0.89 13 10:25 24.09.2021
5597 Clouds 2 997 65 10000 0.45 355 08:29 24.09.2021
5598 Clouds 2 997 65 10000 0.45 191 07:33 24.09.2021
5599 Clouds 2 998 65 10000 2.57 350 06:44 24.09.2021
5600 Clouds 2 999 61 10000 0.45 360 04:54 24.09.2021
5601 Clouds 4 1004 49 10000 0.51 0 23:57 23.09.2021
5602 Clouds 2 1005 57 10000 1.03 0 22:22 23.09.2021
5603 Clouds 1 1005 60 10000 1.03 0 21:47 23.09.2021
5604 Clouds -1 1006 65 10000 0.51 0 20:33 23.09.2021
5605 Clouds -1 1007 69 10000 3.09 50 19:30 23.09.2021
5606 Clouds -3 1008 72 10000 0.51 70 17:46 23.09.2021
5607 Clear -3 1010 74 10000 0.51 0 15:28 23.09.2021
5608 Clouds -3 1010 74 10000 0.45 242 14:59 23.09.2021
5609 Clear -3 1012 73 10000 1.54 0 13:45 23.09.2021
5610 Clear -3 1011 73 10000 1.54 0 13:19 23.09.2021
5611 Clear -3 1012 73 10000 1.54 0 12:49 23.09.2021
5612 Clear -2 1012 73 10000 1.54 0 12:22 23.09.2021
5613 Clear -2 1012 72 10000 1.03 0 11:32 23.09.2021
5614 Clear -2 1013 71 10000 0.51 70 10:20 23.09.2021
5615 Clear -1 1013 70 10000 0.51 0 09:51 23.09.2021
5616 Clear 0 1013 67 10000 0.51 0 07:54 23.09.2021
5617 Clouds 4 1015 53 10000 1.03 0 03:31 23.09.2021
5618 Clouds 1 1015 70 10000 1.03 0 22:58 22.09.2021
5619 Clouds 0 1015 72 10000 1.03 0 22:28 22.09.2021
5620 Clouds -1 1015 79 10000 0.51 0 21:53 22.09.2021
5621 Clouds -1 1015 80 10000 0.51 0 21:33 22.09.2021
5622 Clouds -2 1014 82 10000 0.51 0 20:39 22.09.2021
5623 Clouds -3 1014 84 10000 0.51 0 19:29 22.09.2021
5624 Clear -4 1013 82 10000 0 0 18:37 22.09.2021
5625 Clouds -4 1013 83 10000 0 0 17:43 22.09.2021
5626 Clouds -3 1013 82 10000 0.43 296 16:37 22.09.2021
5627 Clouds -3 1013 79 10000 0 0 15:18 22.09.2021
5628 Clouds -2 1012 78 10000 0 0 13:48 22.09.2021
5629 Clouds -2 1011 76 10000 1.03 200 11:46 22.09.2021
5630 Clouds -2 1011 76 10000 0.51 280 10:44 22.09.2021
5631 Clouds -2 1010 74 10000 0.51 280 09:21 22.09.2021
5632 Clouds -1 1010 70 10000 0 0 08:22 22.09.2021
5633 Clouds 0 1010 69 10000 1.92 271 06:59 22.09.2021
5634 Clouds 1 1009 64 10000 0.45 229 05:53 22.09.2021
5635 Clouds 1 1009 61 10000 1.03 0 05:32 22.09.2021
5636 Clouds 2 1010 57 10000 2.06 0 03:48 22.09.2021
5637 Clouds 2 1009 62 10000 0.45 221 00:21 22.09.2021
5638 Clouds 1 1010 61 10000 0.45 218 22:52 21.09.2021
5639 Clouds 0 1010 64 10000 1.54 0 21:33 21.09.2021
5640 Clouds -1 1010 71 10000 1.97 268 20:26 21.09.2021
5641 Clouds -1 1010 75 10000 1.78 256 19:20 21.09.2021
5642 Clouds -2 1009 77 10000 1.61 255 17:35 21.09.2021
5643 Clouds -2 1009 77 10000 1.03 200 16:34 21.09.2021
5644 Clouds -1 1009 75 10000 0.51 200 15:38 21.09.2021
5645 Clouds -1 1008 76 10000 1.54 0 14:57 21.09.2021
5646 Clouds -1 1008 76 10000 1.03 0 13:56 21.09.2021
5647 Clouds -1 1008 74 10000 1.03 0 13:36 21.09.2021
5648 Clouds -1 1008 75 10000 1.54 200 11:45 21.09.2021
5649 Clouds -1 1008 68 10000 2.17 291 09:58 21.09.2021
5650 Clouds 1 1008 69 10000 0.51 210 08:27 21.09.2021
5651 Clouds 3 1007 58 10000 0.51 0 06:41 21.09.2021
5652 Clouds 2 1007 55 10000 2.57 0 23:59 20.09.2021
5653 Clouds 3 1007 52 10000 3.09 290 22:25 20.09.2021
5654 Clouds 1 1007 66 10000 2.06 0 21:38 20.09.2021
5655 Rain 1 1006 70 10000 1.03 210 20:31 20.09.2021
5656 Snow 0 1005 83 10000 1.03 0 19:30 20.09.2021
5657 Clouds 1 1004 81 10000 2.57 290 17:47 20.09.2021
5658 Rain 3 1003 89 10000 1.03 0 16:43 20.09.2021
5659 Rain 3 1003 89 10000 1.03 0 16:43 20.09.2021
5660 Rain 4 1003 89 10000 0 0 15:50 20.09.2021
5661 Rain 4 1002 88 10000 0 0 15:25 20.09.2021
5662 Rain 4 1002 88 10000 0.51 280 14:24 20.09.2021
5663 Rain 5 1001 80 10000 0.51 0 12:35 20.09.2021
5664 Clouds 5 1001 78 10000 0 0 11:26 20.09.2021
5665 Clouds 6 1000 76 10000 0 0 10:24 20.09.2021
5666 Clouds 6 1001 76 10000 0.51 280 09:37 20.09.2021
5667 Clouds 6 1001 76 10000 0.51 280 09:18 20.09.2021
5668 Clouds 6 1001 73 10000 0 0 07:50 20.09.2021
5669 Clouds 8 1002 62 10000 3.6 90 01:43 20.09.2021
5670 Clouds 4 1005 82 10000 2.57 70 22:26 19.09.2021
5671 Clouds 4 1005 82 10000 2.06 60 21:43 19.09.2021
5672 Rain 3 1005 89 10000 2.57 60 20:51 19.09.2021
5673 Clouds 2 1005 91 10000 3.09 70 19:32 19.09.2021
5674 Mist 1 1006 92 9656 2.57 60 18:30 19.09.2021
5675 Clouds 2 1006 88 10000 2.57 70 17:23 19.09.2021
5676 Clouds 2 1006 82 10000 1.54 80 15:59 19.09.2021
5677 Clouds 2 1006 79 10000 1.54 80 15:31 19.09.2021
5678 Clouds 2 1006 76 10000 0 0 14:48 19.09.2021
5679 Clouds 2 1006 76 10000 2.57 70 13:29 19.09.2021
5680 Clouds 2 1006 76 10000 2.06 60 12:52 19.09.2021
5681 Clouds 2 1006 73 10000 2.57 60 11:29 19.09.2021
5682 Clouds 2 1006 73 10000 0 0 10:56 19.09.2021
5683 Clouds 2 1006 70 10000 0 0 09:49 19.09.2021
5684 Clouds 2 1006 69 10000 0 0 08:41 19.09.2021
5685 Clouds 4 1006 59 10000 4.63 270 06:43 19.09.2021
5686 Clouds 6 1005 55 10000 0.45 223 23:57 18.09.2021
5687 Clouds 6 1005 58 10000 1.79 225 22:51 18.09.2021
5688 Clouds 3 1005 82 10000 0.45 173 20:58 18.09.2021
5689 Clouds 3 1004 81 10000 0 0 20:38 18.09.2021
5690 Clouds 2 1004 84 10000 1.54 100 19:40 18.09.2021
5691 Clouds 2 1003 86 10000 1.54 100 19:21 18.09.2021
5692 Clouds 1 1003 89 10000 0 0 18:37 18.09.2021
5693 Clouds 1 1002 88 10000 2.06 100 17:46 18.09.2021
5694 Clouds 0 1002 88 10000 0 0 16:34 18.09.2021
5695 Clouds 2 1001 83 10000 0 0 13:50 18.09.2021
5696 Clouds 3 1001 82 10000 0 0 13:30 18.09.2021
5697 Clear 3 1001 82 10000 0 0 12:50 18.09.2021
5698 Clear 4 1000 78 10000 1.54 120 11:42 18.09.2021
5699 Clear 5 999 74 10000 2.06 260 10:35 18.09.2021
5700 Clouds 6 999 71 10000 2.57 320 09:48 18.09.2021
5701 Clouds 5 1000 71 10000 2.57 320 09:19 18.09.2021
5702 Clear 7 999 63 10000 3.09 290 06:54 18.09.2021
5703 Clouds 11 998 56 10000 0.89 180 00:42 18.09.2021
5704 Clouds 11 997 56 10000 0.45 190 23:52 17.09.2021
5705 Clouds 10 998 61 10000 0.45 142 22:40 17.09.2021
5706 Clear 9 998 64 10000 0.45 290 22:20 17.09.2021
5707 Clouds 7 997 73 10000 2.06 180 21:24 17.09.2021
5708 Clouds 2 997 85 10000 0 0 19:26 17.09.2021
5709 Clear 1 997 83 10000 0 0 17:29 17.09.2021
5710 Clear 2 997 82 10000 0 0 16:27 17.09.2021
5711 Clear 2 997 81 10000 0 0 14:24 17.09.2021
5712 Clear 2 988 83 10000 0 0 11:30 17.09.2021
5713 Clouds 5 989 75 10000 0 0 08:55 17.09.2021
5714 Haze 6 990 75 9656 0 0 07:33 17.09.2021
5715 Clouds 12 988 49 10000 0 0 03:58 17.09.2021
5716 Clouds 10 991 58 10000 0 0 23:36 16.09.2021
5717 Clouds 9 999 62 10000 2.57 70 22:33 16.09.2021
5718 Clouds 7 999 65 10000 2.06 60 21:52 16.09.2021
5719 Clouds 7 999 67 10000 2.06 60 21:27 16.09.2021
5720 Clouds 4 999 79 10000 3.6 70 20:24 16.09.2021
5721 Clouds 2 988 83 10000 0 0 18:24 16.09.2021
5722 Clouds 2 985 84 10000 0 0 17:54 16.09.2021
5723 Clouds 2 985 84 10000 1.26 59 14:59 16.09.2021
5724 Clouds 3 989 83 10000 0 0 14:33 16.09.2021
5725 Clouds 4 989 78 10000 3.09 90 12:52 16.09.2021
5726 Clouds 4 990 79 10000 3.09 90 12:33 16.09.2021
5727 Clear 5 990 77 10000 3.09 60 11:43 16.09.2021
5728 Clear 5 990 77 10000 3.09 60 11:43 16.09.2021
5729 Clouds 5 1002 74 10000 3.6 70 10:34 16.09.2021
5730 Clouds 6 1001 72 10000 1.35 49 09:59 16.09.2021
5731 Clouds 8 1002 64 10000 1.54 60 08:43 16.09.2021
5732 Clouds 9 1002 61 10000 1.54 60 07:36 16.09.2021
5733 Clouds 9 1000 62 10000 0.45 265 06:54 16.09.2021
5734 Clouds 10 1001 54 10000 3.09 70 05:57 16.09.2021
5735 Clouds 12 1003 52 10000 3.6 90 01:57 16.09.2021
5736 Clouds 11 1004 55 10000 3.09 60 00:37 16.09.2021
5737 Clouds 9 1005 60 10000 1.54 50 22:47 15.09.2021
5738 Clouds 9 1005 60 10000 1.54 50 22:47 15.09.2021
5739 Clouds 7 1006 68 10000 1.54 130 21:48 15.09.2021
5740 Clouds 6 1006 71 10000 1.54 130 21:29 15.09.2021
5741 Clouds 4 1005 80 10000 1.54 120 20:23 15.09.2021
5742 Clouds 2 1005 82 10000 2.06 80 19:28 15.09.2021
5743 Clear 1 1005 87 10000 0 0 18:25 15.09.2021
5744 Snow 1 1005 86 10000 0 0 17:24 15.09.2021
5745 Snow 2 1005 84 10000 0 0 16:20 15.09.2021
5746 Clear 2 1005 84 10000 1.54 60 14:45 15.09.2021
5747 Clear 2 1005 83 10000 1.54 60 14:24 15.09.2021
5748 Clear 3 1004 84 10000 0 0 13:39 15.09.2021
5749 Clear 3 1005 80 10000 0 0 13:21 15.09.2021
5750 Clear 4 1004 79 10000 1.54 60 12:21 15.09.2021
5751 Clear 4 1004 79 10000 0 0 11:41 15.09.2021
5752 Clear 5 1004 75 10000 0 0 10:56 15.09.2021
5753 Clear 4 1004 82 10000 0 0 09:30 15.09.2021
5754 Clouds 6 1003 76 10000 0 0 08:41 15.09.2021
5755 Clear 11 1002 50 10000 2.57 240 05:54 15.09.2021
5756 Clouds 12 996 54 10000 0.45 214 23:55 14.09.2021
5757 Clouds 9 1001 63 10000 1.34 121 21:58 14.09.2021
5758 Clouds 5 1001 85 10000 0 0 20:56 14.09.2021
5759 Clouds 4 1000 86 10000 0 0 19:51 14.09.2021
5760 Snow 3 998 85 10000 1.54 70 17:53 14.09.2021
5761 Snow 3 999 85 10000 1.54 70 17:28 14.09.2021
5762 Clouds 4 975 87 10000 0.45 309 15:58 14.09.2021
5763 Clear 5 986 83 10000 0 0 14:32 14.09.2021
5764 Clear 5 994 83 10000 0 0 13:20 14.09.2021
5765 Clear 7 993 79 10000 0 0 10:55 14.09.2021
5766 Clear 8 993 78 10000 0 0 09:51 14.09.2021
5767 Clear 9 993 77 10000 1.54 70 08:49 14.09.2021
5768 Clear 11 994 69 10000 0 0 06:47 14.09.2021
5769 Clouds 15 995 53 10000 0 0 00:41 14.09.2021
5770 Clouds 15 994 61 10000 1.03 114 22:58 13.09.2021
5771 Clouds 14 994 62 10000 0 0 22:24 13.09.2021
5772 Clouds 13 994 65 10000 0 0 21:53 13.09.2021
5773 Clouds 13 994 66 10000 0 0 20:51 13.09.2021
5774 Clouds 11 994 66 10000 3.6 70 19:29 13.09.2021
5775 Clouds 11 993 64 10000 2.57 70 18:43 13.09.2021
5776 Clouds 10 995 65 10000 2.31 53 16:58 13.09.2021
5777 Clear 11 994 56 10000 4.12 50 15:39 13.09.2021
5778 Clouds 11 967 54 10000 5.14 60 13:32 13.09.2021
5779 Clear 12 975 53 10000 4.63 70 11:20 13.09.2021
5780 Clear 12 979 54 10000 4.12 60 09:42 13.09.2021
5781 Clear 13 998 52 10000 4.12 70 07:28 13.09.2021
5782 Clear 16 1005 43 10000 4.63 80 23:44 12.09.2021
5783 Haze 13 1006 48 1811 3.09 80 22:26 12.09.2021
5784 Haze 10 1007 55 2012 2.57 80 21:37 12.09.2021
5785 Haze 6 1008 66 9656 0 0 20:40 12.09.2021
5786 Mist 5 1009 74 8047 0 0 19:54 12.09.2021
5787 Mist 5 1007 76 8047 0 0 19:28 12.09.2021
5788 Clear 3 1008 79 10000 0 0 18:31 12.09.2021
5789 Clear 3 1008 80 10000 0 0 16:33 12.09.2021
5790 Clouds 7 1010 65 10000 1.75 45 14:59 12.09.2021
5791 Clouds 7 1010 65 10000 1.75 45 14:59 12.09.2021
5792 Clear 3 1010 78 10000 0 0 13:51 12.09.2021
5793 Clear 4 1010 79 10000 2.57 40 11:47 12.09.2021
5794 Haze 6 1010 72 4828 3.6 80 09:41 12.09.2021
5795 Haze 6 1010 71 8047 1.54 70 08:38 12.09.2021
5796 Haze 13 1011 46 4828 1.54 40 02:39 12.09.2021
5797 Haze 11 1011 56 6437 0 0 23:52 11.09.2021
5798 Haze 11 1011 63 6437 0 0 22:25 11.09.2021
5799 Haze 9 1011 72 4828 0 0 21:36 11.09.2021
5800 Clear 6 1011 88 10000 2.06 230 19:32 11.09.2021
5801 Clear 5 1011 91 10000 4.12 220 17:52 11.09.2021
5802 Rain 7 1009 82 10000 4.12 240 15:52 11.09.2021
5803 Rain 8 1009 81 10000 6.69 240 14:22 11.09.2021
5804 Rain 9 1008 81 10000 1.34 237 13:19 11.09.2021
5805 Rain 10 1006 78 10000 1.34 239 11:34 11.09.2021
5806 Clouds 11 1004 79 10000 0.45 243 09:41 11.09.2021
5807 Rain 12 1001 75 10000 4.63 230 07:45 11.09.2021
5808 Rain 12 1000 73 10000 4.12 240 06:52 11.09.2021
5809 Rain 16 999 56 10000 0 0 00:49 11.09.2021
5810 Clouds 14 999 67 10000 0 0 22:25 10.09.2021
5811 Clouds 14 998 67 10000 1.54 20 21:54 10.09.2021
5812 Clouds 10 999 78 10000 0 0 20:25 10.09.2021
5813 Mist 8 999 84 8047 0 0 18:28 10.09.2021
5814 Clouds 7 999 87 10000 0 0 16:57 10.09.2021
5815 Clouds 7 1000 84 10000 0 0 14:52 10.09.2021
5816 Clear 8 1001 81 10000 1.54 100 12:43 10.09.2021
5817 Clear 9 1002 82 10000 0 0 09:27 10.09.2021
5818 Clear 11 1002 78 10000 0 0 07:50 10.09.2021
5819 Clear 18 1003 51 10000 0 0 03:43 10.09.2021
5820 Clear 14 1004 71 10000 0.45 182 22:33 09.09.2021
5821 Clouds 13 1004 80 10000 1.54 120 21:46 09.09.2021
5822 Clouds 10 1004 87 10000 0 0 20:47 09.09.2021
5823 Clouds 10 1004 89 10000 0 0 20:21 09.09.2021
5824 Clouds 8 1004 91 10000 0 0 18:34 09.09.2021
5825 Clouds 7 1004 91 10000 1.54 120 16:41 09.09.2021
5826 Clouds 7 1004 91 10000 0 0 15:51 09.09.2021
5827 Clouds 8 1004 88 10000 2.57 60 12:53 09.09.2021
5828 Clear 9 1004 87 10000 0 0 11:47 09.09.2021
5829 Clouds 9 1004 87 10000 0 0 10:25 09.09.2021
5830 Clear 11 1004 82 10000 0 0 08:55 09.09.2021
5831 Clear 13 1004 75 10000 0 0 06:39 09.09.2021
5832 Clouds 16 1006 62 10000 1.54 250 02:56 09.09.2021
5833 Clouds 12 1008 72 10000 0 0 22:45 08.09.2021
5834 Clouds 9 1009 81 10000 2.57 70 21:36 08.09.2021
5835 Clouds 8 1008 84 10000 0 0 20:19 08.09.2021
5836 Clouds 7 1009 86 10000 2.06 80 19:23 08.09.2021
5837 Clouds 7 1009 85 10000 0 0 18:29 08.09.2021
5838 Clear 6 1009 85 10000 0 0 17:56 08.09.2021
5839 Clouds 6 1009 87 10000 1.54 50 16:34 08.09.2021
5840 Clouds 7 1009 84 10000 1.54 40 14:30 08.09.2021
5841 Clouds 7 1009 84 10000 1.54 40 14:30 08.09.2021
5842 Clouds 7 1009 84 10000 1.54 40 14:30 08.09.2021
5843 Clouds 7 1009 84 10000 1.54 40 14:30 08.09.2021
5844 Clouds 7 1009 84 10000 1.54 40 14:30 08.09.2021
5845 Clear 6 1009 86 10000 0 0 12:54 08.09.2021
5846 Clear 7 1009 85 10000 0 0 12:27 08.09.2021
5847 Clear 7 1010 85 10000 0 0 11:38 08.09.2021
5848 Clear 7 1010 85 10000 0 0 10:43 08.09.2021
5849 Clear 8 1009 83 10000 0 0 10:24 08.09.2021
5850 Clear 9 1010 82 10000 0 0 08:54 08.09.2021
5851 Clear 11 1009 75 10000 0 0 07:38 08.09.2021
5852 Clear 14 1010 63 10000 0 0 05:35 08.09.2021
5853 Clear 11 1013 70 10000 0 0 22:50 07.09.2021
5854 Clear 11 1013 72 10000 0 0 22:18 07.09.2021
5855 Clouds 7 1014 83 10000 2.57 80 20:23 07.09.2021
5856 Clouds 6 1014 88 10000 0 0 18:45 07.09.2021
5857 Clouds 6 1014 88 10000 0 0 18:18 07.09.2021
5858 Clouds 6 1014 88 10000 0 0 18:18 07.09.2021
5859 Clouds 5 1014 88 10000 1.54 30 16:47 07.09.2021
5860 Clouds 6 1014 86 10000 0 0 15:40 07.09.2021
5861 Clouds 6 1014 85 10000 0 0 14:44 07.09.2021
5862 Clouds 7 1013 83 10000 2.57 60 12:44 07.09.2021
5863 Clouds 7 1013 83 10000 2.57 70 11:51 07.09.2021
5864 Clouds 7 1013 84 10000 1.54 50 10:41 07.09.2021
5865 Clear 7 1012 84 10000 2.57 70 08:39 07.09.2021
5866 Clear 8 1012 81 10000 2.57 60 07:44 07.09.2021
5867 Clear 11 1012 67 10000 2.57 130 05:41 07.09.2021
5868 Clouds 11 1012 61 10000 1.54 220 02:38 07.09.2021
5869 Clouds 10 1013 66 10000 0 0 00:52 07.09.2021
5870 Clouds 10 1013 67 10000 4.12 240 23:35 06.09.2021
5871 Clouds 10 1012 70 10000 0.89 206 22:57 06.09.2021
5872 Clouds 10 1013 66 10000 0.45 222 22:39 06.09.2021
5873 Clouds 7 1012 78 10000 0 0 21:29 06.09.2021
5874 Clear 5 1011 90 10000 1.54 70 19:32 06.09.2021
5875 Clouds 4 1011 93 10000 1.54 60 18:53 06.09.2021
5876 Clouds 3 1010 93 10000 1.54 60 18:24 06.09.2021
5877 Clouds 4 1010 92 10000 0 0 17:36 06.09.2021
5878 Clear 4 1008 92 10000 1.54 200 15:56 06.09.2021
5879 Clouds 5 1008 90 10000 1.54 220 14:25 06.09.2021
5880 Clouds 6 1007 89 10000 2.06 240 12:48 06.09.2021
5881 Clouds 6 1006 90 10000 2.25 243 10:59 06.09.2021
5882 Clouds 7 1005 89 10000 3.09 250 09:59 06.09.2021
5883 Clouds 9 1003 81 10000 0.45 205 07:21 06.09.2021
5884 Rain 12 999 93 10000 0 0 23:40 05.09.2021
5885 Rain 12 999 93 10000 2.57 210 23:18 05.09.2021
5886 Rain 11 999 92 10000 0 0 22:30 05.09.2021
5887 Rain 11 999 92 10000 0 0 22:30 05.09.2021
5888 Mist 11 999 92 10000 0 0 21:49 05.09.2021
5889 Mist 10 998 93 10000 1.54 100 20:50 05.09.2021
5890 Mist 10 998 93 10000 1.54 100 20:50 05.09.2021
5891 Mist 8 997 94 10000 1.54 50 18:56 05.09.2021
5892 Fog 8 997 94 10000 0 0 17:34 05.09.2021
5893 Mist 8 997 92 10000 0 0 15:31 05.09.2021
5894 Fog 9 996 92 10000 0 0 14:23 05.09.2021
5895 Clouds 10 996 89 10000 0 0 12:30 05.09.2021
5896 Clouds 10 996 88 10000 0 0 10:59 05.09.2021
5897 Clouds 10 996 89 10000 2.06 80 10:33 05.09.2021
5898 Rain 10 995 89 10000 2.06 90 09:22 05.09.2021
5899 Rain 12 995 86 10000 0 0 08:21 05.09.2021
5900 Rain 17 996 64 10000 0.89 233 03:19 05.09.2021
5901 Clouds 16 998 76 10000 0.45 211 00:30 05.09.2021
5902 Clouds 15 997 81 10000 0 0 23:43 04.09.2021
5903 Mist 13 998 88 10000 1.54 180 22:36 04.09.2021
5904 Mist 12 999 90 10000 0 0 21:58 04.09.2021
5905 Clouds 11 999 93 10000 0 0 19:53 04.09.2021
5906 Fog 10 998 93 10000 0 0 19:27 04.09.2021
5907 Rain 9 999 93 10000 0 0 16:26 04.09.2021
5908 Clouds 11 999 90 10000 2.06 100 13:30 04.09.2021
5909 Clouds 12 999 90 10000 2.06 130 11:20 04.09.2021
5910 Clouds 12 998 84 10000 2.57 240 09:26 04.09.2021
5911 Clouds 15 998 78 10000 0 0 06:55 04.09.2021
5912 Clouds 18 1000 61 10000 0.45 172 00:27 04.09.2021
5913 Clouds 17 1000 73 10000 1.54 260 23:32 03.09.2021
5914 Clouds 15 1000 82 10000 0 0 22:39 03.09.2021
5915 Clouds 13 1000 85 10000 0 0 21:35 03.09.2021
5916 Clouds 12 1000 86 10000 0 0 20:49 03.09.2021
5917 Clear 11 999 86 10000 1.54 90 19:56 03.09.2021
5918 Clear 11 1000 86 10000 1.54 90 19:20 03.09.2021
5919 Clear 9 1001 90 10000 0 0 17:56 03.09.2021
5920 Clear 10 1001 90 10000 0 0 17:56 03.09.2021
5921 Clear 7 1002 94 10000 0 0 16:38 03.09.2021
5922 Clouds 9 1001 90 10000 0.45 269 14:59 03.09.2021
5923 Clear 11 1001 87 10000 0 0 12:26 03.09.2021
5924 Clouds 13 1000 85 10000 2.06 90 10:32 03.09.2021
5925 Clouds 13 1000 85 10000 2.06 90 10:32 03.09.2021
5926 Clouds 13 1000 85 10000 1.54 60 09:18 03.09.2021
5927 Clouds 13 999 85 10000 1.54 60 07:47 03.09.2021
5928 Rain 15 1000 79 10000 3.09 60 05:24 03.09.2021
5929 Rain 14 1000 81 10000 1.54 20 23:21 02.09.2021
5930 Clear 14 999 78 10000 1.54 140 21:38 02.09.2021
5931 Clear 13 999 81 10000 0 0 19:56 02.09.2021
5932 Clouds 9 1001 88 10000 0 0 17:33 02.09.2021
5933 Clear 11 1001 85 10000 2.06 60 15:54 02.09.2021
5934 Clouds 11 1001 86 10000 2.14 37 13:59 02.09.2021
5935 Clouds 11 1002 84 10000 0 0 12:55 02.09.2021
5936 Clouds 11 1002 81 10000 2.57 80 11:35 02.09.2021
5937 Clear 13 1003 79 10000 2.57 60 09:44 02.09.2021
5938 Clear 15 1003 74 10000 1.54 90 08:20 02.09.2021
5939 Clear 16 1004 70 10000 2.06 60 07:18 02.09.2021
5940 Clear 21 1006 45 10000 0 0 02:57 02.09.2021
5941 Clear 22 1006 43 10000 0 0 02:33 02.09.2021
5942 Clear 21 1006 46 10000 1.54 70 01:32 02.09.2021
5943 Clear 20 1007 49 10000 3.09 80 23:40 01.09.2021
5944 Clouds 19 1007 56 10000 1.54 100 22:41 01.09.2021
5945 Clouds 16 1008 70 10000 0 0 21:40 01.09.2021
5946 Clouds 14 1008 76 10000 0 0 20:45 01.09.2021
5947 Clear 11 1007 83 10000 0 0 18:53 01.09.2021
5948 Clear 9 1008 86 10000 0 0 17:41 01.09.2021
5949 Clear 8 1009 91 10000 0 0 16:47 01.09.2021
5950 Clear 9 1009 88 10000 0 0 15:47 01.09.2021
5951 Clear 10 1010 87 10000 1.54 60 12:23 01.09.2021
5952 Clear 10 1010 87 10000 0 0 11:44 01.09.2021
5953 Clouds 13 1010 83 10000 0 0 08:48 01.09.2021
5954 Clouds 15 1010 81 10000 0 0 07:52 01.09.2021
5955 Clouds 18 1011 67 10000 0 0 05:23 01.09.2021
5956 Clouds 15 1013 74 10000 0 0 22:41 31.08.2021
5957 Clear 14 1013 79 10000 1.54 110 21:33 31.08.2021
5958 Fog 11 1015 91 10000 0 0 19:46 31.08.2021
5959 Fog 9 1015 93 10000 0 0 18:30 31.08.2021
5960 Mist 8 1015 94 10000 0 0 17:38 31.08.2021
5961 Mist 8 1015 94 10000 0 0 17:38 31.08.2021
5962 Mist 8 1015 94 10000 0 0 17:20 31.08.2021
5963 Fog 8 1015 93 10000 0 0 16:24 31.08.2021
5964 Clouds 10 1015 92 10000 0 0 13:20 31.08.2021
5965 Clouds 10 1016 91 10000 0 0 11:28 31.08.2021
5966 Clouds 11 1016 91 10000 2.57 70 10:52 31.08.2021
5967 Clouds 11 1016 91 10000 2.06 70 09:44 31.08.2021
5968 Clouds 11 1016 89 10000 1.54 60 08:39 31.08.2021
5969 Clouds 12 1016 87 10000 1.54 60 07:35 31.08.2021
5970 Clouds 14 1017 82 10000 2.06 180 03:40 31.08.2021
5971 Clouds 11 1018 90 10000 2.57 200 23:35 30.08.2021
5972 Clouds 10 1018 93 10000 2.57 160 21:45 30.08.2021
5973 Clouds 9 1018 93 10000 1.54 70 21:27 30.08.2021
5974 Rain 8 1018 95 10000 1.54 50 20:20 30.08.2021
5975 Clouds 8 1018 95 10000 2.06 80 19:29 30.08.2021
5976 Rain 8 1018 93 10000 2.06 60 18:34 30.08.2021
5977 Rain 8 1018 92 9656 2.06 60 17:45 30.08.2021
5978 Rain 8 1018 90 10000 0 0 16:22 30.08.2021
5979 Clouds 8 1018 87 10000 2.06 80 15:38 30.08.2021
5980 Clouds 9 1019 87 10000 2.06 80 13:35 30.08.2021
5981 Clouds 9 1019 87 10000 1.54 110 12:24 30.08.2021
5982 Clouds 10 1019 83 10000 1.54 70 09:30 30.08.2021
5983 Clouds 7 1020 84 10000 1.54 0 22:28 29.08.2021
5984 Clouds 6 1020 87 10000 1.54 60 21:32 29.08.2021
5985 Clouds 4 1019 93 10000 0.89 138 19:59 29.08.2021
5986 Clouds 4 1019 93 10000 0 0 19:19 29.08.2021
5987 Clouds 3 1019 95 10000 2.57 60 17:47 29.08.2021
5988 Clear 2 1018 93 10000 1.54 70 15:48 29.08.2021
5989 Clear 2 1018 93 10000 1.54 70 15:48 29.08.2021
5990 Clouds 3 1018 92 10000 2.06 80 14:19 29.08.2021
5991 Clouds 3 1018 92 10000 2.06 60 13:43 29.08.2021
5992 Clear 3 1017 92 10000 2.57 70 12:32 29.08.2021
5993 Clear 4 1017 90 10000 2.57 70 11:48 29.08.2021
5994 Clear 4 1017 89 10000 2.57 80 10:52 29.08.2021
5995 Clear 4 1017 88 10000 2.57 80 10:33 29.08.2021
5996 Clouds 5 1016 87 10000 1.54 70 09:54 29.08.2021
5997 Clouds 6 1016 77 10000 1.54 190 07:47 29.08.2021
5998 Clouds 8 1015 76 10000 0 0 00:21 29.08.2021
5999 Clouds 6 1016 84 10000 0 0 21:50 28.08.2021
6000 Clouds 4 1016 92 10000 2.06 210 19:54 28.08.2021
6001 Clouds 3 1016 94 10000 1.54 230 18:28 28.08.2021
6002 Clouds 3 1015 94 10000 1.54 240 17:59 28.08.2021
6003 Clouds 3 1015 95 10000 2.57 240 16:59 28.08.2021
6004 Clouds 4 1015 94 10000 2.06 240 15:33 28.08.2021
6005 Clouds 4 1015 94 10000 3.09 240 14:19 28.08.2021
6006 Clouds 4 1015 94 10000 3.09 210 13:43 28.08.2021
6007 Clouds 4 1014 93 10000 2.57 220 12:41 28.08.2021
6008 Clouds 5 1014 93 10000 3.09 230 11:51 28.08.2021
6009 Clouds 5 1014 92 10000 3.6 230 10:29 28.08.2021
6010 Clouds 5 1013 93 10000 0.45 246 08:39 28.08.2021
6011 Clouds 5 1011 92 10000 1.34 236 06:24 28.08.2021
6012 Rain 7 1005 92 10000 0.45 277 22:28 27.08.2021
6013 Rain 6 1004 92 10000 2.06 0 20:57 27.08.2021
6014 Rain 6 1004 93 10000 0.45 246 20:19 27.08.2021
6015 Rain 5 1003 93 10000 0.45 240 18:57 27.08.2021
6016 Rain 6 1003 92 10000 3.6 260 18:37 27.08.2021
6017 Rain 6 1002 94 10000 1.34 230 16:55 27.08.2021
6018 Rain 7 1002 95 10000 0.89 233 15:36 27.08.2021
6019 Rain 7 1002 94 10000 0 0 14:41 27.08.2021
6020 Rain 7 1002 93 10000 0 0 12:30 27.08.2021
6021 Rain 8 1003 92 10000 1.54 350 11:25 27.08.2021
6022 Rain 8 1003 92 10000 0 0 10:43 27.08.2021
6023 Rain 8 1003 91 9656 0 0 09:30 27.08.2021
6024 Rain 8 1003 89 9656 0 0 08:44 27.08.2021
6025 Rain 10 1003 72 10000 2.57 250 05:54 27.08.2021
6026 Clouds 13 1003 55 10000 1.79 237 02:48 27.08.2021
6027 Clouds 12 995 65 10000 1.34 226 00:32 27.08.2021
6028 Clouds 12 995 78 10000 0.89 235 22:29 26.08.2021
6029 Clouds 12 993 86 10000 1.34 258 21:57 26.08.2021
6030 Clouds 10 995 92 10000 2.57 190 20:31 26.08.2021
6031 Clouds 10 995 94 10000 2.06 230 18:49 26.08.2021
6032 Clouds 9 995 94 10000 2.06 190 17:44 26.08.2021
6033 Clouds 10 1003 93 10000 3.09 210 16:32 26.08.2021
6034 Clouds 10 1003 94 10000 2.57 160 15:54 26.08.2021
6035 Clouds 11 1003 93 10000 1.54 160 13:33 26.08.2021
6036 Rain 11 1003 94 10000 0 0 12:49 26.08.2021
6037 Rain 11 1003 94 10000 2.06 230 11:56 26.08.2021
6038 Rain 11 1003 93 10000 2.57 230 09:43 26.08.2021
6039 Rain 12 1002 93 10000 0 0 08:34 26.08.2021
6040 Clouds 14 1002 89 10000 0.89 217 02:32 26.08.2021
6041 Rain 13 1003 95 10000 1.54 190 22:48 25.08.2021
6042 Rain 12 1003 95 9656 0 0 22:29 25.08.2021
6043 Rain 12 1003 96 6437 0 0 21:25 25.08.2021
6044 Mist 12 1003 96 9656 0 0 20:44 25.08.2021
6045 Rain 12 1003 96 9656 0 0 20:25 25.08.2021
6046 Rain 12 1003 96 9656 0 0 18:32 25.08.2021
6047 Rain 11 1002 96 10000 0 0 17:19 25.08.2021
6048 Rain 12 1002 96 10000 0 0 15:42 25.08.2021
6049 Rain 12 1002 96 10000 0 0 14:47 25.08.2021
6050 Rain 12 1002 96 10000 0 0 13:59 25.08.2021
6051 Rain 12 1002 96 10000 0 0 12:55 25.08.2021
6052 Drizzle 12 1002 96 10000 0 0 11:25 25.08.2021
6053 Drizzle 12 1002 96 10000 0 0 11:25 25.08.2021
6054 Rain 12 1002 95 10000 0 0 10:26 25.08.2021
6055 Rain 12 1002 96 9656 0 0 09:43 25.08.2021
6056 Rain 12 1002 94 10000 0 0 08:40 25.08.2021
6057 Rain 13 1002 95 10000 0 0 07:43 25.08.2021
6058 Rain 14 1002 94 10000 2.06 200 01:26 25.08.2021
6059 Rain 14 1002 93 10000 0 0 23:40 24.08.2021
6060 Rain 13 1002 93 10000 0 0 21:48 24.08.2021
6061 Mist 12 1002 95 10000 1.54 120 20:38 24.08.2021
6062 Rain 12 1002 95 10000 0 0 19:44 24.08.2021
6063 Rain 11 1003 96 10000 0 0 17:57 24.08.2021
6064 Rain 11 1003 96 10000 0 0 17:22 24.08.2021
6065 Rain 11 1003 96 10000 0 0 16:38 24.08.2021
6066 Clouds 11 1004 96 10000 0 0 14:24 24.08.2021
6067 Rain 12 1004 95 10000 0 0 13:23 24.08.2021
6068 Rain 12 1005 94 10000 0 0 11:25 24.08.2021
6069 Rain 12 1005 94 10000 0 0 10:47 24.08.2021
6070 Rain 12 1005 94 10000 0 0 10:25 24.08.2021
6071 Rain 12 1005 95 10000 0 0 08:46 24.08.2021
6072 Rain 13 1005 94 10000 0 0 06:35 24.08.2021
6073 Rain 13 1006 92 7852 0.75 164 03:59 24.08.2021
6074 Rain 12 1005 93 9656 0 0 00:00 24.08.2021
6075 Rain 12 1006 91 8047 1.54 60 22:51 23.08.2021
6076 Rain 12 1006 89 8047 1.54 100 21:52 23.08.2021
6077 Clouds 12 1005 86 10000 2.06 60 20:27 23.08.2021
6078 Clouds 11 1005 87 10000 0 0 18:47 23.08.2021
6079 Rain 11 1005 87 10000 0 0 16:29 23.08.2021
6080 Clouds 11 1005 84 10000 0.45 84 13:58 23.08.2021
6081 Rain 11 1006 83 10000 2.06 60 12:34 23.08.2021
6082 Clouds 11 1006 84 10000 0 0 11:48 23.08.2021
6083 Clear 12 1006 83 10000 0 0 10:36 23.08.2021
6084 Clouds 12 1006 81 10000 0 0 09:24 23.08.2021
6085 Clouds 13 1007 78 10000 0 0 07:58 23.08.2021
6086 Clouds 14 1007 74 10000 0 0 06:48 23.08.2021
6087 Clear 16 1008 63 10000 1.54 20 04:51 23.08.2021
6088 Clear 15 1010 60 10000 2.06 90 00:50 23.08.2021
6089 Clear 14 1012 65 10000 1.54 120 22:44 22.08.2021
6090 Clouds 13 1012 71 10000 0.45 148 21:58 22.08.2021
6091 Rain 10 1013 82 10000 2.06 80 20:21 22.08.2021
6092 Clouds 8 1014 89 10000 0 0 19:22 22.08.2021
6093 Clouds 5 1015 94 10000 0 0 16:27 22.08.2021
6094 Clouds 5 1016 94 10000 1.54 70 14:55 22.08.2021
6095 Clouds 5 1016 93 10000 1.54 70 14:34 22.08.2021
6096 Clouds 5 1017 91 10000 0 0 13:20 22.08.2021
6097 Clear 5 1017 92 10000 0 0 12:51 22.08.2021
6098 Clouds 5 1017 93 10000 0.45 234 11:58 22.08.2021
6099 Clouds 5 1017 92 10000 0 0 11:39 22.08.2021
6100 Clear 6 1017 90 10000 2.06 160 10:20 22.08.2021
6101 Clear 8 1017 85 10000 0 0 08:18 22.08.2021
6102 Clouds 12 1018 69 10000 2.06 250 04:50 22.08.2021
6103 Clouds 11 1020 84 10000 1.79 215 22:51 21.08.2021
6104 Clouds 10 1020 87 10000 1.79 246 22:27 21.08.2021
6105 Clouds 9 1021 94 10000 2.24 234 19:39 21.08.2021
6106 Rain 9 1020 94 10000 0.89 209 18:39 21.08.2021
6107 Rain 9 1020 95 10000 1.34 222 17:48 21.08.2021
6108 Rain 9 1020 95 10000 3.6 230 16:50 21.08.2021
6109 Rain 8 1020 95 10000 3.09 230 15:51 21.08.2021
6110 Rain 8 1020 95 10000 3.09 230 15:26 21.08.2021
6111 Rain 8 1020 95 10000 3.09 230 14:21 21.08.2021
6112 Rain 8 1020 95 10000 3.6 230 13:28 21.08.2021
6113 Rain 8 1020 95 10000 3.09 210 12:24 21.08.2021
6114 Drizzle 8 1019 93 10000 4.12 220 09:21 21.08.2021
6115 Rain 9 1018 89 10000 5.66 240 05:32 21.08.2021
6116 Rain 11 1016 87 10000 1.34 275 22:42 20.08.2021
6117 Mist 9 1015 94 10000 0.45 234 20:51 20.08.2021
6118 Rain 8 1016 95 6437 0 0 17:46 20.08.2021
6119 Rain 8 1015 96 10000 0 0 15:51 20.08.2021
6120 Rain 9 1016 94 10000 0 0 13:35 20.08.2021
6121 Rain 9 1016 95 9656 0 0 11:35 20.08.2021
6122 Rain 9 1017 94 10000 0 0 10:41 20.08.2021
6123 Rain 9 1016 94 9656 0 0 09:29 20.08.2021
6124 Rain 9 1017 93 9656 1.54 40 08:40 20.08.2021
6125 Rain 10 1017 91 9656 1.54 20 06:58 20.08.2021
6126 Clouds 11 1018 86 10000 0 0 04:21 20.08.2021
6127 Rain 10 1020 85 10000 1.54 100 00:19 20.08.2021
6128 Clouds 9 1019 91 10000 2.57 70 22:39 19.08.2021
6129 Rain 8 1019 91 10000 2.57 70 22:18 19.08.2021
6130 Clouds 7 1019 92 10000 2.57 80 20:25 19.08.2021
6131 Rain 6 1019 94 10000 1.54 60 19:30 19.08.2021
6132 Rain 6 1019 91 10000 2.57 70 17:19 19.08.2021
6133 Rain 6 1019 89 10000 2.06 90 15:52 19.08.2021
6134 Clouds 5 1019 88 10000 0 0 13:20 19.08.2021
6135 Clear 6 1018 87 10000 0 0 12:32 19.08.2021
6136 Clear 5 1018 86 10000 2.06 80 11:21 19.08.2021
6137 Clear 7 1017 86 10000 0 0 09:51 19.08.2021
6138 Clear 7 1017 85 10000 0 0 09:32 19.08.2021
6139 Clouds 8 1018 81 10000 0.66 44 08:59 19.08.2021
6140 Clear 13 1017 63 10000 0 0 06:32 19.08.2021
6141 Clouds 13 1016 55 10000 0 0 02:22 19.08.2021
6142 Clouds 13 1016 58 10000 0.45 219 01:41 19.08.2021
6143 Clouds 10 1016 83 10000 0 0 22:42 18.08.2021
6144 Clouds 7 1015 91 10000 1.54 140 21:39 18.08.2021
6145 Mist 6 1014 94 8047 1.54 40 20:27 18.08.2021
6146 Mist 5 1014 96 3621 0 0 19:31 18.08.2021
6147 Mist 5 1014 96 2414 1.54 60 18:46 18.08.2021
6148 Fog 4 1013 95 805 0 0 17:29 18.08.2021
6149 Mist 4 1012 95 1006 0 0 15:46 18.08.2021
6150 Mist 4 1012 95 1006 0 0 15:22 18.08.2021
6151 Mist 4 1011 93 1811 0 0 13:29 18.08.2021
6152 Mist 5 1010 93 1006 0 0 12:41 18.08.2021
6153 Clear 5 1010 93 10000 0 0 12:23 18.08.2021
6154 Clear 7 1009 93 10000 0 0 09:44 18.08.2021
6155 Rain 10 1007 88 10000 2.57 360 05:50 18.08.2021
6156 Rain 10 1006 92 10000 0.45 128 00:41 18.08.2021
6157 Mist 9 1005 94 10000 4.12 220 22:28 17.08.2021
6158 Rain 9 1005 95 10000 0.45 228 21:26 17.08.2021
6159 Rain 8 1005 95 9656 3.09 210 20:43 17.08.2021
6160 Rain 8 995 96 9656 1.54 160 18:56 17.08.2021
6161 Rain 8 997 95 9656 0 0 17:27 17.08.2021
6162 Rain 8 997 95 9656 1.54 170 16:32 17.08.2021
6163 Rain 8 997 95 9656 0 0 15:36 17.08.2021
6164 Rain 8 997 95 10000 0 0 13:57 17.08.2021
6165 Rain 8 997 94 10000 0 0 11:36 17.08.2021
6166 Rain 10 986 94 9656 0 0 09:20 17.08.2021
6167 Rain 10 1006 94 10000 1.54 230 07:44 17.08.2021
6168 Rain 10 1009 93 10000 0.45 242 00:21 17.08.2021
6169 Rain 11 1009 94 10000 0.89 250 22:54 16.08.2021
6170 Rain 11 1010 94 10000 0.89 211 22:36 16.08.2021
6171 Rain 11 1010 95 10000 0.45 223 21:53 16.08.2021
6172 Rain 11 1010 95 10000 0.89 246 20:53 16.08.2021
6173 Rain 11 1010 94 10000 0.89 238 19:44 16.08.2021
6174 Rain 10 1010 94 10000 5.14 200 19:22 16.08.2021
6175 Rain 10 1010 95 10000 0.45 173 18:22 16.08.2021
6176 Rain 10 1010 94 10000 4.63 210 17:51 16.08.2021
6177 Rain 10 1011 94 10000 0.45 161 15:30 16.08.2021
6178 Rain 10 1011 94 10000 0.89 181 14:36 16.08.2021
6179 Rain 10 1011 94 10000 0.45 286 13:30 16.08.2021
6180 Rain 10 1011 94 10000 0.89 241 12:31 16.08.2021
6181 Rain 10 1011 94 10000 0.45 232 10:37 16.08.2021
6182 Rain 10 1010 90 10000 1.34 259 08:44 16.08.2021
6183 Clouds 10 1010 91 10000 1.79 241 07:33 16.08.2021
6184 Rain 10 1004 91 10000 2.68 277 06:25 16.08.2021
6185 Rain 10 1009 93 10000 0.45 104 02:18 16.08.2021
6186 Rain 9 1008 93 10000 0.89 271 21:51 15.08.2021
6187 Rain 9 1008 93 10000 0.89 286 20:28 15.08.2021
6188 Rain 8 1008 92 10000 0.45 227 18:46 15.08.2021
6189 Rain 8 1008 91 10000 3.6 220 17:54 15.08.2021
6190 Rain 8 1008 91 10000 3.09 200 17:23 15.08.2021
6191 Rain 8 1009 89 10000 1.54 210 15:59 15.08.2021
6192 Rain 8 1009 86 10000 3.6 210 14:42 15.08.2021
6193 Clouds 9 1010 81 10000 2.06 200 13:38 15.08.2021
6194 Clouds 9 1010 78 10000 2.57 200 10:54 15.08.2021
6195 Clouds 10 1010 74 10000 2.57 200 08:45 15.08.2021
6196 Clouds 12 1010 62 10000 1.34 238 01:23 15.08.2021
6197 Clouds 11 1010 66 10000 0.45 232 00:35 15.08.2021
6198 Clouds 11 1010 73 10000 1.34 230 21:41 14.08.2021
6199 Clouds 11 1009 81 10000 3.09 230 20:29 14.08.2021
6200 Clouds 10 1009 84 10000 2.57 220 19:43 14.08.2021
6201 Clouds 9 1009 89 10000 1.54 220 18:38 14.08.2021
6202 Clouds 8 1008 94 10000 0.8 218 16:59 14.08.2021
6203 Clouds 9 1009 88 10000 2.57 230 15:37 14.08.2021
6204 Clouds 9 1009 84 10000 2.57 220 14:24 14.08.2021
6205 Clouds 11 1009 82 10000 2.06 230 11:57 14.08.2021
6206 Clouds 11 1009 85 10000 2.06 220 10:26 14.08.2021
6207 Clouds 13 1007 75 10000 3.6 220 07:39 14.08.2021
6208 Clouds 13 1008 72 10000 0 0 23:53 13.08.2021
6209 Rain 13 1007 76 10000 0 0 22:18 13.08.2021
6210 Rain 13 1007 76 10000 0 0 22:18 13.08.2021
6211 Rain 13 1007 76 10000 0 0 22:18 13.08.2021
6212 Clouds 12 1007 87 10000 2.57 280 20:27 13.08.2021
6213 Rain 11 1007 93 10000 2.57 280 18:47 13.08.2021
6214 Rain 10 1007 94 10000 2.57 260 17:24 13.08.2021
6215 Rain 11 1006 93 10000 3.09 230 16:19 13.08.2021
6216 Rain 11 1006 92 10000 0 0 12:18 13.08.2021
6217 Rain 11 1006 91 10000 2.57 210 11:19 13.08.2021
6218 Clouds 12 1005 89 10000 1.6 183 08:59 13.08.2021
6219 Clouds 12 1006 88 10000 2.57 190 08:35 13.08.2021
6220 Clouds 13 1004 89 10000 3.6 210 06:43 13.08.2021
6221 Rain 14 1004 86 9656 4.12 270 04:43 13.08.2021
6222 Clouds 14 1003 75 10000 2.57 130 21:54 12.08.2021
6223 Clouds 14 1004 76 10000 2.57 130 21:20 12.08.2021
6224 Clouds 12 1003 86 10000 1.54 50 19:55 12.08.2021
6225 Rain 12 1003 86 10000 1.54 50 19:25 12.08.2021
6226 Rain 12 1003 85 10000 2.06 80 17:26 12.08.2021
6227 Clouds 12 1002 84 10000 0 0 16:28 12.08.2021
6228 Clouds 12 1002 81 10000 0 0 13:54 12.08.2021
6229 Clouds 13 1003 79 10000 1.54 90 12:23 12.08.2021
6230 Clouds 13 1003 78 10000 0.45 323 09:58 12.08.2021
6231 Clouds 15 1004 69 10000 0.45 323 07:53 12.08.2021
6232 Rain 18 1009 60 10000 3.6 130 00:30 12.08.2021
6233 Rain 15 1010 80 10000 3.09 130 21:56 11.08.2021
6234 Rain 12 1010 88 10000 0 0 19:36 11.08.2021
6235 Rain 11 1009 87 10000 2.06 130 18:27 11.08.2021
6236 Rain 11 1009 85 10000 2.57 150 15:38 11.08.2021
6237 Rain 11 1009 85 10000 2.57 150 15:20 11.08.2021
6238 Rain 11 1008 84 10000 2.06 200 14:20 11.08.2021
6239 Clouds 12 1007 87 10000 2.57 200 12:30 11.08.2021
6240 Clouds 12 1007 87 10000 2.57 200 12:30 11.08.2021
6241 Clouds 12 1007 88 10000 2.06 190 11:46 11.08.2021
6242 Clouds 12 1007 90 10000 2.06 190 11:21 11.08.2021
6243 Clouds 12 1006 90 10000 1.54 210 09:43 11.08.2021
6244 Rain 12 1004 90 10000 2.06 200 07:23 11.08.2021
6245 Rain 14 998 84 10000 0.45 273 22:53 10.08.2021
6246 Rain 13 998 86 10000 3.6 210 22:28 10.08.2021
6247 Rain 13 996 87 10000 0.45 249 20:57 10.08.2021
6248 Clear 11 996 90 10000 1.54 70 19:33 10.08.2021
6249 Clouds 10 996 94 10000 1.54 90 18:29 10.08.2021
6250 Clouds 9 995 93 10000 1.54 70 15:48 10.08.2021
6251 Clouds 9 995 93 10000 0 0 14:42 10.08.2021
6252 Clouds 10 996 92 10000 2.57 80 11:53 10.08.2021
6253 Clear 12 996 93 10000 0 0 09:48 10.08.2021
6254 Clouds 15 996 78 10000 1.54 100 06:47 10.08.2021
6255 Clouds 14 997 81 10000 2.57 220 04:58 10.08.2021
6256 Rain 13 999 91 10000 0.45 251 23:38 09.08.2021
6257 Rain 11 998 95 10000 0.89 261 21:54 09.08.2021
6258 Rain 12 998 94 10000 1.34 227 21:32 09.08.2021
6259 Rain 10 997 95 10000 0.45 263 19:35 09.08.2021
6260 Rain 10 995 95 10000 1.34 220 16:58 09.08.2021
6261 Rain 10 995 94 10000 0.89 249 15:30 09.08.2021
6262 Rain 11 994 94 10000 5.66 230 13:32 09.08.2021
6263 Rain 11 993 95 10000 0.89 236 12:46 09.08.2021
6264 Rain 12 993 94 10000 1.34 273 10:43 09.08.2021
6265 Rain 13 993 92 8047 2.68 236 08:26 09.08.2021
6266 Clouds 16 998 79 10000 2.57 60 22:47 08.08.2021
6267 Clouds 16 999 79 10000 2.57 70 21:25 08.08.2021
6268 Clouds 14 1000 84 10000 3.6 60 19:29 08.08.2021
6269 Clouds 12 1002 93 10000 2.06 70 16:53 08.08.2021
6270 Clouds 12 1002 93 10000 2.06 70 16:53 08.08.2021
6271 Rain 12 1002 92 10000 2.06 70 15:31 08.08.2021
6272 Clouds 13 1004 92 10000 0 0 12:58 08.08.2021
6273 Clouds 14 1005 90 10000 0 0 10:47 08.08.2021
6274 Clouds 15 1006 83 10000 2.57 190 06:44 08.08.2021
6275 Clouds 16 1007 81 10000 0 0 05:37 08.08.2021
6276 Rain 14 1009 90 10000 2.06 280 00:30 08.08.2021
6277 Rain 14 1009 90 10000 2.06 280 00:30 08.08.2021
6278 Rain 14 1009 90 10000 2.06 280 00:30 08.08.2021
6279 Rain 13 1009 91 10000 3.09 270 22:19 07.08.2021
6280 Rain 13 1010 90 10000 2.57 260 21:40 07.08.2021
6281 Rain 13 1010 93 10000 0.45 215 19:46 07.08.2021
6282 Rain 14 1010 93 10000 3.6 230 17:27 07.08.2021
6283 Rain 14 1010 93 10000 3.09 240 16:25 07.08.2021
6284 Clouds 15 1009 89 10000 2.06 280 14:25 07.08.2021
6285 Clouds 15 1009 89 10000 1.54 270 12:53 07.08.2021
6286 Clouds 16 1008 88 10000 0 0 09:56 07.08.2021
6287 Rain 18 1007 80 10000 0.89 232 04:56 07.08.2021
6288 Rain 17 1005 88 10000 1.79 229 23:54 06.08.2021
6289 Rain 18 1005 84 10000 0.45 250 21:23 06.08.2021
6290 Rain 18 1005 80 10000 2.24 229 20:27 06.08.2021
6291 Rain 17 1004 84 10000 2.68 249 19:55 06.08.2021
6292 Rain 16 1003 87 10000 1.54 50 18:28 06.08.2021
6293 Smoke 16 1002 83 10000 0 0 13:50 06.08.2021
6294 Clouds 20 1001 72 10000 0.45 298 09:58 06.08.2021
6295 Smoke 21 1001 68 10000 2.06 240 09:25 06.08.2021
6296 Smoke 26 1003 47 10000 0.45 284 00:39 06.08.2021
6297 Smoke 25 1004 52 10000 0 0 23:27 05.08.2021
6298 Smoke 23 1005 56 10000 2.06 300 21:31 05.08.2021
6299 Clear 20 1004 64 10000 0 0 19:53 05.08.2021
6300 Smoke 17 1005 70 10000 0 0 18:29 05.08.2021
6301 Smoke 15 1005 76 10000 4.12 70 15:47 05.08.2021
6302 Clear 16 1005 73 10000 3.6 80 13:53 05.08.2021
6303 Clear 19 1005 58 10000 3.09 60 09:56 05.08.2021
6304 Smoke 22 1005 55 10000 3.09 50 08:20 05.08.2021
6305 Smoke 27 1006 42 10000 3.6 90 03:37 05.08.2021
6306 Smoke 23 1009 52 10000 5.14 70 22:41 04.08.2021
6307 Smoke 22 1009 54 10000 0.89 32 21:26 04.08.2021
6308 Smoke 20 1010 58 10000 5.14 70 20:23 04.08.2021
6309 Smoke 16 1010 68 10000 0 0 17:24 04.08.2021
6310 Clear 16 1011 65 10000 3.6 40 14:48 04.08.2021
6311 Clear 18 1011 59 10000 6.69 20 12:23 04.08.2021
6312 Clouds 22 1011 55 10000 5.14 20 08:53 04.08.2021
6313 Clear 25 1015 55 10000 0 0 21:46 03.08.2021
6314 Clear 23 1014 63 10000 0 0 20:32 03.08.2021
6315 Clouds 21 1013 73 10000 0.44 295 18:58 03.08.2021
6316 Clouds 21 1013 73 10000 0.44 295 18:58 03.08.2021
6317 Clear 18 1015 74 10000 0 0 17:31 03.08.2021
6318 Clouds 18 1015 71 10000 1.76 353 13:58 03.08.2021
6319 Clear 19 1012 68 10000 0.89 256 10:58 03.08.2021
6320 Clear 22 1015 57 10000 0 0 10:38 03.08.2021
6321 Clouds 26 1016 51 10000 0.45 89 22:59 02.08.2021
6322 Clear 16 1017 80 10000 0 0 16:52 02.08.2021
6323 Clear 14 1017 85 10000 0 0 15:35 02.08.2021
6324 Clouds 16 1017 81 10000 0 0 12:41 02.08.2021
6325 Clouds 16 1017 81 10000 0 0 12:41 02.08.2021
6326 Clouds 16 1017 82 10000 1.43 19 11:58 02.08.2021
6327 Clouds 17 1017 79 10000 1.71 14 10:58 02.08.2021
6328 Clouds 19 1016 75 10000 0 0 09:42 02.08.2021
6329 Clouds 18 1017 73 10000 3.09 90 19:53 01.08.2021
6330 Clouds 15 1017 83 10000 2.06 70 17:46 01.08.2021
6331 Clear 17 1015 70 10000 1.54 320 11:40 01.08.2021
6332 Clear 18 1014 66 10000 3.6 240 10:56 01.08.2021
6333 Clear 26 1012 41 10000 0.45 263 03:50 01.08.2021
6334 Clear 25 1013 43 10000 0 0 01:22 01.08.2021
6335 Clear 22 1014 53 10000 0.45 131 22:39 31.07.2021
6336 Clouds 16 1014 76 10000 3.09 70 19:34 31.07.2021
6337 Clear 12 1014 87 10000 2.57 70 16:38 31.07.2021
6338 Clear 12 1014 86 10000 2.57 90 15:27 31.07.2021
6339 Clouds 16 1013 79 10000 0.45 355 10:59 31.07.2021
6340 Clouds 16 1013 79 10000 0.45 355 10:59 31.07.2021
6341 Clouds 16 1013 79 10000 0.45 355 10:59 31.07.2021
6342 Clouds 22 1013 56 10000 1.54 110 04:38 31.07.2021
6343 Clouds 18 1016 68 10000 0 0 22:31 30.07.2021
6344 Clouds 16 1016 76 10000 0 0 20:24 30.07.2021
6345 Clouds 14 1016 83 10000 0 0 15:38 30.07.2021
6346 Clouds 14 1019 87 10000 2.06 110 19:57 29.07.2021
6347 Clouds 14 1016 90 10000 0 0 08:43 29.07.2021
6348 Clouds 16 1016 85 10000 2.57 230 04:51 29.07.2021
6349 Rain 14 1017 92 10000 3.6 220 22:48 28.07.2021
6350 Rain 13 1016 95 9656 0.45 270 17:53 28.07.2021
6351 Rain 13 1016 94 9656 4.63 220 17:18 28.07.2021
6352 Rain 13 1014 94 10000 0.45 215 09:44 28.07.2021
6353 Clouds 18 1013 66 10000 0.45 204 23:56 27.07.2021
6354 Clouds 16 1013 72 10000 0.45 212 21:34 27.07.2021
6355 Rain 13 1013 82 10000 2.57 190 14:54 27.07.2021
6356 Clouds 13 1013 79 10000 2.57 220 14:31 27.07.2021
6357 Rain 16 1011 72 9656 4.63 240 10:33 27.07.2021
6358 Clouds 21 1010 48 10000 1.34 271 02:58 27.07.2021
6359 Clouds 12 1012 83 10000 1.54 70 15:34 26.07.2021
6360 Clouds 15 1012 75 10000 0 0 10:38 26.07.2021
6361 Haze 16 1017 65 9656 0.45 186 20:58 25.07.2021
6362 Clouds 15 1017 67 10000 0.45 181 20:37 25.07.2021
6363 Clouds 11 1017 85 10000 2.06 80 17:22 25.07.2021
6364 Clouds 11 1016 84 10000 1.54 290 13:33 25.07.2021
6365 Clouds 16 1015 64 10000 0.45 227 08:21 25.07.2021
6366 Clouds 19 1014 61 10000 5.14 230 04:56 25.07.2021
6367 Rain 14 1013 93 10000 0.45 232 20:22 24.07.2021
6368 Rain 14 1012 94 10000 4.12 220 19:35 24.07.2021
6369 Rain 16 1010 92 10000 4.12 50 08:59 24.07.2021
6370 Clouds 16 1008 85 10000 1.54 50 17:34 23.07.2021
6371 Clouds 16 1008 81 10000 1.54 150 14:35 23.07.2021
6372 Clear 22 1005 59 10000 1.54 320 07:56 23.07.2021
6373 Smoke 24 1003 49 10000 2.57 250 22:49 22.07.2021
6374 Rain 16 1002 70 10000 2.06 120 14:57 22.07.2021
6375 Smoke 17 1001 59 10000 1.54 300 11:18 22.07.2021
6376 Smoke 22 1001 49 10000 3.09 330 08:25 22.07.2021
6377 Smoke 21 1004 56 10000 2.06 70 22:33 21.07.2021
6378 Smoke 19 1005 63 10000 2.06 70 21:33 21.07.2021
6379 Smoke 16 1006 77 10000 0 0 18:45 21.07.2021
6380 Clouds 20 1003 58 10000 0.45 284 09:56 21.07.2021
6381 Smoke 21 1004 51 10000 0.45 38 09:19 21.07.2021
6382 Smoke 28 1005 36 10000 0 0 00:41 21.07.2021
6383 Smoke 23 1009 52 9656 2.57 120 20:29 20.07.2021
6384 Smoke 16 1010 69 10000 4.12 80 16:36 20.07.2021
6385 Smoke 14 1011 77 10000 3.6 80 15:27 20.07.2021
6386 Smoke 18 1011 65 10000 2.57 90 11:19 20.07.2021
6387 Smoke 25 1012 44 10000 0 0 07:35 20.07.2021
6388 Clouds 26 1016 35 10000 0.45 242 02:58 20.07.2021
6389 Clear 13 1020 78 10000 2.57 60 17:50 19.07.2021
6390 Clear 12 1021 83 10000 0 0 12:45 19.07.2021
6391 Clouds 18 1021 69 10000 1.34 250 20:59 18.07.2021
6392 Haze 16 1020 74 10000 3.6 250 15:21 18.07.2021
6393 Rain 19 1018 58 10000 2.57 260 10:19 18.07.2021
6394 Smoke 24 1017 52 10000 0.89 235 22:30 17.07.2021
6395 Clear 23 1017 56 10000 0.89 281 21:58 17.07.2021
6396 Smoke 23 1017 56 10000 1.79 298 21:39 17.07.2021
6397 Smoke 15 1016 79 10000 0 0 12:35 17.07.2021
6398 Smoke 17 1015 74 10000 0 0 11:30 17.07.2021
6399 Smoke 26 1014 44 10000 0.89 232 04:47 17.07.2021
6400 Clouds 14 1015 66 10000 2.57 90 14:24 16.07.2021
6401 Clouds 16 1014 58 10000 0 0 11:43 16.07.2021
6402 Clear 22 1014 36 10000 3.09 310 07:24 16.07.2021
6403 Clear 15 1014 87 10000 0 0 18:33 15.07.2021
6404 Rain 12 1012 93 10000 0 0 13:49 15.07.2021
6405 Rain 16 1011 84 10000 0 0 09:25 15.07.2021
6406 Clouds 15 1011 83 10000 4.63 230 00:31 15.07.2021
6407 Clouds 17 1008 71 10000 0.45 237 16:48 14.07.2021
6408 Clouds 18 1008 59 10000 2.57 242 11:59 14.07.2021
6409 Clouds 25 1008 37 10000 1.79 227 04:44 14.07.2021
6410 Smoke 20 1010 55 10000 0.45 218 20:22 13.07.2021
6411 Smoke 19 1010 57 10000 2.57 120 19:50 13.07.2021
6412 Smoke 18 1010 57 10000 0.45 289 19:21 13.07.2021
6413 Smoke 17 1010 59 10000 0 0 18:43 13.07.2021
6414 Smoke 17 1010 61 10000 0.45 259 18:23 13.07.2021
6415 Haze 13 1009 71 9656 0 0 14:34 13.07.2021
6416 Smoke 20 1007 47 10000 1.54 310 09:38 13.07.2021
6417 Smoke 23 1011 34 10000 0 0 22:51 12.07.2021
6418 Smoke 13 1012 62 10000 2.06 70 17:28 12.07.2021
6419 Smoke 8 1013 77 10000 0 0 15:20 12.07.2021
6420 Clouds 20 1012 37 10000 0 0 00:31 12.07.2021
6421 Clouds 18 1013 47 10000 1.54 90 21:57 11.07.2021
6422 Clear 9 1011 76 10000 2.57 70 15:50 11.07.2021
6423 Clear 21 1009 35 10000 0 0 01:55 11.07.2021
6424 Clouds 11 1008 72 10000 0 0 17:38 10.07.2021
6425 Clouds 15 1005 64 10000 2.52 35 07:57 10.07.2021
6426 Clouds 16 1004 57 10000 4.63 70 07:22 10.07.2021
6427 Clouds 13 1007 77 10000 0 0 19:57 09.07.2021
6428 Clear 8 1006 87 10000 0 0 14:51 09.07.2021
6429 Clouds 9 1007 84 10000 2.06 60 12:55 09.07.2021
6430 Rain 15 1008 71 10000 0.89 216 00:48 09.07.2021
6431 Rain 16 1008 61 10000 1.54 310 22:52 08.07.2021
6432 Clouds 13 1009 79 10000 0 0 20:20 08.07.2021
6433 Clouds 9 1009 90 10000 0 0 18:23 08.07.2021
6434 Clouds 8 1008 94 10000 0 0 13:50 08.07.2021
6435 Clouds 8 1008 93 10000 0 0 13:30 08.07.2021
6436 Clouds 8 1008 93 10000 0 0 13:30 08.07.2021
6437 Clouds 8 1008 93 10000 1.54 80 12:34 08.07.2021
6438 Clouds 8 1007 92 10000 0 0 11:19 08.07.2021
6439 Rain 12 1007 80 10000 7.72 200 06:33 08.07.2021
6440 Clouds 16 1006 60 10000 4.12 260 03:50 08.07.2021
6441 Rain 12 1008 81 10000 0.45 190 22:59 07.07.2021
6442 Clouds 12 1008 81 10000 0.89 224 22:19 07.07.2021
6443 Clouds 12 1008 82 10000 0.45 206 21:45 07.07.2021
6444 Clouds 12 1008 82 10000 0.45 192 21:24 07.07.2021
6445 Clouds 12 1008 83 10000 0 0 19:59 07.07.2021
6446 Clouds 12 1008 84 10000 0 0 19:30 07.07.2021
6447 Clouds 12 1008 84 10000 0 0 19:30 07.07.2021
6448 Clouds 11 1008 87 10000 1.54 80 18:52 07.07.2021
6449 Rain 9 1009 91 10000 1.54 80 15:55 07.07.2021
6450 Rain 9 1009 90 10000 1.54 90 14:58 07.07.2021
6451 Clouds 11 1009 81 10000 0 0 10:26 07.07.2021
6452 Clear 14 1008 74 10000 0.89 242 07:19 07.07.2021
6453 Clouds 14 1009 71 10000 3.6 230 05:50 07.07.2021
6454 Clouds 13 1010 82 10000 3.09 230 02:54 07.07.2021
6455 Rain 16 1010 65 10000 4.12 350 19:43 06.07.2021
6456 Clouds 15 1009 73 10000 4.63 280 18:57 06.07.2021
6457 Clouds 15 1010 72 10000 4.63 280 18:35 06.07.2021
6458 Clouds 14 1009 75 10000 3.09 350 17:32 06.07.2021
6459 Clouds 15 1008 61 10000 0.45 243 13:33 06.07.2021
6460 Smoke 19 1006 48 10000 0.89 265 09:44 06.07.2021
6461 Smoke 20 1007 48 10000 0.89 252 08:36 06.07.2021
6462 Smoke 20 1007 50 10000 4.63 260 07:39 06.07.2021
6463 Clouds 24 1010 45 10000 0.45 234 01:57 06.07.2021
6464 Clouds 24 1011 41 10000 3.09 160 23:57 05.07.2021
6465 Haze 22 1012 47 6437 1.54 120 21:58 05.07.2021
6466 Smoke 14 1016 65 10000 1.54 70 17:21 05.07.2021
6467 Clear 18 1017 56 10000 1.54 10 09:22 05.07.2021
6468 Clouds 22 1018 41 10000 0.65 299 05:58 05.07.2021
6469 Clouds 22 1018 40 10000 2.57 20 05:40 05.07.2021
6470 Clouds 20 1020 49 10000 0 0 00:22 05.07.2021
6471 Clear 17 1022 54 10000 0.45 195 20:53 04.07.2021
6472 Clear 12 1022 74 10000 1.54 70 17:35 04.07.2021
6473 Clear 10 1020 77 10000 1.54 70 14:40 04.07.2021
6474 Clouds 14 1019 61 10000 2.57 280 10:47 04.07.2021
6475 Clear 18 1018 44 10000 2.57 310 07:24 04.07.2021
6476 Clouds 20 1017 50 10000 3.09 0 23:26 03.07.2021
6477 Clouds 18 1018 55 10000 0.89 255 21:18 03.07.2021
6478 Clouds 18 1013 43 10000 0.89 267 12:51 03.07.2021
6479 Clouds 20 1012 42 10000 3.6 250 11:52 03.07.2021
6480 Clouds 21 1010 43 10000 0.89 221 09:27 03.07.2021
6481 Clouds 22 1009 41 10000 5.14 250 08:45 03.07.2021
6482 Smoke 27 1008 32 9656 1.54 180 22:55 02.07.2021
6483 Clear 23 1010 45 10000 2.07 41 08:59 02.07.2021
6484 Clear 28 1009 29 10000 2.06 90 07:28 02.07.2021
6485 Clear 29 1011 26 10000 0 0 02:28 02.07.2021
6486 Smoke 25 1014 37 9656 1.54 140 22:31 01.07.2021
6487 Smoke 24 1014 43 8047 1.54 110 21:35 01.07.2021
6488 Smoke 22 1015 48 9656 2.57 110 20:22 01.07.2021
6489 Smoke 19 1015 54 9656 2.57 80 19:20 01.07.2021
6490 Clear 18 1015 61 10000 2.06 80 18:47 01.07.2021
6491 Clear 16 1015 64 10000 1.54 80 17:41 01.07.2021
6492 Clear 14 1015 70 10000 2.06 100 16:28 01.07.2021
6493 Clear 11 1015 78 10000 2.06 70 15:24 01.07.2021
6494 Clear 12 1015 78 10000 2.06 100 14:19 01.07.2021
6495 Clear 18 1014 61 10000 0 0 09:55 01.07.2021
6496 Clear 18 1014 61 10000 0 0 09:55 01.07.2021
6497 Clouds 22 1016 46 10000 0.45 333 03:58 01.07.2021
6498 Clear 20 1017 50 10000 5.66 250 23:18 30.06.2021
6499 Clouds 19 1017 53 10000 2.24 246 21:59 30.06.2021
6500 Clear 18 1017 54 10000 0.45 98 21:20 30.06.2021
6501 Clear 17 1018 59 10000 1.79 240 20:24 30.06.2021
6502 Clouds 12 1017 76 10000 0 0 17:19 30.06.2021
6503 Clouds 12 1016 79 10000 0 0 14:22 30.06.2021
6504 Clouds 15 1015 69 10000 3.09 210 10:45 30.06.2021
6505 Clouds 18 1015 54 10000 0.45 217 02:52 30.06.2021
6506 Clouds 18 1015 53 10000 1.79 252 20:34 29.06.2021
6507 Clouds 14 1015 75 10000 0.45 246 17:53 29.06.2021
6508 Clouds 13 1015 76 10000 2.06 260 17:29 29.06.2021
6509 Clouds 12 1014 80 10000 2.57 230 15:52 29.06.2021
6510 Clouds 12 1014 79 10000 0 0 14:55 29.06.2021
6511 Clouds 13 1014 74 10000 1.54 220 13:27 29.06.2021
6512 Clouds 18 1012 55 10000 3.6 270 08:46 29.06.2021
6513 Clouds 19 1016 51 10000 3.09 200 23:55 28.06.2021
6514 Clouds 18 1016 56 10000 0.89 217 21:32 28.06.2021
6515 Clouds 16 1017 64 10000 0.45 236 19:35 28.06.2021
6516 Clouds 13 1017 72 10000 2.06 110 17:21 28.06.2021
6517 Clouds 11 1018 77 10000 1.54 360 15:21 28.06.2021
6518 Clear 11 1018 77 10000 0 0 12:57 28.06.2021
6519 Clouds 20 1019 46 10000 3.09 240 03:27 28.06.2021
6520 Clear 19 1020 53 10000 4.63 240 23:36 27.06.2021
6521 Rain 16 1020 67 10000 0.89 169 19:47 27.06.2021
6522 Rain 15 1019 69 10000 0.45 175 18:57 27.06.2021
6523 Clouds 12 1018 73 10000 2.06 240 15:57 27.06.2021
6524 Clouds 13 1016 69 10000 3.6 220 12:35 27.06.2021
6525 Clouds 21 1013 47 10000 3.09 250 05:25 27.06.2021
6526 Clouds 18 1014 51 10000 1.79 221 22:46 26.06.2021
6527 Clouds 18 1013 56 10000 1.34 225 20:58 26.06.2021
6528 Clear 18 1013 53 10000 3.09 270 20:39 26.06.2021
6529 Clouds 15 1013 65 10000 0 0 17:46 26.06.2021
6530 Clouds 12 1014 71 10000 1.54 50 14:58 26.06.2021
6531 Clouds 13 1013 69 10000 0 0 12:27 26.06.2021
6532 Clouds 13 1013 69 10000 0 0 12:27 26.06.2021
6533 Clear 21 1010 44 10000 3.09 240 07:53 26.06.2021
6534 Clouds 21 1009 45 10000 0 0 01:24 26.06.2021
6535 Clouds 18 1009 57 10000 2.57 160 20:39 25.06.2021
6536 Clouds 17 1009 60 10000 2.06 160 19:31 25.06.2021
6537 Clouds 15 1008 66 10000 2.06 290 17:45 25.06.2021
6538 Clouds 14 1007 70 10000 2.57 270 16:49 25.06.2021
6539 Clear 14 1005 68 10000 5.14 230 14:47 25.06.2021
6540 Rain 15 1001 70 10000 2.06 320 11:19 25.06.2021
6541 Rain 20 997 62 9656 5.66 280 08:22 25.06.2021
6542 Clouds 23 996 43 10000 0.89 227 07:20 25.06.2021
6543 Clear 26 995 34 10000 6.17 220 03:46 25.06.2021
6544 Clear 23 995 42 10000 5.66 260 22:20 24.06.2021
6545 Clear 22 995 43 10000 2.68 238 21:40 24.06.2021
6546 Clear 22 994 43 10000 0.45 221 20:40 24.06.2021
6547 Clear 19 993 47 10000 1.79 246 18:45 24.06.2021
6548 Clouds 17 991 60 10000 0 0 15:29 24.06.2021
6549 Rain 17 991 61 9656 0 0 14:55 24.06.2021
6550 Clouds 17 992 59 10000 0 0 14:25 24.06.2021
6551 Clear 18 991 54 10000 0 0 11:20 24.06.2021
6552 Clear 21 991 41 10000 2.06 80 09:30 24.06.2021
6553 Clear 23 992 36 10000 2.57 90 08:22 24.06.2021
6554 Clear 28 995 29 10000 0.45 36 02:50 24.06.2021
6555 Clear 26 998 39 10000 0.45 78 23:20 23.06.2021
6556 Clear 24 999 46 10000 1.54 50 21:44 23.06.2021
6557 Clear 22 1001 53 10000 3.6 90 20:38 23.06.2021
6558 Clear 18 1002 67 10000 2.57 100 18:35 23.06.2021
6559 Clear 17 1002 73 10000 1.54 100 17:32 23.06.2021
6560 Clouds 15 1002 77 10000 1.54 50 16:34 23.06.2021
6561 Clouds 14 1004 81 10000 1.05 64 12:58 23.06.2021
6562 Clouds 15 1004 79 10000 0.61 81 11:59 23.06.2021
6563 Clouds 19 1003 67 10000 0.89 288 09:55 23.06.2021
6564 Clouds 21 1004 60 10000 0 0 08:49 23.06.2021
6565 Clouds 22 1004 58 10000 0 0 07:52 23.06.2021
6566 Clouds 23 1005 56 10000 1.42 172 06:58 23.06.2021
6567 Clouds 25 1006 42 10000 0.89 225 04:34 23.06.2021
6568 Clouds 25 1007 43 10000 4.63 150 00:44 23.06.2021
6569 Clouds 24 1008 44 10000 1.54 350 23:56 22.06.2021
6570 Clouds 23 1008 48 10000 3.6 150 22:46 22.06.2021
6571 Clouds 23 1008 51 10000 3.6 150 22:24 22.06.2021
6572 Clear 22 1008 54 10000 2.57 120 21:39 22.06.2021
6573 Clear 19 1009 66 10000 2.06 80 19:45 22.06.2021
6574 Clouds 18 1010 72 10000 1.54 80 18:54 22.06.2021
6575 Clouds 17 1009 77 10000 1.54 80 18:24 22.06.2021
6576 Clouds 15 1009 85 10000 1.54 100 17:22 22.06.2021
6577 Clear 15 1009 82 10000 0 0 16:31 22.06.2021
6578 Clear 13 1009 89 10000 1.54 60 14:38 22.06.2021
6579 Clouds 13 1009 88 10000 1.54 70 13:50 22.06.2021
6580 Clear 14 1009 88 10000 2.06 60 12:54 22.06.2021
6581 Clouds 15 1009 86 10000 0 0 11:20 22.06.2021
6582 Clouds 16 1008 85 10000 0.45 271 09:57 22.06.2021
6583 Rain 18 1008 78 10000 2.06 20 06:46 22.06.2021
6584 Rain 20 1006 69 10000 3.6 30 00:44 22.06.2021
6585 Clouds 21 1005 52 10000 2.57 220 23:23 21.06.2021
6586 Clouds 21 1007 50 10000 2.06 220 22:21 21.06.2021
6587 Clouds 20 1007 52 10000 1.54 270 21:18 21.06.2021
6588 Clouds 19 1005 65 10000 0 0 20:30 21.06.2021
6589 Clouds 18 1006 69 10000 0 0 19:51 21.06.2021
6590 Clouds 17 1006 76 10000 0 0 18:33 21.06.2021
6591 Clouds 16 1006 78 10000 0 0 17:24 21.06.2021
6592 Clouds 15 1006 80 10000 0 0 16:40 21.06.2021
6593 Clouds 15 1006 81 10000 0 0 16:20 21.06.2021
6594 Clouds 14 1006 84 10000 0 0 15:42 21.06.2021
6595 Rain 14 1005 82 10000 0 0 13:59 21.06.2021
6596 Rain 15 1006 80 9656 1.54 60 13:32 21.06.2021
6597 Rain 15 1006 75 9656 0 0 12:36 21.06.2021
6598 Clouds 17 1005 66 10000 3.09 80 11:25 21.06.2021
6599 Clouds 17 1005 64 10000 1.54 130 10:24 21.06.2021
6600 Clouds 19 1005 56 10000 3.09 240 09:18 21.06.2021
6601 Clouds 20 1005 55 10000 1.54 230 08:20 21.06.2021
6602 Clear 22 1005 47 10000 0 0 06:44 21.06.2021
6603 Clouds 21 1009 47 10000 0.45 0 23:58 20.06.2021
6604 Clouds 22 1010 46 10000 0 0 23:34 20.06.2021
6605 Clouds 21 1010 52 10000 0.45 99 22:57 20.06.2021
6606 Clouds 20 1011 55 10000 1.35 95 21:55 20.06.2021
6607 Clouds 18 1012 66 10000 2.57 90 20:28 20.06.2021
6608 Clear 17 1012 73 10000 2.06 90 19:40 20.06.2021
6609 Clear 16 1012 76 10000 2.06 90 19:20 20.06.2021
6610 Clear 13 1013 91 10000 2.57 80 17:47 20.06.2021
6611 Mist 12 1013 93 9656 2.06 70 16:45 20.06.2021
6612 Fog 11 1013 94 10000 2.06 80 15:48 20.06.2021
6613 Mist 11 1013 93 4426 1.54 70 15:27 20.06.2021
6614 Mist 12 1013 94 1006 2.06 70 14:43 20.06.2021
6615 Clouds 12 1013 93 10000 1.54 100 13:32 20.06.2021
6616 Clouds 13 1013 94 10000 1.54 50 12:35 20.06.2021
6617 Clouds 13 1012 93 10000 1.54 90 11:45 20.06.2021
6618 Clouds 13 1012 93 10000 0.42 216 09:55 20.06.2021
6619 Clouds 14 1012 93 10000 1.54 100 09:36 20.06.2021
6620 Rain 19 1011 67 10000 3.6 240 04:32 20.06.2021
6621 Rain 20 1013 65 10000 1.54 150 23:36 19.06.2021
6622 Clouds 19 1013 69 10000 2.17 257 22:58 19.06.2021
6623 Clouds 17 1014 74 10000 2.06 60 21:51 19.06.2021
6624 Rain 16 1013 83 10000 2.57 50 20:55 19.06.2021
6625 Rain 14 1014 81 10000 2.06 50 18:52 19.06.2021
6626 Rain 14 1014 78 10000 2.57 60 18:21 19.06.2021
6627 Rain 14 1014 79 10000 3.09 70 17:22 19.06.2021
6628 Clear 14 1013 79 10000 2.57 60 16:20 19.06.2021
6629 Clouds 13 1013 78 10000 0 0 14:42 19.06.2021
6630 Clouds 13 1013 79 10000 2.06 70 12:52 19.06.2021
6631 Clear 15 1013 74 10000 0 0 11:54 19.06.2021
6632 Clear 16 1013 67 10000 0 0 10:46 19.06.2021
6633 Rain 17 1013 64 10000 0 0 10:25 19.06.2021
6634 Rain 18 1012 61 10000 2.06 50 09:24 19.06.2021
6635 Rain 20 1012 55 10000 3.09 120 07:49 19.06.2021
6636 Clear 23 1012 48 10000 0.45 227 06:29 19.06.2021
6637 Clear 23 1012 48 10000 0.45 227 06:29 19.06.2021
6638 Clear 23 1012 48 10000 0.45 227 06:29 19.06.2021
6639 Clear 23 1014 42 10000 2.06 260 02:22 19.06.2021
6640 Clear 22 1015 45 10000 2.57 300 00:19 19.06.2021
6641 Clear 21 1015 47 10000 0.45 219 23:33 18.06.2021
6642 Clear 20 1016 51 10000 0.45 227 22:50 18.06.2021
6643 Clear 19 1016 54 10000 0.45 227 22:25 18.06.2021
6644 Clear 19 1016 58 10000 0 0 21:43 18.06.2021
6645 Clear 18 1016 59 10000 0.45 221 21:21 18.06.2021
6646 Clear 17 1017 64 10000 0 0 20:18 18.06.2021
6647 Clear 13 1018 80 10000 1.54 60 18:29 18.06.2021
6648 Clear 12 1018 84 10000 0 0 17:39 18.06.2021
6649 Clear 11 1017 87 10000 0 0 16:33 18.06.2021
6650 Clear 10 1017 90 10000 1.54 60 15:46 18.06.2021
6651 Clear 9 1018 90 10000 1.54 70 14:34 18.06.2021
6652 Clear 9 1018 90 10000 1.54 80 13:41 18.06.2021
6653 Clear 10 1018 88 10000 0 0 12:48 18.06.2021
6654 Clear 10 1018 88 10000 0 0 12:29 18.06.2021
6655 Clear 12 1018 86 10000 1.54 70 11:30 18.06.2021
6656 Clear 13 1017 84 10000 0 0 10:52 18.06.2021
6657 Clear 13 1017 83 10000 0 0 10:23 18.06.2021
6658 Clear 14 1017 80 10000 0 0 09:49 18.06.2021
6659 Clear 15 1017 76 10000 0 0 08:51 18.06.2021
6660 Clear 16 1017 72 10000 0 0 08:30 18.06.2021
6661 Clouds 17 1017 68 10000 2.06 350 07:33 18.06.2021
6662 Clouds 16 1018 77 10000 1.34 231 03:23 18.06.2021
6663 Rain 12 1018 86 10000 0.89 240 00:32 18.06.2021
6664 Rain 13 1017 87 10000 1.79 226 23:22 17.06.2021
6665 Rain 14 1017 88 10000 0.45 219 22:26 17.06.2021
6666 Rain 14 1017 88 10000 0.45 244 21:50 17.06.2021
6667 Rain 14 1016 93 10000 2.06 200 20:58 17.06.2021
6668 Rain 14 1016 94 10000 1.54 270 20:30 17.06.2021
6669 Rain 13 1016 93 10000 0.45 265 19:52 17.06.2021
6670 Rain 12 1016 95 6437 0 0 18:51 17.06.2021
6671 Rain 13 1016 93 10000 2.57 60 17:49 17.06.2021
6672 Rain 13 1016 92 10000 1.54 140 17:21 17.06.2021
6673 Rain 13 1014 89 10000 3.09 100 16:28 17.06.2021
6674 Rain 13 1014 89 10000 0.45 225 15:51 17.06.2021
6675 Clouds 13 1014 89 10000 4.12 250 14:28 17.06.2021
6676 Clouds 12 1015 90 10000 0 0 13:20 17.06.2021
6677 Clear 13 1015 88 10000 1.54 350 12:31 17.06.2021
6678 Clear 13 1015 88 10000 1.54 350 12:31 17.06.2021
6679 Clouds 13 1015 89 10000 0 0 11:23 17.06.2021
6680 Clouds 14 1014 86 10000 1.54 90 10:42 17.06.2021
6681 Clouds 14 1014 85 10000 1.54 90 10:23 17.06.2021
6682 Clouds 15 1014 83 10000 1.54 10 09:40 17.06.2021
6683 Rain 15 1014 87 10000 2.06 90 08:33 17.06.2021
6684 Rain 15 1014 88 10000 2.57 270 07:49 17.06.2021
6685 Rain 21 1012 53 10000 3.09 40 04:36 17.06.2021
6686 Clouds 27 1011 41 10000 0.45 261 01:51 17.06.2021
6687 Clouds 25 1013 42 10000 1.34 265 23:39 16.06.2021
6688 Clouds 25 1013 39 10000 0.89 272 23:20 16.06.2021
6689 Clouds 24 1013 43 10000 0 0 22:23 16.06.2021
6690 Clouds 21 1012 54 10000 1.54 330 21:41 16.06.2021
6691 Clouds 20 1013 49 10000 1.54 330 21:18 16.06.2021
6692 Clouds 17 1014 57 10000 1.54 340 20:39 16.06.2021
6693 Clouds 17 1014 65 10000 1.54 30 19:51 16.06.2021
6694 Clouds 17 1014 65 10000 1.54 30 19:32 16.06.2021
6695 Clouds 17 1013 63 10000 3.09 100 18:52 16.06.2021
6696 Clouds 17 1013 62 10000 3.09 100 18:24 16.06.2021
6697 Clear 16 1012 64 10000 1.54 80 17:36 16.06.2021
6698 Clear 16 1011 63 10000 1.54 80 17:18 16.06.2021
6699 Clear 15 1011 66 10000 2.57 70 16:42 16.06.2021
6700 Clear 14 1010 69 10000 0 0 15:50 16.06.2021
6701 Clear 14 1010 72 10000 0 0 15:28 16.06.2021
6702 Clear 14 1010 69 10000 0 0 14:46 16.06.2021
6703 Clear 14 1010 70 10000 0 0 14:28 16.06.2021
6704 Clear 15 1010 68 10000 1.54 100 13:50 16.06.2021
6705 Clear 14 1011 68 10000 1.54 100 13:22 16.06.2021
6706 Clear 16 1010 62 10000 0 0 12:41 16.06.2021
6707 Clear 16 1010 61 10000 0 0 12:21 16.06.2021
6708 Clear 18 1009 54 10000 0 0 11:31 16.06.2021
6709 Clear 18 1009 61 10000 0 0 10:45 16.06.2021
6710 Clear 20 1009 49 10000 0 0 09:50 16.06.2021
6711 Clear 21 1008 46 10000 0 0 09:28 16.06.2021
6712 Clear 23 1008 40 10000 0 0 08:24 16.06.2021
6713 Clear 25 1007 36 10000 0 0 07:43 16.06.2021
6714 Clear 27 1009 30 10000 0 0 03:19 16.06.2021
6715 Clear 27 1009 31 10000 1.34 251 01:48 16.06.2021
6716 Clear 26 1010 35 10000 0.89 196 23:44 15.06.2021
6717 Clear 25 1010 37 10000 1.54 210 23:21 15.06.2021
6718 Clear 25 1010 38 10000 0 0 22:41 15.06.2021
6719 Clear 24 1010 39 10000 0 0 22:21 15.06.2021
6720 Clear 23 1011 41 10000 0.89 268 20:56 15.06.2021
6721 Clouds 21 1011 49 10000 0.89 115 19:59 15.06.2021
6722 Clear 19 1011 51 10000 1.54 100 19:28 15.06.2021
6723 Clear 17 1010 57 10000 3.09 60 17:47 15.06.2021
6724 Clear 15 1009 62 10000 3.6 70 16:43 15.06.2021
6725 Clear 14 1010 65 10000 2.57 70 15:42 15.06.2021
6726 Clouds 13 1010 69 10000<